<?xml version='1.0' encoding='UTF-8'?><gpx version="1.1" creator="JPX - https://github.com/jenetics/jpx" xmlns="http://www.topografix.com/GPX/1/1"><trk><trkseg><trkpt lat="45.6826947" lon="13.784522"><ele>339.0</ele><time>2026-05-03T09:50:34.572Z</time></trkpt><trkpt lat="45.6827341" lon="13.7844072"><ele>339.0</ele><time>2026-05-03T09:50:36.572Z</time></trkpt><trkpt lat="45.682787" lon="13.7842853"><ele>339.0</ele><time>2026-05-03T09:50:38.572Z</time></trkpt><trkpt lat="45.6828485" lon="13.784142"><ele>339.0</ele><time>2026-05-03T09:50:40.571Z</time></trkpt><trkpt lat="45.6828837" lon="13.7840649"><ele>339.0</ele><time>2026-05-03T09:50:41.572Z</time></trkpt><trkpt lat="45.6829197" lon="13.783984"><ele>339.0</ele><time>2026-05-03T09:50:42.572Z</time></trkpt><trkpt lat="45.682987" lon="13.7838453"><ele>338.6666666666667</ele><time>2026-05-03T09:50:44.572Z</time></trkpt><trkpt lat="45.6830624" lon="13.7837322"><ele>338.3333333333333</ele><time>2026-05-03T09:50:46.571Z</time></trkpt><trkpt lat="45.683114" lon="13.7836752"><ele>338.0</ele><time>2026-05-03T09:50:47.572Z</time></trkpt><trkpt lat="45.6831761" lon="13.7836381"><ele>337.66666666666663</ele><time>2026-05-03T09:50:48.572Z</time></trkpt><trkpt lat="45.6832531" lon="13.7836131"><ele>337.3333333333333</ele><time>2026-05-03T09:50:49.572Z</time></trkpt><trkpt lat="45.6833359" lon="13.7836106"><ele>337.0</ele><time>2026-05-03T09:50:50.572Z</time></trkpt><trkpt lat="45.6834208" lon="13.7836254"><ele>337.0</ele><time>2026-05-03T09:50:51.572Z</time></trkpt><trkpt lat="45.6834881" lon="13.7836998"><ele>337.0</ele><time>2026-05-03T09:50:52.571Z</time></trkpt><trkpt lat="45.6835574" lon="13.7837475"><ele>337.0</ele><time>2026-05-03T09:50:53.572Z</time></trkpt><trkpt lat="45.6836327" lon="13.7838075"><ele>337.0</ele><time>2026-05-03T09:50:54.572Z</time></trkpt><trkpt lat="45.6837034" lon="13.7838617"><ele>337.0</ele><time>2026-05-03T09:50:55.571Z</time></trkpt><trkpt lat="45.6837742" lon="13.7839092"><ele>337.0</ele><time>2026-05-03T09:50:56.572Z</time></trkpt><trkpt lat="45.6838473" lon="13.7839577"><ele>337.0</ele><time>2026-05-03T09:50:57.571Z</time></trkpt><trkpt lat="45.6839183" lon="13.7840171"><ele>337.0</ele><time>2026-05-03T09:50:58.572Z</time></trkpt><trkpt lat="45.6839854" lon="13.7840771"><ele>337.0</ele><time>2026-05-03T09:50:59.571Z</time></trkpt><trkpt lat="45.684058" lon="13.7841239"><ele>337.0</ele><time>2026-05-03T09:51:00.571Z</time></trkpt><trkpt lat="45.6841374" lon="13.7841984"><ele>337.0</ele><time>2026-05-03T09:51:01.572Z</time></trkpt><trkpt lat="45.6842181" lon="13.7842739"><ele>337.0</ele><time>2026-05-03T09:51:02.572Z</time></trkpt><trkpt lat="45.6842921" lon="13.7843418"><ele>337.0</ele><time>2026-05-03T09:51:03.572Z</time></trkpt><trkpt lat="45.6843668" lon="13.784406"><ele>337.0</ele><time>2026-05-03T09:51:04.572Z</time></trkpt><trkpt lat="45.6844344" lon="13.7844858"><ele>337.0</ele><time>2026-05-03T09:51:05.572Z</time></trkpt><trkpt lat="45.6845126" lon="13.7845701"><ele>337.0</ele><time>2026-05-03T09:51:06.572Z</time></trkpt><trkpt lat="45.6845774" lon="13.7846429"><ele>337.0</ele><time>2026-05-03T09:51:07.572Z</time></trkpt><trkpt lat="45.6846499" lon="13.7847373"><ele>337.0</ele><time>2026-05-03T09:51:08.571Z</time></trkpt><trkpt lat="45.6847169" lon="13.7848154"><ele>337.0</ele><time>2026-05-03T09:51:09.572Z</time></trkpt><trkpt lat="45.6847968" lon="13.7848915"><ele>337.0</ele><time>2026-05-03T09:51:10.571Z</time></trkpt><trkpt lat="45.6848604" lon="13.7849741"><ele>337.0</ele><time>2026-05-03T09:51:11.571Z</time></trkpt><trkpt lat="45.684931" lon="13.7850522"><ele>337.0</ele><time>2026-05-03T09:51:12.572Z</time></trkpt><trkpt lat="45.6849943" lon="13.7851422"><ele>337.0</ele><time>2026-05-03T09:51:13.571Z</time></trkpt><trkpt lat="45.6850677" lon="13.785226"><ele>337.0</ele><time>2026-05-03T09:51:14.571Z</time></trkpt><trkpt lat="45.685134" lon="13.7853231"><ele>337.0</ele><time>2026-05-03T09:51:15.572Z</time></trkpt><trkpt lat="45.6852005" lon="13.7854157"><ele>337.0</ele><time>2026-05-03T09:51:16.571Z</time></trkpt><trkpt lat="45.6852557" lon="13.7855003"><ele>337.0</ele><time>2026-05-03T09:51:17.572Z</time></trkpt><trkpt lat="45.6852892" lon="13.7856032"><ele>337.0</ele><time>2026-05-03T09:51:18.572Z</time></trkpt><trkpt lat="45.6853589" lon="13.7857024"><ele>337.0</ele><time>2026-05-03T09:51:19.571Z</time></trkpt><trkpt lat="45.6854178" lon="13.785797"><ele>336.20000000000005</ele><time>2026-05-03T09:51:20.572Z</time></trkpt><trkpt lat="45.685493" lon="13.7858819"><ele>335.4</ele><time>2026-05-03T09:51:21.572Z</time></trkpt><trkpt lat="45.6855475" lon="13.7859941"><ele>334.6</ele><time>2026-05-03T09:51:22.571Z</time></trkpt><trkpt lat="45.6856097" lon="13.7860886"><ele>333.79999999999995</ele><time>2026-05-03T09:51:23.571Z</time></trkpt><trkpt lat="45.6856729" lon="13.786172"><ele>333.0</ele><time>2026-05-03T09:51:24.572Z</time></trkpt><trkpt lat="45.6857362" lon="13.7862659"><ele>332.6666666666667</ele><time>2026-05-03T09:51:25.571Z</time></trkpt><trkpt lat="45.6858021" lon="13.7863444"><ele>332.3333333333333</ele><time>2026-05-03T09:51:26.572Z</time></trkpt><trkpt lat="45.6858642" lon="13.786433"><ele>332.0</ele><time>2026-05-03T09:51:27.571Z</time></trkpt><trkpt lat="45.6859263" lon="13.7865288"><ele>331.66666666666663</ele><time>2026-05-03T09:51:28.572Z</time></trkpt><trkpt lat="45.6859887" lon="13.7866211"><ele>331.3333333333333</ele><time>2026-05-03T09:51:29.571Z</time></trkpt><trkpt lat="45.6860562" lon="13.786708"><ele>331.0</ele><time>2026-05-03T09:51:30.572Z</time></trkpt><trkpt lat="45.686122" lon="13.7867899"><ele>330.5</ele><time>2026-05-03T09:51:31.571Z</time></trkpt><trkpt lat="45.6861765" lon="13.7868843"><ele>330.0</ele><time>2026-05-03T09:51:32.572Z</time></trkpt><trkpt lat="45.6862382" lon="13.786974"><ele>329.5</ele><time>2026-05-03T09:51:33.571Z</time></trkpt><trkpt lat="45.6863019" lon="13.787061"><ele>329.0</ele><time>2026-05-03T09:51:34.572Z</time></trkpt><trkpt lat="45.6863654" lon="13.7871454"><ele>328.5</ele><time>2026-05-03T09:51:35.572Z</time></trkpt><trkpt lat="45.6864357" lon="13.7872464"><ele>328.0</ele><time>2026-05-03T09:51:36.571Z</time></trkpt><trkpt lat="45.6864982" lon="13.7873296"><ele>328.0</ele><time>2026-05-03T09:51:37.572Z</time></trkpt><trkpt lat="45.6865613" lon="13.7874204"><ele>328.0</ele><time>2026-05-03T09:51:38.572Z</time></trkpt><trkpt lat="45.6866264" lon="13.7875111"><ele>328.0</ele><time>2026-05-03T09:51:39.571Z</time></trkpt><trkpt lat="45.6866841" lon="13.7875838"><ele>328.0</ele><time>2026-05-03T09:51:40.572Z</time></trkpt><trkpt lat="45.6867451" lon="13.7876657"><ele>328.0</ele><time>2026-05-03T09:51:41.572Z</time></trkpt><trkpt lat="45.6867983" lon="13.7877381"><ele>328.0</ele><time>2026-05-03T09:51:42.571Z</time></trkpt><trkpt lat="45.6868636" lon="13.7878175"><ele>327.5</ele><time>2026-05-03T09:51:43.571Z</time></trkpt><trkpt lat="45.6869321" lon="13.7878703"><ele>327.0</ele><time>2026-05-03T09:51:44.572Z</time></trkpt><trkpt lat="45.6869947" lon="13.7879404"><ele>326.5</ele><time>2026-05-03T09:51:45.571Z</time></trkpt><trkpt lat="45.687063" lon="13.7880036"><ele>326.0</ele><time>2026-05-03T09:51:46.572Z</time></trkpt><trkpt lat="45.6871316" lon="13.7880617"><ele>325.5</ele><time>2026-05-03T09:51:47.571Z</time></trkpt><trkpt lat="45.6872015" lon="13.7881124"><ele>325.0</ele><time>2026-05-03T09:51:48.571Z</time></trkpt><trkpt lat="45.6872602" lon="13.78817"><ele>325.0</ele><time>2026-05-03T09:51:49.572Z</time></trkpt><trkpt lat="45.6873146" lon="13.7882286"><ele>325.0</ele><time>2026-05-03T09:51:50.571Z</time></trkpt><trkpt lat="45.6874233" lon="13.7883352"><ele>325.0</ele><time>2026-05-03T09:51:52.572Z</time></trkpt><trkpt lat="45.6875261" lon="13.7884297"><ele>325.0</ele><time>2026-05-03T09:51:54.572Z</time></trkpt><trkpt lat="45.6876078" lon="13.7884718"><ele>325.0</ele><time>2026-05-03T09:51:56.571Z</time></trkpt><trkpt lat="45.6877244" lon="13.7886256"><ele>325.0</ele><time>2026-05-03T09:52:00.571Z</time></trkpt><trkpt lat="45.68778" lon="13.7886977"><ele>325.0</ele><time>2026-05-03T09:52:02.564Z</time></trkpt><trkpt lat="45.6878637" lon="13.7886562"><ele>325.0</ele><time>2026-05-03T09:52:05.572Z</time></trkpt><trkpt lat="45.687859" lon="13.7885591"><ele>325.0</ele><time>2026-05-03T09:52:07.572Z</time></trkpt><trkpt lat="45.6878067" lon="13.788451"><ele>325.0</ele><time>2026-05-03T09:52:09.572Z</time></trkpt><trkpt lat="45.6877645" lon="13.7883148"><ele>325.0</ele><time>2026-05-03T09:52:11.571Z</time></trkpt><trkpt lat="45.6877365" lon="13.7881596"><ele>325.0</ele><time>2026-05-03T09:52:13.572Z</time></trkpt><trkpt lat="45.6877045" lon="13.7879812"><ele>325.0</ele><time>2026-05-03T09:52:15.572Z</time></trkpt><trkpt lat="45.6876883" lon="13.7878907"><ele>325.0</ele><time>2026-05-03T09:52:16.572Z</time></trkpt><trkpt lat="45.6876688" lon="13.7878005"><ele>325.0</ele><time>2026-05-03T09:52:17.572Z</time></trkpt><trkpt lat="45.6876235" lon="13.7876325"><ele>325.0</ele><time>2026-05-03T09:52:19.571Z</time></trkpt><trkpt lat="45.6875872" lon="13.787556"><ele>325.2</ele><time>2026-05-03T09:52:20.572Z</time></trkpt><trkpt lat="45.6875636" lon="13.787388"><ele>325.4</ele><time>2026-05-03T09:52:22.571Z</time></trkpt><trkpt lat="45.6875952" lon="13.7872246"><ele>325.6</ele><time>2026-05-03T09:52:24.571Z</time></trkpt><trkpt lat="45.6876259" lon="13.7870533"><ele>325.8</ele><time>2026-05-03T09:52:26.571Z</time></trkpt><trkpt lat="45.6876552" lon="13.7869727"><ele>326.0</ele><time>2026-05-03T09:52:27.572Z</time></trkpt><trkpt lat="45.6876698" lon="13.786882"><ele>326.0</ele><time>2026-05-03T09:52:28.571Z</time></trkpt><trkpt lat="45.6876905" lon="13.7867931"><ele>326.0</ele><time>2026-05-03T09:52:29.572Z</time></trkpt><trkpt lat="45.6876975" lon="13.7866845"><ele>326.0</ele><time>2026-05-03T09:52:30.571Z</time></trkpt><trkpt lat="45.6876809" lon="13.7865828"><ele>326.0</ele><time>2026-05-03T09:52:31.571Z</time></trkpt><trkpt lat="45.6876694" lon="13.7864852"><ele>326.0</ele><time>2026-05-03T09:52:32.571Z</time></trkpt><trkpt lat="45.6876724" lon="13.7863788"><ele>326.0</ele><time>2026-05-03T09:52:33.571Z</time></trkpt><trkpt lat="45.6876857" lon="13.7862899"><ele>326.0</ele><time>2026-05-03T09:52:34.571Z</time></trkpt><trkpt lat="45.6876974" lon="13.7861997"><ele>326.0</ele><time>2026-05-03T09:52:35.571Z</time></trkpt><trkpt lat="45.6877058" lon="13.7860975"><ele>326.0</ele><time>2026-05-03T09:52:36.572Z</time></trkpt><trkpt lat="45.6877144" lon="13.7860032"><ele>326.0</ele><time>2026-05-03T09:52:37.571Z</time></trkpt><trkpt lat="45.6877335" lon="13.7859042"><ele>326.0</ele><time>2026-05-03T09:52:38.572Z</time></trkpt><trkpt lat="45.6877525" lon="13.7857981"><ele>326.0</ele><time>2026-05-03T09:52:39.572Z</time></trkpt><trkpt lat="45.6877653" lon="13.7856926"><ele>326.0</ele><time>2026-05-03T09:52:40.571Z</time></trkpt><trkpt lat="45.6877881" lon="13.7855354"><ele>325.4</ele><time>2026-05-03T09:52:42.572Z</time></trkpt><trkpt lat="45.6878069" lon="13.7854407"><ele>324.8</ele><time>2026-05-03T09:52:44.571Z</time></trkpt><trkpt lat="45.687847" lon="13.7853277"><ele>324.2</ele><time>2026-05-03T09:52:48.572Z</time></trkpt><trkpt lat="45.6879137" lon="13.7851991"><ele>323.59999999999997</ele><time>2026-05-03T09:52:51.572Z</time></trkpt><trkpt lat="45.6879922" lon="13.7850706"><ele>323.0</ele><time>2026-05-03T09:52:53.571Z</time></trkpt><trkpt lat="45.6880186" lon="13.7849035"><ele>323.0</ele><time>2026-05-03T09:52:55.572Z</time></trkpt><trkpt lat="45.6880344" lon="13.7848104"><ele>323.0</ele><time>2026-05-03T09:52:56.571Z</time></trkpt><trkpt lat="45.6880487" lon="13.7846483"><ele>323.0</ele><time>2026-05-03T09:52:58.572Z</time></trkpt><trkpt lat="45.6880515" lon="13.7844962"><ele>323.0</ele><time>2026-05-03T09:53:00.571Z</time></trkpt><trkpt lat="45.6880682" lon="13.7843664"><ele>323.0</ele><time>2026-05-03T09:53:02.571Z</time></trkpt><trkpt lat="45.6880834" lon="13.7842418"><ele>323.0</ele><time>2026-05-03T09:53:04.571Z</time></trkpt><trkpt lat="45.6881297" lon="13.7841713"><ele>323.0</ele><time>2026-05-03T09:53:06.572Z</time></trkpt><trkpt lat="45.6882016" lon="13.7841576"><ele>323.0</ele><time>2026-05-03T09:53:08.571Z</time></trkpt><trkpt lat="45.6881187" lon="13.7841418"><ele>323.0</ele><time>2026-05-03T09:53:16.571Z</time></trkpt><trkpt lat="45.6880809" lon="13.7842634"><ele>323.0</ele><time>2026-05-03T09:53:18.572Z</time></trkpt><trkpt lat="45.6880764" lon="13.7844267"><ele>323.0</ele><time>2026-05-03T09:53:20.571Z</time></trkpt><trkpt lat="45.6880742" lon="13.7845281"><ele>323.0</ele><time>2026-05-03T09:53:21.572Z</time></trkpt><trkpt lat="45.6880398" lon="13.7846191"><ele>323.0</ele><time>2026-05-03T09:53:22.571Z</time></trkpt><trkpt lat="45.6880335" lon="13.7847237"><ele>323.0</ele><time>2026-05-03T09:53:23.572Z</time></trkpt><trkpt lat="45.6880288" lon="13.7848304"><ele>323.0</ele><time>2026-05-03T09:53:24.572Z</time></trkpt><trkpt lat="45.688026" lon="13.784924"><ele>323.0</ele><time>2026-05-03T09:53:25.572Z</time></trkpt><trkpt lat="45.6880047" lon="13.7850176"><ele>323.0</ele><time>2026-05-03T09:53:26.572Z</time></trkpt><trkpt lat="45.6879405" lon="13.7851724"><ele>322.79999999999995</ele><time>2026-05-03T09:53:28.571Z</time></trkpt><trkpt lat="45.6879498" lon="13.7853177"><ele>322.6</ele><time>2026-05-03T09:53:30.571Z</time></trkpt><trkpt lat="45.6880379" lon="13.7853592"><ele>322.4</ele><time>2026-05-03T09:53:31.572Z</time></trkpt><trkpt lat="45.6881026" lon="13.7853531"><ele>322.20000000000005</ele><time>2026-05-03T09:53:32.571Z</time></trkpt><trkpt lat="45.6881761" lon="13.7854342"><ele>322.0</ele><time>2026-05-03T09:53:33.571Z</time></trkpt><trkpt lat="45.6882455" lon="13.7855318"><ele>322.0</ele><time>2026-05-03T09:53:34.572Z</time></trkpt><trkpt lat="45.6883198" lon="13.7856185"><ele>322.0</ele><time>2026-05-03T09:53:35.572Z</time></trkpt><trkpt lat="45.6883946" lon="13.7857066"><ele>322.0</ele><time>2026-05-03T09:53:36.572Z</time></trkpt><trkpt lat="45.6884732" lon="13.7857837"><ele>322.0</ele><time>2026-05-03T09:53:37.572Z</time></trkpt><trkpt lat="45.6885571" lon="13.7858512"><ele>322.0</ele><time>2026-05-03T09:53:38.571Z</time></trkpt><trkpt lat="45.6886534" lon="13.7858905"><ele>321.66666666666663</ele><time>2026-05-03T09:53:39.571Z</time></trkpt><trkpt lat="45.6887384" lon="13.7859519"><ele>321.3333333333333</ele><time>2026-05-03T09:53:40.572Z</time></trkpt><trkpt lat="45.6888157" lon="13.7860204"><ele>321.0</ele><time>2026-05-03T09:53:41.571Z</time></trkpt><trkpt lat="45.6888897" lon="13.786094"><ele>320.6666666666667</ele><time>2026-05-03T09:53:42.572Z</time></trkpt><trkpt lat="45.6889483" lon="13.7861754"><ele>320.33333333333337</ele><time>2026-05-03T09:53:43.572Z</time></trkpt><trkpt lat="45.6889944" lon="13.7862648"><ele>320.0</ele><time>2026-05-03T09:53:44.572Z</time></trkpt><trkpt lat="45.6890367" lon="13.7863658"><ele>320.0</ele><time>2026-05-03T09:53:45.572Z</time></trkpt><trkpt lat="45.6890336" lon="13.7864686"><ele>320.0</ele><time>2026-05-03T09:53:46.571Z</time></trkpt><trkpt lat="45.6890657" lon="13.7865805"><ele>320.0</ele><time>2026-05-03T09:53:47.572Z</time></trkpt><trkpt lat="45.6890953" lon="13.7867102"><ele>320.0</ele><time>2026-05-03T09:53:48.572Z</time></trkpt><trkpt lat="45.6891317" lon="13.7868197"><ele>320.0</ele><time>2026-05-03T09:53:49.571Z</time></trkpt><trkpt lat="45.6891692" lon="13.7869094"><ele>320.0</ele><time>2026-05-03T09:53:50.571Z</time></trkpt><trkpt lat="45.6892345" lon="13.7869763"><ele>320.2</ele><time>2026-05-03T09:53:51.571Z</time></trkpt><trkpt lat="45.6893428" lon="13.7870172"><ele>320.4</ele><time>2026-05-03T09:53:52.572Z</time></trkpt><trkpt lat="45.6894486" lon="13.7870694"><ele>320.6</ele><time>2026-05-03T09:53:53.572Z</time></trkpt><trkpt lat="45.6895275" lon="13.7871337"><ele>320.8</ele><time>2026-05-03T09:53:54.571Z</time></trkpt><trkpt lat="45.6895902" lon="13.7872027"><ele>321.0</ele><time>2026-05-03T09:53:55.572Z</time></trkpt><trkpt lat="45.6896602" lon="13.7872567"><ele>320.5</ele><time>2026-05-03T09:53:56.572Z</time></trkpt><trkpt lat="45.6897243" lon="13.787327"><ele>320.0</ele><time>2026-05-03T09:53:57.571Z</time></trkpt><trkpt lat="45.6897812" lon="13.7873998"><ele>319.5</ele><time>2026-05-03T09:53:58.571Z</time></trkpt><trkpt lat="45.6898391" lon="13.7875307"><ele>319.0</ele><time>2026-05-03T09:54:00.571Z</time></trkpt><trkpt lat="45.6899328" lon="13.7875477"><ele>318.5</ele><time>2026-05-03T09:54:23.571Z</time></trkpt><trkpt lat="45.6899984" lon="13.7875026"><ele>318.0</ele><time>2026-05-03T09:54:24.571Z</time></trkpt><trkpt lat="45.6901041" lon="13.7873904"><ele>318.0</ele><time>2026-05-03T09:54:26.571Z</time></trkpt><trkpt lat="45.690168" lon="13.7873551"><ele>318.0</ele><time>2026-05-03T09:54:27.572Z</time></trkpt><trkpt lat="45.6902448" lon="13.7873158"><ele>318.0</ele><time>2026-05-03T09:54:28.571Z</time></trkpt><trkpt lat="45.690326" lon="13.7872721"><ele>318.0</ele><time>2026-05-03T09:54:29.572Z</time></trkpt><trkpt lat="45.6904014" lon="13.7872124"><ele>318.0</ele><time>2026-05-03T09:54:30.571Z</time></trkpt><trkpt lat="45.6904726" lon="13.7871402"><ele>318.0</ele><time>2026-05-03T09:54:31.572Z</time></trkpt><trkpt lat="45.6905609" lon="13.7870985"><ele>317.3333333333333</ele><time>2026-05-03T09:54:32.571Z</time></trkpt><trkpt lat="45.6906428" lon="13.7870509"><ele>316.6666666666667</ele><time>2026-05-03T09:54:33.571Z</time></trkpt><trkpt lat="45.6907171" lon="13.7870164"><ele>316.0</ele><time>2026-05-03T09:54:34.572Z</time></trkpt><trkpt lat="45.6907976" lon="13.7869489"><ele>315.33333333333337</ele><time>2026-05-03T09:54:35.571Z</time></trkpt><trkpt lat="45.6908761" lon="13.7868811"><ele>314.6666666666667</ele><time>2026-05-03T09:54:36.572Z</time></trkpt><trkpt lat="45.6909587" lon="13.7868225"><ele>314.0</ele><time>2026-05-03T09:54:37.572Z</time></trkpt><trkpt lat="45.6910413" lon="13.7867643"><ele>313.33333333333337</ele><time>2026-05-03T09:54:38.571Z</time></trkpt><trkpt lat="45.6911205" lon="13.7867049"><ele>312.6666666666667</ele><time>2026-05-03T09:54:39.572Z</time></trkpt><trkpt lat="45.6911997" lon="13.7866399"><ele>312.0</ele><time>2026-05-03T09:54:40.572Z</time></trkpt><trkpt lat="45.6912749" lon="13.7865808"><ele>311.3333333333333</ele><time>2026-05-03T09:54:41.572Z</time></trkpt><trkpt lat="45.691343" lon="13.7865095"><ele>310.66666666666663</ele><time>2026-05-03T09:54:42.572Z</time></trkpt><trkpt lat="45.6914122" lon="13.7864553"><ele>310.0</ele><time>2026-05-03T09:54:43.571Z</time></trkpt><trkpt lat="45.691485" lon="13.7863899"><ele>310.0</ele><time>2026-05-03T09:54:44.572Z</time></trkpt><trkpt lat="45.6915578" lon="13.7863164"><ele>310.0</ele><time>2026-05-03T09:54:45.571Z</time></trkpt><trkpt lat="45.6915926" lon="13.7862277"><ele>310.0</ele><time>2026-05-03T09:54:46.571Z</time></trkpt><trkpt lat="45.691597" lon="13.7861183"><ele>310.0</ele><time>2026-05-03T09:54:47.572Z</time></trkpt><trkpt lat="45.6915718" lon="13.7860215"><ele>310.0</ele><time>2026-05-03T09:54:48.571Z</time></trkpt><trkpt lat="45.6915399" lon="13.7859245"><ele>310.0</ele><time>2026-05-03T09:54:49.572Z</time></trkpt><trkpt lat="45.691508" lon="13.785813"><ele>310.16666666666663</ele><time>2026-05-03T09:54:50.571Z</time></trkpt><trkpt lat="45.6914943" lon="13.7857112"><ele>310.3333333333333</ele><time>2026-05-03T09:54:51.571Z</time></trkpt><trkpt lat="45.6914992" lon="13.7855891"><ele>310.5</ele><time>2026-05-03T09:54:52.571Z</time></trkpt><trkpt lat="45.6915186" lon="13.7854743"><ele>310.6666666666667</ele><time>2026-05-03T09:54:53.571Z</time></trkpt><trkpt lat="45.6915602" lon="13.7853679"><ele>310.83333333333337</ele><time>2026-05-03T09:54:54.572Z</time></trkpt><trkpt lat="45.6916172" lon="13.7852635"><ele>311.0</ele><time>2026-05-03T09:54:55.571Z</time></trkpt><trkpt lat="45.6916801" lon="13.7851698"><ele>311.0</ele><time>2026-05-03T09:54:56.572Z</time></trkpt><trkpt lat="45.6917534" lon="13.7850703"><ele>311.0</ele><time>2026-05-03T09:54:57.572Z</time></trkpt><trkpt lat="45.6918283" lon="13.784956"><ele>311.0</ele><time>2026-05-03T09:54:58.572Z</time></trkpt><trkpt lat="45.691908" lon="13.784853"><ele>311.0</ele><time>2026-05-03T09:54:59.571Z</time></trkpt><trkpt lat="45.6919812" lon="13.7847434"><ele>311.0</ele><time>2026-05-03T09:55:00.572Z</time></trkpt><trkpt lat="45.6920549" lon="13.7846303"><ele>310.6</ele><time>2026-05-03T09:55:01.571Z</time></trkpt><trkpt lat="45.6921295" lon="13.7845203"><ele>310.20000000000005</ele><time>2026-05-03T09:55:02.572Z</time></trkpt><trkpt lat="45.692183" lon="13.7843948"><ele>309.79999999999995</ele><time>2026-05-03T09:55:03.571Z</time></trkpt><trkpt lat="45.6922602" lon="13.7842921"><ele>309.4</ele><time>2026-05-03T09:55:04.571Z</time></trkpt><trkpt lat="45.6923356" lon="13.7841718"><ele>309.0</ele><time>2026-05-03T09:55:05.571Z</time></trkpt><trkpt lat="45.6924213" lon="13.7840644"><ele>309.0</ele><time>2026-05-03T09:55:06.572Z</time></trkpt><trkpt lat="45.6925083" lon="13.7839485"><ele>309.0</ele><time>2026-05-03T09:55:07.572Z</time></trkpt><trkpt lat="45.6925847" lon="13.7838224"><ele>309.0</ele><time>2026-05-03T09:55:08.572Z</time></trkpt><trkpt lat="45.6926716" lon="13.7836889"><ele>309.0</ele><time>2026-05-03T09:55:09.571Z</time></trkpt><trkpt lat="45.6927573" lon="13.783561"><ele>308.59999999999997</ele><time>2026-05-03T09:55:10.572Z</time></trkpt><trkpt lat="45.6928292" lon="13.7834427"><ele>308.2</ele><time>2026-05-03T09:55:11.572Z</time></trkpt><trkpt lat="45.6928807" lon="13.783351"><ele>307.79999999999995</ele><time>2026-05-03T09:55:12.571Z</time></trkpt><trkpt lat="45.6929173" lon="13.7832633"><ele>307.4</ele><time>2026-05-03T09:55:13.572Z</time></trkpt><trkpt lat="45.6929732" lon="13.7833218"><ele>307.0</ele><time>2026-05-03T09:55:14.572Z</time></trkpt><trkpt lat="45.693012" lon="13.7835124"><ele>307.2</ele><time>2026-05-03T09:55:16.571Z</time></trkpt><trkpt lat="45.6930266" lon="13.7836425"><ele>307.4</ele><time>2026-05-03T09:55:17.571Z</time></trkpt><trkpt lat="45.6930307" lon="13.7837897"><ele>307.6</ele><time>2026-05-03T09:55:18.572Z</time></trkpt><trkpt lat="45.6930403" lon="13.7839366"><ele>307.8</ele><time>2026-05-03T09:55:19.572Z</time></trkpt><trkpt lat="45.6930515" lon="13.7840694"><ele>308.0</ele><time>2026-05-03T09:55:20.572Z</time></trkpt><trkpt lat="45.6930493" lon="13.7842021"><ele>308.0</ele><time>2026-05-03T09:55:21.571Z</time></trkpt><trkpt lat="45.6930231" lon="13.7842938"><ele>308.0</ele><time>2026-05-03T09:55:22.572Z</time></trkpt><trkpt lat="45.6929887" lon="13.7843855"><ele>308.0</ele><time>2026-05-03T09:55:23.572Z</time></trkpt><trkpt lat="45.6929418" lon="13.7844754"><ele>308.0</ele><time>2026-05-03T09:55:24.571Z</time></trkpt><trkpt lat="45.6929126" lon="13.7845564"><ele>308.0</ele><time>2026-05-03T09:55:25.571Z</time></trkpt><trkpt lat="45.6929021" lon="13.7846487"><ele>308.0</ele><time>2026-05-03T09:55:26.572Z</time></trkpt><trkpt lat="45.6929636" lon="13.7847302"><ele>308.0</ele><time>2026-05-03T09:55:28.571Z</time></trkpt><trkpt lat="45.6930854" lon="13.78473"><ele>307.8</ele><time>2026-05-03T09:55:29.571Z</time></trkpt><trkpt lat="45.6931873" lon="13.7847653"><ele>307.6</ele><time>2026-05-03T09:55:30.572Z</time></trkpt><trkpt lat="45.6932834" lon="13.7848315"><ele>307.4</ele><time>2026-05-03T09:55:31.571Z</time></trkpt><trkpt lat="45.6933797" lon="13.7848925"><ele>307.2</ele><time>2026-05-03T09:55:32.572Z</time></trkpt><trkpt lat="45.6934895" lon="13.7849641"><ele>307.0</ele><time>2026-05-03T09:55:33.572Z</time></trkpt><trkpt lat="45.6936037" lon="13.7850066"><ele>306.6</ele><time>2026-05-03T09:55:34.572Z</time></trkpt><trkpt lat="45.6936973" lon="13.7850917"><ele>306.2</ele><time>2026-05-03T09:55:35.571Z</time></trkpt><trkpt lat="45.6937845" lon="13.7851803"><ele>305.8</ele><time>2026-05-03T09:55:36.572Z</time></trkpt><trkpt lat="45.69387" lon="13.785282"><ele>305.4</ele><time>2026-05-03T09:55:37.572Z</time></trkpt><trkpt lat="45.6939584" lon="13.7853886"><ele>305.0</ele><time>2026-05-03T09:55:38.572Z</time></trkpt><trkpt lat="45.6940458" lon="13.7854825"><ele>304.4</ele><time>2026-05-03T09:55:39.572Z</time></trkpt><trkpt lat="45.6941281" lon="13.7855552"><ele>303.8</ele><time>2026-05-03T09:55:40.571Z</time></trkpt><trkpt lat="45.6942003" lon="13.7856247"><ele>303.2</ele><time>2026-05-03T09:55:41.572Z</time></trkpt><trkpt lat="45.6942739" lon="13.7856904"><ele>302.6</ele><time>2026-05-03T09:55:42.571Z</time></trkpt><trkpt lat="45.6943391" lon="13.7857899"><ele>302.0</ele><time>2026-05-03T09:55:43.571Z</time></trkpt><trkpt lat="45.6944014" lon="13.7858877"><ele>301.83333333333337</ele><time>2026-05-03T09:55:44.572Z</time></trkpt><trkpt lat="45.6944562" lon="13.7859906"><ele>301.6666666666667</ele><time>2026-05-03T09:55:45.571Z</time></trkpt><trkpt lat="45.6945114" lon="13.7860781"><ele>301.5</ele><time>2026-05-03T09:55:46.571Z</time></trkpt><trkpt lat="45.6945621" lon="13.7861759"><ele>301.3333333333333</ele><time>2026-05-03T09:55:47.572Z</time></trkpt><trkpt lat="45.6946223" lon="13.786274"><ele>301.16666666666663</ele><time>2026-05-03T09:55:48.572Z</time></trkpt><trkpt lat="45.694689" lon="13.7863618"><ele>301.0</ele><time>2026-05-03T09:55:49.572Z</time></trkpt><trkpt lat="45.6947641" lon="13.7864256"><ele>301.0</ele><time>2026-05-03T09:55:50.571Z</time></trkpt><trkpt lat="45.6948567" lon="13.7864864"><ele>301.0</ele><time>2026-05-03T09:55:51.572Z</time></trkpt><trkpt lat="45.6949413" lon="13.7865381"><ele>301.0</ele><time>2026-05-03T09:55:52.572Z</time></trkpt><trkpt lat="45.6950249" lon="13.786596"><ele>301.0</ele><time>2026-05-03T09:55:53.572Z</time></trkpt><trkpt lat="45.6950942" lon="13.7866494"><ele>301.0</ele><time>2026-05-03T09:55:54.571Z</time></trkpt><trkpt lat="45.6951593" lon="13.786697"><ele>301.0</ele><time>2026-05-03T09:55:55.572Z</time></trkpt><trkpt lat="45.6952235" lon="13.7867652"><ele>302.0</ele><time>2026-05-03T09:55:56.572Z</time></trkpt><trkpt lat="45.6952835" lon="13.7868516"><ele>303.0</ele><time>2026-05-03T09:55:57.572Z</time></trkpt><trkpt lat="45.6953291" lon="13.7869336"><ele>304.0</ele><time>2026-05-03T09:55:58.571Z</time></trkpt><trkpt lat="45.6953721" lon="13.7870364"><ele>305.0</ele><time>2026-05-03T09:55:59.571Z</time></trkpt><trkpt lat="45.6954028" lon="13.7871492"><ele>306.0</ele><time>2026-05-03T09:56:00.572Z</time></trkpt><trkpt lat="45.6954251" lon="13.7872584"><ele>307.0</ele><time>2026-05-03T09:56:01.572Z</time></trkpt><trkpt lat="45.695451" lon="13.7873791"><ele>307.0</ele><time>2026-05-03T09:56:02.572Z</time></trkpt><trkpt lat="45.6954827" lon="13.7874994"><ele>307.0</ele><time>2026-05-03T09:56:03.572Z</time></trkpt><trkpt lat="45.695516" lon="13.7876205"><ele>307.0</ele><time>2026-05-03T09:56:04.571Z</time></trkpt><trkpt lat="45.6955464" lon="13.7877473"><ele>307.0</ele><time>2026-05-03T09:56:05.571Z</time></trkpt><trkpt lat="45.6956136" lon="13.7878551"><ele>307.0</ele><time>2026-05-03T09:56:06.572Z</time></trkpt><trkpt lat="45.6956696" lon="13.7879719"><ele>306.8333333333333</ele><time>2026-05-03T09:56:07.571Z</time></trkpt><trkpt lat="45.6956931" lon="13.7880745"><ele>306.66666666666663</ele><time>2026-05-03T09:56:08.571Z</time></trkpt><trkpt lat="45.6957563" lon="13.7881747"><ele>306.5</ele><time>2026-05-03T09:56:09.572Z</time></trkpt><trkpt lat="45.6958114" lon="13.7882836"><ele>306.3333333333333</ele><time>2026-05-03T09:56:10.572Z</time></trkpt><trkpt lat="45.6958586" lon="13.7883829"><ele>306.1666666666667</ele><time>2026-05-03T09:56:11.571Z</time></trkpt><trkpt lat="45.6959025" lon="13.7884723"><ele>306.0</ele><time>2026-05-03T09:56:12.572Z</time></trkpt><trkpt lat="45.6959532" lon="13.7885434"><ele>306.0</ele><time>2026-05-03T09:56:13.572Z</time></trkpt><trkpt lat="45.69602" lon="13.7886325"><ele>306.0</ele><time>2026-05-03T09:56:14.572Z</time></trkpt><trkpt lat="45.6961054" lon="13.7886994"><ele>306.0</ele><time>2026-05-03T09:56:15.572Z</time></trkpt><trkpt lat="45.6961873" lon="13.7887701"><ele>306.0</ele><time>2026-05-03T09:56:16.572Z</time></trkpt><trkpt lat="45.6962611" lon="13.7888126"><ele>306.0</ele><time>2026-05-03T09:56:17.571Z</time></trkpt><trkpt lat="45.6963508" lon="13.7888408"><ele>305.8</ele><time>2026-05-03T09:56:18.572Z</time></trkpt><trkpt lat="45.6964304" lon="13.7888678"><ele>305.6</ele><time>2026-05-03T09:56:19.571Z</time></trkpt><trkpt lat="45.6965108" lon="13.7889296"><ele>305.4</ele><time>2026-05-03T09:56:20.571Z</time></trkpt><trkpt lat="45.6966032" lon="13.7889903"><ele>305.2</ele><time>2026-05-03T09:56:21.572Z</time></trkpt><trkpt lat="45.6966966" lon="13.789035"><ele>305.0</ele><time>2026-05-03T09:56:22.572Z</time></trkpt><trkpt lat="45.6968057" lon="13.7891186"><ele>305.0</ele><time>2026-05-03T09:56:23.571Z</time></trkpt><trkpt lat="45.6968801" lon="13.7891972"><ele>305.0</ele><time>2026-05-03T09:56:24.571Z</time></trkpt><trkpt lat="45.6969762" lon="13.7892594"><ele>305.0</ele><time>2026-05-03T09:56:25.571Z</time></trkpt><trkpt lat="45.6970774" lon="13.7892989"><ele>305.0</ele><time>2026-05-03T09:56:26.571Z</time></trkpt><trkpt lat="45.6971722" lon="13.7893549"><ele>305.0</ele><time>2026-05-03T09:56:27.572Z</time></trkpt><trkpt lat="45.6972637" lon="13.7894119"><ele>304.2</ele><time>2026-05-03T09:56:28.572Z</time></trkpt><trkpt lat="45.6973755" lon="13.7894426"><ele>303.4</ele><time>2026-05-03T09:56:29.572Z</time></trkpt><trkpt lat="45.6974818" lon="13.7894934"><ele>302.6</ele><time>2026-05-03T09:56:30.571Z</time></trkpt><trkpt lat="45.6975909" lon="13.7895414"><ele>301.8</ele><time>2026-05-03T09:56:31.571Z</time></trkpt><trkpt lat="45.6976883" lon="13.7895937"><ele>301.0</ele><time>2026-05-03T09:56:32.571Z</time></trkpt><trkpt lat="45.6977829" lon="13.7895906"><ele>300.2</ele><time>2026-05-03T09:56:33.572Z</time></trkpt><trkpt lat="45.6979017" lon="13.7896634"><ele>299.40000000000003</ele><time>2026-05-03T09:56:34.572Z</time></trkpt><trkpt lat="45.6979852" lon="13.7897164"><ele>298.6</ele><time>2026-05-03T09:56:35.572Z</time></trkpt><trkpt lat="45.6980681" lon="13.7897187"><ele>297.8</ele><time>2026-05-03T09:56:36.571Z</time></trkpt><trkpt lat="45.6981371" lon="13.7897325"><ele>297.0</ele><time>2026-05-03T09:56:37.572Z</time></trkpt><trkpt lat="45.6982429" lon="13.7897273"><ele>297.0</ele><time>2026-05-03T09:56:39.571Z</time></trkpt><trkpt lat="45.6983161" lon="13.7896595"><ele>297.0</ele><time>2026-05-03T09:56:41.571Z</time></trkpt><trkpt lat="45.6983162" lon="13.7895186"><ele>297.0</ele><time>2026-05-03T09:56:42.571Z</time></trkpt><trkpt lat="45.6983329" lon="13.7893997"><ele>297.0</ele><time>2026-05-03T09:56:43.571Z</time></trkpt><trkpt lat="45.6983559" lon="13.7892726"><ele>297.0</ele><time>2026-05-03T09:56:44.572Z</time></trkpt><trkpt lat="45.6984008" lon="13.789141"><ele>297.0</ele><time>2026-05-03T09:56:45.572Z</time></trkpt><trkpt lat="45.6984468" lon="13.7890076"><ele>297.0</ele><time>2026-05-03T09:56:46.571Z</time></trkpt><trkpt lat="45.6985003" lon="13.7888954"><ele>297.0</ele><time>2026-05-03T09:56:47.572Z</time></trkpt><trkpt lat="45.6985738" lon="13.7888115"><ele>297.0</ele><time>2026-05-03T09:56:48.572Z</time></trkpt><trkpt lat="45.6986948" lon="13.788791"><ele>297.0</ele><time>2026-05-03T09:56:49.572Z</time></trkpt><trkpt lat="45.6987953" lon="13.788767"><ele>297.2</ele><time>2026-05-03T09:56:50.571Z</time></trkpt><trkpt lat="45.6988839" lon="13.7887187"><ele>297.4</ele><time>2026-05-03T09:56:51.572Z</time></trkpt><trkpt lat="45.6989876" lon="13.7886769"><ele>297.6</ele><time>2026-05-03T09:56:52.572Z</time></trkpt><trkpt lat="45.6990849" lon="13.7886172"><ele>297.8</ele><time>2026-05-03T09:56:53.571Z</time></trkpt><trkpt lat="45.6991902" lon="13.7885823"><ele>298.0</ele><time>2026-05-03T09:56:54.572Z</time></trkpt><trkpt lat="45.6992782" lon="13.7885294"><ele>298.0</ele><time>2026-05-03T09:56:55.572Z</time></trkpt><trkpt lat="45.6993749" lon="13.7884844"><ele>298.0</ele><time>2026-05-03T09:56:56.572Z</time></trkpt><trkpt lat="45.6994775" lon="13.7884494"><ele>298.0</ele><time>2026-05-03T09:56:57.572Z</time></trkpt><trkpt lat="45.6995908" lon="13.7883976"><ele>298.0</ele><time>2026-05-03T09:56:58.572Z</time></trkpt><trkpt lat="45.6999184" lon="13.788283"><ele>298.0</ele><time>2026-05-03T09:57:01.564Z</time></trkpt><trkpt lat="45.7000308" lon="13.7882329"><ele>298.0</ele><time>2026-05-03T09:57:02.557Z</time></trkpt><trkpt lat="45.7001345" lon="13.7881888"><ele>298.0</ele><time>2026-05-03T09:57:03.565Z</time></trkpt><trkpt lat="45.7002678" lon="13.7881832"><ele>298.0</ele><time>2026-05-03T09:57:04.572Z</time></trkpt><trkpt lat="45.7003746" lon="13.7881499"><ele>298.2</ele><time>2026-05-03T09:57:05.569Z</time></trkpt><trkpt lat="45.7004775" lon="13.7881461"><ele>298.4</ele><time>2026-05-03T09:57:06.566Z</time></trkpt><trkpt lat="45.7005887" lon="13.7881554"><ele>298.59999999999997</ele><time>2026-05-03T09:57:07.567Z</time></trkpt><trkpt lat="45.7006867" lon="13.7881252"><ele>298.8</ele><time>2026-05-03T09:57:08.566Z</time></trkpt><trkpt lat="45.7007954" lon="13.7881264"><ele>299.0</ele><time>2026-05-03T09:57:09.567Z</time></trkpt><trkpt lat="45.7009047" lon="13.7881341"><ele>299.0</ele><time>2026-05-03T09:57:10.567Z</time></trkpt><trkpt lat="45.7010232" lon="13.7881564"><ele>299.0</ele><time>2026-05-03T09:57:11.566Z</time></trkpt><trkpt lat="45.7011467" lon="13.7881778"><ele>299.0</ele><time>2026-05-03T09:57:12.567Z</time></trkpt><trkpt lat="45.701259" lon="13.7881969"><ele>299.0</ele><time>2026-05-03T09:57:13.567Z</time></trkpt><trkpt lat="45.7013629" lon="13.7882106"><ele>299.5</ele><time>2026-05-03T09:57:14.567Z</time></trkpt><trkpt lat="45.7014607" lon="13.7882118"><ele>300.0</ele><time>2026-05-03T09:57:15.567Z</time></trkpt><trkpt lat="45.7015745" lon="13.7882354"><ele>300.5</ele><time>2026-05-03T09:57:16.566Z</time></trkpt><trkpt lat="45.7016972" lon="13.7882492"><ele>301.0</ele><time>2026-05-03T09:57:17.567Z</time></trkpt><trkpt lat="45.7018123" lon="13.788279"><ele>301.0</ele><time>2026-05-03T09:57:18.566Z</time></trkpt><trkpt lat="45.7019065" lon="13.788291"><ele>301.0</ele><time>2026-05-03T09:57:19.567Z</time></trkpt><trkpt lat="45.7020245" lon="13.7883096"><ele>301.0</ele><time>2026-05-03T09:57:20.566Z</time></trkpt><trkpt lat="45.7021323" lon="13.7883203"><ele>301.0</ele><time>2026-05-03T09:57:21.566Z</time></trkpt><trkpt lat="45.7022455" lon="13.7883276"><ele>301.0</ele><time>2026-05-03T09:57:22.567Z</time></trkpt><trkpt lat="45.7023502" lon="13.7883359"><ele>300.75</ele><time>2026-05-03T09:57:23.567Z</time></trkpt><trkpt lat="45.702463" lon="13.7883613"><ele>300.5</ele><time>2026-05-03T09:57:24.567Z</time></trkpt><trkpt lat="45.7025873" lon="13.7883844"><ele>300.25</ele><time>2026-05-03T09:57:25.567Z</time></trkpt><trkpt lat="45.7026987" lon="13.7884124"><ele>300.0</ele><time>2026-05-03T09:57:26.566Z</time></trkpt><trkpt lat="45.7028271" lon="13.7884341"><ele>299.25</ele><time>2026-05-03T09:57:27.566Z</time></trkpt><trkpt lat="45.7029496" lon="13.7884462"><ele>298.5</ele><time>2026-05-03T09:57:28.566Z</time></trkpt><trkpt lat="45.703071" lon="13.788469"><ele>297.75</ele><time>2026-05-03T09:57:29.567Z</time></trkpt><trkpt lat="45.7031932" lon="13.7885076"><ele>297.0</ele><time>2026-05-03T09:57:30.566Z</time></trkpt><trkpt lat="45.7033065" lon="13.788562"><ele>297.0</ele><time>2026-05-03T09:57:31.567Z</time></trkpt><trkpt lat="45.7034277" lon="13.7886307"><ele>297.0</ele><time>2026-05-03T09:57:32.566Z</time></trkpt><trkpt lat="45.7035454" lon="13.7886915"><ele>297.0</ele><time>2026-05-03T09:57:33.566Z</time></trkpt><trkpt lat="45.7036605" lon="13.7887726"><ele>297.0</ele><time>2026-05-03T09:57:34.566Z</time></trkpt><trkpt lat="45.703776" lon="13.788857"><ele>297.0</ele><time>2026-05-03T09:57:35.566Z</time></trkpt><trkpt lat="45.7038782" lon="13.7889576"><ele>297.0</ele><time>2026-05-03T09:57:36.566Z</time></trkpt><trkpt lat="45.7039998" lon="13.7890581"><ele>297.0</ele><time>2026-05-03T09:57:37.567Z</time></trkpt><trkpt lat="45.7041128" lon="13.7891382"><ele>297.0</ele><time>2026-05-03T09:57:38.566Z</time></trkpt><trkpt lat="45.7042361" lon="13.7891978"><ele>297.0</ele><time>2026-05-03T09:57:39.567Z</time></trkpt><trkpt lat="45.7043597" lon="13.7892626"><ele>297.0</ele><time>2026-05-03T09:57:40.566Z</time></trkpt><trkpt lat="45.704488" lon="13.7893"><ele>297.0</ele><time>2026-05-03T09:57:41.567Z</time></trkpt><trkpt lat="45.7046161" lon="13.7893381"><ele>297.0</ele><time>2026-05-03T09:57:42.567Z</time></trkpt><trkpt lat="45.7047451" lon="13.7893716"><ele>296.0</ele><time>2026-05-03T09:57:43.566Z</time></trkpt><trkpt lat="45.7048605" lon="13.7893949"><ele>295.0</ele><time>2026-05-03T09:57:44.566Z</time></trkpt><trkpt lat="45.7049918" lon="13.789389"><ele>294.0</ele><time>2026-05-03T09:57:45.567Z</time></trkpt><trkpt lat="45.7051185" lon="13.7893873"><ele>293.0</ele><time>2026-05-03T09:57:46.567Z</time></trkpt><trkpt lat="45.7052363" lon="13.7893733"><ele>292.75</ele><time>2026-05-03T09:57:47.566Z</time></trkpt><trkpt lat="45.7053571" lon="13.7893729"><ele>292.5</ele><time>2026-05-03T09:57:48.567Z</time></trkpt><trkpt lat="45.7054854" lon="13.7893595"><ele>292.25</ele><time>2026-05-03T09:57:49.567Z</time></trkpt><trkpt lat="45.70561" lon="13.7893481"><ele>292.0</ele><time>2026-05-03T09:57:50.567Z</time></trkpt><trkpt lat="45.7057322" lon="13.7893379"><ele>292.5</ele><time>2026-05-03T09:57:51.566Z</time></trkpt><trkpt lat="45.7058525" lon="13.7893334"><ele>293.0</ele><time>2026-05-03T09:57:52.567Z</time></trkpt><trkpt lat="45.7059738" lon="13.789327"><ele>293.5</ele><time>2026-05-03T09:57:53.566Z</time></trkpt><trkpt lat="45.7060921" lon="13.7892979"><ele>294.0</ele><time>2026-05-03T09:57:54.567Z</time></trkpt><trkpt lat="45.7062169" lon="13.7892846"><ele>294.0</ele><time>2026-05-03T09:57:55.566Z</time></trkpt><trkpt lat="45.7063385" lon="13.7892308"><ele>294.0</ele><time>2026-05-03T09:57:56.566Z</time></trkpt><trkpt lat="45.7064508" lon="13.7891775"><ele>294.0</ele><time>2026-05-03T09:57:57.567Z</time></trkpt><trkpt lat="45.7065758" lon="13.7891374"><ele>294.0</ele><time>2026-05-03T09:57:58.567Z</time></trkpt><trkpt lat="45.7066961" lon="13.7891009"><ele>294.0</ele><time>2026-05-03T09:57:59.566Z</time></trkpt><trkpt lat="45.7068046" lon="13.7890582"><ele>294.0</ele><time>2026-05-03T09:58:00.567Z</time></trkpt><trkpt lat="45.7069238" lon="13.7890203"><ele>294.0</ele><time>2026-05-03T09:58:01.566Z</time></trkpt><trkpt lat="45.7070301" lon="13.7889942"><ele>294.0</ele><time>2026-05-03T09:58:02.567Z</time></trkpt><trkpt lat="45.7071453" lon="13.7889836"><ele>293.5</ele><time>2026-05-03T09:58:03.566Z</time></trkpt><trkpt lat="45.7072676" lon="13.7889654"><ele>293.0</ele><time>2026-05-03T09:58:04.567Z</time></trkpt><trkpt lat="45.7073808" lon="13.7889536"><ele>292.5</ele><time>2026-05-03T09:58:05.567Z</time></trkpt><trkpt lat="45.7075033" lon="13.7889412"><ele>292.0</ele><time>2026-05-03T09:58:06.566Z</time></trkpt><trkpt lat="45.7076237" lon="13.7889403"><ele>292.0</ele><time>2026-05-03T09:58:07.567Z</time></trkpt><trkpt lat="45.7077423" lon="13.7889405"><ele>292.0</ele><time>2026-05-03T09:58:08.567Z</time></trkpt><trkpt lat="45.7078589" lon="13.7889376"><ele>292.0</ele><time>2026-05-03T09:58:09.567Z</time></trkpt><trkpt lat="45.7079774" lon="13.7889313"><ele>292.0</ele><time>2026-05-03T09:58:10.566Z</time></trkpt><trkpt lat="45.7080877" lon="13.788926"><ele>291.75</ele><time>2026-05-03T09:58:11.566Z</time></trkpt><trkpt lat="45.7082013" lon="13.7889281"><ele>291.5</ele><time>2026-05-03T09:58:12.567Z</time></trkpt><trkpt lat="45.708327" lon="13.7889337"><ele>291.25</ele><time>2026-05-03T09:58:13.566Z</time></trkpt><trkpt lat="45.7084334" lon="13.7889184"><ele>291.0</ele><time>2026-05-03T09:58:14.567Z</time></trkpt><trkpt lat="45.7085517" lon="13.7889209"><ele>291.0</ele><time>2026-05-03T09:58:15.567Z</time></trkpt><trkpt lat="45.7086704" lon="13.7889389"><ele>291.0</ele><time>2026-05-03T09:58:16.567Z</time></trkpt><trkpt lat="45.7088041" lon="13.7889659"><ele>291.0</ele><time>2026-05-03T09:58:17.566Z</time></trkpt><trkpt lat="45.7089145" lon="13.7890112"><ele>291.0</ele><time>2026-05-03T09:58:18.567Z</time></trkpt><trkpt lat="45.7090221" lon="13.7890677"><ele>291.0</ele><time>2026-05-03T09:58:19.567Z</time></trkpt><trkpt lat="45.7091353" lon="13.7891179"><ele>291.0</ele><time>2026-05-03T09:58:20.566Z</time></trkpt><trkpt lat="45.709257" lon="13.7891635"><ele>291.0</ele><time>2026-05-03T09:58:21.567Z</time></trkpt><trkpt lat="45.7093672" lon="13.7892343"><ele>291.0</ele><time>2026-05-03T09:58:22.566Z</time></trkpt><trkpt lat="45.7094777" lon="13.7892942"><ele>290.75</ele><time>2026-05-03T09:58:23.567Z</time></trkpt><trkpt lat="45.7095911" lon="13.7893643"><ele>290.5</ele><time>2026-05-03T09:58:24.567Z</time></trkpt><trkpt lat="45.7096951" lon="13.7894303"><ele>290.25</ele><time>2026-05-03T09:58:25.567Z</time></trkpt><trkpt lat="45.7098095" lon="13.7894995"><ele>290.0</ele><time>2026-05-03T09:58:26.566Z</time></trkpt><trkpt lat="45.7099287" lon="13.7895669"><ele>290.0</ele><time>2026-05-03T09:58:27.566Z</time></trkpt><trkpt lat="45.7100434" lon="13.78962"><ele>290.0</ele><time>2026-05-03T09:58:28.566Z</time></trkpt><trkpt lat="45.7101657" lon="13.789689"><ele>290.0</ele><time>2026-05-03T09:58:29.567Z</time></trkpt><trkpt lat="45.7102834" lon="13.7897381"><ele>290.0</ele><time>2026-05-03T09:58:30.567Z</time></trkpt><trkpt lat="45.710402" lon="13.7897754"><ele>290.75</ele><time>2026-05-03T09:58:31.566Z</time></trkpt><trkpt lat="45.71053" lon="13.7898091"><ele>291.5</ele><time>2026-05-03T09:58:32.566Z</time></trkpt><trkpt lat="45.7106472" lon="13.7898372"><ele>292.25</ele><time>2026-05-03T09:58:33.566Z</time></trkpt><trkpt lat="45.7107605" lon="13.7898656"><ele>293.0</ele><time>2026-05-03T09:58:34.567Z</time></trkpt><trkpt lat="45.7108796" lon="13.7898862"><ele>293.0</ele><time>2026-05-03T09:58:35.566Z</time></trkpt><trkpt lat="45.7109989" lon="13.7899046"><ele>293.0</ele><time>2026-05-03T09:58:36.566Z</time></trkpt><trkpt lat="45.7111125" lon="13.7899201"><ele>293.0</ele><time>2026-05-03T09:58:37.567Z</time></trkpt><trkpt lat="45.7112327" lon="13.7899409"><ele>293.0</ele><time>2026-05-03T09:58:38.567Z</time></trkpt><trkpt lat="45.7113605" lon="13.7899659"><ele>292.0</ele><time>2026-05-03T09:58:39.567Z</time></trkpt><trkpt lat="45.7114631" lon="13.7900014"><ele>291.0</ele><time>2026-05-03T09:58:40.567Z</time></trkpt><trkpt lat="45.7115897" lon="13.7900141"><ele>290.0</ele><time>2026-05-03T09:58:41.566Z</time></trkpt><trkpt lat="45.7117148" lon="13.7900233"><ele>289.0</ele><time>2026-05-03T09:58:42.567Z</time></trkpt><trkpt lat="45.7118424" lon="13.7900238"><ele>289.0</ele><time>2026-05-03T09:58:43.566Z</time></trkpt><trkpt lat="45.71196" lon="13.7900194"><ele>289.0</ele><time>2026-05-03T09:58:44.567Z</time></trkpt><trkpt lat="45.7120888" lon="13.7899988"><ele>289.0</ele><time>2026-05-03T09:58:45.567Z</time></trkpt><trkpt lat="45.7122208" lon="13.7899841"><ele>289.0</ele><time>2026-05-03T09:58:46.567Z</time></trkpt><trkpt lat="45.7123529" lon="13.7899703"><ele>289.0</ele><time>2026-05-03T09:58:47.566Z</time></trkpt><trkpt lat="45.7124737" lon="13.7899602"><ele>289.0</ele><time>2026-05-03T09:58:48.566Z</time></trkpt><trkpt lat="45.7125877" lon="13.7899299"><ele>289.0</ele><time>2026-05-03T09:58:49.566Z</time></trkpt><trkpt lat="45.712707" lon="13.7898991"><ele>289.0</ele><time>2026-05-03T09:58:50.567Z</time></trkpt><trkpt lat="45.7128292" lon="13.7898566"><ele>289.5</ele><time>2026-05-03T09:58:51.567Z</time></trkpt><trkpt lat="45.712945" lon="13.7898084"><ele>290.0</ele><time>2026-05-03T09:58:52.567Z</time></trkpt><trkpt lat="45.7130681" lon="13.7897608"><ele>290.5</ele><time>2026-05-03T09:58:53.567Z</time></trkpt><trkpt lat="45.7131844" lon="13.789702"><ele>291.0</ele><time>2026-05-03T09:58:54.566Z</time></trkpt><trkpt lat="45.7132865" lon="13.7896298"><ele>291.0</ele><time>2026-05-03T09:58:55.566Z</time></trkpt><trkpt lat="45.7134015" lon="13.789564"><ele>291.0</ele><time>2026-05-03T09:58:56.566Z</time></trkpt><trkpt lat="45.7135131" lon="13.7894872"><ele>291.0</ele><time>2026-05-03T09:58:57.567Z</time></trkpt><trkpt lat="45.7136344" lon="13.7894346"><ele>291.0</ele><time>2026-05-03T09:58:58.566Z</time></trkpt><trkpt lat="45.713752" lon="13.789383"><ele>290.75</ele><time>2026-05-03T09:58:59.567Z</time></trkpt><trkpt lat="45.7138761" lon="13.789347"><ele>290.5</ele><time>2026-05-03T09:59:00.567Z</time></trkpt><trkpt lat="45.7139969" lon="13.7893096"><ele>290.25</ele><time>2026-05-03T09:59:01.566Z</time></trkpt><trkpt lat="45.7141168" lon="13.7892883"><ele>290.0</ele><time>2026-05-03T09:59:02.566Z</time></trkpt><trkpt lat="45.7142363" lon="13.7892663"><ele>290.5</ele><time>2026-05-03T09:59:03.567Z</time></trkpt><trkpt lat="45.714358" lon="13.7892393"><ele>291.0</ele><time>2026-05-03T09:59:04.566Z</time></trkpt><trkpt lat="45.7144743" lon="13.7892209"><ele>291.5</ele><time>2026-05-03T09:59:05.567Z</time></trkpt><trkpt lat="45.7145866" lon="13.7891879"><ele>292.0</ele><time>2026-05-03T09:59:06.566Z</time></trkpt><trkpt lat="45.7147083" lon="13.7891602"><ele>293.25</ele><time>2026-05-03T09:59:07.566Z</time></trkpt><trkpt lat="45.7148258" lon="13.7891326"><ele>294.5</ele><time>2026-05-03T09:59:08.566Z</time></trkpt><trkpt lat="45.7149473" lon="13.789098"><ele>295.75</ele><time>2026-05-03T09:59:09.567Z</time></trkpt><trkpt lat="45.71506" lon="13.7890603"><ele>297.0</ele><time>2026-05-03T09:59:10.566Z</time></trkpt><trkpt lat="45.7151851" lon="13.7890514"><ele>297.5</ele><time>2026-05-03T09:59:11.567Z</time></trkpt><trkpt lat="45.7153043" lon="13.7890461"><ele>298.0</ele><time>2026-05-03T09:59:12.566Z</time></trkpt><trkpt lat="45.7154239" lon="13.7890567"><ele>298.5</ele><time>2026-05-03T09:59:13.567Z</time></trkpt><trkpt lat="45.7155478" lon="13.7890863"><ele>299.0</ele><time>2026-05-03T09:59:14.567Z</time></trkpt><trkpt lat="45.7156748" lon="13.7891107"><ele>299.0</ele><time>2026-05-03T09:59:15.566Z</time></trkpt><trkpt lat="45.7157823" lon="13.7891532"><ele>299.0</ele><time>2026-05-03T09:59:16.567Z</time></trkpt><trkpt lat="45.7158869" lon="13.7891805"><ele>299.0</ele><time>2026-05-03T09:59:17.566Z</time></trkpt><trkpt lat="45.7159966" lon="13.7892223"><ele>299.0</ele><time>2026-05-03T09:59:18.566Z</time></trkpt><trkpt lat="45.7161031" lon="13.7892756"><ele>299.0</ele><time>2026-05-03T09:59:19.566Z</time></trkpt><trkpt lat="45.7162148" lon="13.7893036"><ele>299.2</ele><time>2026-05-03T09:59:20.567Z</time></trkpt><trkpt lat="45.7163143" lon="13.7893145"><ele>299.4</ele><time>2026-05-03T09:59:21.567Z</time></trkpt><trkpt lat="45.7164256" lon="13.7893311"><ele>299.6</ele><time>2026-05-03T09:59:22.567Z</time></trkpt><trkpt lat="45.7165411" lon="13.789327"><ele>299.8</ele><time>2026-05-03T09:59:23.566Z</time></trkpt><trkpt lat="45.7166547" lon="13.7893018"><ele>300.0</ele><time>2026-05-03T09:59:24.567Z</time></trkpt><trkpt lat="45.7167594" lon="13.7892505"><ele>300.0</ele><time>2026-05-03T09:59:25.567Z</time></trkpt><trkpt lat="45.716871" lon="13.7892075"><ele>300.0</ele><time>2026-05-03T09:59:26.567Z</time></trkpt><trkpt lat="45.716976" lon="13.7891654"><ele>300.0</ele><time>2026-05-03T09:59:27.567Z</time></trkpt><trkpt lat="45.717084" lon="13.7891435"><ele>300.0</ele><time>2026-05-03T09:59:28.566Z</time></trkpt><trkpt lat="45.7171999" lon="13.7891565"><ele>299.75</ele><time>2026-05-03T09:59:29.566Z</time></trkpt><trkpt lat="45.7173092" lon="13.7891809"><ele>299.5</ele><time>2026-05-03T09:59:30.567Z</time></trkpt><trkpt lat="45.7174179" lon="13.7892355"><ele>299.25</ele><time>2026-05-03T09:59:31.566Z</time></trkpt><trkpt lat="45.7175116" lon="13.7893143"><ele>299.0</ele><time>2026-05-03T09:59:32.567Z</time></trkpt><trkpt lat="45.7176123" lon="13.7894126"><ele>299.8</ele><time>2026-05-03T09:59:33.566Z</time></trkpt><trkpt lat="45.7176953" lon="13.7895179"><ele>300.59999999999997</ele><time>2026-05-03T09:59:34.566Z</time></trkpt><trkpt lat="45.7177611" lon="13.7896496"><ele>301.4</ele><time>2026-05-03T09:59:35.566Z</time></trkpt><trkpt lat="45.7178242" lon="13.7897784"><ele>302.2</ele><time>2026-05-03T09:59:36.566Z</time></trkpt><trkpt lat="45.7178869" lon="13.7899171"><ele>303.0</ele><time>2026-05-03T09:59:37.567Z</time></trkpt><trkpt lat="45.7179546" lon="13.7900379"><ele>303.25</ele><time>2026-05-03T09:59:38.566Z</time></trkpt><trkpt lat="45.7180334" lon="13.7901731"><ele>303.5</ele><time>2026-05-03T09:59:39.567Z</time></trkpt><trkpt lat="45.718134" lon="13.7902747"><ele>303.75</ele><time>2026-05-03T09:59:40.567Z</time></trkpt><trkpt lat="45.7182405" lon="13.7903636"><ele>304.0</ele><time>2026-05-03T09:59:41.567Z</time></trkpt><trkpt lat="45.7183486" lon="13.7904408"><ele>305.25</ele><time>2026-05-03T09:59:42.567Z</time></trkpt><trkpt lat="45.7184557" lon="13.7904931"><ele>306.5</ele><time>2026-05-03T09:59:43.566Z</time></trkpt><trkpt lat="45.7185643" lon="13.7905841"><ele>307.75</ele><time>2026-05-03T09:59:44.567Z</time></trkpt><trkpt lat="45.718659" lon="13.7906758"><ele>309.0</ele><time>2026-05-03T09:59:45.567Z</time></trkpt><trkpt lat="45.7187528" lon="13.7907711"><ele>309.0</ele><time>2026-05-03T09:59:46.567Z</time></trkpt><trkpt lat="45.7188331" lon="13.7908748"><ele>309.0</ele><time>2026-05-03T09:59:47.567Z</time></trkpt><trkpt lat="45.7189106" lon="13.7909792"><ele>309.0</ele><time>2026-05-03T09:59:48.566Z</time></trkpt><trkpt lat="45.7189825" lon="13.7910726"><ele>309.0</ele><time>2026-05-03T09:59:49.566Z</time></trkpt><trkpt lat="45.7190494" lon="13.7911794"><ele>309.0</ele><time>2026-05-03T09:59:50.566Z</time></trkpt><trkpt lat="45.7191168" lon="13.791288"><ele>309.4</ele><time>2026-05-03T09:59:51.566Z</time></trkpt><trkpt lat="45.7191874" lon="13.7914047"><ele>309.79999999999995</ele><time>2026-05-03T09:59:52.566Z</time></trkpt><trkpt lat="45.7192405" lon="13.7915309"><ele>310.20000000000005</ele><time>2026-05-03T09:59:53.567Z</time></trkpt><trkpt lat="45.7193031" lon="13.7916709"><ele>310.6</ele><time>2026-05-03T09:59:54.566Z</time></trkpt><trkpt lat="45.7193518" lon="13.7918121"><ele>311.0</ele><time>2026-05-03T09:59:55.566Z</time></trkpt><trkpt lat="45.7194047" lon="13.7919383"><ele>309.2</ele><time>2026-05-03T09:59:56.567Z</time></trkpt><trkpt lat="45.7194786" lon="13.7920637"><ele>307.40000000000003</ele><time>2026-05-03T09:59:57.566Z</time></trkpt><trkpt lat="45.7195626" lon="13.7921394"><ele>305.6</ele><time>2026-05-03T09:59:58.566Z</time></trkpt><trkpt lat="45.7196521" lon="13.7922334"><ele>303.8</ele><time>2026-05-03T09:59:59.566Z</time></trkpt><trkpt lat="45.7197506" lon="13.7923041"><ele>302.0</ele><time>2026-05-03T10:00:00.567Z</time></trkpt><trkpt lat="45.7198595" lon="13.7923539"><ele>302.0</ele><time>2026-05-03T10:00:01.566Z</time></trkpt><trkpt lat="45.7199659" lon="13.7923763"><ele>302.0</ele><time>2026-05-03T10:00:02.566Z</time></trkpt><trkpt lat="45.7200742" lon="13.7923849"><ele>302.0</ele><time>2026-05-03T10:00:03.566Z</time></trkpt><trkpt lat="45.7201894" lon="13.7923819"><ele>302.0</ele><time>2026-05-03T10:00:04.567Z</time></trkpt><trkpt lat="45.7203041" lon="13.792377"><ele>302.0</ele><time>2026-05-03T10:00:05.567Z</time></trkpt><trkpt lat="45.7204126" lon="13.7923737"><ele>302.4</ele><time>2026-05-03T10:00:06.567Z</time></trkpt><trkpt lat="45.7205183" lon="13.7923904"><ele>302.79999999999995</ele><time>2026-05-03T10:00:07.566Z</time></trkpt><trkpt lat="45.7206254" lon="13.7923862"><ele>303.2</ele><time>2026-05-03T10:00:08.566Z</time></trkpt><trkpt lat="45.7207348" lon="13.7923984"><ele>303.59999999999997</ele><time>2026-05-03T10:00:09.567Z</time></trkpt><trkpt lat="45.7208438" lon="13.7924117"><ele>304.0</ele><time>2026-05-03T10:00:10.566Z</time></trkpt><trkpt lat="45.7209472" lon="13.7924026"><ele>304.0</ele><time>2026-05-03T10:00:11.566Z</time></trkpt><trkpt lat="45.7210614" lon="13.7923861"><ele>304.0</ele><time>2026-05-03T10:00:12.566Z</time></trkpt><trkpt lat="45.7211591" lon="13.7923554"><ele>304.0</ele><time>2026-05-03T10:00:13.567Z</time></trkpt><trkpt lat="45.7212668" lon="13.7923098"><ele>304.0</ele><time>2026-05-03T10:00:14.566Z</time></trkpt><trkpt lat="45.7213707" lon="13.7922548"><ele>304.0</ele><time>2026-05-03T10:00:15.567Z</time></trkpt><trkpt lat="45.7214808" lon="13.7922138"><ele>304.59999999999997</ele><time>2026-05-03T10:00:16.567Z</time></trkpt><trkpt lat="45.7215815" lon="13.7921923"><ele>305.2</ele><time>2026-05-03T10:00:17.567Z</time></trkpt><trkpt lat="45.7216823" lon="13.792172"><ele>305.79999999999995</ele><time>2026-05-03T10:00:18.566Z</time></trkpt><trkpt lat="45.721782" lon="13.7921632"><ele>306.4</ele><time>2026-05-03T10:00:19.566Z</time></trkpt><trkpt lat="45.7218845" lon="13.7921512"><ele>307.0</ele><time>2026-05-03T10:00:20.567Z</time></trkpt><trkpt lat="45.7219725" lon="13.7921492"><ele>308.3333333333333</ele><time>2026-05-03T10:00:21.567Z</time></trkpt><trkpt lat="45.7220558" lon="13.7921412"><ele>309.66666666666663</ele><time>2026-05-03T10:00:22.567Z</time></trkpt><trkpt lat="45.722123" lon="13.7921277"><ele>311.0</ele><time>2026-05-03T10:00:23.566Z</time></trkpt><trkpt lat="45.72221" lon="13.7921103"><ele>312.3333333333333</ele><time>2026-05-03T10:00:25.567Z</time></trkpt><trkpt lat="45.7222895" lon="13.7920678"><ele>313.6666666666667</ele><time>2026-05-03T10:00:29.567Z</time></trkpt><trkpt lat="45.7223459" lon="13.7919455"><ele>315.0</ele><time>2026-05-03T10:00:31.566Z</time></trkpt><trkpt lat="45.7223856" lon="13.7918697"><ele>315.1666666666667</ele><time>2026-05-03T10:00:32.567Z</time></trkpt><trkpt lat="45.7224409" lon="13.791804"><ele>315.3333333333333</ele><time>2026-05-03T10:00:33.566Z</time></trkpt><trkpt lat="45.7225067" lon="13.7917582"><ele>315.5</ele><time>2026-05-03T10:00:34.567Z</time></trkpt><trkpt lat="45.7225815" lon="13.7917159"><ele>315.66666666666663</ele><time>2026-05-03T10:00:35.566Z</time></trkpt><trkpt lat="45.722657" lon="13.7916787"><ele>315.8333333333333</ele><time>2026-05-03T10:00:36.567Z</time></trkpt><trkpt lat="45.7227384" lon="13.7916464"><ele>316.0</ele><time>2026-05-03T10:00:37.566Z</time></trkpt><trkpt lat="45.7228224" lon="13.7916035"><ele>316.00000000000006</ele><time>2026-05-03T10:00:38.566Z</time></trkpt><trkpt lat="45.7228976" lon="13.7915801"><ele>316.0</ele><time>2026-05-03T10:00:39.566Z</time></trkpt><trkpt lat="45.7229728" lon="13.7915685"><ele>316.0</ele><time>2026-05-03T10:00:40.566Z</time></trkpt><trkpt lat="45.7230458" lon="13.7915728"><ele>316.0</ele><time>2026-05-03T10:00:41.566Z</time></trkpt><trkpt lat="45.7231143" lon="13.7915584"><ele>316.0</ele><time>2026-05-03T10:00:42.567Z</time></trkpt><trkpt lat="45.7231664" lon="13.7916121"><ele>316.00000000000006</ele><time>2026-05-03T10:00:43.567Z</time></trkpt><trkpt lat="45.7232236" lon="13.791656"><ele>316.0</ele><time>2026-05-03T10:00:44.567Z</time></trkpt><trkpt lat="45.7232463" lon="13.7917483"><ele>316.8</ele><time>2026-05-03T10:00:45.567Z</time></trkpt><trkpt lat="45.7232816" lon="13.7919094"><ele>317.6</ele><time>2026-05-03T10:00:47.567Z</time></trkpt><trkpt lat="45.7232856" lon="13.7920041"><ele>318.4</ele><time>2026-05-03T10:00:48.567Z</time></trkpt><trkpt lat="45.7232769" lon="13.7921064"><ele>319.2</ele><time>2026-05-03T10:00:49.566Z</time></trkpt><trkpt lat="45.7232573" lon="13.7922776"><ele>320.0</ele><time>2026-05-03T10:00:51.567Z</time></trkpt><trkpt lat="45.7232007" lon="13.7923837"><ele>320.0</ele><time>2026-05-03T10:00:53.566Z</time></trkpt><trkpt lat="45.7232314" lon="13.7925354"><ele>320.0</ele><time>2026-05-03T10:00:55.567Z</time></trkpt><trkpt lat="45.7232238" lon="13.7926682"><ele>320.0</ele><time>2026-05-03T10:00:57.566Z</time></trkpt><trkpt lat="45.7232384" lon="13.7928308"><ele>320.0</ele><time>2026-05-03T10:00:59.567Z</time></trkpt><trkpt lat="45.7233482" lon="13.792949"><ele>320.6666666666667</ele><time>2026-05-03T10:01:01.566Z</time></trkpt><trkpt lat="45.723409" lon="13.7930088"><ele>321.33333333333337</ele><time>2026-05-03T10:01:02.567Z</time></trkpt><trkpt lat="45.7234621" lon="13.7930755"><ele>322.0</ele><time>2026-05-03T10:01:03.566Z</time></trkpt><trkpt lat="45.7235143" lon="13.7931401"><ele>322.6666666666667</ele><time>2026-05-03T10:01:04.567Z</time></trkpt><trkpt lat="45.7235887" lon="13.7932554"><ele>323.3333333333333</ele><time>2026-05-03T10:01:06.567Z</time></trkpt><trkpt lat="45.7236182" lon="13.7933363"><ele>324.0</ele><time>2026-05-03T10:01:07.566Z</time></trkpt><trkpt lat="45.7236367" lon="13.7935033"><ele>325.3333333333333</ele><time>2026-05-03T10:01:09.567Z</time></trkpt><trkpt lat="45.7236283" lon="13.7936601"><ele>326.6666666666667</ele><time>2026-05-03T10:01:11.567Z</time></trkpt><trkpt lat="45.7236102" lon="13.7938361"><ele>328.0</ele><time>2026-05-03T10:01:13.566Z</time></trkpt><trkpt lat="45.7236004" lon="13.7939305"><ele>329.33333333333337</ele><time>2026-05-03T10:01:14.567Z</time></trkpt><trkpt lat="45.7235811" lon="13.7940242"><ele>330.6666666666667</ele><time>2026-05-03T10:01:15.567Z</time></trkpt><trkpt lat="45.7235712" lon="13.7941189"><ele>332.0</ele><time>2026-05-03T10:01:16.567Z</time></trkpt><trkpt lat="45.7235558" lon="13.7942169"><ele>332.0</ele><time>2026-05-03T10:01:17.567Z</time></trkpt><trkpt lat="45.7235511" lon="13.7943181"><ele>332.0</ele><time>2026-05-03T10:01:18.567Z</time></trkpt><trkpt lat="45.7235437" lon="13.7944202"><ele>332.0</ele><time>2026-05-03T10:01:19.567Z</time></trkpt><trkpt lat="45.7235403" lon="13.7945222"><ele>332.0</ele><time>2026-05-03T10:01:20.567Z</time></trkpt><trkpt lat="45.7235772" lon="13.7947056"><ele>332.0</ele><time>2026-05-03T10:01:22.566Z</time></trkpt><trkpt lat="45.7236158" lon="13.7948147"><ele>332.0</ele><time>2026-05-03T10:01:23.567Z</time></trkpt><trkpt lat="45.7236416" lon="13.7949199"><ele>336.33333333333337</ele><time>2026-05-03T10:01:24.566Z</time></trkpt><trkpt lat="45.7236747" lon="13.795034"><ele>340.6666666666667</ele><time>2026-05-03T10:01:25.567Z</time></trkpt><trkpt lat="45.7237028" lon="13.7951455"><ele>345.0</ele><time>2026-05-03T10:01:26.567Z</time></trkpt><trkpt lat="45.7237361" lon="13.795249"><ele>349.3333333333333</ele><time>2026-05-03T10:01:27.567Z</time></trkpt><trkpt lat="45.723777" lon="13.7953334"><ele>353.66666666666663</ele><time>2026-05-03T10:01:28.566Z</time></trkpt><trkpt lat="45.723855" lon="13.7954792"><ele>358.0</ele><time>2026-05-03T10:01:30.566Z</time></trkpt><trkpt lat="45.7238888" lon="13.7955669"><ele>358.0</ele><time>2026-05-03T10:01:31.567Z</time></trkpt><trkpt lat="45.723933" lon="13.795637"><ele>358.0</ele><time>2026-05-03T10:01:32.567Z</time></trkpt><trkpt lat="45.7239913" lon="13.7957581"><ele>358.0</ele><time>2026-05-03T10:01:34.566Z</time></trkpt><trkpt lat="45.7239675" lon="13.7959219"><ele>358.0</ele><time>2026-05-03T10:01:36.567Z</time></trkpt><trkpt lat="45.7239338" lon="13.7960802"><ele>358.0</ele><time>2026-05-03T10:01:38.567Z</time></trkpt><trkpt lat="45.7239017" lon="13.7962523"><ele>358.16666666666663</ele><time>2026-05-03T10:01:40.567Z</time></trkpt><trkpt lat="45.7238803" lon="13.7963431"><ele>358.3333333333333</ele><time>2026-05-03T10:01:41.566Z</time></trkpt><trkpt lat="45.7238695" lon="13.7964437"><ele>358.5</ele><time>2026-05-03T10:01:42.567Z</time></trkpt><trkpt lat="45.7238491" lon="13.7965468"><ele>358.6666666666667</ele><time>2026-05-03T10:01:43.567Z</time></trkpt><trkpt lat="45.7238305" lon="13.7967207"><ele>358.83333333333337</ele><time>2026-05-03T10:01:45.567Z</time></trkpt><trkpt lat="45.7238199" lon="13.7968096"><ele>359.0</ele><time>2026-05-03T10:01:47.566Z</time></trkpt><trkpt lat="45.7238046" lon="13.7969365"><ele>359.0</ele><time>2026-05-03T10:01:49.566Z</time></trkpt><trkpt lat="45.7237971" lon="13.7967682"><ele>359.0</ele><time>2026-05-03T10:01:57.567Z</time></trkpt><trkpt lat="45.723843" lon="13.7966912"><ele>359.0</ele><time>2026-05-03T10:01:58.566Z</time></trkpt><trkpt lat="45.7239048" lon="13.7964876"><ele>359.0</ele><time>2026-05-03T10:02:01.562Z</time></trkpt><trkpt lat="45.7239236" lon="13.7963083"><ele>359.0</ele><time>2026-05-03T10:02:03.561Z</time></trkpt><trkpt lat="45.7239583" lon="13.7961537"><ele>359.0</ele><time>2026-05-03T10:02:05.565Z</time></trkpt><trkpt lat="45.7239833" lon="13.7960439"><ele>359.0</ele><time>2026-05-03T10:02:07.57Z</time></trkpt><trkpt lat="45.7240585" lon="13.7961366"><ele>359.0</ele><time>2026-05-03T10:02:33.571Z</time></trkpt><trkpt lat="45.724105" lon="13.7962061"><ele>359.0</ele><time>2026-05-03T10:02:35.571Z</time></trkpt><trkpt lat="45.7241321" lon="13.7962879"><ele>359.0</ele><time>2026-05-03T10:02:37.571Z</time></trkpt><trkpt lat="45.7241566" lon="13.7964425"><ele>359.0</ele><time>2026-05-03T10:02:39.57Z</time></trkpt><trkpt lat="45.7242029" lon="13.7965783"><ele>359.0</ele><time>2026-05-03T10:02:41.571Z</time></trkpt><trkpt lat="45.7242393" lon="13.7966556"><ele>359.0</ele><time>2026-05-03T10:02:45.571Z</time></trkpt><trkpt lat="45.7243055" lon="13.7967158"><ele>359.0</ele><time>2026-05-03T10:02:51.57Z</time></trkpt><trkpt lat="45.7243321" lon="13.7968108"><ele>359.0</ele><time>2026-05-03T10:02:53.571Z</time></trkpt><trkpt lat="45.72436" lon="13.796908"><ele>359.0</ele><time>2026-05-03T10:02:56.57Z</time></trkpt><trkpt lat="45.7243667" lon="13.7970198"><ele>360.0</ele><time>2026-05-03T10:02:59.57Z</time></trkpt><trkpt lat="45.7243747" lon="13.797117"><ele>361.0</ele><time>2026-05-03T10:03:02.57Z</time></trkpt><trkpt lat="45.7243793" lon="13.7972231"><ele>362.0</ele><time>2026-05-03T10:03:05.57Z</time></trkpt><trkpt lat="45.7243178" lon="13.7974136"><ele>363.0</ele><time>2026-05-03T10:03:07.57Z</time></trkpt><trkpt lat="45.7242812" lon="13.7975526"><ele>364.0</ele><time>2026-05-03T10:03:09.571Z</time></trkpt><trkpt lat="45.7242246" lon="13.7976443"><ele>364.0</ele><time>2026-05-03T10:03:11.57Z</time></trkpt><trkpt lat="45.7242054" lon="13.7977385"><ele>364.0</ele><time>2026-05-03T10:03:14.57Z</time></trkpt><trkpt lat="45.7242342" lon="13.7976376"><ele>364.0</ele><time>2026-05-03T10:03:33.57Z</time></trkpt><trkpt lat="45.7242722" lon="13.7975545"><ele>364.0</ele><time>2026-05-03T10:03:36.571Z</time></trkpt><trkpt lat="45.7243136" lon="13.7974338"><ele>364.0</ele><time>2026-05-03T10:03:39.571Z</time></trkpt><trkpt lat="45.7243565" lon="13.7973546"><ele>364.0</ele><time>2026-05-03T10:03:41.57Z</time></trkpt><trkpt lat="45.724376" lon="13.7972436"><ele>364.0</ele><time>2026-05-03T10:03:44.571Z</time></trkpt><trkpt lat="45.7243915" lon="13.7971156"><ele>364.0</ele><time>2026-05-03T10:03:48.57Z</time></trkpt><trkpt lat="45.7244123" lon="13.7970045"><ele>364.0</ele><time>2026-05-03T10:03:51.571Z</time></trkpt><trkpt lat="45.7244458" lon="13.7970931"><ele>364.0</ele><time>2026-05-03T10:03:55.57Z</time></trkpt><trkpt lat="45.7244745" lon="13.7969955"><ele>364.0</ele><time>2026-05-03T10:04:36.57Z</time></trkpt><trkpt lat="45.7244163" lon="13.7969161"><ele>364.0</ele><time>2026-05-03T10:04:40.571Z</time></trkpt><trkpt lat="45.7243359" lon="13.7968905"><ele>364.6</ele><time>2026-05-03T10:04:45.57Z</time></trkpt><trkpt lat="45.7242906" lon="13.7967658"><ele>365.2</ele><time>2026-05-03T10:04:48.571Z</time></trkpt><trkpt lat="45.7242991" lon="13.7966474"><ele>365.8</ele><time>2026-05-03T10:04:50.571Z</time></trkpt><trkpt lat="45.7243727" lon="13.7965895"><ele>366.40000000000003</ele><time>2026-05-03T10:04:52.57Z</time></trkpt><trkpt lat="45.7244963" lon="13.7966805"><ele>367.0</ele><time>2026-05-03T10:04:54.571Z</time></trkpt><trkpt lat="45.7245764" lon="13.7967149"><ele>367.0</ele><time>2026-05-03T10:04:56.57Z</time></trkpt><trkpt lat="45.7246414" lon="13.7967509"><ele>367.0</ele><time>2026-05-03T10:04:57.57Z</time></trkpt><trkpt lat="45.7246968" lon="13.7968381"><ele>367.0</ele><time>2026-05-03T10:04:59.571Z</time></trkpt><trkpt lat="45.7247413" lon="13.7969278"><ele>367.0</ele><time>2026-05-03T10:05:01.57Z</time></trkpt><trkpt lat="45.7247979" lon="13.7970153"><ele>367.0</ele><time>2026-05-03T10:05:03.57Z</time></trkpt><trkpt lat="45.7248679" lon="13.7971289"><ele>367.0</ele><time>2026-05-03T10:05:05.57Z</time></trkpt><trkpt lat="45.724932" lon="13.7972374"><ele>367.0</ele><time>2026-05-03T10:05:07.569Z</time></trkpt><trkpt lat="45.7249958" lon="13.7973417"><ele>367.0</ele><time>2026-05-03T10:05:09.571Z</time></trkpt><trkpt lat="45.7250749" lon="13.7974055"><ele>367.0</ele><time>2026-05-03T10:05:13.57Z</time></trkpt><trkpt lat="45.7251396" lon="13.7974559"><ele>367.0</ele><time>2026-05-03T10:05:15.571Z</time></trkpt><trkpt lat="45.7252354" lon="13.7975122"><ele>367.0</ele><time>2026-05-03T10:05:17.571Z</time></trkpt><trkpt lat="45.7252817" lon="13.7975825"><ele>367.0</ele><time>2026-05-03T10:05:18.571Z</time></trkpt><trkpt lat="45.7253558" lon="13.7977004"><ele>368.20000000000005</ele><time>2026-05-03T10:05:20.57Z</time></trkpt><trkpt lat="45.725439" lon="13.797888"><ele>369.4</ele><time>2026-05-03T10:05:22.57Z</time></trkpt><trkpt lat="45.7254692" lon="13.7979914"><ele>370.6</ele><time>2026-05-03T10:05:24.571Z</time></trkpt><trkpt lat="45.7255186" lon="13.7981173"><ele>371.79999999999995</ele><time>2026-05-03T10:05:26.57Z</time></trkpt><trkpt lat="45.7255756" lon="13.7981977"><ele>373.0</ele><time>2026-05-03T10:05:27.57Z</time></trkpt><trkpt lat="45.725679" lon="13.7982969"><ele>373.0</ele><time>2026-05-03T10:05:29.571Z</time></trkpt><trkpt lat="45.7257595" lon="13.7984277"><ele>373.0</ele><time>2026-05-03T10:05:31.571Z</time></trkpt><trkpt lat="45.7258112" lon="13.7985604"><ele>373.0</ele><time>2026-05-03T10:05:32.571Z</time></trkpt><trkpt lat="45.725882" lon="13.7986721"><ele>373.0</ele><time>2026-05-03T10:05:34.571Z</time></trkpt><trkpt lat="45.7259495" lon="13.798761"><ele>373.0</ele><time>2026-05-03T10:05:35.57Z</time></trkpt><trkpt lat="45.7259704" lon="13.798852"><ele>373.2</ele><time>2026-05-03T10:05:36.57Z</time></trkpt><trkpt lat="45.7260139" lon="13.7989385"><ele>373.4</ele><time>2026-05-03T10:05:38.57Z</time></trkpt><trkpt lat="45.7260777" lon="13.7990586"><ele>373.59999999999997</ele><time>2026-05-03T10:05:40.571Z</time></trkpt><trkpt lat="45.7261169" lon="13.7991423"><ele>373.79999999999995</ele><time>2026-05-03T10:05:41.57Z</time></trkpt><trkpt lat="45.7261788" lon="13.7992686"><ele>374.0</ele><time>2026-05-03T10:05:42.571Z</time></trkpt><trkpt lat="45.7262512" lon="13.7994138"><ele>371.0</ele><time>2026-05-03T10:05:44.57Z</time></trkpt><trkpt lat="45.7263042" lon="13.7994838"><ele>368.0</ele><time>2026-05-03T10:05:45.57Z</time></trkpt><trkpt lat="45.726413" lon="13.799583"><ele>365.0</ele><time>2026-05-03T10:05:47.57Z</time></trkpt><trkpt lat="45.7264535" lon="13.799677"><ele>362.0</ele><time>2026-05-03T10:05:49.571Z</time></trkpt><trkpt lat="45.7264226" lon="13.799825"><ele>359.0</ele><time>2026-05-03T10:05:51.57Z</time></trkpt><trkpt lat="45.726392" lon="13.7999599"><ele>357.0</ele><time>2026-05-03T10:05:53.57Z</time></trkpt><trkpt lat="45.7264476" lon="13.8001731"><ele>355.0</ele><time>2026-05-03T10:06:10.571Z</time></trkpt><trkpt lat="45.7265268" lon="13.8002469"><ele>353.0</ele><time>2026-05-03T10:06:11.571Z</time></trkpt><trkpt lat="45.7266028" lon="13.8002759"><ele>351.0</ele><time>2026-05-03T10:06:13.571Z</time></trkpt><trkpt lat="45.7266899" lon="13.8003964"><ele>351.0</ele><time>2026-05-03T10:06:14.571Z</time></trkpt><trkpt lat="45.7267487" lon="13.8004732"><ele>351.0</ele><time>2026-05-03T10:06:15.57Z</time></trkpt><trkpt lat="45.7268139" lon="13.8005517"><ele>351.0</ele><time>2026-05-03T10:06:16.571Z</time></trkpt><trkpt lat="45.7269096" lon="13.8006986"><ele>351.0</ele><time>2026-05-03T10:06:18.57Z</time></trkpt><trkpt lat="45.7269778" lon="13.8008182"><ele>351.0</ele><time>2026-05-03T10:06:20.57Z</time></trkpt><trkpt lat="45.7270708" lon="13.8008611"><ele>351.1666666666667</ele><time>2026-05-03T10:06:22.571Z</time></trkpt><trkpt lat="45.7271237" lon="13.8009375"><ele>351.3333333333333</ele><time>2026-05-03T10:06:24.571Z</time></trkpt><trkpt lat="45.7272007" lon="13.8009942"><ele>351.5</ele><time>2026-05-03T10:06:26.571Z</time></trkpt><trkpt lat="45.7272643" lon="13.8010801"><ele>351.66666666666663</ele><time>2026-05-03T10:06:28.571Z</time></trkpt><trkpt lat="45.727335" lon="13.8011754"><ele>351.8333333333333</ele><time>2026-05-03T10:06:30.571Z</time></trkpt><trkpt lat="45.7273947" lon="13.8012587"><ele>352.0</ele><time>2026-05-03T10:06:32.571Z</time></trkpt><trkpt lat="45.7274669" lon="13.801387"><ele>351.3333333333333</ele><time>2026-05-03T10:06:34.57Z</time></trkpt><trkpt lat="45.7275132" lon="13.8015455"><ele>350.66666666666663</ele><time>2026-05-03T10:06:36.57Z</time></trkpt><trkpt lat="45.7275366" lon="13.8016325"><ele>350.0</ele><time>2026-05-03T10:06:37.571Z</time></trkpt><trkpt lat="45.7275747" lon="13.8017181"><ele>349.3333333333333</ele><time>2026-05-03T10:06:38.571Z</time></trkpt><trkpt lat="45.727615" lon="13.8018059"><ele>348.6666666666667</ele><time>2026-05-03T10:06:39.571Z</time></trkpt><trkpt lat="45.7276477" lon="13.8018889"><ele>348.0</ele><time>2026-05-03T10:06:40.57Z</time></trkpt><trkpt lat="45.7276845" lon="13.8019798"><ele>347.42857142857144</ele><time>2026-05-03T10:06:41.57Z</time></trkpt><trkpt lat="45.7277093" lon="13.8020677"><ele>346.8571428571429</ele><time>2026-05-03T10:06:42.571Z</time></trkpt><trkpt lat="45.7277449" lon="13.8021589"><ele>346.28571428571433</ele><time>2026-05-03T10:06:43.571Z</time></trkpt><trkpt lat="45.7277738" lon="13.8022462"><ele>345.7142857142857</ele><time>2026-05-03T10:06:44.571Z</time></trkpt><trkpt lat="45.727804" lon="13.8023425"><ele>345.14285714285717</ele><time>2026-05-03T10:06:45.571Z</time></trkpt><trkpt lat="45.7278325" lon="13.8024246"><ele>344.5714285714286</ele><time>2026-05-03T10:06:46.571Z</time></trkpt><trkpt lat="45.7278748" lon="13.802512"><ele>344.0</ele><time>2026-05-03T10:06:47.57Z</time></trkpt><trkpt lat="45.7279226" lon="13.802595"><ele>345.5</ele><time>2026-05-03T10:06:48.57Z</time></trkpt><trkpt lat="45.7279911" lon="13.8027605"><ele>347.0</ele><time>2026-05-03T10:06:50.571Z</time></trkpt><trkpt lat="45.7280259" lon="13.8028452"><ele>348.5</ele><time>2026-05-03T10:06:51.571Z</time></trkpt><trkpt lat="45.7280681" lon="13.8029192"><ele>350.0</ele><time>2026-05-03T10:06:52.571Z</time></trkpt><trkpt lat="45.7280996" lon="13.8030104"><ele>351.5</ele><time>2026-05-03T10:06:53.571Z</time></trkpt><trkpt lat="45.7281385" lon="13.8031023"><ele>353.0</ele><time>2026-05-03T10:06:54.57Z</time></trkpt><trkpt lat="45.7281801" lon="13.8031839"><ele>353.0</ele><time>2026-05-03T10:06:55.57Z</time></trkpt><trkpt lat="45.7282209" lon="13.8032605"><ele>353.0</ele><time>2026-05-03T10:06:56.57Z</time></trkpt><trkpt lat="45.7282594" lon="13.8033427"><ele>353.0</ele><time>2026-05-03T10:06:57.571Z</time></trkpt><trkpt lat="45.7282939" lon="13.803441"><ele>353.0</ele><time>2026-05-03T10:06:58.571Z</time></trkpt><trkpt lat="45.7283451" lon="13.803569"><ele>353.0</ele><time>2026-05-03T10:07:00.571Z</time></trkpt><trkpt lat="45.7283254" lon="13.8037202"><ele>353.0</ele><time>2026-05-03T10:09:59.57Z</time></trkpt><trkpt lat="45.7283095" lon="13.8038375"><ele>352.33333333333337</ele><time>2026-05-03T10:10:00.57Z</time></trkpt><trkpt lat="45.7283513" lon="13.8039911"><ele>351.6666666666667</ele><time>2026-05-03T10:10:02.571Z</time></trkpt><trkpt lat="45.7283876" lon="13.8040887"><ele>351.0</ele><time>2026-05-03T10:10:03.57Z</time></trkpt><trkpt lat="45.7284295" lon="13.804181"><ele>350.3333333333333</ele><time>2026-05-03T10:10:04.57Z</time></trkpt><trkpt lat="45.7284648" lon="13.8042646"><ele>349.66666666666663</ele><time>2026-05-03T10:10:05.57Z</time></trkpt><trkpt lat="45.7284903" lon="13.8043512"><ele>349.0</ele><time>2026-05-03T10:10:06.571Z</time></trkpt><trkpt lat="45.7285075" lon="13.8044638"><ele>349.16666666666663</ele><time>2026-05-03T10:10:07.57Z</time></trkpt><trkpt lat="45.7285305" lon="13.804587"><ele>349.3333333333333</ele><time>2026-05-03T10:10:08.571Z</time></trkpt><trkpt lat="45.7285505" lon="13.8047187"><ele>349.5</ele><time>2026-05-03T10:10:09.57Z</time></trkpt><trkpt lat="45.7285728" lon="13.8048392"><ele>349.6666666666667</ele><time>2026-05-03T10:10:10.571Z</time></trkpt><trkpt lat="45.7285992" lon="13.8049467"><ele>349.83333333333337</ele><time>2026-05-03T10:10:11.571Z</time></trkpt><trkpt lat="45.7286192" lon="13.8050551"><ele>350.0</ele><time>2026-05-03T10:10:12.57Z</time></trkpt><trkpt lat="45.7286472" lon="13.8051712"><ele>350.0</ele><time>2026-05-03T10:10:13.571Z</time></trkpt><trkpt lat="45.7286668" lon="13.8052724"><ele>350.0</ele><time>2026-05-03T10:10:14.57Z</time></trkpt><trkpt lat="45.7286928" lon="13.8054563"><ele>350.0</ele><time>2026-05-03T10:10:16.571Z</time></trkpt><trkpt lat="45.7287053" lon="13.8055761"><ele>350.0</ele><time>2026-05-03T10:10:17.57Z</time></trkpt><trkpt lat="45.7287279" lon="13.8057557"><ele>350.0</ele><time>2026-05-03T10:10:19.57Z</time></trkpt><trkpt lat="45.7287757" lon="13.8058195"><ele>350.0</ele><time>2026-05-03T10:10:22.57Z</time></trkpt><trkpt lat="45.7288279" lon="13.8057639"><ele>350.0</ele><time>2026-05-03T10:10:24.57Z</time></trkpt><trkpt lat="45.7289086" lon="13.8057176"><ele>350.0</ele><time>2026-05-03T10:10:26.571Z</time></trkpt><trkpt lat="45.7290132" lon="13.8056713"><ele>350.0</ele><time>2026-05-03T10:10:28.571Z</time></trkpt><trkpt lat="45.7290875" lon="13.8056473"><ele>350.0</ele><time>2026-05-03T10:10:29.571Z</time></trkpt><trkpt lat="45.7291533" lon="13.805609"><ele>350.0</ele><time>2026-05-03T10:10:30.57Z</time></trkpt><trkpt lat="45.7292224" lon="13.8055902"><ele>350.0</ele><time>2026-05-03T10:10:31.571Z</time></trkpt><trkpt lat="45.7293461" lon="13.8055597"><ele>350.0</ele><time>2026-05-03T10:10:33.57Z</time></trkpt><trkpt lat="45.729413" lon="13.8055112"><ele>350.0</ele><time>2026-05-03T10:10:34.57Z</time></trkpt><trkpt lat="45.7294703" lon="13.8054697"><ele>350.0</ele><time>2026-05-03T10:10:35.571Z</time></trkpt><trkpt lat="45.7295425" lon="13.80545"><ele>350.0</ele><time>2026-05-03T10:10:36.571Z</time></trkpt><trkpt lat="45.7296319" lon="13.8054455"><ele>350.0</ele><time>2026-05-03T10:10:37.571Z</time></trkpt><trkpt lat="45.7297074" lon="13.8054809"><ele>350.83333333333337</ele><time>2026-05-03T10:10:38.571Z</time></trkpt><trkpt lat="45.7297899" lon="13.8055162"><ele>351.6666666666667</ele><time>2026-05-03T10:10:39.571Z</time></trkpt><trkpt lat="45.7298558" lon="13.8055054"><ele>352.5</ele><time>2026-05-03T10:10:40.571Z</time></trkpt><trkpt lat="45.7299221" lon="13.8055159"><ele>353.3333333333333</ele><time>2026-05-03T10:10:41.57Z</time></trkpt><trkpt lat="45.7300434" lon="13.8055697"><ele>354.16666666666663</ele><time>2026-05-03T10:10:43.571Z</time></trkpt><trkpt lat="45.7301039" lon="13.8056192"><ele>355.0</ele><time>2026-05-03T10:10:44.57Z</time></trkpt><trkpt lat="45.7301542" lon="13.8056834"><ele>355.0</ele><time>2026-05-03T10:10:45.57Z</time></trkpt><trkpt lat="45.7302139" lon="13.805727"><ele>355.0</ele><time>2026-05-03T10:10:46.571Z</time></trkpt><trkpt lat="45.7302797" lon="13.8056792"><ele>355.0</ele><time>2026-05-03T10:10:47.571Z</time></trkpt><trkpt lat="45.7303576" lon="13.8056303"><ele>355.0</ele><time>2026-05-03T10:10:49.571Z</time></trkpt><trkpt lat="45.7303918" lon="13.8055226"><ele>355.0</ele><time>2026-05-03T10:10:50.57Z</time></trkpt><trkpt lat="45.7304143" lon="13.8054075"><ele>355.0</ele><time>2026-05-03T10:10:51.57Z</time></trkpt><trkpt lat="45.7304685" lon="13.8053463"><ele>356.0</ele><time>2026-05-03T10:10:52.57Z</time></trkpt><trkpt lat="45.7305153" lon="13.8052822"><ele>357.0</ele><time>2026-05-03T10:10:53.57Z</time></trkpt><trkpt lat="45.7306174" lon="13.8052419"><ele>358.0</ele><time>2026-05-03T10:10:54.571Z</time></trkpt><trkpt lat="45.7306851" lon="13.8052256"><ele>359.0</ele><time>2026-05-03T10:10:55.571Z</time></trkpt><trkpt lat="45.7307516" lon="13.805206"><ele>360.0</ele><time>2026-05-03T10:10:56.571Z</time></trkpt><trkpt lat="45.7308131" lon="13.8051822"><ele>361.0</ele><time>2026-05-03T10:10:57.57Z</time></trkpt><trkpt lat="45.7309007" lon="13.8052942"><ele>361.0</ele><time>2026-05-03T10:10:58.57Z</time></trkpt><trkpt lat="45.7309708" lon="13.8053117"><ele>361.0</ele><time>2026-05-03T10:10:59.571Z</time></trkpt><trkpt lat="45.731037" lon="13.8053899"><ele>361.0</ele><time>2026-05-03T10:11:00.571Z</time></trkpt><trkpt lat="45.7310871" lon="13.8054703"><ele>361.0</ele><time>2026-05-03T10:11:01.571Z</time></trkpt><trkpt lat="45.7311274" lon="13.8055774"><ele>361.0</ele><time>2026-05-03T10:11:02.57Z</time></trkpt><trkpt lat="45.7311718" lon="13.8056693"><ele>361.0</ele><time>2026-05-03T10:11:03.57Z</time></trkpt><trkpt lat="45.7312098" lon="13.805788"><ele>364.0</ele><time>2026-05-03T10:11:04.57Z</time></trkpt><trkpt lat="45.731248" lon="13.8059006"><ele>367.0</ele><time>2026-05-03T10:11:05.571Z</time></trkpt><trkpt lat="45.7312862" lon="13.8060203"><ele>370.0</ele><time>2026-05-03T10:11:06.571Z</time></trkpt><trkpt lat="45.7313253" lon="13.806124"><ele>373.0</ele><time>2026-05-03T10:11:07.57Z</time></trkpt><trkpt lat="45.7313779" lon="13.8062238"><ele>376.0</ele><time>2026-05-03T10:11:08.57Z</time></trkpt><trkpt lat="45.7314359" lon="13.8063109"><ele>379.0</ele><time>2026-05-03T10:11:09.571Z</time></trkpt><trkpt lat="45.731498" lon="13.8064051"><ele>379.0</ele><time>2026-05-03T10:11:10.57Z</time></trkpt><trkpt lat="45.7315651" lon="13.8064859"><ele>379.0</ele><time>2026-05-03T10:11:11.571Z</time></trkpt><trkpt lat="45.7316305" lon="13.806569"><ele>379.0</ele><time>2026-05-03T10:11:12.571Z</time></trkpt><trkpt lat="45.7317007" lon="13.8066562"><ele>379.0</ele><time>2026-05-03T10:11:13.571Z</time></trkpt><trkpt lat="45.7317597" lon="13.8067282"><ele>379.0</ele><time>2026-05-03T10:11:14.571Z</time></trkpt><trkpt lat="45.7318171" lon="13.8068218"><ele>379.0</ele><time>2026-05-03T10:11:15.57Z</time></trkpt><trkpt lat="45.7318679" lon="13.8068998"><ele>379.8333333333333</ele><time>2026-05-03T10:11:16.571Z</time></trkpt><trkpt lat="45.7319234" lon="13.8069778"><ele>380.66666666666663</ele><time>2026-05-03T10:11:17.57Z</time></trkpt><trkpt lat="45.731981" lon="13.8070694"><ele>381.5</ele><time>2026-05-03T10:11:18.571Z</time></trkpt><trkpt lat="45.732048" lon="13.8071679"><ele>382.3333333333333</ele><time>2026-05-03T10:11:19.57Z</time></trkpt><trkpt lat="45.7321277" lon="13.807241"><ele>383.1666666666667</ele><time>2026-05-03T10:11:20.571Z</time></trkpt><trkpt lat="45.732193" lon="13.8073344"><ele>384.0</ele><time>2026-05-03T10:11:21.571Z</time></trkpt><trkpt lat="45.7322645" lon="13.8073802"><ele>384.0</ele><time>2026-05-03T10:11:22.57Z</time></trkpt><trkpt lat="45.7323357" lon="13.8074354"><ele>384.0</ele><time>2026-05-03T10:11:23.571Z</time></trkpt><trkpt lat="45.7324019" lon="13.8075087"><ele>384.0</ele><time>2026-05-03T10:11:25.571Z</time></trkpt><trkpt lat="45.7324696" lon="13.8074827"><ele>384.0</ele><time>2026-05-03T10:11:26.57Z</time></trkpt><trkpt lat="45.7325765" lon="13.8074418"><ele>384.0</ele><time>2026-05-03T10:11:28.571Z</time></trkpt><trkpt lat="45.7326878" lon="13.8073626"><ele>382.0</ele><time>2026-05-03T10:11:30.57Z</time></trkpt><trkpt lat="45.7328136" lon="13.8072396"><ele>380.0</ele><time>2026-05-03T10:11:32.571Z</time></trkpt><trkpt lat="45.7328766" lon="13.8071547"><ele>378.0</ele><time>2026-05-03T10:11:33.571Z</time></trkpt><trkpt lat="45.7329383" lon="13.807066"><ele>376.0</ele><time>2026-05-03T10:11:34.571Z</time></trkpt><trkpt lat="45.7329825" lon="13.8069605"><ele>374.0</ele><time>2026-05-03T10:11:35.571Z</time></trkpt><trkpt lat="45.7330025" lon="13.806856"><ele>377.0</ele><time>2026-05-03T10:11:36.571Z</time></trkpt><trkpt lat="45.733039" lon="13.8067613"><ele>380.0</ele><time>2026-05-03T10:11:37.571Z</time></trkpt><trkpt lat="45.7330824" lon="13.8066717"><ele>383.0</ele><time>2026-05-03T10:11:38.571Z</time></trkpt><trkpt lat="45.7332159" lon="13.806627"><ele>386.0</ele><time>2026-05-03T10:11:40.571Z</time></trkpt><trkpt lat="45.7332955" lon="13.8066176"><ele>389.0</ele><time>2026-05-03T10:11:41.57Z</time></trkpt><trkpt lat="45.7333802" lon="13.8065991"><ele>388.99999999999994</ele><time>2026-05-03T10:11:42.57Z</time></trkpt><trkpt lat="45.7334857" lon="13.8066072"><ele>389.0</ele><time>2026-05-03T10:11:43.571Z</time></trkpt><trkpt lat="45.7335485" lon="13.8066329"><ele>389.0</ele><time>2026-05-03T10:11:44.571Z</time></trkpt><trkpt lat="45.7336077" lon="13.8066822"><ele>389.0</ele><time>2026-05-03T10:11:45.57Z</time></trkpt><trkpt lat="45.7336664" lon="13.8067427"><ele>388.99999999999994</ele><time>2026-05-03T10:11:46.57Z</time></trkpt><trkpt lat="45.733712" lon="13.8068471"><ele>389.0</ele><time>2026-05-03T10:11:47.57Z</time></trkpt><trkpt lat="45.7337661" lon="13.8069251"><ele>388.66666666666663</ele><time>2026-05-03T10:11:48.571Z</time></trkpt><trkpt lat="45.7338224" lon="13.806973"><ele>388.3333333333333</ele><time>2026-05-03T10:11:49.57Z</time></trkpt><trkpt lat="45.733888" lon="13.8070408"><ele>388.0</ele><time>2026-05-03T10:11:50.57Z</time></trkpt><trkpt lat="45.7339596" lon="13.8071111"><ele>387.66666666666663</ele><time>2026-05-03T10:11:51.571Z</time></trkpt><trkpt lat="45.7340311" lon="13.8072148"><ele>387.3333333333333</ele><time>2026-05-03T10:11:52.57Z</time></trkpt><trkpt lat="45.7341214" lon="13.8072652"><ele>387.0</ele><time>2026-05-03T10:11:53.57Z</time></trkpt><trkpt lat="45.7341968" lon="13.807322"><ele>387.0</ele><time>2026-05-03T10:11:54.57Z</time></trkpt><trkpt lat="45.7342541" lon="13.8073721"><ele>387.0</ele><time>2026-05-03T10:11:55.571Z</time></trkpt><trkpt lat="45.7343054" lon="13.8074716"><ele>387.0</ele><time>2026-05-03T10:11:56.57Z</time></trkpt><trkpt lat="45.7343659" lon="13.8075454"><ele>387.0</ele><time>2026-05-03T10:11:57.571Z</time></trkpt><trkpt lat="45.7344242" lon="13.8076607"><ele>387.0</ele><time>2026-05-03T10:11:58.571Z</time></trkpt><trkpt lat="45.7344906" lon="13.8077538"><ele>387.0</ele><time>2026-05-03T10:11:59.571Z</time></trkpt><trkpt lat="45.7345578" lon="13.8078448"><ele>388.0</ele><time>2026-05-03T10:12:00.57Z</time></trkpt><trkpt lat="45.7346518" lon="13.8078491"><ele>389.0</ele><time>2026-05-03T10:12:01.57Z</time></trkpt><trkpt lat="45.7347361" lon="13.8078784"><ele>390.0</ele><time>2026-05-03T10:12:02.57Z</time></trkpt><trkpt lat="45.7347808" lon="13.8079444"><ele>391.0</ele><time>2026-05-03T10:12:03.571Z</time></trkpt><trkpt lat="45.7348292" lon="13.808043"><ele>392.0</ele><time>2026-05-03T10:12:04.57Z</time></trkpt><trkpt lat="45.7349088" lon="13.808056"><ele>393.0</ele><time>2026-05-03T10:12:05.571Z</time></trkpt><trkpt lat="45.734995" lon="13.8079942"><ele>393.0</ele><time>2026-05-03T10:12:06.57Z</time></trkpt><trkpt lat="45.7350642" lon="13.8080461"><ele>393.0</ele><time>2026-05-03T10:12:07.571Z</time></trkpt><trkpt lat="45.7351218" lon="13.8080908"><ele>393.0</ele><time>2026-05-03T10:12:08.571Z</time></trkpt><trkpt lat="45.7351856" lon="13.8081168"><ele>393.0</ele><time>2026-05-03T10:12:09.571Z</time></trkpt><trkpt lat="45.7353221" lon="13.8081095"><ele>393.0</ele><time>2026-05-03T10:12:11.57Z</time></trkpt><trkpt lat="45.7353646" lon="13.8080141"><ele>393.0</ele><time>2026-05-03T10:12:12.57Z</time></trkpt><trkpt lat="45.7354191" lon="13.8079413"><ele>393.8333333333333</ele><time>2026-05-03T10:12:13.571Z</time></trkpt><trkpt lat="45.7354701" lon="13.8078362"><ele>394.66666666666663</ele><time>2026-05-03T10:12:14.57Z</time></trkpt><trkpt lat="45.7355068" lon="13.8077598"><ele>395.5</ele><time>2026-05-03T10:12:15.571Z</time></trkpt><trkpt lat="45.735558" lon="13.8076956"><ele>396.3333333333333</ele><time>2026-05-03T10:12:16.571Z</time></trkpt><trkpt lat="45.7356498" lon="13.8076871"><ele>397.16666666666663</ele><time>2026-05-03T10:12:18.57Z</time></trkpt><trkpt lat="45.7357151" lon="13.8078051"><ele>398.0</ele><time>2026-05-03T10:12:20.571Z</time></trkpt><trkpt lat="45.73576" lon="13.8079052"><ele>397.99999999999994</ele><time>2026-05-03T10:12:22.57Z</time></trkpt><trkpt lat="45.7358014" lon="13.8080454"><ele>398.0</ele><time>2026-05-03T10:12:24.571Z</time></trkpt><trkpt lat="45.7358186" lon="13.8081427"><ele>398.0</ele><time>2026-05-03T10:12:25.57Z</time></trkpt><trkpt lat="45.7358362" lon="13.8082365"><ele>398.0</ele><time>2026-05-03T10:12:26.571Z</time></trkpt><trkpt lat="45.7358513" lon="13.8083441"><ele>397.99999999999994</ele><time>2026-05-03T10:12:27.57Z</time></trkpt><trkpt lat="45.7358644" lon="13.8084385"><ele>398.0</ele><time>2026-05-03T10:12:28.57Z</time></trkpt><trkpt lat="45.7358484" lon="13.8085285"><ele>396.99999999999994</ele><time>2026-05-03T10:12:29.571Z</time></trkpt><trkpt lat="45.735855" lon="13.8086355"><ele>396.0</ele><time>2026-05-03T10:12:30.571Z</time></trkpt><trkpt lat="45.7358922" lon="13.8087179"><ele>395.0</ele><time>2026-05-03T10:12:31.57Z</time></trkpt><trkpt lat="45.735902" lon="13.8088149"><ele>394.0</ele><time>2026-05-03T10:12:32.571Z</time></trkpt><trkpt lat="45.7359128" lon="13.8089134"><ele>393.0</ele><time>2026-05-03T10:12:33.571Z</time></trkpt><trkpt lat="45.7359413" lon="13.8090198"><ele>391.99999999999994</ele><time>2026-05-03T10:12:34.57Z</time></trkpt><trkpt lat="45.7359661" lon="13.8091062"><ele>391.0</ele><time>2026-05-03T10:12:35.571Z</time></trkpt><trkpt lat="45.7359819" lon="13.8093058"><ele>391.20000000000005</ele><time>2026-05-03T10:12:37.571Z</time></trkpt><trkpt lat="45.7360167" lon="13.8094643"><ele>391.40000000000003</ele><time>2026-05-03T10:12:39.571Z</time></trkpt><trkpt lat="45.7359572" lon="13.8096236"><ele>391.6</ele><time>2026-05-03T10:12:41.571Z</time></trkpt><trkpt lat="45.7359315" lon="13.8097137"><ele>391.8</ele><time>2026-05-03T10:12:42.571Z</time></trkpt><trkpt lat="45.7359654" lon="13.8098292"><ele>392.0</ele><time>2026-05-03T10:12:43.571Z</time></trkpt><trkpt lat="45.7359334" lon="13.809949"><ele>392.0</ele><time>2026-05-03T10:12:44.57Z</time></trkpt><trkpt lat="45.7359062" lon="13.8100732"><ele>392.0</ele><time>2026-05-03T10:12:46.57Z</time></trkpt><trkpt lat="45.7358708" lon="13.8102074"><ele>392.0</ele><time>2026-05-03T10:12:48.571Z</time></trkpt><trkpt lat="45.7358364" lon="13.8103513"><ele>392.0</ele><time>2026-05-03T10:12:50.57Z</time></trkpt><trkpt lat="45.7358006" lon="13.8104844"><ele>392.0</ele><time>2026-05-03T10:12:52.571Z</time></trkpt><trkpt lat="45.7357751" lon="13.8106373"><ele>393.20000000000005</ele><time>2026-05-03T10:12:54.57Z</time></trkpt><trkpt lat="45.735772" lon="13.8108196"><ele>394.4</ele><time>2026-05-03T10:12:56.57Z</time></trkpt><trkpt lat="45.7357636" lon="13.8109186"><ele>395.6</ele><time>2026-05-03T10:12:57.57Z</time></trkpt><trkpt lat="45.735717" lon="13.8109899"><ele>396.79999999999995</ele><time>2026-05-03T10:12:58.571Z</time></trkpt><trkpt lat="45.7356977" lon="13.8111512"><ele>398.0</ele><time>2026-05-03T10:13:00.571Z</time></trkpt><trkpt lat="45.7357618" lon="13.8110404"><ele>397.99999999999994</ele><time>2026-05-03T10:13:06.571Z</time></trkpt><trkpt lat="45.7357995" lon="13.8109291"><ele>398.0</ele><time>2026-05-03T10:13:07.571Z</time></trkpt><trkpt lat="45.7358451" lon="13.810792"><ele>398.0</ele><time>2026-05-03T10:13:08.57Z</time></trkpt><trkpt lat="45.7358739" lon="13.8106885"><ele>398.0</ele><time>2026-05-03T10:13:09.57Z</time></trkpt><trkpt lat="45.7358911" lon="13.8105676"><ele>397.99999999999994</ele><time>2026-05-03T10:13:10.571Z</time></trkpt><trkpt lat="45.7359159" lon="13.810455"><ele>398.0</ele><time>2026-05-03T10:13:11.57Z</time></trkpt><trkpt lat="45.7359329" lon="13.8103158"><ele>398.79999999999995</ele><time>2026-05-03T10:13:12.57Z</time></trkpt><trkpt lat="45.735964" lon="13.8101565"><ele>399.6</ele><time>2026-05-03T10:13:14.571Z</time></trkpt><trkpt lat="45.7359749" lon="13.8100634"><ele>400.4</ele><time>2026-05-03T10:13:15.57Z</time></trkpt><trkpt lat="45.7360224" lon="13.8099946"><ele>401.20000000000005</ele><time>2026-05-03T10:13:16.571Z</time></trkpt><trkpt lat="45.736135" lon="13.8099418"><ele>402.0</ele><time>2026-05-03T10:13:18.571Z</time></trkpt><trkpt lat="45.7362394" lon="13.8099316"><ele>402.0</ele><time>2026-05-03T10:13:20.57Z</time></trkpt><trkpt lat="45.7363222" lon="13.8099614"><ele>402.0</ele><time>2026-05-03T10:13:22.571Z</time></trkpt><trkpt lat="45.7363894" lon="13.8100253"><ele>402.0</ele><time>2026-05-03T10:13:24.57Z</time></trkpt><trkpt lat="45.7364957" lon="13.8100982"><ele>402.0</ele><time>2026-05-03T10:13:26.57Z</time></trkpt><trkpt lat="45.7365675" lon="13.8101224"><ele>402.0</ele><time>2026-05-03T10:13:27.57Z</time></trkpt><trkpt lat="45.7366298" lon="13.8101509"><ele>402.0</ele><time>2026-05-03T10:13:28.57Z</time></trkpt><trkpt lat="45.7367269" lon="13.8101274"><ele>402.0</ele><time>2026-05-03T10:13:30.571Z</time></trkpt><trkpt lat="45.7368197" lon="13.809991"><ele>402.0</ele><time>2026-05-03T10:13:32.57Z</time></trkpt><trkpt lat="45.7368724" lon="13.809892"><ele>402.0</ele><time>2026-05-03T10:13:33.571Z</time></trkpt><trkpt lat="45.7369172" lon="13.8098108"><ele>402.0</ele><time>2026-05-03T10:13:34.571Z</time></trkpt><trkpt lat="45.7369526" lon="13.8097283"><ele>402.0</ele><time>2026-05-03T10:13:35.571Z</time></trkpt><trkpt lat="45.7369921" lon="13.8096547"><ele>402.0</ele><time>2026-05-03T10:13:36.571Z</time></trkpt><trkpt lat="45.7370344" lon="13.8095557"><ele>400.6666666666667</ele><time>2026-05-03T10:13:37.57Z</time></trkpt><trkpt lat="45.7370907" lon="13.8094745"><ele>399.33333333333337</ele><time>2026-05-03T10:13:38.571Z</time></trkpt><trkpt lat="45.7371101" lon="13.8093808"><ele>398.0</ele><time>2026-05-03T10:13:39.571Z</time></trkpt><trkpt lat="45.7371557" lon="13.8092784"><ele>396.6666666666667</ele><time>2026-05-03T10:13:40.57Z</time></trkpt><trkpt lat="45.7372131" lon="13.8091777"><ele>395.33333333333337</ele><time>2026-05-03T10:13:41.57Z</time></trkpt><trkpt lat="45.737247" lon="13.8090685"><ele>394.0</ele><time>2026-05-03T10:13:42.571Z</time></trkpt><trkpt lat="45.7372575" lon="13.8089591"><ele>394.00000000000006</ele><time>2026-05-03T10:13:43.57Z</time></trkpt><trkpt lat="45.7372599" lon="13.8088425"><ele>394.0</ele><time>2026-05-03T10:13:44.571Z</time></trkpt><trkpt lat="45.7372766" lon="13.8087268"><ele>394.0</ele><time>2026-05-03T10:13:45.57Z</time></trkpt><trkpt lat="45.7373098" lon="13.8086429"><ele>394.0</ele><time>2026-05-03T10:13:46.571Z</time></trkpt><trkpt lat="45.7373981" lon="13.808494"><ele>394.00000000000006</ele><time>2026-05-03T10:13:48.571Z</time></trkpt><trkpt lat="45.7374504" lon="13.8084256"><ele>394.0</ele><time>2026-05-03T10:13:49.571Z</time></trkpt><trkpt lat="45.7375186" lon="13.8083743"><ele>392.83333333333337</ele><time>2026-05-03T10:13:50.57Z</time></trkpt><trkpt lat="45.7376083" lon="13.8082884"><ele>391.6666666666667</ele><time>2026-05-03T10:13:51.571Z</time></trkpt><trkpt lat="45.7376823" lon="13.8082237"><ele>390.5</ele><time>2026-05-03T10:13:52.57Z</time></trkpt><trkpt lat="45.7377484" lon="13.8081477"><ele>389.33333333333337</ele><time>2026-05-03T10:13:53.57Z</time></trkpt><trkpt lat="45.7378095" lon="13.808092"><ele>388.1666666666667</ele><time>2026-05-03T10:13:54.571Z</time></trkpt><trkpt lat="45.7378614" lon="13.8080181"><ele>387.0</ele><time>2026-05-03T10:13:55.571Z</time></trkpt><trkpt lat="45.7379112" lon="13.8079427"><ele>387.0</ele><time>2026-05-03T10:13:56.571Z</time></trkpt><trkpt lat="45.7379539" lon="13.8078645"><ele>387.0</ele><time>2026-05-03T10:13:57.571Z</time></trkpt><trkpt lat="45.7379941" lon="13.8077765"><ele>387.0</ele><time>2026-05-03T10:13:58.571Z</time></trkpt><trkpt lat="45.738042" lon="13.8076941"><ele>387.0</ele><time>2026-05-03T10:13:59.57Z</time></trkpt><trkpt lat="45.7380841" lon="13.8076155"><ele>387.0</ele><time>2026-05-03T10:14:00.57Z</time></trkpt><trkpt lat="45.7381413" lon="13.8075553"><ele>387.0</ele><time>2026-05-03T10:14:01.57Z</time></trkpt><trkpt lat="45.7381882" lon="13.8074759"><ele>387.0</ele><time>2026-05-03T10:14:02.57Z</time></trkpt><trkpt lat="45.7382227" lon="13.8073894"><ele>391.0</ele><time>2026-05-03T10:14:03.571Z</time></trkpt><trkpt lat="45.7382401" lon="13.8072857"><ele>395.0</ele><time>2026-05-03T10:14:04.571Z</time></trkpt><trkpt lat="45.7382632" lon="13.8071778"><ele>399.0</ele><time>2026-05-03T10:14:05.57Z</time></trkpt><trkpt lat="45.7383365" lon="13.8068786"><ele>403.0</ele><time>2026-05-03T10:14:08.558Z</time></trkpt><trkpt lat="45.7383644" lon="13.8067857"><ele>407.0</ele><time>2026-05-03T10:14:09.557Z</time></trkpt><trkpt lat="45.7383727" lon="13.8066682"><ele>409.99999999999994</ele><time>2026-05-03T10:14:10.559Z</time></trkpt><trkpt lat="45.7383931" lon="13.8065619"><ele>413.0</ele><time>2026-05-03T10:14:11.557Z</time></trkpt><trkpt lat="45.7384481" lon="13.806439"><ele>416.0</ele><time>2026-05-03T10:14:12.564Z</time></trkpt><trkpt lat="45.7384796" lon="13.8063421"><ele>419.0</ele><time>2026-05-03T10:14:13.56Z</time></trkpt><trkpt lat="45.7385076" lon="13.8062357"><ele>421.99999999999994</ele><time>2026-05-03T10:14:14.559Z</time></trkpt><trkpt lat="45.7385404" lon="13.8061396"><ele>425.0</ele><time>2026-05-03T10:14:15.56Z</time></trkpt><trkpt lat="45.738533" lon="13.8060431"><ele>426.57142857142856</ele><time>2026-05-03T10:14:16.56Z</time></trkpt><trkpt lat="45.7385431" lon="13.8059426"><ele>428.1428571428571</ele><time>2026-05-03T10:14:17.56Z</time></trkpt><trkpt lat="45.7385686" lon="13.805846"><ele>429.7142857142857</ele><time>2026-05-03T10:14:18.559Z</time></trkpt><trkpt lat="45.7385765" lon="13.8057528"><ele>431.2857142857143</ele><time>2026-05-03T10:14:19.56Z</time></trkpt><trkpt lat="45.7385579" lon="13.8056417"><ele>432.8571428571429</ele><time>2026-05-03T10:14:20.559Z</time></trkpt><trkpt lat="45.7385643" lon="13.8055397"><ele>434.42857142857144</ele><time>2026-05-03T10:14:21.559Z</time></trkpt><trkpt lat="45.7385423" lon="13.8054538"><ele>436.0</ele><time>2026-05-03T10:14:22.559Z</time></trkpt><trkpt lat="45.738518" lon="13.8053582"><ele>436.00000000000006</ele><time>2026-05-03T10:14:23.56Z</time></trkpt><trkpt lat="45.7385265" lon="13.8052475"><ele>436.0</ele><time>2026-05-03T10:14:24.559Z</time></trkpt><trkpt lat="45.7385278" lon="13.8051193"><ele>436.0</ele><time>2026-05-03T10:14:25.56Z</time></trkpt><trkpt lat="45.7384985" lon="13.8050102"><ele>436.0</ele><time>2026-05-03T10:14:26.56Z</time></trkpt><trkpt lat="45.7384762" lon="13.8048506"><ele>436.00000000000006</ele><time>2026-05-03T10:14:27.559Z</time></trkpt><trkpt lat="45.7384959" lon="13.8047528"><ele>436.0</ele><time>2026-05-03T10:14:28.559Z</time></trkpt><trkpt lat="45.7385126" lon="13.8046076"><ele>437.50000000000006</ele><time>2026-05-03T10:14:29.559Z</time></trkpt><trkpt lat="45.7384968" lon="13.8044839"><ele>439.0</ele><time>2026-05-03T10:14:30.56Z</time></trkpt><trkpt lat="45.7385074" lon="13.8043533"><ele>440.5</ele><time>2026-05-03T10:14:31.56Z</time></trkpt><trkpt lat="45.7385247" lon="13.8042214"><ele>442.0</ele><time>2026-05-03T10:14:32.56Z</time></trkpt><trkpt lat="45.7385244" lon="13.8040997"><ele>443.50000000000006</ele><time>2026-05-03T10:14:33.56Z</time></trkpt><trkpt lat="45.7385252" lon="13.8039732"><ele>445.0</ele><time>2026-05-03T10:14:34.559Z</time></trkpt><trkpt lat="45.7385341" lon="13.8038198"><ele>446.33333333333337</ele><time>2026-05-03T10:14:35.559Z</time></trkpt><trkpt lat="45.7385506" lon="13.8037025"><ele>447.6666666666667</ele><time>2026-05-03T10:14:36.56Z</time></trkpt><trkpt lat="45.7385665" lon="13.8035447"><ele>449.0</ele><time>2026-05-03T10:14:37.56Z</time></trkpt><trkpt lat="45.7386094" lon="13.8034641"><ele>450.33333333333337</ele><time>2026-05-03T10:14:38.559Z</time></trkpt><trkpt lat="45.7386385" lon="13.8033595"><ele>451.6666666666667</ele><time>2026-05-03T10:14:39.559Z</time></trkpt><trkpt lat="45.7386727" lon="13.8032585"><ele>453.0</ele><time>2026-05-03T10:14:40.559Z</time></trkpt><trkpt lat="45.7387162" lon="13.8031599"><ele>450.5</ele><time>2026-05-03T10:14:41.559Z</time></trkpt><trkpt lat="45.7387044" lon="13.803052"><ele>448.0</ele><time>2026-05-03T10:14:42.56Z</time></trkpt><trkpt lat="45.7387348" lon="13.8029532"><ele>445.5</ele><time>2026-05-03T10:14:43.559Z</time></trkpt><trkpt lat="45.7388332" lon="13.8028974"><ele>443.0</ele><time>2026-05-03T10:14:44.56Z</time></trkpt><trkpt lat="45.7388802" lon="13.8028146"><ele>440.5</ele><time>2026-05-03T10:14:45.56Z</time></trkpt><trkpt lat="45.7389293" lon="13.8027215"><ele>438.0</ele><time>2026-05-03T10:14:46.56Z</time></trkpt><trkpt lat="45.7389676" lon="13.8026381"><ele>438.0</ele><time>2026-05-03T10:14:47.559Z</time></trkpt><trkpt lat="45.7390173" lon="13.8025426"><ele>438.0</ele><time>2026-05-03T10:14:48.559Z</time></trkpt><trkpt lat="45.7390748" lon="13.8024516"><ele>438.0</ele><time>2026-05-03T10:14:49.56Z</time></trkpt><trkpt lat="45.7391241" lon="13.8023677"><ele>438.0</ele><time>2026-05-03T10:14:50.559Z</time></trkpt><trkpt lat="45.739172" lon="13.8022847"><ele>438.0</ele><time>2026-05-03T10:14:51.56Z</time></trkpt><trkpt lat="45.7392195" lon="13.802189"><ele>438.0</ele><time>2026-05-03T10:14:52.56Z</time></trkpt><trkpt lat="45.7392751" lon="13.8021014"><ele>438.0</ele><time>2026-05-03T10:14:53.56Z</time></trkpt><trkpt lat="45.7393576" lon="13.8019885"><ele>438.0</ele><time>2026-05-03T10:14:55.56Z</time></trkpt><trkpt lat="45.7394114" lon="13.8019245"><ele>438.0</ele><time>2026-05-03T10:14:56.56Z</time></trkpt><trkpt lat="45.739498" lon="13.8018534"><ele>438.0</ele><time>2026-05-03T10:14:57.56Z</time></trkpt><trkpt lat="45.7395686" lon="13.8017966"><ele>438.0</ele><time>2026-05-03T10:14:58.559Z</time></trkpt><trkpt lat="45.7396339" lon="13.8017442"><ele>438.0</ele><time>2026-05-03T10:14:59.56Z</time></trkpt><trkpt lat="45.7397008" lon="13.8017134"><ele>435.4</ele><time>2026-05-03T10:15:00.56Z</time></trkpt><trkpt lat="45.7398178" lon="13.8016715"><ele>432.79999999999995</ele><time>2026-05-03T10:15:02.56Z</time></trkpt><trkpt lat="45.7398966" lon="13.8016963"><ele>430.2</ele><time>2026-05-03T10:15:03.56Z</time></trkpt><trkpt lat="45.740028" lon="13.8017832"><ele>427.6</ele><time>2026-05-03T10:15:05.559Z</time></trkpt><trkpt lat="45.7400725" lon="13.8018472"><ele>425.0</ele><time>2026-05-03T10:15:06.56Z</time></trkpt><trkpt lat="45.7401435" lon="13.8019939"><ele>423.66666666666663</ele><time>2026-05-03T10:15:08.559Z</time></trkpt><trkpt lat="45.7401605" lon="13.8021173"><ele>422.3333333333333</ele><time>2026-05-03T10:15:09.56Z</time></trkpt><trkpt lat="45.7401688" lon="13.8022207"><ele>421.0</ele><time>2026-05-03T10:15:10.559Z</time></trkpt><trkpt lat="45.7401741" lon="13.8023202"><ele>419.66666666666663</ele><time>2026-05-03T10:15:11.56Z</time></trkpt><trkpt lat="45.7401892" lon="13.8024085"><ele>418.3333333333333</ele><time>2026-05-03T10:15:12.559Z</time></trkpt><trkpt lat="45.7401873" lon="13.8025162"><ele>417.0</ele><time>2026-05-03T10:15:13.56Z</time></trkpt><trkpt lat="45.7401735" lon="13.8026845"><ele>415.40000000000003</ele><time>2026-05-03T10:15:15.56Z</time></trkpt><trkpt lat="45.7401893" lon="13.8028222"><ele>413.8</ele><time>2026-05-03T10:15:17.559Z</time></trkpt><trkpt lat="45.7402653" lon="13.8029508"><ele>412.2</ele><time>2026-05-03T10:15:19.559Z</time></trkpt><trkpt lat="45.7403793" lon="13.8030646"><ele>410.6</ele><time>2026-05-03T10:15:21.56Z</time></trkpt><trkpt lat="45.7404423" lon="13.8031182"><ele>409.0</ele><time>2026-05-03T10:15:22.56Z</time></trkpt><trkpt lat="45.7405038" lon="13.8031593"><ele>407.00000000000006</ele><time>2026-05-03T10:15:23.56Z</time></trkpt><trkpt lat="45.7405724" lon="13.8031923"><ele>405.0</ele><time>2026-05-03T10:15:24.559Z</time></trkpt><trkpt lat="45.7406375" lon="13.8032257"><ele>403.0</ele><time>2026-05-03T10:15:25.56Z</time></trkpt><trkpt lat="45.7407137" lon="13.803266"><ele>401.0</ele><time>2026-05-03T10:15:27.559Z</time></trkpt><trkpt lat="45.7407823" lon="13.8032868"><ele>399.00000000000006</ele><time>2026-05-03T10:15:30.559Z</time></trkpt><trkpt lat="45.7407108" lon="13.8033401"><ele>397.0</ele><time>2026-05-03T10:15:32.559Z</time></trkpt><trkpt lat="45.7405896" lon="13.8034244"><ele>397.00000000000006</ele><time>2026-05-03T10:15:34.559Z</time></trkpt><trkpt lat="45.7405439" lon="13.8034931"><ele>397.0</ele><time>2026-05-03T10:15:35.559Z</time></trkpt><trkpt lat="45.7404799" lon="13.8035843"><ele>397.0</ele><time>2026-05-03T10:15:37.559Z</time></trkpt><trkpt lat="45.7404441" lon="13.8037004"><ele>397.0</ele><time>2026-05-03T10:15:39.56Z</time></trkpt><trkpt lat="45.740502" lon="13.8037618"><ele>397.00000000000006</ele><time>2026-05-03T10:15:42.56Z</time></trkpt><trkpt lat="45.7405709" lon="13.8037691"><ele>397.0</ele><time>2026-05-03T10:15:43.56Z</time></trkpt><trkpt lat="45.7406393" lon="13.8037619"><ele>393.83333333333337</ele><time>2026-05-03T10:15:44.56Z</time></trkpt><trkpt lat="45.740703" lon="13.8037647"><ele>390.6666666666667</ele><time>2026-05-03T10:15:45.559Z</time></trkpt><trkpt lat="45.7408301" lon="13.8037729"><ele>387.5</ele><time>2026-05-03T10:15:47.559Z</time></trkpt><trkpt lat="45.7409011" lon="13.8037718"><ele>384.33333333333337</ele><time>2026-05-03T10:15:48.56Z</time></trkpt><trkpt lat="45.7409609" lon="13.8037423"><ele>381.1666666666667</ele><time>2026-05-03T10:15:49.56Z</time></trkpt><trkpt lat="45.7410231" lon="13.8036944"><ele>378.0</ele><time>2026-05-03T10:15:50.559Z</time></trkpt><trkpt lat="45.7410875" lon="13.8036558"><ele>377.8333333333333</ele><time>2026-05-03T10:15:51.56Z</time></trkpt><trkpt lat="45.741148" lon="13.8036009"><ele>377.6666666666667</ele><time>2026-05-03T10:15:52.56Z</time></trkpt><trkpt lat="45.7412603" lon="13.8034932"><ele>377.5</ele><time>2026-05-03T10:15:54.559Z</time></trkpt><trkpt lat="45.7413225" lon="13.8034314"><ele>377.33333333333337</ele><time>2026-05-03T10:15:55.559Z</time></trkpt><trkpt lat="45.7413755" lon="13.8033703"><ele>377.1666666666667</ele><time>2026-05-03T10:15:56.56Z</time></trkpt><trkpt lat="45.7414375" lon="13.8033209"><ele>377.0</ele><time>2026-05-03T10:15:57.56Z</time></trkpt><trkpt lat="45.7415" lon="13.8032618"><ele>377.0</ele><time>2026-05-03T10:15:58.56Z</time></trkpt><trkpt lat="45.741569" lon="13.8032012"><ele>377.0</ele><time>2026-05-03T10:15:59.56Z</time></trkpt><trkpt lat="45.7416351" lon="13.8031325"><ele>377.0</ele><time>2026-05-03T10:16:00.56Z</time></trkpt><trkpt lat="45.7417052" lon="13.8030813"><ele>377.0</ele><time>2026-05-03T10:16:01.559Z</time></trkpt><trkpt lat="45.7417884" lon="13.8030099"><ele>377.0</ele><time>2026-05-03T10:16:02.56Z</time></trkpt><trkpt lat="45.7418586" lon="13.8029574"><ele>377.0</ele><time>2026-05-03T10:16:03.559Z</time></trkpt><trkpt lat="45.7419352" lon="13.8028986"><ele>375.0</ele><time>2026-05-03T10:16:04.56Z</time></trkpt><trkpt lat="45.7420123" lon="13.8028417"><ele>373.0</ele><time>2026-05-03T10:16:05.56Z</time></trkpt><trkpt lat="45.7420833" lon="13.8027766"><ele>371.0</ele><time>2026-05-03T10:16:06.559Z</time></trkpt><trkpt lat="45.7421576" lon="13.8027296"><ele>369.0</ele><time>2026-05-03T10:16:07.559Z</time></trkpt><trkpt lat="45.742234" lon="13.802682"><ele>367.0</ele><time>2026-05-03T10:16:08.559Z</time></trkpt><trkpt lat="45.7423024" lon="13.8026321"><ele>365.0</ele><time>2026-05-03T10:16:09.559Z</time></trkpt><trkpt lat="45.7423755" lon="13.8025891"><ele>365.0</ele><time>2026-05-03T10:16:10.56Z</time></trkpt><trkpt lat="45.7424482" lon="13.8025373"><ele>365.0</ele><time>2026-05-03T10:16:11.56Z</time></trkpt><trkpt lat="45.7425104" lon="13.8024777"><ele>365.0</ele><time>2026-05-03T10:16:12.56Z</time></trkpt><trkpt lat="45.7425717" lon="13.8023894"><ele>365.0</ele><time>2026-05-03T10:16:13.559Z</time></trkpt><trkpt lat="45.7426438" lon="13.8023203"><ele>365.0</ele><time>2026-05-03T10:16:14.56Z</time></trkpt><trkpt lat="45.7427316" lon="13.8021644"><ele>363.33333333333337</ele><time>2026-05-03T10:16:16.559Z</time></trkpt><trkpt lat="45.742774" lon="13.8020859"><ele>361.6666666666667</ele><time>2026-05-03T10:16:17.56Z</time></trkpt><trkpt lat="45.7428243" lon="13.8020109"><ele>360.0</ele><time>2026-05-03T10:16:18.56Z</time></trkpt><trkpt lat="45.7429333" lon="13.8019005"><ele>358.3333333333333</ele><time>2026-05-03T10:16:20.56Z</time></trkpt><trkpt lat="45.7429823" lon="13.8018381"><ele>356.66666666666663</ele><time>2026-05-03T10:16:21.559Z</time></trkpt><trkpt lat="45.7430317" lon="13.8017794"><ele>355.0</ele><time>2026-05-03T10:16:24.56Z</time></trkpt><trkpt lat="45.7430931" lon="13.8016713"><ele>355.0</ele><time>2026-05-03T10:21:43.565Z</time></trkpt><trkpt lat="45.7431779" lon="13.8015665"><ele>355.0</ele><time>2026-05-03T10:21:45.566Z</time></trkpt><trkpt lat="45.7432791" lon="13.8014535"><ele>355.0</ele><time>2026-05-03T10:21:47.565Z</time></trkpt><trkpt lat="45.7433525" lon="13.8013692"><ele>355.0</ele><time>2026-05-03T10:21:48.566Z</time></trkpt><trkpt lat="45.7434211" lon="13.8013038"><ele>355.0</ele><time>2026-05-03T10:21:49.566Z</time></trkpt><trkpt lat="45.7434887" lon="13.8012362"><ele>352.5</ele><time>2026-05-03T10:21:50.566Z</time></trkpt><trkpt lat="45.7435481" lon="13.8011762"><ele>350.0</ele><time>2026-05-03T10:21:51.566Z</time></trkpt><trkpt lat="45.7436093" lon="13.8011164"><ele>347.5</ele><time>2026-05-03T10:21:52.566Z</time></trkpt><trkpt lat="45.7436717" lon="13.8010564"><ele>345.0</ele><time>2026-05-03T10:21:53.565Z</time></trkpt><trkpt lat="45.7437312" lon="13.8009785"><ele>342.5</ele><time>2026-05-03T10:21:54.566Z</time></trkpt><trkpt lat="45.7437954" lon="13.8008964"><ele>340.0</ele><time>2026-05-03T10:21:55.565Z</time></trkpt><trkpt lat="45.7438391" lon="13.8008103"><ele>340.0</ele><time>2026-05-03T10:21:56.565Z</time></trkpt><trkpt lat="45.7439105" lon="13.8007207"><ele>340.0</ele><time>2026-05-03T10:21:57.565Z</time></trkpt><trkpt lat="45.7439667" lon="13.8006225"><ele>340.0</ele><time>2026-05-03T10:21:58.565Z</time></trkpt><trkpt lat="45.7440214" lon="13.8005318"><ele>340.0</ele><time>2026-05-03T10:21:59.565Z</time></trkpt><trkpt lat="45.7440882" lon="13.8004418"><ele>340.0</ele><time>2026-05-03T10:22:00.566Z</time></trkpt><trkpt lat="45.7441505" lon="13.8003491"><ele>340.0</ele><time>2026-05-03T10:22:01.565Z</time></trkpt><trkpt lat="45.744211" lon="13.8002535"><ele>337.8</ele><time>2026-05-03T10:22:02.565Z</time></trkpt><trkpt lat="45.7442668" lon="13.800157"><ele>335.6</ele><time>2026-05-03T10:22:03.565Z</time></trkpt><trkpt lat="45.7443249" lon="13.8000559"><ele>333.4</ele><time>2026-05-03T10:22:04.565Z</time></trkpt><trkpt lat="45.7444005" lon="13.7999536"><ele>331.2</ele><time>2026-05-03T10:22:05.566Z</time></trkpt><trkpt lat="45.7444829" lon="13.7998477"><ele>329.0</ele><time>2026-05-03T10:22:06.565Z</time></trkpt><trkpt lat="45.7445523" lon="13.7997439"><ele>329.0</ele><time>2026-05-03T10:22:07.565Z</time></trkpt><trkpt lat="45.7446144" lon="13.7996484"><ele>329.0</ele><time>2026-05-03T10:22:08.565Z</time></trkpt><trkpt lat="45.7446991" lon="13.799563"><ele>329.0</ele><time>2026-05-03T10:22:09.566Z</time></trkpt><trkpt lat="45.7447748" lon="13.7994654"><ele>329.0</ele><time>2026-05-03T10:22:10.566Z</time></trkpt><trkpt lat="45.7448237" lon="13.7993722"><ele>329.0</ele><time>2026-05-03T10:22:11.566Z</time></trkpt><trkpt lat="45.7448813" lon="13.7992994"><ele>328.0</ele><time>2026-05-03T10:22:12.565Z</time></trkpt><trkpt lat="45.74498" lon="13.7992147"><ele>327.0</ele><time>2026-05-03T10:22:13.565Z</time></trkpt><trkpt lat="45.7450525" lon="13.799133"><ele>326.0</ele><time>2026-05-03T10:22:14.565Z</time></trkpt><trkpt lat="45.7451163" lon="13.7990509"><ele>325.0</ele><time>2026-05-03T10:22:15.565Z</time></trkpt><trkpt lat="45.7451902" lon="13.7989108"><ele>324.0</ele><time>2026-05-03T10:22:17.565Z</time></trkpt><trkpt lat="45.745259" lon="13.7988288"><ele>324.0</ele><time>2026-05-03T10:22:18.565Z</time></trkpt><trkpt lat="45.7453441" lon="13.798741"><ele>324.0</ele><time>2026-05-03T10:22:19.566Z</time></trkpt><trkpt lat="45.745414" lon="13.7986369"><ele>324.0</ele><time>2026-05-03T10:22:20.566Z</time></trkpt><trkpt lat="45.7454861" lon="13.7985467"><ele>324.0</ele><time>2026-05-03T10:22:21.565Z</time></trkpt><trkpt lat="45.7455547" lon="13.7984576"><ele>324.0</ele><time>2026-05-03T10:22:22.565Z</time></trkpt><trkpt lat="45.7456291" lon="13.7983802"><ele>326.4</ele><time>2026-05-03T10:22:23.566Z</time></trkpt><trkpt lat="45.7457099" lon="13.7982218"><ele>328.79999999999995</ele><time>2026-05-03T10:22:25.566Z</time></trkpt><trkpt lat="45.7457967" lon="13.7981443"><ele>331.20000000000005</ele><time>2026-05-03T10:22:26.566Z</time></trkpt><trkpt lat="45.7458703" lon="13.7980458"><ele>333.6</ele><time>2026-05-03T10:22:27.566Z</time></trkpt><trkpt lat="45.7459281" lon="13.7979541"><ele>336.0</ele><time>2026-05-03T10:22:28.565Z</time></trkpt><trkpt lat="45.74596" lon="13.7978513"><ele>336.0</ele><time>2026-05-03T10:22:29.565Z</time></trkpt><trkpt lat="45.7460109" lon="13.7977608"><ele>336.0</ele><time>2026-05-03T10:22:30.565Z</time></trkpt><trkpt lat="45.7460689" lon="13.7976527"><ele>336.0</ele><time>2026-05-03T10:22:31.566Z</time></trkpt><trkpt lat="45.7461021" lon="13.7975669"><ele>336.0</ele><time>2026-05-03T10:22:32.566Z</time></trkpt><trkpt lat="45.7461267" lon="13.7974836"><ele>336.0</ele><time>2026-05-03T10:22:33.566Z</time></trkpt><trkpt lat="45.7462348" lon="13.7973922"><ele>336.0</ele><time>2026-05-03T10:22:35.566Z</time></trkpt><trkpt lat="45.7462939" lon="13.79733"><ele>333.0</ele><time>2026-05-03T10:22:36.566Z</time></trkpt><trkpt lat="45.7464118" lon="13.7972338"><ele>330.0</ele><time>2026-05-03T10:22:38.566Z</time></trkpt><trkpt lat="45.7464711" lon="13.7971895"><ele>327.0</ele><time>2026-05-03T10:22:39.565Z</time></trkpt><trkpt lat="45.7465213" lon="13.7971257"><ele>324.0</ele><time>2026-05-03T10:22:40.565Z</time></trkpt><trkpt lat="45.7465843" lon="13.7969883"><ele>321.0</ele><time>2026-05-03T10:22:42.566Z</time></trkpt><trkpt lat="45.7466516" lon="13.7968686"><ele>322.25</ele><time>2026-05-03T10:22:44.566Z</time></trkpt><trkpt lat="45.7467204" lon="13.7967793"><ele>323.5</ele><time>2026-05-03T10:22:46.566Z</time></trkpt><trkpt lat="45.7467984" lon="13.7966812"><ele>324.75</ele><time>2026-05-03T10:22:48.566Z</time></trkpt><trkpt lat="45.7469234" lon="13.7965992"><ele>326.0</ele><time>2026-05-03T10:22:50.565Z</time></trkpt><trkpt lat="45.7470206" lon="13.7964785"><ele>321.33333333333337</ele><time>2026-05-03T10:22:52.566Z</time></trkpt><trkpt lat="45.7470948" lon="13.7964017"><ele>316.6666666666667</ele><time>2026-05-03T10:22:53.566Z</time></trkpt><trkpt lat="45.747155" lon="13.7963549"><ele>312.0</ele><time>2026-05-03T10:22:54.566Z</time></trkpt><trkpt lat="45.7472476" lon="13.7963255"><ele>307.3333333333333</ele><time>2026-05-03T10:22:56.566Z</time></trkpt><trkpt lat="45.7473146" lon="13.7963211"><ele>302.66666666666663</ele><time>2026-05-03T10:22:57.566Z</time></trkpt><trkpt lat="45.7474011" lon="13.7962856"><ele>298.0</ele><time>2026-05-03T10:22:59.566Z</time></trkpt><trkpt lat="45.747505" lon="13.7963288"><ele>298.0</ele><time>2026-05-03T10:23:01.566Z</time></trkpt><trkpt lat="45.7476342" lon="13.7963902"><ele>298.0</ele><time>2026-05-03T10:23:02.566Z</time></trkpt><trkpt lat="45.7477426" lon="13.7964438"><ele>298.0</ele><time>2026-05-03T10:23:04.565Z</time></trkpt><trkpt lat="45.7477953" lon="13.7963819"><ele>298.0</ele><time>2026-05-03T10:23:05.565Z</time></trkpt><trkpt lat="45.7478865" lon="13.7962403"><ele>296.6</ele><time>2026-05-03T10:23:07.565Z</time></trkpt><trkpt lat="45.747942" lon="13.7961613"><ele>295.20000000000005</ele><time>2026-05-03T10:23:08.565Z</time></trkpt><trkpt lat="45.7480114" lon="13.7960256"><ele>293.8</ele><time>2026-05-03T10:23:10.565Z</time></trkpt><trkpt lat="45.7480459" lon="13.7959252"><ele>292.40000000000003</ele><time>2026-05-03T10:23:11.566Z</time></trkpt><trkpt lat="45.7480597" lon="13.7958155"><ele>291.0</ele><time>2026-05-03T10:23:12.566Z</time></trkpt><trkpt lat="45.7480932" lon="13.7956461"><ele>291.0</ele><time>2026-05-03T10:23:14.565Z</time></trkpt><trkpt lat="45.7481261" lon="13.7955497"><ele>291.0</ele><time>2026-05-03T10:23:15.566Z</time></trkpt><trkpt lat="45.748153" lon="13.795449"><ele>291.0</ele><time>2026-05-03T10:23:16.565Z</time></trkpt><trkpt lat="45.7481942" lon="13.7953637"><ele>291.0</ele><time>2026-05-03T10:23:17.566Z</time></trkpt><trkpt lat="45.7482443" lon="13.7952327"><ele>291.0</ele><time>2026-05-03T10:23:18.565Z</time></trkpt><trkpt lat="45.7482818" lon="13.7951416"><ele>291.0</ele><time>2026-05-03T10:23:19.566Z</time></trkpt><trkpt lat="45.7482984" lon="13.7950478"><ele>292.7142857142857</ele><time>2026-05-03T10:23:20.566Z</time></trkpt><trkpt lat="45.7483268" lon="13.7949557"><ele>294.4285714285714</ele><time>2026-05-03T10:23:21.565Z</time></trkpt><trkpt lat="45.7483419" lon="13.7948677"><ele>296.1428571428571</ele><time>2026-05-03T10:23:22.565Z</time></trkpt><trkpt lat="45.7483557" lon="13.7947657"><ele>297.85714285714283</ele><time>2026-05-03T10:23:23.565Z</time></trkpt><trkpt lat="45.7483828" lon="13.7946756"><ele>299.57142857142856</ele><time>2026-05-03T10:23:24.565Z</time></trkpt><trkpt lat="45.7484167" lon="13.7945863"><ele>301.2857142857143</ele><time>2026-05-03T10:23:25.566Z</time></trkpt><trkpt lat="45.748442" lon="13.7944896"><ele>303.0</ele><time>2026-05-03T10:23:26.565Z</time></trkpt><trkpt lat="45.7484854" lon="13.794404"><ele>302.3333333333333</ele><time>2026-05-03T10:23:27.566Z</time></trkpt><trkpt lat="45.7485705" lon="13.7943093"><ele>301.6666666666667</ele><time>2026-05-03T10:23:28.565Z</time></trkpt><trkpt lat="45.7486214" lon="13.7942397"><ele>301.0</ele><time>2026-05-03T10:23:29.566Z</time></trkpt><trkpt lat="45.7486843" lon="13.7941969"><ele>300.33333333333337</ele><time>2026-05-03T10:23:30.565Z</time></trkpt><trkpt lat="45.7487531" lon="13.7941268"><ele>299.6666666666667</ele><time>2026-05-03T10:23:31.566Z</time></trkpt><trkpt lat="45.7488158" lon="13.7940772"><ele>299.0</ele><time>2026-05-03T10:23:32.566Z</time></trkpt><trkpt lat="45.7488917" lon="13.7940597"><ele>299.0</ele><time>2026-05-03T10:23:33.566Z</time></trkpt><trkpt lat="45.748952" lon="13.7940286"><ele>299.0</ele><time>2026-05-03T10:23:34.565Z</time></trkpt><trkpt lat="45.7489829" lon="13.7939442"><ele>299.0</ele><time>2026-05-03T10:23:35.566Z</time></trkpt><trkpt lat="45.7490583" lon="13.7939477"><ele>299.0</ele><time>2026-05-03T10:23:36.566Z</time></trkpt><trkpt lat="45.7491697" lon="13.793907"><ele>299.0</ele><time>2026-05-03T10:23:37.565Z</time></trkpt><trkpt lat="45.7492717" lon="13.7939725"><ele>299.0</ele><time>2026-05-03T10:23:39.565Z</time></trkpt><trkpt lat="45.7493172" lon="13.7940469"><ele>299.0</ele><time>2026-05-03T10:23:40.566Z</time></trkpt><trkpt lat="45.7493434" lon="13.7941311"><ele>299.0</ele><time>2026-05-03T10:23:41.566Z</time></trkpt><trkpt lat="45.7493614" lon="13.7942896"><ele>299.0</ele><time>2026-05-03T10:23:43.565Z</time></trkpt><trkpt lat="45.7494099" lon="13.7943886"><ele>299.0</ele><time>2026-05-03T10:23:45.565Z</time></trkpt><trkpt lat="45.7494884" lon="13.7944139"><ele>299.0</ele><time>2026-05-03T10:23:47.566Z</time></trkpt><trkpt lat="45.749554" lon="13.7943782"><ele>299.0</ele><time>2026-05-03T10:23:48.565Z</time></trkpt><trkpt lat="45.7496128" lon="13.7943425"><ele>297.6666666666667</ele><time>2026-05-03T10:23:49.565Z</time></trkpt><trkpt lat="45.749716" lon="13.794258"><ele>296.33333333333337</ele><time>2026-05-03T10:23:51.566Z</time></trkpt><trkpt lat="45.7497815" lon="13.7941968"><ele>295.0</ele><time>2026-05-03T10:23:52.565Z</time></trkpt><trkpt lat="45.7498463" lon="13.7941513"><ele>293.6666666666667</ele><time>2026-05-03T10:23:53.565Z</time></trkpt><trkpt lat="45.7499138" lon="13.7941198"><ele>292.3333333333333</ele><time>2026-05-03T10:23:55.565Z</time></trkpt><trkpt lat="45.7499823" lon="13.7940931"><ele>291.0</ele><time>2026-05-03T10:23:56.566Z</time></trkpt><trkpt lat="45.7500265" lon="13.793975"><ele>291.0</ele><time>2026-05-03T10:23:58.566Z</time></trkpt><trkpt lat="45.7501232" lon="13.7938763"><ele>291.0</ele><time>2026-05-03T10:24:00.565Z</time></trkpt><trkpt lat="45.7501723" lon="13.7938197"><ele>291.0</ele><time>2026-05-03T10:24:01.565Z</time></trkpt><trkpt lat="45.7502205" lon="13.7937402"><ele>291.0</ele><time>2026-05-03T10:24:02.565Z</time></trkpt><trkpt lat="45.7502637" lon="13.7936723"><ele>291.0</ele><time>2026-05-03T10:24:03.565Z</time></trkpt><trkpt lat="45.7502854" lon="13.7935321"><ele>291.0</ele><time>2026-05-03T10:24:04.566Z</time></trkpt><trkpt lat="45.7503146" lon="13.7934385"><ele>291.0</ele><time>2026-05-03T10:24:05.566Z</time></trkpt><trkpt lat="45.7503401" lon="13.7932954"><ele>291.0</ele><time>2026-05-03T10:24:06.566Z</time></trkpt><trkpt lat="45.7503788" lon="13.7929164"><ele>291.0</ele><time>2026-05-03T10:24:10.555Z</time></trkpt><trkpt lat="45.7503751" lon="13.7927952"><ele>291.0</ele><time>2026-05-03T10:24:11.56Z</time></trkpt><trkpt lat="45.7503756" lon="13.7926769"><ele>291.0</ele><time>2026-05-03T10:24:12.549Z</time></trkpt><trkpt lat="45.750387" lon="13.7925641"><ele>291.0</ele><time>2026-05-03T10:24:13.559Z</time></trkpt><trkpt lat="45.7503792" lon="13.792446"><ele>291.0</ele><time>2026-05-03T10:24:14.558Z</time></trkpt><trkpt lat="45.7503676" lon="13.7923313"><ele>291.0</ele><time>2026-05-03T10:24:15.55Z</time></trkpt><trkpt lat="45.7503525" lon="13.7922431"><ele>291.0</ele><time>2026-05-03T10:24:16.55Z</time></trkpt><trkpt lat="45.7503822" lon="13.7921247"><ele>291.0</ele><time>2026-05-03T10:24:17.549Z</time></trkpt><trkpt lat="45.7503927" lon="13.7920299"><ele>291.0</ele><time>2026-05-03T10:24:18.55Z</time></trkpt><trkpt lat="45.7504387" lon="13.7919587"><ele>291.0</ele><time>2026-05-03T10:24:19.55Z</time></trkpt><trkpt lat="45.7504897" lon="13.7918998"><ele>291.0</ele><time>2026-05-03T10:24:20.549Z</time></trkpt><trkpt lat="45.7505632" lon="13.7917511"><ele>291.0</ele><time>2026-05-03T10:24:21.549Z</time></trkpt><trkpt lat="45.7506111" lon="13.7916602"><ele>291.0</ele><time>2026-05-03T10:24:22.55Z</time></trkpt><trkpt lat="45.7506101" lon="13.7915412"><ele>291.0</ele><time>2026-05-03T10:24:23.55Z</time></trkpt><trkpt lat="45.7506288" lon="13.7914208"><ele>291.0</ele><time>2026-05-03T10:24:24.549Z</time></trkpt><trkpt lat="45.7506665" lon="13.7913109"><ele>291.0</ele><time>2026-05-03T10:24:25.55Z</time></trkpt><trkpt lat="45.7506834" lon="13.7912071"><ele>291.0</ele><time>2026-05-03T10:24:26.549Z</time></trkpt><trkpt lat="45.7507112" lon="13.7911209"><ele>291.0</ele><time>2026-05-03T10:24:27.55Z</time></trkpt><trkpt lat="45.7507617" lon="13.7909446"><ele>291.0</ele><time>2026-05-03T10:24:28.55Z</time></trkpt><trkpt lat="45.7508206" lon="13.7908407"><ele>291.6666666666667</ele><time>2026-05-03T10:24:29.55Z</time></trkpt><trkpt lat="45.7508521" lon="13.7907202"><ele>292.3333333333333</ele><time>2026-05-03T10:24:30.55Z</time></trkpt><trkpt lat="45.7508777" lon="13.7906345"><ele>293.0</ele><time>2026-05-03T10:24:31.55Z</time></trkpt><trkpt lat="45.7509126" lon="13.7905137"><ele>293.66666666666663</ele><time>2026-05-03T10:24:33.55Z</time></trkpt><trkpt lat="45.7509289" lon="13.7904055"><ele>294.3333333333333</ele><time>2026-05-03T10:24:35.549Z</time></trkpt><trkpt lat="45.750953" lon="13.7902691"><ele>295.0</ele><time>2026-05-03T10:24:37.55Z</time></trkpt><trkpt lat="45.75099" lon="13.7901881"><ele>295.0</ele><time>2026-05-03T10:24:38.549Z</time></trkpt><trkpt lat="45.7510246" lon="13.7900462"><ele>295.0</ele><time>2026-05-03T10:24:40.55Z</time></trkpt><trkpt lat="45.751009" lon="13.7901828"><ele>295.0</ele><time>2026-05-03T10:24:42.55Z</time></trkpt><trkpt lat="45.7509986" lon="13.7903563"><ele>295.0</ele><time>2026-05-03T10:24:44.549Z</time></trkpt><trkpt lat="45.7510002" lon="13.7905324"><ele>295.0</ele><time>2026-05-03T10:24:46.549Z</time></trkpt><trkpt lat="45.7509167" lon="13.7906484"><ele>295.0</ele><time>2026-05-03T10:24:47.55Z</time></trkpt><trkpt lat="45.7509686" lon="13.7907046"><ele>295.0</ele><time>2026-05-03T10:24:50.549Z</time></trkpt><trkpt lat="45.7510716" lon="13.7907312"><ele>295.0</ele><time>2026-05-03T10:24:52.55Z</time></trkpt><trkpt lat="45.7511813" lon="13.7907721"><ele>295.0</ele><time>2026-05-03T10:24:54.55Z</time></trkpt><trkpt lat="45.7513154" lon="13.7908335"><ele>295.0</ele><time>2026-05-03T10:24:56.55Z</time></trkpt><trkpt lat="45.751386" lon="13.790871"><ele>292.66666666666663</ele><time>2026-05-03T10:24:57.549Z</time></trkpt><trkpt lat="45.7515223" lon="13.7908593"><ele>290.3333333333333</ele><time>2026-05-03T10:24:59.549Z</time></trkpt><trkpt lat="45.7515902" lon="13.7908629"><ele>288.0</ele><time>2026-05-03T10:25:00.55Z</time></trkpt><trkpt lat="45.7516568" lon="13.7908671"><ele>285.6666666666667</ele><time>2026-05-03T10:25:01.549Z</time></trkpt><trkpt lat="45.7517362" lon="13.7908933"><ele>283.33333333333337</ele><time>2026-05-03T10:25:02.549Z</time></trkpt><trkpt lat="45.7518087" lon="13.7909721"><ele>281.0</ele><time>2026-05-03T10:25:03.549Z</time></trkpt><trkpt lat="45.7518791" lon="13.7910473"><ele>280.0</ele><time>2026-05-03T10:25:04.549Z</time></trkpt><trkpt lat="45.751934" lon="13.7910935"><ele>279.0</ele><time>2026-05-03T10:25:05.549Z</time></trkpt><trkpt lat="45.7520595" lon="13.7910878"><ele>278.0</ele><time>2026-05-03T10:25:07.55Z</time></trkpt><trkpt lat="45.752137" lon="13.7910656"><ele>277.0</ele><time>2026-05-03T10:25:08.55Z</time></trkpt><trkpt lat="45.7522074" lon="13.7910535"><ele>276.0</ele><time>2026-05-03T10:25:09.549Z</time></trkpt><trkpt lat="45.7522713" lon="13.7910838"><ele>275.0</ele><time>2026-05-03T10:25:10.549Z</time></trkpt><trkpt lat="45.7523841" lon="13.7911234"><ele>275.33333333333337</ele><time>2026-05-03T10:25:12.55Z</time></trkpt><trkpt lat="45.7523543" lon="13.7909091"><ele>275.6666666666667</ele><time>2026-05-03T10:25:16.55Z</time></trkpt><trkpt lat="45.7523652" lon="13.7905916"><ele>276.0</ele><time>2026-05-03T10:25:18.549Z</time></trkpt><trkpt lat="45.7523344" lon="13.790474"><ele>276.0</ele><time>2026-05-03T10:25:19.55Z</time></trkpt><trkpt lat="45.7523228" lon="13.7903483"><ele>276.0</ele><time>2026-05-03T10:25:20.549Z</time></trkpt><trkpt lat="45.7523315" lon="13.79019"><ele>276.0</ele><time>2026-05-03T10:25:22.549Z</time></trkpt><trkpt lat="45.7524049" lon="13.7901283"><ele>276.0</ele><time>2026-05-03T10:25:23.55Z</time></trkpt><trkpt lat="45.7524289" lon="13.7900412"><ele>276.0</ele><time>2026-05-03T10:25:24.55Z</time></trkpt><trkpt lat="45.7525413" lon="13.7899389"><ele>275.8</ele><time>2026-05-03T10:25:25.549Z</time></trkpt><trkpt lat="45.7526079" lon="13.7898469"><ele>275.6</ele><time>2026-05-03T10:25:26.55Z</time></trkpt><trkpt lat="45.7527095" lon="13.7897526"><ele>275.4</ele><time>2026-05-03T10:25:27.55Z</time></trkpt><trkpt lat="45.7527721" lon="13.7896558"><ele>275.2</ele><time>2026-05-03T10:25:28.549Z</time></trkpt><trkpt lat="45.7528276" lon="13.7895098"><ele>275.0</ele><time>2026-05-03T10:25:29.55Z</time></trkpt><trkpt lat="45.752843" lon="13.7893751"><ele>275.0</ele><time>2026-05-03T10:25:30.55Z</time></trkpt><trkpt lat="45.7528895" lon="13.7892518"><ele>275.0</ele><time>2026-05-03T10:25:31.55Z</time></trkpt><trkpt lat="45.7528975" lon="13.7890853"><ele>275.0</ele><time>2026-05-03T10:25:32.55Z</time></trkpt><trkpt lat="45.7529329" lon="13.7889551"><ele>275.0</ele><time>2026-05-03T10:25:33.55Z</time></trkpt><trkpt lat="45.753002" lon="13.7888547"><ele>275.0</ele><time>2026-05-03T10:25:34.549Z</time></trkpt><trkpt lat="45.7530367" lon="13.7887146"><ele>275.0</ele><time>2026-05-03T10:25:35.549Z</time></trkpt><trkpt lat="45.7530569" lon="13.7886237"><ele>275.0</ele><time>2026-05-03T10:25:36.55Z</time></trkpt><trkpt lat="45.7530855" lon="13.788522"><ele>275.0</ele><time>2026-05-03T10:25:37.549Z</time></trkpt><trkpt lat="45.7531654" lon="13.7884746"><ele>275.0</ele><time>2026-05-03T10:25:38.55Z</time></trkpt><trkpt lat="45.7532246" lon="13.7883854"><ele>275.0</ele><time>2026-05-03T10:25:39.55Z</time></trkpt><trkpt lat="45.7533078" lon="13.7883085"><ele>275.0</ele><time>2026-05-03T10:25:40.549Z</time></trkpt><trkpt lat="45.7533814" lon="13.7882732"><ele>275.5</ele><time>2026-05-03T10:25:41.549Z</time></trkpt><trkpt lat="45.753452" lon="13.7882355"><ele>276.0</ele><time>2026-05-03T10:25:42.549Z</time></trkpt><trkpt lat="45.7535165" lon="13.7882562"><ele>276.5</ele><time>2026-05-03T10:25:43.549Z</time></trkpt><trkpt lat="45.753592" lon="13.7883118"><ele>277.0</ele><time>2026-05-03T10:25:44.549Z</time></trkpt><trkpt lat="45.7536779" lon="13.7883659"><ele>277.5</ele><time>2026-05-03T10:25:45.549Z</time></trkpt><trkpt lat="45.7537729" lon="13.7884416"><ele>278.0</ele><time>2026-05-03T10:25:46.55Z</time></trkpt><trkpt lat="45.7538595" lon="13.7885288"><ele>278.33333333333337</ele><time>2026-05-03T10:25:47.55Z</time></trkpt><trkpt lat="45.7539421" lon="13.7886111"><ele>278.6666666666667</ele><time>2026-05-03T10:25:48.549Z</time></trkpt><trkpt lat="45.7540156" lon="13.7886784"><ele>279.0</ele><time>2026-05-03T10:25:49.55Z</time></trkpt><trkpt lat="45.7540883" lon="13.7887157"><ele>279.3333333333333</ele><time>2026-05-03T10:25:50.55Z</time></trkpt><trkpt lat="45.7541673" lon="13.7887293"><ele>279.66666666666663</ele><time>2026-05-03T10:25:51.549Z</time></trkpt><trkpt lat="45.754247" lon="13.7887302"><ele>280.0</ele><time>2026-05-03T10:25:52.549Z</time></trkpt><trkpt lat="45.7543113" lon="13.7887093"><ele>280.0</ele><time>2026-05-03T10:25:53.55Z</time></trkpt><trkpt lat="45.7544137" lon="13.7885633"><ele>280.0</ele><time>2026-05-03T10:25:55.549Z</time></trkpt><trkpt lat="45.7544609" lon="13.7884591"><ele>280.0</ele><time>2026-05-03T10:25:56.55Z</time></trkpt><trkpt lat="45.7545105" lon="13.7883428"><ele>280.0</ele><time>2026-05-03T10:25:57.55Z</time></trkpt><trkpt lat="45.7545653" lon="13.7881987"><ele>280.0</ele><time>2026-05-03T10:25:58.549Z</time></trkpt><trkpt lat="45.7546385" lon="13.788087"><ele>279.6</ele><time>2026-05-03T10:25:59.549Z</time></trkpt><trkpt lat="45.7547133" lon="13.7879901"><ele>279.2</ele><time>2026-05-03T10:26:00.549Z</time></trkpt><trkpt lat="45.754782" lon="13.7878853"><ele>278.8</ele><time>2026-05-03T10:26:01.549Z</time></trkpt><trkpt lat="45.7548473" lon="13.7877709"><ele>278.4</ele><time>2026-05-03T10:26:02.549Z</time></trkpt><trkpt lat="45.7549011" lon="13.7876696"><ele>278.0</ele><time>2026-05-03T10:26:03.549Z</time></trkpt><trkpt lat="45.7549323" lon="13.7875595"><ele>278.0</ele><time>2026-05-03T10:26:04.549Z</time></trkpt><trkpt lat="45.7549545" lon="13.7874492"><ele>278.0</ele><time>2026-05-03T10:26:05.55Z</time></trkpt><trkpt lat="45.7550078" lon="13.7873401"><ele>278.0</ele><time>2026-05-03T10:26:06.55Z</time></trkpt><trkpt lat="45.7550671" lon="13.7872473"><ele>278.0</ele><time>2026-05-03T10:26:07.55Z</time></trkpt><trkpt lat="45.755124" lon="13.7871369"><ele>278.0</ele><time>2026-05-03T10:26:08.55Z</time></trkpt><trkpt lat="45.7551905" lon="13.7870297"><ele>278.4</ele><time>2026-05-03T10:26:09.55Z</time></trkpt><trkpt lat="45.755264" lon="13.7869274"><ele>278.8</ele><time>2026-05-03T10:26:10.549Z</time></trkpt><trkpt lat="45.7553335" lon="13.7868106"><ele>279.2</ele><time>2026-05-03T10:26:11.55Z</time></trkpt><trkpt lat="45.7553973" lon="13.7866912"><ele>279.6</ele><time>2026-05-03T10:26:12.549Z</time></trkpt><trkpt lat="45.7554608" lon="13.7865881"><ele>280.0</ele><time>2026-05-03T10:26:13.549Z</time></trkpt><trkpt lat="45.755524" lon="13.7864888"><ele>280.0</ele><time>2026-05-03T10:26:14.55Z</time></trkpt><trkpt lat="45.7556007" lon="13.7863824"><ele>280.0</ele><time>2026-05-03T10:26:15.549Z</time></trkpt><trkpt lat="45.7556779" lon="13.7862781"><ele>280.0</ele><time>2026-05-03T10:26:16.55Z</time></trkpt><trkpt lat="45.7557494" lon="13.7861967"><ele>280.0</ele><time>2026-05-03T10:26:17.549Z</time></trkpt><trkpt lat="45.7558164" lon="13.7861324"><ele>280.0</ele><time>2026-05-03T10:26:18.55Z</time></trkpt><trkpt lat="45.7558704" lon="13.7860767"><ele>280.0</ele><time>2026-05-03T10:26:19.549Z</time></trkpt><trkpt lat="45.7559245" lon="13.7860172"><ele>280.0</ele><time>2026-05-03T10:26:20.549Z</time></trkpt><trkpt lat="45.7560011" lon="13.78585"><ele>280.0</ele><time>2026-05-03T10:26:22.549Z</time></trkpt><trkpt lat="45.7560341" lon="13.7857367"><ele>280.0</ele><time>2026-05-03T10:26:23.55Z</time></trkpt><trkpt lat="45.7560736" lon="13.7856258"><ele>280.0</ele><time>2026-05-03T10:26:24.55Z</time></trkpt><trkpt lat="45.7561735" lon="13.7855995"><ele>279.66666666666663</ele><time>2026-05-03T10:26:25.549Z</time></trkpt><trkpt lat="45.7562533" lon="13.7855507"><ele>279.3333333333333</ele><time>2026-05-03T10:26:26.549Z</time></trkpt><trkpt lat="45.7563362" lon="13.7854898"><ele>279.0</ele><time>2026-05-03T10:26:27.55Z</time></trkpt><trkpt lat="45.7564076" lon="13.7854671"><ele>278.6666666666667</ele><time>2026-05-03T10:26:28.55Z</time></trkpt><trkpt lat="45.7564847" lon="13.7854587"><ele>278.33333333333337</ele><time>2026-05-03T10:26:29.55Z</time></trkpt><trkpt lat="45.7565861" lon="13.7853979"><ele>278.0</ele><time>2026-05-03T10:26:30.549Z</time></trkpt><trkpt lat="45.7566713" lon="13.7853642"><ele>278.0</ele><time>2026-05-03T10:26:31.549Z</time></trkpt><trkpt lat="45.7567797" lon="13.7853"><ele>278.0</ele><time>2026-05-03T10:26:32.549Z</time></trkpt><trkpt lat="45.7568778" lon="13.7852753"><ele>278.0</ele><time>2026-05-03T10:26:33.549Z</time></trkpt><trkpt lat="45.7569921" lon="13.785277"><ele>278.0</ele><time>2026-05-03T10:26:34.549Z</time></trkpt><trkpt lat="45.7570675" lon="13.7852571"><ele>278.0</ele><time>2026-05-03T10:26:35.549Z</time></trkpt><trkpt lat="45.7571337" lon="13.7852043"><ele>278.1666666666667</ele><time>2026-05-03T10:26:36.549Z</time></trkpt><trkpt lat="45.7571589" lon="13.7851064"><ele>278.33333333333337</ele><time>2026-05-03T10:26:37.549Z</time></trkpt><trkpt lat="45.757209" lon="13.7850276"><ele>278.5</ele><time>2026-05-03T10:26:38.549Z</time></trkpt><trkpt lat="45.7572446" lon="13.7849205"><ele>278.6666666666667</ele><time>2026-05-03T10:26:39.549Z</time></trkpt><trkpt lat="45.7572824" lon="13.7847706"><ele>278.8333333333333</ele><time>2026-05-03T10:26:40.55Z</time></trkpt><trkpt lat="45.7573249" lon="13.7846893"><ele>279.0</ele><time>2026-05-03T10:26:41.55Z</time></trkpt><trkpt lat="45.7573731" lon="13.7846223"><ele>279.0</ele><time>2026-05-03T10:26:42.55Z</time></trkpt><trkpt lat="45.7574268" lon="13.7845536"><ele>279.0</ele><time>2026-05-03T10:26:43.549Z</time></trkpt><trkpt lat="45.7575288" lon="13.7846379"><ele>279.0</ele><time>2026-05-03T10:26:44.549Z</time></trkpt><trkpt lat="45.7576062" lon="13.7846441"><ele>279.0</ele><time>2026-05-03T10:26:45.549Z</time></trkpt><trkpt lat="45.7577139" lon="13.7846701"><ele>279.0</ele><time>2026-05-03T10:26:46.549Z</time></trkpt><trkpt lat="45.7578018" lon="13.7847221"><ele>278.59999999999997</ele><time>2026-05-03T10:26:47.549Z</time></trkpt><trkpt lat="45.7578719" lon="13.7847684"><ele>278.2</ele><time>2026-05-03T10:26:48.549Z</time></trkpt><trkpt lat="45.7579468" lon="13.7847503"><ele>277.79999999999995</ele><time>2026-05-03T10:26:49.549Z</time></trkpt><trkpt lat="45.7580366" lon="13.7847549"><ele>277.4</ele><time>2026-05-03T10:26:50.55Z</time></trkpt><trkpt lat="45.7581725" lon="13.7846844"><ele>277.0</ele><time>2026-05-03T10:26:52.55Z</time></trkpt><trkpt lat="45.7582699" lon="13.7846177"><ele>277.0</ele><time>2026-05-03T10:26:53.55Z</time></trkpt><trkpt lat="45.758359" lon="13.7845762"><ele>277.0</ele><time>2026-05-03T10:26:54.549Z</time></trkpt><trkpt lat="45.7584645" lon="13.784491"><ele>277.0</ele><time>2026-05-03T10:26:55.549Z</time></trkpt><trkpt lat="45.7585944" lon="13.7844675"><ele>277.0</ele><time>2026-05-03T10:26:56.55Z</time></trkpt><trkpt lat="45.7586936" lon="13.7844441"><ele>277.0</ele><time>2026-05-03T10:26:57.549Z</time></trkpt><trkpt lat="45.7587829" lon="13.7843488"><ele>275.8</ele><time>2026-05-03T10:26:58.55Z</time></trkpt><trkpt lat="45.7588674" lon="13.7842604"><ele>274.6</ele><time>2026-05-03T10:26:59.549Z</time></trkpt><trkpt lat="45.7589585" lon="13.7841624"><ele>273.40000000000003</ele><time>2026-05-03T10:27:00.549Z</time></trkpt><trkpt lat="45.7590179" lon="13.7840752"><ele>272.2</ele><time>2026-05-03T10:27:01.549Z</time></trkpt><trkpt lat="45.7590381" lon="13.7838934"><ele>271.0</ele><time>2026-05-03T10:27:03.55Z</time></trkpt><trkpt lat="45.7590607" lon="13.7837983"><ele>271.0</ele><time>2026-05-03T10:27:04.549Z</time></trkpt><trkpt lat="45.75909" lon="13.7836892"><ele>271.0</ele><time>2026-05-03T10:27:05.55Z</time></trkpt><trkpt lat="45.7591167" lon="13.7835938"><ele>271.0</ele><time>2026-05-03T10:27:06.549Z</time></trkpt><trkpt lat="45.7591362" lon="13.7834847"><ele>271.0</ele><time>2026-05-03T10:27:07.549Z</time></trkpt><trkpt lat="45.759178" lon="13.7834169"><ele>271.0</ele><time>2026-05-03T10:27:08.55Z</time></trkpt><trkpt lat="45.7592636" lon="13.7834637"><ele>271.0</ele><time>2026-05-03T10:27:09.55Z</time></trkpt><trkpt lat="45.759365" lon="13.7834778"><ele>269.6</ele><time>2026-05-03T10:27:10.55Z</time></trkpt><trkpt lat="45.7594645" lon="13.783485"><ele>268.20000000000005</ele><time>2026-05-03T10:27:11.55Z</time></trkpt><trkpt lat="45.7595926" lon="13.7834723"><ele>266.79999999999995</ele><time>2026-05-03T10:27:12.549Z</time></trkpt><trkpt lat="45.759701" lon="13.7834572"><ele>265.4</ele><time>2026-05-03T10:27:13.55Z</time></trkpt><trkpt lat="45.7597872" lon="13.7834118"><ele>264.0</ele><time>2026-05-03T10:27:14.55Z</time></trkpt><trkpt lat="45.7598431" lon="13.7833529"><ele>264.0</ele><time>2026-05-03T10:27:15.549Z</time></trkpt><trkpt lat="45.7599282" lon="13.7832598"><ele>264.0</ele><time>2026-05-03T10:27:16.549Z</time></trkpt><trkpt lat="45.7599894" lon="13.7831711"><ele>264.0</ele><time>2026-05-03T10:27:17.55Z</time></trkpt><trkpt lat="45.7600722" lon="13.7830894"><ele>264.0</ele><time>2026-05-03T10:27:18.549Z</time></trkpt><trkpt lat="45.7601447" lon="13.7830309"><ele>264.0</ele><time>2026-05-03T10:27:19.55Z</time></trkpt><trkpt lat="45.7602751" lon="13.7830018"><ele>263.8</ele><time>2026-05-03T10:27:21.549Z</time></trkpt><trkpt lat="45.7603546" lon="13.783005"><ele>263.59999999999997</ele><time>2026-05-03T10:27:22.55Z</time></trkpt><trkpt lat="45.7604725" lon="13.783058"><ele>263.4</ele><time>2026-05-03T10:27:24.55Z</time></trkpt><trkpt lat="45.7605893" lon="13.7830346"><ele>263.2</ele><time>2026-05-03T10:27:25.55Z</time></trkpt><trkpt lat="45.7607025" lon="13.782985"><ele>263.0</ele><time>2026-05-03T10:27:26.55Z</time></trkpt><trkpt lat="45.7608049" lon="13.7829794"><ele>263.0</ele><time>2026-05-03T10:27:27.549Z</time></trkpt><trkpt lat="45.7609351" lon="13.7830384"><ele>263.0</ele><time>2026-05-03T10:27:28.549Z</time></trkpt><trkpt lat="45.761059" lon="13.7830661"><ele>263.0</ele><time>2026-05-03T10:27:29.55Z</time></trkpt><trkpt lat="45.7611362" lon="13.7831092"><ele>263.0</ele><time>2026-05-03T10:27:30.549Z</time></trkpt><trkpt lat="45.7612314" lon="13.7831467"><ele>263.0</ele><time>2026-05-03T10:27:31.549Z</time></trkpt><trkpt lat="45.7613151" lon="13.7831821"><ele>263.2</ele><time>2026-05-03T10:27:32.55Z</time></trkpt><trkpt lat="45.761436" lon="13.7831554"><ele>263.4</ele><time>2026-05-03T10:27:34.55Z</time></trkpt><trkpt lat="45.7615167" lon="13.7830899"><ele>263.59999999999997</ele><time>2026-05-03T10:27:35.549Z</time></trkpt><trkpt lat="45.7616069" lon="13.7830449"><ele>263.8</ele><time>2026-05-03T10:27:36.55Z</time></trkpt><trkpt lat="45.7616941" lon="13.7830043"><ele>264.0</ele><time>2026-05-03T10:27:37.55Z</time></trkpt><trkpt lat="45.7617812" lon="13.7829936"><ele>262.75</ele><time>2026-05-03T10:27:38.549Z</time></trkpt><trkpt lat="45.7618676" lon="13.7829795"><ele>261.5</ele><time>2026-05-03T10:27:39.549Z</time></trkpt><trkpt lat="45.7620383" lon="13.7830543"><ele>260.25</ele><time>2026-05-03T10:27:40.55Z</time></trkpt><trkpt lat="45.7621489" lon="13.783093"><ele>259.0</ele><time>2026-05-03T10:27:41.55Z</time></trkpt><trkpt lat="45.7622493" lon="13.7830252"><ele>259.0</ele><time>2026-05-03T10:27:42.549Z</time></trkpt><trkpt lat="45.7623018" lon="13.7829662"><ele>259.0</ele><time>2026-05-03T10:27:43.55Z</time></trkpt><trkpt lat="45.7623811" lon="13.7829132"><ele>259.0</ele><time>2026-05-03T10:27:44.55Z</time></trkpt><trkpt lat="45.7624709" lon="13.7828561"><ele>259.0</ele><time>2026-05-03T10:27:45.55Z</time></trkpt><trkpt lat="45.7625611" lon="13.7827819"><ele>259.0</ele><time>2026-05-03T10:27:46.55Z</time></trkpt><trkpt lat="45.7626392" lon="13.782708"><ele>258.59999999999997</ele><time>2026-05-03T10:27:47.55Z</time></trkpt><trkpt lat="45.7627328" lon="13.7826422"><ele>258.2</ele><time>2026-05-03T10:27:48.55Z</time></trkpt><trkpt lat="45.7628286" lon="13.7825945"><ele>257.79999999999995</ele><time>2026-05-03T10:27:49.55Z</time></trkpt><trkpt lat="45.7629109" lon="13.7825371"><ele>257.4</ele><time>2026-05-03T10:27:50.55Z</time></trkpt><trkpt lat="45.7629998" lon="13.782464"><ele>257.0</ele><time>2026-05-03T10:27:51.55Z</time></trkpt><trkpt lat="45.7630848" lon="13.7823867"><ele>257.0</ele><time>2026-05-03T10:27:52.549Z</time></trkpt><trkpt lat="45.76316" lon="13.7823027"><ele>257.0</ele><time>2026-05-03T10:27:53.549Z</time></trkpt><trkpt lat="45.7632291" lon="13.782224"><ele>257.0</ele><time>2026-05-03T10:27:54.55Z</time></trkpt><trkpt lat="45.763289" lon="13.782193"><ele>257.0</ele><time>2026-05-03T10:27:55.549Z</time></trkpt><trkpt lat="45.7633682" lon="13.7821409"><ele>257.0</ele><time>2026-05-03T10:27:56.549Z</time></trkpt><trkpt lat="45.7634305" lon="13.782096"><ele>257.0</ele><time>2026-05-03T10:27:57.55Z</time></trkpt><trkpt lat="45.7634997" lon="13.782045"><ele>255.16666666666669</ele><time>2026-05-03T10:27:58.55Z</time></trkpt><trkpt lat="45.7635775" lon="13.7820018"><ele>253.33333333333334</ele><time>2026-05-03T10:27:59.549Z</time></trkpt><trkpt lat="45.7636635" lon="13.7819779"><ele>251.5</ele><time>2026-05-03T10:28:00.55Z</time></trkpt><trkpt lat="45.7637383" lon="13.7819158"><ele>249.66666666666669</ele><time>2026-05-03T10:28:01.549Z</time></trkpt><trkpt lat="45.7638364" lon="13.7818585"><ele>247.83333333333334</ele><time>2026-05-03T10:28:02.549Z</time></trkpt><trkpt lat="45.763914" lon="13.7818093"><ele>246.0</ele><time>2026-05-03T10:28:03.549Z</time></trkpt><trkpt lat="45.763978" lon="13.7817642"><ele>246.0</ele><time>2026-05-03T10:28:04.549Z</time></trkpt><trkpt lat="45.764094" lon="13.7817"><ele>246.00000000000003</ele><time>2026-05-03T10:28:06.549Z</time></trkpt><trkpt lat="45.7641612" lon="13.7816141"><ele>246.00000000000003</ele><time>2026-05-03T10:28:07.549Z</time></trkpt><trkpt lat="45.7642127" lon="13.7814932"><ele>246.0</ele><time>2026-05-03T10:28:09.55Z</time></trkpt><trkpt lat="45.7642992" lon="13.7814338"><ele>246.0</ele><time>2026-05-03T10:28:10.549Z</time></trkpt><trkpt lat="45.7643908" lon="13.7813217"><ele>244.33333333333334</ele><time>2026-05-03T10:28:12.549Z</time></trkpt><trkpt lat="45.7644575" lon="13.7812452"><ele>242.66666666666669</ele><time>2026-05-03T10:28:13.55Z</time></trkpt><trkpt lat="45.7645715" lon="13.7811983"><ele>241.0</ele><time>2026-05-03T10:28:14.55Z</time></trkpt><trkpt lat="45.7646245" lon="13.781121"><ele>239.33333333333334</ele><time>2026-05-03T10:28:15.55Z</time></trkpt><trkpt lat="45.764676" lon="13.7810319"><ele>237.66666666666669</ele><time>2026-05-03T10:28:16.55Z</time></trkpt><trkpt lat="45.7647315" lon="13.780965"><ele>236.0</ele><time>2026-05-03T10:28:17.55Z</time></trkpt><trkpt lat="45.7647907" lon="13.7809275"><ele>236.00000000000003</ele><time>2026-05-03T10:28:18.549Z</time></trkpt><trkpt lat="45.7648725" lon="13.7808376"><ele>236.0</ele><time>2026-05-03T10:28:20.549Z</time></trkpt><trkpt lat="45.7649563" lon="13.7807481"><ele>236.0</ele><time>2026-05-03T10:28:22.55Z</time></trkpt><trkpt lat="45.7650089" lon="13.7806861"><ele>236.0</ele><time>2026-05-03T10:28:23.549Z</time></trkpt><trkpt lat="45.765072" lon="13.780641"><ele>236.00000000000003</ele><time>2026-05-03T10:28:24.549Z</time></trkpt><trkpt lat="45.765136" lon="13.7806122"><ele>236.0</ele><time>2026-05-03T10:28:25.549Z</time></trkpt><trkpt lat="45.7652336" lon="13.7805432"><ele>231.20000000000002</ele><time>2026-05-03T10:28:27.549Z</time></trkpt><trkpt lat="45.7653084" lon="13.7804808"><ele>226.40000000000003</ele><time>2026-05-03T10:28:28.55Z</time></trkpt><trkpt lat="45.7653781" lon="13.7804248"><ele>221.6</ele><time>2026-05-03T10:28:29.549Z</time></trkpt><trkpt lat="45.7655041" lon="13.7803253"><ele>216.8</ele><time>2026-05-03T10:28:31.549Z</time></trkpt><trkpt lat="45.7655625" lon="13.7802588"><ele>212.0</ele><time>2026-05-03T10:28:32.55Z</time></trkpt><trkpt lat="45.76562" lon="13.7801967"><ele>214.14285714285717</ele><time>2026-05-03T10:28:33.55Z</time></trkpt><trkpt lat="45.7656772" lon="13.7801295"><ele>216.28571428571428</ele><time>2026-05-03T10:28:34.549Z</time></trkpt><trkpt lat="45.7657348" lon="13.7800528"><ele>218.42857142857144</ele><time>2026-05-03T10:28:35.549Z</time></trkpt><trkpt lat="45.76579" lon="13.7799797"><ele>220.57142857142858</ele><time>2026-05-03T10:28:36.55Z</time></trkpt><trkpt lat="45.7658383" lon="13.7799097"><ele>222.71428571428572</ele><time>2026-05-03T10:28:37.55Z</time></trkpt><trkpt lat="45.7658889" lon="13.7798313"><ele>224.85714285714286</ele><time>2026-05-03T10:28:38.549Z</time></trkpt><trkpt lat="45.7659397" lon="13.7797544"><ele>227.0</ele><time>2026-05-03T10:28:39.55Z</time></trkpt><trkpt lat="45.766001" lon="13.7796901"><ele>224.6</ele><time>2026-05-03T10:28:40.55Z</time></trkpt><trkpt lat="45.7660884" lon="13.7796223"><ele>222.2</ele><time>2026-05-03T10:28:41.55Z</time></trkpt><trkpt lat="45.7661635" lon="13.779552"><ele>219.8</ele><time>2026-05-03T10:28:42.549Z</time></trkpt><trkpt lat="45.7662346" lon="13.77949"><ele>217.4</ele><time>2026-05-03T10:28:43.55Z</time></trkpt><trkpt lat="45.7663004" lon="13.7794084"><ele>215.0</ele><time>2026-05-03T10:28:44.549Z</time></trkpt><trkpt lat="45.7663886" lon="13.7792904"><ele>215.00000000000003</ele><time>2026-05-03T10:28:46.549Z</time></trkpt><trkpt lat="45.7664533" lon="13.779173"><ele>215.0</ele><time>2026-05-03T10:28:47.549Z</time></trkpt><trkpt lat="45.7665003" lon="13.7790753"><ele>215.0</ele><time>2026-05-03T10:28:48.55Z</time></trkpt><trkpt lat="45.7664926" lon="13.7789745"><ele>215.0</ele><time>2026-05-03T10:28:49.55Z</time></trkpt><trkpt lat="45.7665607" lon="13.77889"><ele>215.00000000000003</ele><time>2026-05-03T10:28:50.55Z</time></trkpt><trkpt lat="45.7666017" lon="13.7787882"><ele>215.0</ele><time>2026-05-03T10:28:51.549Z</time></trkpt><trkpt lat="45.76666" lon="13.7786498"><ele>215.00000000000003</ele><time>2026-05-03T10:28:52.55Z</time></trkpt><trkpt lat="45.7667357" lon="13.7786"><ele>215.0</ele><time>2026-05-03T10:28:53.55Z</time></trkpt><trkpt lat="45.766789" lon="13.7785429"><ele>215.0</ele><time>2026-05-03T10:28:54.55Z</time></trkpt><trkpt lat="45.7668517" lon="13.7785019"><ele>215.0</ele><time>2026-05-03T10:28:55.55Z</time></trkpt><trkpt lat="45.7669812" lon="13.7785672"><ele>215.00000000000003</ele><time>2026-05-03T10:28:57.549Z</time></trkpt><trkpt lat="45.7670497" lon="13.7786054"><ele>215.0</ele><time>2026-05-03T10:28:58.55Z</time></trkpt><trkpt lat="45.7671667" lon="13.7786751"><ele>215.00000000000003</ele><time>2026-05-03T10:29:00.549Z</time></trkpt><trkpt lat="45.7672337" lon="13.7787244"><ele>215.0</ele><time>2026-05-03T10:29:01.55Z</time></trkpt><trkpt lat="45.7672983" lon="13.778771"><ele>215.0</ele><time>2026-05-03T10:29:02.549Z</time></trkpt><trkpt lat="45.7673506" lon="13.7788618"><ele>215.0</ele><time>2026-05-03T10:29:03.55Z</time></trkpt><trkpt lat="45.7673962" lon="13.7789502"><ele>215.00000000000003</ele><time>2026-05-03T10:29:04.55Z</time></trkpt><trkpt lat="45.7674881" lon="13.7790763"><ele>215.0</ele><time>2026-05-03T10:29:05.549Z</time></trkpt><trkpt lat="45.7674873" lon="13.7792056"><ele>215.0</ele><time>2026-05-03T10:29:06.55Z</time></trkpt><trkpt lat="45.7675324" lon="13.7793205"><ele>215.0</ele><time>2026-05-03T10:29:07.549Z</time></trkpt><trkpt lat="45.7675158" lon="13.7795343"><ele>215.0</ele><time>2026-05-03T10:29:08.549Z</time></trkpt><trkpt lat="45.7675726" lon="13.7799951"><ele>215.6</ele><time>2026-05-03T10:29:11.556Z</time></trkpt><trkpt lat="45.7675668" lon="13.7800983"><ele>216.2</ele><time>2026-05-03T10:29:12.548Z</time></trkpt><trkpt lat="45.7675075" lon="13.7802387"><ele>216.8</ele><time>2026-05-03T10:29:13.557Z</time></trkpt><trkpt lat="45.7674359" lon="13.7803831"><ele>217.4</ele><time>2026-05-03T10:29:14.555Z</time></trkpt><trkpt lat="45.7673813" lon="13.7805367"><ele>218.0</ele><time>2026-05-03T10:29:15.563Z</time></trkpt><trkpt lat="45.7673902" lon="13.7807313"><ele>218.50000000000003</ele><time>2026-05-03T10:29:16.554Z</time></trkpt><trkpt lat="45.7673431" lon="13.7808624"><ele>219.0</ele><time>2026-05-03T10:29:17.555Z</time></trkpt><trkpt lat="45.7672982" lon="13.780949"><ele>219.5</ele><time>2026-05-03T10:29:18.554Z</time></trkpt><trkpt lat="45.7672708" lon="13.7810445"><ele>220.0</ele><time>2026-05-03T10:29:19.555Z</time></trkpt><trkpt lat="45.7672739" lon="13.7811716"><ele>220.50000000000003</ele><time>2026-05-03T10:29:21.555Z</time></trkpt><trkpt lat="45.767383" lon="13.7811886"><ele>221.0</ele><time>2026-05-03T10:29:23.554Z</time></trkpt><trkpt lat="45.7675041" lon="13.7810901"><ele>221.00000000000003</ele><time>2026-05-03T10:29:25.554Z</time></trkpt><trkpt lat="45.7675634" lon="13.781023"><ele>221.0</ele><time>2026-05-03T10:29:26.554Z</time></trkpt><trkpt lat="45.7676198" lon="13.7809588"><ele>221.0</ele><time>2026-05-03T10:29:27.555Z</time></trkpt><trkpt lat="45.7677333" lon="13.781"><ele>221.0</ele><time>2026-05-03T10:29:29.555Z</time></trkpt><trkpt lat="45.7677943" lon="13.7810463"><ele>221.00000000000003</ele><time>2026-05-03T10:29:30.554Z</time></trkpt><trkpt lat="45.7678666" lon="13.7811169"><ele>221.0</ele><time>2026-05-03T10:29:31.554Z</time></trkpt><trkpt lat="45.7679477" lon="13.7811974"><ele>224.4</ele><time>2026-05-03T10:29:32.554Z</time></trkpt><trkpt lat="45.7680191" lon="13.7812697"><ele>227.8</ele><time>2026-05-03T10:29:33.554Z</time></trkpt><trkpt lat="45.7680914" lon="13.7813473"><ele>231.20000000000002</ele><time>2026-05-03T10:29:34.555Z</time></trkpt><trkpt lat="45.7681739" lon="13.7814789"><ele>234.60000000000002</ele><time>2026-05-03T10:29:35.555Z</time></trkpt><trkpt lat="45.7682603" lon="13.7816039"><ele>238.0</ele><time>2026-05-03T10:29:36.554Z</time></trkpt><trkpt lat="45.7683157" lon="13.7817266"><ele>238.0</ele><time>2026-05-03T10:29:37.554Z</time></trkpt><trkpt lat="45.7683845" lon="13.7818427"><ele>238.0</ele><time>2026-05-03T10:29:38.555Z</time></trkpt><trkpt lat="45.7684484" lon="13.7819443"><ele>238.0</ele><time>2026-05-03T10:29:39.554Z</time></trkpt><trkpt lat="45.7684968" lon="13.782065"><ele>238.0</ele><time>2026-05-03T10:29:40.555Z</time></trkpt><trkpt lat="45.7685214" lon="13.7821703"><ele>238.0</ele><time>2026-05-03T10:29:41.555Z</time></trkpt><trkpt lat="45.7685627" lon="13.782273"><ele>238.66666666666666</ele><time>2026-05-03T10:29:42.554Z</time></trkpt><trkpt lat="45.7686155" lon="13.7823534"><ele>239.33333333333331</ele><time>2026-05-03T10:29:43.555Z</time></trkpt><trkpt lat="45.7686838" lon="13.7824117"><ele>240.0</ele><time>2026-05-03T10:29:44.555Z</time></trkpt><trkpt lat="45.7687601" lon="13.7824415"><ele>240.66666666666669</ele><time>2026-05-03T10:29:45.554Z</time></trkpt><trkpt lat="45.7688489" lon="13.7824845"><ele>241.33333333333334</ele><time>2026-05-03T10:29:46.555Z</time></trkpt><trkpt lat="45.7689414" lon="13.7824917"><ele>242.0</ele><time>2026-05-03T10:29:47.555Z</time></trkpt><trkpt lat="45.7690273" lon="13.782516"><ele>242.0</ele><time>2026-05-03T10:29:48.555Z</time></trkpt><trkpt lat="45.7691379" lon="13.7824885"><ele>242.0</ele><time>2026-05-03T10:29:49.555Z</time></trkpt><trkpt lat="45.7692573" lon="13.7824996"><ele>242.0</ele><time>2026-05-03T10:29:50.554Z</time></trkpt><trkpt lat="45.7693726" lon="13.7824971"><ele>242.0</ele><time>2026-05-03T10:29:51.554Z</time></trkpt><trkpt lat="45.7694758" lon="13.7825063"><ele>244.39999999999998</ele><time>2026-05-03T10:29:52.554Z</time></trkpt><trkpt lat="45.7695789" lon="13.7824845"><ele>246.79999999999998</ele><time>2026-05-03T10:29:53.555Z</time></trkpt><trkpt lat="45.7696612" lon="13.7824674"><ele>249.2</ele><time>2026-05-03T10:29:54.555Z</time></trkpt><trkpt lat="45.7697496" lon="13.7824309"><ele>251.6</ele><time>2026-05-03T10:29:55.555Z</time></trkpt><trkpt lat="45.7698308" lon="13.7823729"><ele>254.0</ele><time>2026-05-03T10:29:56.554Z</time></trkpt><trkpt lat="45.7698909" lon="13.7822872"><ele>254.00000000000003</ele><time>2026-05-03T10:29:57.555Z</time></trkpt><trkpt lat="45.7699584" lon="13.7821951"><ele>254.0</ele><time>2026-05-03T10:29:58.554Z</time></trkpt><trkpt lat="45.7700202" lon="13.7820895"><ele>254.0</ele><time>2026-05-03T10:29:59.554Z</time></trkpt><trkpt lat="45.770071" lon="13.781974"><ele>254.0</ele><time>2026-05-03T10:30:00.555Z</time></trkpt><trkpt lat="45.7701232" lon="13.7818949"><ele>254.00000000000003</ele><time>2026-05-03T10:30:01.554Z</time></trkpt><trkpt lat="45.770176" lon="13.7818262"><ele>254.0</ele><time>2026-05-03T10:30:02.554Z</time></trkpt><trkpt lat="45.7702626" lon="13.7818815"><ele>255.83333333333334</ele><time>2026-05-03T10:30:03.555Z</time></trkpt><trkpt lat="45.7703493" lon="13.7819076"><ele>257.6666666666667</ele><time>2026-05-03T10:30:05.554Z</time></trkpt><trkpt lat="45.7704154" lon="13.7820052"><ele>259.5</ele><time>2026-05-03T10:30:07.554Z</time></trkpt><trkpt lat="45.7704585" lon="13.7821046"><ele>261.3333333333333</ele><time>2026-05-03T10:30:09.554Z</time></trkpt><trkpt lat="45.7705183" lon="13.7821861"><ele>263.16666666666663</ele><time>2026-05-03T10:30:12.554Z</time></trkpt><trkpt lat="45.7705729" lon="13.7822563"><ele>265.0</ele><time>2026-05-03T10:30:15.554Z</time></trkpt><trkpt lat="45.7706156" lon="13.7823583"><ele>265.0</ele><time>2026-05-03T10:30:17.555Z</time></trkpt><trkpt lat="45.7706999" lon="13.7824604"><ele>265.0</ele><time>2026-05-03T10:30:19.555Z</time></trkpt><trkpt lat="45.7707671" lon="13.7825139"><ele>265.0</ele><time>2026-05-03T10:30:20.555Z</time></trkpt><trkpt lat="45.7708372" lon="13.7825327"><ele>265.0</ele><time>2026-05-03T10:30:21.555Z</time></trkpt><trkpt lat="45.7708997" lon="13.7825711"><ele>265.0</ele><time>2026-05-03T10:30:22.555Z</time></trkpt><trkpt lat="45.770972" lon="13.7825993"><ele>265.0</ele><time>2026-05-03T10:30:23.555Z</time></trkpt><trkpt lat="45.7710367" lon="13.7826351"><ele>266.0</ele><time>2026-05-03T10:30:24.555Z</time></trkpt><trkpt lat="45.7710983" lon="13.7826745"><ele>267.0</ele><time>2026-05-03T10:30:25.555Z</time></trkpt><trkpt lat="45.7711655" lon="13.782718"><ele>268.0</ele><time>2026-05-03T10:30:26.554Z</time></trkpt><trkpt lat="45.7712583" lon="13.7828057"><ele>269.0</ele><time>2026-05-03T10:30:28.554Z</time></trkpt><trkpt lat="45.7713085" lon="13.7828692"><ele>270.0</ele><time>2026-05-03T10:30:29.554Z</time></trkpt><trkpt lat="45.771381" lon="13.7830019"><ele>271.0</ele><time>2026-05-03T10:30:31.555Z</time></trkpt><trkpt lat="45.7714068" lon="13.7830858"><ele>271.66666666666663</ele><time>2026-05-03T10:30:32.554Z</time></trkpt><trkpt lat="45.7714642" lon="13.7831594"><ele>272.3333333333333</ele><time>2026-05-03T10:30:33.555Z</time></trkpt><trkpt lat="45.7715771" lon="13.7831855"><ele>273.0</ele><time>2026-05-03T10:30:35.555Z</time></trkpt><trkpt lat="45.7716654" lon="13.7831811"><ele>273.6666666666667</ele><time>2026-05-03T10:30:36.554Z</time></trkpt><trkpt lat="45.7717354" lon="13.7831801"><ele>274.33333333333337</ele><time>2026-05-03T10:30:37.555Z</time></trkpt><trkpt lat="45.7718041" lon="13.78319"><ele>275.0</ele><time>2026-05-03T10:30:38.555Z</time></trkpt><trkpt lat="45.7719448" lon="13.7832267"><ele>275.6</ele><time>2026-05-03T10:30:40.554Z</time></trkpt><trkpt lat="45.772051" lon="13.7832921"><ele>276.2</ele><time>2026-05-03T10:30:42.555Z</time></trkpt><trkpt lat="45.77212" lon="13.7833802"><ele>276.8</ele><time>2026-05-03T10:30:44.555Z</time></trkpt><trkpt lat="45.772089" lon="13.7834799"><ele>277.4</ele><time>2026-05-03T10:30:46.554Z</time></trkpt><trkpt lat="45.7719884" lon="13.7835438"><ele>278.0</ele><time>2026-05-03T10:30:48.554Z</time></trkpt><trkpt lat="45.7719201" lon="13.7835697"><ele>278.33333333333337</ele><time>2026-05-03T10:30:49.554Z</time></trkpt><trkpt lat="45.7718697" lon="13.7836337"><ele>278.6666666666667</ele><time>2026-05-03T10:30:50.555Z</time></trkpt><trkpt lat="45.7718138" lon="13.7836904"><ele>279.0</ele><time>2026-05-03T10:30:52.554Z</time></trkpt><trkpt lat="45.7717893" lon="13.7838311"><ele>279.3333333333333</ele><time>2026-05-03T10:30:54.555Z</time></trkpt><trkpt lat="45.771793" lon="13.7839709"><ele>279.66666666666663</ele><time>2026-05-03T10:30:56.554Z</time></trkpt><trkpt lat="45.7718257" lon="13.7841027"><ele>280.0</ele><time>2026-05-03T10:30:58.555Z</time></trkpt><trkpt lat="45.7718736" lon="13.7842376"><ele>281.4</ele><time>2026-05-03T10:31:00.554Z</time></trkpt><trkpt lat="45.7719243" lon="13.7843594"><ele>282.8</ele><time>2026-05-03T10:31:02.555Z</time></trkpt><trkpt lat="45.7719475" lon="13.7844645"><ele>284.2</ele><time>2026-05-03T10:31:04.554Z</time></trkpt><trkpt lat="45.7719475" lon="13.7846085"><ele>285.6</ele><time>2026-05-03T10:31:06.554Z</time></trkpt><trkpt lat="45.7719357" lon="13.7847758"><ele>287.0</ele><time>2026-05-03T10:31:08.554Z</time></trkpt><trkpt lat="45.7719396" lon="13.7849437"><ele>287.0</ele><time>2026-05-03T10:31:10.555Z</time></trkpt><trkpt lat="45.7719835" lon="13.7850436"><ele>287.0</ele><time>2026-05-03T10:31:11.555Z</time></trkpt><trkpt lat="45.7720534" lon="13.7852043"><ele>287.0</ele><time>2026-05-03T10:31:13.555Z</time></trkpt><trkpt lat="45.7720917" lon="13.7852772"><ele>287.0</ele><time>2026-05-03T10:31:14.555Z</time></trkpt><trkpt lat="45.7721635" lon="13.7853823"><ele>287.0</ele><time>2026-05-03T10:31:16.554Z</time></trkpt><trkpt lat="45.7722287" lon="13.7853989"><ele>287.0</ele><time>2026-05-03T10:31:17.555Z</time></trkpt><trkpt lat="45.7722936" lon="13.7853828"><ele>287.0</ele><time>2026-05-03T10:31:18.555Z</time></trkpt><trkpt lat="45.7723959" lon="13.7853574"><ele>287.0</ele><time>2026-05-03T10:31:20.555Z</time></trkpt><trkpt lat="45.7724604" lon="13.7853267"><ele>287.0</ele><time>2026-05-03T10:31:21.555Z</time></trkpt><trkpt lat="45.772521" lon="13.7852812"><ele>287.0</ele><time>2026-05-03T10:31:22.554Z</time></trkpt><trkpt lat="45.7725787" lon="13.7852192"><ele>287.0</ele><time>2026-05-03T10:31:23.555Z</time></trkpt><trkpt lat="45.7726376" lon="13.7851634"><ele>287.0</ele><time>2026-05-03T10:31:24.555Z</time></trkpt><trkpt lat="45.7727057" lon="13.7851133"><ele>288.0</ele><time>2026-05-03T10:31:25.554Z</time></trkpt><trkpt lat="45.7727869" lon="13.7850965"><ele>289.0</ele><time>2026-05-03T10:31:26.554Z</time></trkpt><trkpt lat="45.7728651" lon="13.7850713"><ele>290.0</ele><time>2026-05-03T10:31:27.554Z</time></trkpt><trkpt lat="45.7729481" lon="13.7850417"><ele>291.0</ele><time>2026-05-03T10:31:28.555Z</time></trkpt><trkpt lat="45.7730345" lon="13.7850228"><ele>292.0</ele><time>2026-05-03T10:31:29.554Z</time></trkpt><trkpt lat="45.7731133" lon="13.7849789"><ele>293.0</ele><time>2026-05-03T10:31:30.554Z</time></trkpt><trkpt lat="45.7731982" lon="13.7849532"><ele>293.0</ele><time>2026-05-03T10:31:31.554Z</time></trkpt><trkpt lat="45.7732806" lon="13.7849332"><ele>293.0</ele><time>2026-05-03T10:31:32.555Z</time></trkpt><trkpt lat="45.7733619" lon="13.784914"><ele>293.0</ele><time>2026-05-03T10:31:33.555Z</time></trkpt><trkpt lat="45.7734462" lon="13.7849007"><ele>293.0</ele><time>2026-05-03T10:31:34.554Z</time></trkpt><trkpt lat="45.773522" lon="13.7848926"><ele>293.0</ele><time>2026-05-03T10:31:35.555Z</time></trkpt><trkpt lat="45.7736104" lon="13.784894"><ele>293.0</ele><time>2026-05-03T10:31:36.555Z</time></trkpt><trkpt lat="45.7736958" lon="13.7848954"><ele>292.6</ele><time>2026-05-03T10:31:37.555Z</time></trkpt><trkpt lat="45.7737863" lon="13.7849082"><ele>292.20000000000005</ele><time>2026-05-03T10:31:38.555Z</time></trkpt><trkpt lat="45.7738774" lon="13.7849197"><ele>291.8</ele><time>2026-05-03T10:31:39.555Z</time></trkpt><trkpt lat="45.7739758" lon="13.7849467"><ele>291.40000000000003</ele><time>2026-05-03T10:31:40.554Z</time></trkpt><trkpt lat="45.7740603" lon="13.7849627"><ele>291.0</ele><time>2026-05-03T10:31:41.555Z</time></trkpt><trkpt lat="45.7741423" lon="13.7849804"><ele>291.0</ele><time>2026-05-03T10:31:42.554Z</time></trkpt><trkpt lat="45.7742257" lon="13.7849934"><ele>291.0</ele><time>2026-05-03T10:31:43.555Z</time></trkpt><trkpt lat="45.7743052" lon="13.7849956"><ele>291.0</ele><time>2026-05-03T10:31:44.554Z</time></trkpt><trkpt lat="45.7743736" lon="13.7849931"><ele>291.0</ele><time>2026-05-03T10:31:45.555Z</time></trkpt><trkpt lat="45.7744376" lon="13.7849841"><ele>291.0</ele><time>2026-05-03T10:31:46.555Z</time></trkpt><trkpt lat="45.7745427" lon="13.7849485"><ele>291.0</ele><time>2026-05-03T10:31:48.554Z</time></trkpt><trkpt lat="45.7746255" lon="13.7849777"><ele>291.0</ele><time>2026-05-03T10:31:50.554Z</time></trkpt><trkpt lat="45.7746926" lon="13.7850484"><ele>291.0</ele><time>2026-05-03T10:31:52.555Z</time></trkpt><trkpt lat="45.7747396" lon="13.7851378"><ele>291.0</ele><time>2026-05-03T10:31:54.555Z</time></trkpt><trkpt lat="45.7747625" lon="13.7852328"><ele>291.0</ele><time>2026-05-03T10:31:56.555Z</time></trkpt><trkpt lat="45.7747092" lon="13.7851441"><ele>291.0</ele><time>2026-05-03T10:32:01.554Z</time></trkpt><trkpt lat="45.774686" lon="13.7850264"><ele>291.0</ele><time>2026-05-03T10:32:03.554Z</time></trkpt><trkpt lat="45.7746959" lon="13.784919"><ele>291.0</ele><time>2026-05-03T10:32:05.555Z</time></trkpt><trkpt lat="45.7747836" lon="13.7848299"><ele>291.0</ele><time>2026-05-03T10:32:07.554Z</time></trkpt><trkpt lat="45.7748826" lon="13.7847621"><ele>291.0</ele><time>2026-05-03T10:32:09.555Z</time></trkpt><trkpt lat="45.774978" lon="13.7847787"><ele>291.0</ele><time>2026-05-03T10:32:11.555Z</time></trkpt><trkpt lat="45.7750395" lon="13.7848582"><ele>291.0</ele><time>2026-05-03T10:32:13.555Z</time></trkpt><trkpt lat="45.7750768" lon="13.7849365"><ele>291.0</ele><time>2026-05-03T10:32:14.555Z</time></trkpt><trkpt lat="45.7751117" lon="13.7850176"><ele>291.0</ele><time>2026-05-03T10:32:15.555Z</time></trkpt><trkpt lat="45.775134" lon="13.7851145"><ele>291.0</ele><time>2026-05-03T10:32:16.554Z</time></trkpt><trkpt lat="45.7751654" lon="13.7852131"><ele>291.0</ele><time>2026-05-03T10:32:17.554Z</time></trkpt><trkpt lat="45.7751932" lon="13.7853101"><ele>291.0</ele><time>2026-05-03T10:32:18.554Z</time></trkpt><trkpt lat="45.7751971" lon="13.7854053"><ele>291.0</ele><time>2026-05-03T10:32:19.555Z</time></trkpt><trkpt lat="45.7751856" lon="13.7855003"><ele>291.0</ele><time>2026-05-03T10:32:20.554Z</time></trkpt><trkpt lat="45.7751852" lon="13.7855977"><ele>290.3333333333333</ele><time>2026-05-03T10:32:21.555Z</time></trkpt><trkpt lat="45.7751651" lon="13.7857095"><ele>289.6666666666667</ele><time>2026-05-03T10:32:22.554Z</time></trkpt><trkpt lat="45.7751405" lon="13.7858215"><ele>289.0</ele><time>2026-05-03T10:32:23.554Z</time></trkpt><trkpt lat="45.7751433" lon="13.7859138"><ele>288.33333333333337</ele><time>2026-05-03T10:32:24.555Z</time></trkpt><trkpt lat="45.7751401" lon="13.7860268"><ele>287.6666666666667</ele><time>2026-05-03T10:32:25.554Z</time></trkpt><trkpt lat="45.775158" lon="13.7861345"><ele>287.0</ele><time>2026-05-03T10:32:26.555Z</time></trkpt><trkpt lat="45.7751725" lon="13.7862296"><ele>287.0</ele><time>2026-05-03T10:32:27.555Z</time></trkpt><trkpt lat="45.775202" lon="13.7863375"><ele>287.0</ele><time>2026-05-03T10:32:28.554Z</time></trkpt><trkpt lat="45.7752543" lon="13.7864446"><ele>287.0</ele><time>2026-05-03T10:32:29.555Z</time></trkpt><trkpt lat="45.7752943" lon="13.7865543"><ele>287.0</ele><time>2026-05-03T10:32:30.554Z</time></trkpt><trkpt lat="45.7753278" lon="13.7866727"><ele>287.0</ele><time>2026-05-03T10:32:31.554Z</time></trkpt><trkpt lat="45.7753549" lon="13.7868003"><ele>287.0</ele><time>2026-05-03T10:32:32.554Z</time></trkpt><trkpt lat="45.7753907" lon="13.7869258"><ele>286.33333333333337</ele><time>2026-05-03T10:32:33.555Z</time></trkpt><trkpt lat="45.7754269" lon="13.7870454"><ele>285.6666666666667</ele><time>2026-05-03T10:32:34.555Z</time></trkpt><trkpt lat="45.7754795" lon="13.7871504"><ele>285.0</ele><time>2026-05-03T10:32:35.555Z</time></trkpt><trkpt lat="45.7755227" lon="13.7872546"><ele>284.3333333333333</ele><time>2026-05-03T10:32:36.554Z</time></trkpt><trkpt lat="45.7755702" lon="13.787348"><ele>283.66666666666663</ele><time>2026-05-03T10:32:37.555Z</time></trkpt><trkpt lat="45.7756177" lon="13.7874457"><ele>283.0</ele><time>2026-05-03T10:32:38.554Z</time></trkpt><trkpt lat="45.7756481" lon="13.7875476"><ele>283.0</ele><time>2026-05-03T10:32:39.555Z</time></trkpt><trkpt lat="45.7756749" lon="13.7876602"><ele>283.0</ele><time>2026-05-03T10:32:40.554Z</time></trkpt><trkpt lat="45.7757224" lon="13.7877677"><ele>283.0</ele><time>2026-05-03T10:32:41.555Z</time></trkpt><trkpt lat="45.7757647" lon="13.7878996"><ele>283.0</ele><time>2026-05-03T10:32:42.554Z</time></trkpt><trkpt lat="45.7757985" lon="13.788017"><ele>283.0</ele><time>2026-05-03T10:32:43.554Z</time></trkpt><trkpt lat="45.775827" lon="13.7881506"><ele>282.66666666666663</ele><time>2026-05-03T10:32:44.555Z</time></trkpt><trkpt lat="45.775842" lon="13.788266"><ele>282.3333333333333</ele><time>2026-05-03T10:32:45.555Z</time></trkpt><trkpt lat="45.775861" lon="13.7883883"><ele>282.0</ele><time>2026-05-03T10:32:46.555Z</time></trkpt><trkpt lat="45.7758681" lon="13.7885126"><ele>281.6666666666667</ele><time>2026-05-03T10:32:47.555Z</time></trkpt><trkpt lat="45.7758949" lon="13.7886225"><ele>281.33333333333337</ele><time>2026-05-03T10:32:48.554Z</time></trkpt><trkpt lat="45.775903" lon="13.7887254"><ele>281.0</ele><time>2026-05-03T10:32:49.554Z</time></trkpt><trkpt lat="45.7759514" lon="13.7888935"><ele>281.0</ele><time>2026-05-03T10:32:51.554Z</time></trkpt><trkpt lat="45.7760069" lon="13.7889721"><ele>281.0</ele><time>2026-05-03T10:32:52.555Z</time></trkpt><trkpt lat="45.7760866" lon="13.7890281"><ele>281.0</ele><time>2026-05-03T10:32:53.555Z</time></trkpt><trkpt lat="45.7761539" lon="13.7891063"><ele>281.0</ele><time>2026-05-03T10:32:54.555Z</time></trkpt><trkpt lat="45.7762156" lon="13.7891799"><ele>281.0</ele><time>2026-05-03T10:32:55.555Z</time></trkpt><trkpt lat="45.7762684" lon="13.7892591"><ele>281.0</ele><time>2026-05-03T10:32:56.555Z</time></trkpt><trkpt lat="45.7763555" lon="13.7893283"><ele>279.6666666666667</ele><time>2026-05-03T10:32:57.554Z</time></trkpt><trkpt lat="45.7764141" lon="13.7894023"><ele>278.33333333333337</ele><time>2026-05-03T10:32:58.555Z</time></trkpt><trkpt lat="45.7765209" lon="13.7894887"><ele>277.0</ele><time>2026-05-03T10:33:00.555Z</time></trkpt><trkpt lat="45.7766251" lon="13.7895217"><ele>275.6666666666667</ele><time>2026-05-03T10:33:02.555Z</time></trkpt><trkpt lat="45.7766953" lon="13.7895341"><ele>274.3333333333333</ele><time>2026-05-03T10:33:03.554Z</time></trkpt><trkpt lat="45.776762" lon="13.7895319"><ele>273.0</ele><time>2026-05-03T10:33:04.554Z</time></trkpt><trkpt lat="45.7768341" lon="13.7895257"><ele>272.0</ele><time>2026-05-03T10:33:05.555Z</time></trkpt><trkpt lat="45.7769205" lon="13.7895489"><ele>271.0</ele><time>2026-05-03T10:33:06.555Z</time></trkpt><trkpt lat="45.7769928" lon="13.7895714"><ele>270.0</ele><time>2026-05-03T10:33:07.555Z</time></trkpt><trkpt lat="45.7770669" lon="13.7895761"><ele>269.0</ele><time>2026-05-03T10:33:08.555Z</time></trkpt><trkpt lat="45.7771372" lon="13.7896239"><ele>268.0</ele><time>2026-05-03T10:33:09.555Z</time></trkpt><trkpt lat="45.7772192" lon="13.7896757"><ele>267.0</ele><time>2026-05-03T10:33:10.554Z</time></trkpt><trkpt lat="45.7772962" lon="13.7897442"><ele>267.0</ele><time>2026-05-03T10:33:11.555Z</time></trkpt><trkpt lat="45.7773816" lon="13.7898235"><ele>267.0</ele><time>2026-05-03T10:33:12.555Z</time></trkpt><trkpt lat="45.7774561" lon="13.7899009"><ele>267.0</ele><time>2026-05-03T10:33:13.554Z</time></trkpt><trkpt lat="45.77754" lon="13.7899751"><ele>267.0</ele><time>2026-05-03T10:33:14.555Z</time></trkpt><trkpt lat="45.7776164" lon="13.7900551"><ele>267.0</ele><time>2026-05-03T10:33:15.555Z</time></trkpt><trkpt lat="45.7776962" lon="13.7901442"><ele>266.1666666666667</ele><time>2026-05-03T10:33:16.555Z</time></trkpt><trkpt lat="45.777765" lon="13.7902152"><ele>265.3333333333333</ele><time>2026-05-03T10:33:17.555Z</time></trkpt><trkpt lat="45.7778472" lon="13.7902695"><ele>264.5</ele><time>2026-05-03T10:33:18.555Z</time></trkpt><trkpt lat="45.7779373" lon="13.7903308"><ele>263.66666666666663</ele><time>2026-05-03T10:33:19.555Z</time></trkpt><trkpt lat="45.7779973" lon="13.7903798"><ele>262.8333333333333</ele><time>2026-05-03T10:33:20.555Z</time></trkpt><trkpt lat="45.7780671" lon="13.7904374"><ele>262.0</ele><time>2026-05-03T10:33:21.555Z</time></trkpt><trkpt lat="45.7781335" lon="13.7905003"><ele>262.0</ele><time>2026-05-03T10:33:22.554Z</time></trkpt><trkpt lat="45.7781697" lon="13.7905958"><ele>262.0</ele><time>2026-05-03T10:33:23.555Z</time></trkpt><trkpt lat="45.7782345" lon="13.7906835"><ele>262.0</ele><time>2026-05-03T10:33:24.555Z</time></trkpt><trkpt lat="45.778294" lon="13.7907748"><ele>262.0</ele><time>2026-05-03T10:33:25.555Z</time></trkpt><trkpt lat="45.7783497" lon="13.7908675"><ele>262.0</ele><time>2026-05-03T10:33:26.555Z</time></trkpt><trkpt lat="45.778399" lon="13.7909995"><ele>262.0</ele><time>2026-05-03T10:33:27.555Z</time></trkpt><trkpt lat="45.7784758" lon="13.7911285"><ele>261.4</ele><time>2026-05-03T10:33:28.555Z</time></trkpt><trkpt lat="45.778539" lon="13.7912375"><ele>260.79999999999995</ele><time>2026-05-03T10:33:29.555Z</time></trkpt><trkpt lat="45.7785926" lon="13.7913621"><ele>260.2</ele><time>2026-05-03T10:33:30.555Z</time></trkpt><trkpt lat="45.7786649" lon="13.791458"><ele>259.59999999999997</ele><time>2026-05-03T10:33:31.554Z</time></trkpt><trkpt lat="45.7787688" lon="13.7915469"><ele>259.0</ele><time>2026-05-03T10:33:32.555Z</time></trkpt><trkpt lat="45.7788483" lon="13.7916549"><ele>259.0</ele><time>2026-05-03T10:33:33.554Z</time></trkpt><trkpt lat="45.7789295" lon="13.7917766"><ele>259.0</ele><time>2026-05-03T10:33:34.555Z</time></trkpt><trkpt lat="45.7790183" lon="13.7919138"><ele>259.0</ele><time>2026-05-03T10:33:35.555Z</time></trkpt><trkpt lat="45.7791111" lon="13.7920564"><ele>259.0</ele><time>2026-05-03T10:33:36.555Z</time></trkpt><trkpt lat="45.7791908" lon="13.7921875"><ele>258.8</ele><time>2026-05-03T10:33:37.554Z</time></trkpt><trkpt lat="45.7792585" lon="13.7923022"><ele>258.59999999999997</ele><time>2026-05-03T10:33:38.555Z</time></trkpt><trkpt lat="45.7793302" lon="13.7923886"><ele>258.4</ele><time>2026-05-03T10:33:39.555Z</time></trkpt><trkpt lat="45.7794049" lon="13.792469"><ele>258.2</ele><time>2026-05-03T10:33:40.554Z</time></trkpt><trkpt lat="45.7795009" lon="13.7925205"><ele>258.0</ele><time>2026-05-03T10:33:41.554Z</time></trkpt><trkpt lat="45.7796064" lon="13.7925684"><ele>258.0</ele><time>2026-05-03T10:33:42.555Z</time></trkpt><trkpt lat="45.7797092" lon="13.7926195"><ele>258.0</ele><time>2026-05-03T10:33:43.554Z</time></trkpt><trkpt lat="45.7798137" lon="13.7926472"><ele>258.0</ele><time>2026-05-03T10:33:44.554Z</time></trkpt><trkpt lat="45.7799118" lon="13.7926718"><ele>258.0</ele><time>2026-05-03T10:33:45.554Z</time></trkpt><trkpt lat="45.7800132" lon="13.7926859"><ele>258.0</ele><time>2026-05-03T10:33:46.555Z</time></trkpt><trkpt lat="45.7801029" lon="13.79269"><ele>257.6666666666667</ele><time>2026-05-03T10:33:47.555Z</time></trkpt><trkpt lat="45.7801865" lon="13.7926569"><ele>257.3333333333333</ele><time>2026-05-03T10:33:48.555Z</time></trkpt><trkpt lat="45.7802703" lon="13.7926362"><ele>257.0</ele><time>2026-05-03T10:33:49.555Z</time></trkpt><trkpt lat="45.7803429" lon="13.7926007"><ele>256.66666666666663</ele><time>2026-05-03T10:33:50.555Z</time></trkpt><trkpt lat="45.780403" lon="13.7925738"><ele>256.3333333333333</ele><time>2026-05-03T10:33:51.555Z</time></trkpt><trkpt lat="45.7804672" lon="13.7925661"><ele>256.0</ele><time>2026-05-03T10:33:52.555Z</time></trkpt><trkpt lat="45.7805544" lon="13.7925541"><ele>255.99999999999997</ele><time>2026-05-03T10:33:54.555Z</time></trkpt><trkpt lat="45.7806116" lon="13.792596"><ele>256.0</ele><time>2026-05-03T10:33:59.555Z</time></trkpt><trkpt lat="45.7807165" lon="13.7925097"><ele>256.0</ele><time>2026-05-03T10:34:03.554Z</time></trkpt><trkpt lat="45.7807609" lon="13.7924391"><ele>256.0</ele><time>2026-05-03T10:34:04.555Z</time></trkpt><trkpt lat="45.7808207" lon="13.792381"><ele>255.99999999999997</ele><time>2026-05-03T10:34:05.555Z</time></trkpt><trkpt lat="45.7808903" lon="13.7923514"><ele>256.0</ele><time>2026-05-03T10:34:06.555Z</time></trkpt><trkpt lat="45.7809744" lon="13.7923491"><ele>255.5</ele><time>2026-05-03T10:34:07.555Z</time></trkpt><trkpt lat="45.7810572" lon="13.7923331"><ele>255.0</ele><time>2026-05-03T10:34:08.554Z</time></trkpt><trkpt lat="45.7812374" lon="13.7923248"><ele>254.5</ele><time>2026-05-03T10:34:10.559Z</time></trkpt><trkpt lat="45.7813304" lon="13.7923665"><ele>254.0</ele><time>2026-05-03T10:34:11.559Z</time></trkpt><trkpt lat="45.7814109" lon="13.7924422"><ele>254.0</ele><time>2026-05-03T10:34:12.55Z</time></trkpt><trkpt lat="45.7815052" lon="13.7925119"><ele>253.99999999999997</ele><time>2026-05-03T10:34:13.55Z</time></trkpt><trkpt lat="45.7815898" lon="13.7925817"><ele>253.99999999999997</ele><time>2026-05-03T10:34:14.559Z</time></trkpt><trkpt lat="45.7816915" lon="13.7926622"><ele>254.0</ele><time>2026-05-03T10:34:15.555Z</time></trkpt><trkpt lat="45.7817736" lon="13.7927568"><ele>254.0</ele><time>2026-05-03T10:34:16.555Z</time></trkpt><trkpt lat="45.7818479" lon="13.7928436"><ele>253.2</ele><time>2026-05-03T10:34:17.556Z</time></trkpt><trkpt lat="45.7819274" lon="13.7929347"><ele>252.39999999999998</ele><time>2026-05-03T10:34:18.555Z</time></trkpt><trkpt lat="45.7820204" lon="13.7930225"><ele>251.6</ele><time>2026-05-03T10:34:19.556Z</time></trkpt><trkpt lat="45.7821072" lon="13.7930929"><ele>250.8</ele><time>2026-05-03T10:34:20.556Z</time></trkpt><trkpt lat="45.7821954" lon="13.7931793"><ele>250.0</ele><time>2026-05-03T10:34:21.556Z</time></trkpt><trkpt lat="45.7822827" lon="13.7932689"><ele>250.0</ele><time>2026-05-03T10:34:22.556Z</time></trkpt><trkpt lat="45.7823673" lon="13.7933737"><ele>250.0</ele><time>2026-05-03T10:34:23.555Z</time></trkpt><trkpt lat="45.7824502" lon="13.7934765"><ele>250.0</ele><time>2026-05-03T10:34:24.556Z</time></trkpt><trkpt lat="45.7825304" lon="13.7935808"><ele>250.0</ele><time>2026-05-03T10:34:25.556Z</time></trkpt><trkpt lat="45.7826169" lon="13.7936918"><ele>250.0</ele><time>2026-05-03T10:34:26.556Z</time></trkpt><trkpt lat="45.7826937" lon="13.7938042"><ele>250.0</ele><time>2026-05-03T10:34:27.555Z</time></trkpt><trkpt lat="45.7827831" lon="13.7939076"><ele>250.0</ele><time>2026-05-03T10:34:28.556Z</time></trkpt><trkpt lat="45.7828662" lon="13.7940156"><ele>250.0</ele><time>2026-05-03T10:34:29.556Z</time></trkpt><trkpt lat="45.7829383" lon="13.7941201"><ele>250.0</ele><time>2026-05-03T10:34:30.556Z</time></trkpt><trkpt lat="45.7830279" lon="13.7942269"><ele>250.0</ele><time>2026-05-03T10:34:31.556Z</time></trkpt><trkpt lat="45.7830971" lon="13.7943285"><ele>250.0</ele><time>2026-05-03T10:34:32.556Z</time></trkpt><trkpt lat="45.7831613" lon="13.7944311"><ele>250.0</ele><time>2026-05-03T10:34:33.555Z</time></trkpt><trkpt lat="45.7832067" lon="13.7945467"><ele>250.0</ele><time>2026-05-03T10:34:34.555Z</time></trkpt><trkpt lat="45.7832583" lon="13.7946564"><ele>250.0</ele><time>2026-05-03T10:34:35.555Z</time></trkpt><trkpt lat="45.783316" lon="13.794768"><ele>250.0</ele><time>2026-05-03T10:34:36.556Z</time></trkpt><trkpt lat="45.7833739" lon="13.7948731"><ele>250.0</ele><time>2026-05-03T10:34:37.555Z</time></trkpt><trkpt lat="45.7834455" lon="13.7949718"><ele>250.0</ele><time>2026-05-03T10:34:38.556Z</time></trkpt><trkpt lat="45.7835253" lon="13.7950596"><ele>250.0</ele><time>2026-05-03T10:34:39.556Z</time></trkpt><trkpt lat="45.7835914" lon="13.7951539"><ele>250.0</ele><time>2026-05-03T10:34:40.555Z</time></trkpt><trkpt lat="45.7836689" lon="13.7952422"><ele>250.0</ele><time>2026-05-03T10:34:41.556Z</time></trkpt><trkpt lat="45.7837394" lon="13.7953179"><ele>250.0</ele><time>2026-05-03T10:34:42.555Z</time></trkpt><trkpt lat="45.7838183" lon="13.7953837"><ele>250.0</ele><time>2026-05-03T10:34:43.556Z</time></trkpt><trkpt lat="45.7839036" lon="13.7954169"><ele>250.0</ele><time>2026-05-03T10:34:44.555Z</time></trkpt><trkpt lat="45.7839877" lon="13.7954079"><ele>250.0</ele><time>2026-05-03T10:34:45.556Z</time></trkpt><trkpt lat="45.7840795" lon="13.7953638"><ele>250.0</ele><time>2026-05-03T10:34:46.555Z</time></trkpt><trkpt lat="45.7841663" lon="13.7953029"><ele>250.0</ele><time>2026-05-03T10:34:47.556Z</time></trkpt><trkpt lat="45.7842579" lon="13.7952448"><ele>250.0</ele><time>2026-05-03T10:34:48.555Z</time></trkpt><trkpt lat="45.7843546" lon="13.7952104"><ele>250.0</ele><time>2026-05-03T10:34:49.556Z</time></trkpt><trkpt lat="45.7844481" lon="13.7951899"><ele>250.0</ele><time>2026-05-03T10:34:50.555Z</time></trkpt><trkpt lat="45.7845454" lon="13.7952203"><ele>250.0</ele><time>2026-05-03T10:34:51.555Z</time></trkpt><trkpt lat="45.7846352" lon="13.7952489"><ele>250.0</ele><time>2026-05-03T10:34:52.556Z</time></trkpt><trkpt lat="45.7847348" lon="13.7952584"><ele>250.0</ele><time>2026-05-03T10:34:53.555Z</time></trkpt><trkpt lat="45.7848296" lon="13.7952891"><ele>250.0</ele><time>2026-05-03T10:34:54.556Z</time></trkpt><trkpt lat="45.7849202" lon="13.7953293"><ele>250.0</ele><time>2026-05-03T10:34:55.555Z</time></trkpt><trkpt lat="45.7850111" lon="13.795358"><ele>250.0</ele><time>2026-05-03T10:34:56.555Z</time></trkpt><trkpt lat="45.7851016" lon="13.7954029"><ele>249.83333333333331</ele><time>2026-05-03T10:34:57.555Z</time></trkpt><trkpt lat="45.78518" lon="13.7954475"><ele>249.66666666666666</ele><time>2026-05-03T10:34:58.556Z</time></trkpt><trkpt lat="45.7852635" lon="13.7955007"><ele>249.5</ele><time>2026-05-03T10:34:59.555Z</time></trkpt><trkpt lat="45.7853483" lon="13.7955464"><ele>249.33333333333331</ele><time>2026-05-03T10:35:00.555Z</time></trkpt><trkpt lat="45.7854325" lon="13.7955886"><ele>249.16666666666666</ele><time>2026-05-03T10:35:01.555Z</time></trkpt><trkpt lat="45.7855121" lon="13.7956244"><ele>249.0</ele><time>2026-05-03T10:35:02.555Z</time></trkpt><trkpt lat="45.7856095" lon="13.7956578"><ele>249.0</ele><time>2026-05-03T10:35:03.555Z</time></trkpt><trkpt lat="45.7856977" lon="13.7956734"><ele>248.99999999999997</ele><time>2026-05-03T10:35:04.555Z</time></trkpt><trkpt lat="45.7857951" lon="13.7956666"><ele>248.99999999999997</ele><time>2026-05-03T10:35:05.556Z</time></trkpt><trkpt lat="45.7859026" lon="13.7956578"><ele>249.0</ele><time>2026-05-03T10:35:06.556Z</time></trkpt><trkpt lat="45.7859954" lon="13.7956417"><ele>249.0</ele><time>2026-05-03T10:35:07.556Z</time></trkpt><trkpt lat="45.7860899" lon="13.7956426"><ele>249.0</ele><time>2026-05-03T10:35:08.556Z</time></trkpt><trkpt lat="45.786194" lon="13.7956631"><ele>249.0</ele><time>2026-05-03T10:35:09.556Z</time></trkpt><trkpt lat="45.7862892" lon="13.7956617"><ele>249.0</ele><time>2026-05-03T10:35:10.555Z</time></trkpt><trkpt lat="45.786367" lon="13.7956622"><ele>249.0</ele><time>2026-05-03T10:35:11.556Z</time></trkpt><trkpt lat="45.7864543" lon="13.7956704"><ele>249.0</ele><time>2026-05-03T10:35:12.555Z</time></trkpt><trkpt lat="45.7865183" lon="13.7956869"><ele>249.0</ele><time>2026-05-03T10:35:13.555Z</time></trkpt><trkpt lat="45.7865958" lon="13.7957274"><ele>249.0</ele><time>2026-05-03T10:35:14.555Z</time></trkpt><trkpt lat="45.7866691" lon="13.7957844"><ele>249.0</ele><time>2026-05-03T10:35:15.556Z</time></trkpt><trkpt lat="45.7867336" lon="13.7958271"><ele>249.0</ele><time>2026-05-03T10:35:16.556Z</time></trkpt><trkpt lat="45.7867957" lon="13.7958562"><ele>249.0</ele><time>2026-05-03T10:35:17.556Z</time></trkpt><trkpt lat="45.7868551" lon="13.7958866"><ele>249.0</ele><time>2026-05-03T10:35:18.556Z</time></trkpt><trkpt lat="45.7869687" lon="13.7959073"><ele>249.0</ele><time>2026-05-03T10:35:20.556Z</time></trkpt><trkpt lat="45.7870782" lon="13.795884"><ele>249.0</ele><time>2026-05-03T10:35:22.556Z</time></trkpt><trkpt lat="45.7871435" lon="13.7958877"><ele>248.99999999999997</ele><time>2026-05-03T10:35:23.555Z</time></trkpt><trkpt lat="45.7872721" lon="13.7959053"><ele>248.99999999999997</ele><time>2026-05-03T10:35:25.555Z</time></trkpt><trkpt lat="45.787403" lon="13.7959634"><ele>249.0</ele><time>2026-05-03T10:35:27.556Z</time></trkpt><trkpt lat="45.7874794" lon="13.7960081"><ele>249.0</ele><time>2026-05-03T10:35:28.556Z</time></trkpt><trkpt lat="45.7875568" lon="13.7960354"><ele>249.0</ele><time>2026-05-03T10:35:29.556Z</time></trkpt><trkpt lat="45.7876257" lon="13.7960997"><ele>248.99999999999997</ele><time>2026-05-03T10:35:30.556Z</time></trkpt><trkpt lat="45.7876846" lon="13.796171"><ele>249.0</ele><time>2026-05-03T10:35:31.556Z</time></trkpt><trkpt lat="45.7877405" lon="13.7962503"><ele>249.0</ele><time>2026-05-03T10:35:32.555Z</time></trkpt><trkpt lat="45.7877698" lon="13.7963406"><ele>248.99999999999997</ele><time>2026-05-03T10:35:33.555Z</time></trkpt><trkpt lat="45.7878063" lon="13.7964241"><ele>249.0</ele><time>2026-05-03T10:35:34.555Z</time></trkpt><trkpt lat="45.7878442" lon="13.7965045"><ele>249.0</ele><time>2026-05-03T10:35:35.556Z</time></trkpt><trkpt lat="45.7878893" lon="13.7965792"><ele>249.16666666666666</ele><time>2026-05-03T10:35:36.556Z</time></trkpt><trkpt lat="45.7879378" lon="13.7966472"><ele>249.33333333333331</ele><time>2026-05-03T10:35:37.556Z</time></trkpt><trkpt lat="45.7879956" lon="13.7967157"><ele>249.5</ele><time>2026-05-03T10:35:38.555Z</time></trkpt><trkpt lat="45.7880737" lon="13.796791"><ele>249.66666666666666</ele><time>2026-05-03T10:35:39.556Z</time></trkpt><trkpt lat="45.788151" lon="13.7968584"><ele>249.83333333333331</ele><time>2026-05-03T10:35:40.555Z</time></trkpt><trkpt lat="45.7882088" lon="13.7969101"><ele>250.0</ele><time>2026-05-03T10:35:41.556Z</time></trkpt><trkpt lat="45.7882964" lon="13.79697"><ele>249.6</ele><time>2026-05-03T10:35:42.555Z</time></trkpt><trkpt lat="45.7883773" lon="13.7970209"><ele>249.2</ele><time>2026-05-03T10:35:43.556Z</time></trkpt><trkpt lat="45.7884596" lon="13.7970876"><ele>248.8</ele><time>2026-05-03T10:35:44.555Z</time></trkpt><trkpt lat="45.7885489" lon="13.7971309"><ele>248.4</ele><time>2026-05-03T10:35:45.556Z</time></trkpt><trkpt lat="45.7886312" lon="13.7971974"><ele>248.0</ele><time>2026-05-03T10:35:46.556Z</time></trkpt><trkpt lat="45.7887269" lon="13.7972471"><ele>248.00000000000003</ele><time>2026-05-03T10:35:47.556Z</time></trkpt><trkpt lat="45.788805" lon="13.797305"><ele>248.0</ele><time>2026-05-03T10:35:48.555Z</time></trkpt><trkpt lat="45.7888919" lon="13.7973611"><ele>248.0</ele><time>2026-05-03T10:35:49.556Z</time></trkpt><trkpt lat="45.7889757" lon="13.7974144"><ele>248.0</ele><time>2026-05-03T10:35:50.555Z</time></trkpt><trkpt lat="45.7890581" lon="13.7974545"><ele>248.00000000000003</ele><time>2026-05-03T10:35:51.556Z</time></trkpt><trkpt lat="45.7891388" lon="13.7974989"><ele>248.0</ele><time>2026-05-03T10:35:52.555Z</time></trkpt><trkpt lat="45.7892277" lon="13.7975299"><ele>248.0</ele><time>2026-05-03T10:35:53.555Z</time></trkpt><trkpt lat="45.789307" lon="13.7975616"><ele>248.0</ele><time>2026-05-03T10:35:54.556Z</time></trkpt><trkpt lat="45.789399" lon="13.7976098"><ele>248.0</ele><time>2026-05-03T10:35:55.556Z</time></trkpt><trkpt lat="45.7894909" lon="13.7976415"><ele>248.0</ele><time>2026-05-03T10:35:56.555Z</time></trkpt><trkpt lat="45.7895818" lon="13.7976797"><ele>248.0</ele><time>2026-05-03T10:35:57.555Z</time></trkpt><trkpt lat="45.7896745" lon="13.7977124"><ele>247.50000000000003</ele><time>2026-05-03T10:35:58.556Z</time></trkpt><trkpt lat="45.7897642" lon="13.7977717"><ele>247.0</ele><time>2026-05-03T10:35:59.556Z</time></trkpt><trkpt lat="45.7898403" lon="13.7978138"><ele>246.5</ele><time>2026-05-03T10:36:00.555Z</time></trkpt><trkpt lat="45.7899216" lon="13.7978627"><ele>246.0</ele><time>2026-05-03T10:36:01.555Z</time></trkpt><trkpt lat="45.7900016" lon="13.7979149"><ele>245.50000000000003</ele><time>2026-05-03T10:36:02.556Z</time></trkpt><trkpt lat="45.7900882" lon="13.7979505"><ele>245.0</ele><time>2026-05-03T10:36:03.555Z</time></trkpt><trkpt lat="45.7901603" lon="13.7979934"><ele>245.33333333333334</ele><time>2026-05-03T10:36:04.556Z</time></trkpt><trkpt lat="45.7902395" lon="13.7980319"><ele>245.66666666666669</ele><time>2026-05-03T10:36:05.556Z</time></trkpt><trkpt lat="45.7903118" lon="13.798069"><ele>246.0</ele><time>2026-05-03T10:36:06.556Z</time></trkpt><trkpt lat="45.7903785" lon="13.7980969"><ele>246.33333333333331</ele><time>2026-05-03T10:36:07.556Z</time></trkpt><trkpt lat="45.790465" lon="13.7981462"><ele>246.66666666666666</ele><time>2026-05-03T10:36:08.556Z</time></trkpt><trkpt lat="45.7905492" lon="13.7981954"><ele>247.0</ele><time>2026-05-03T10:36:09.556Z</time></trkpt><trkpt lat="45.7906325" lon="13.7982663"><ele>246.99999999999997</ele><time>2026-05-03T10:36:10.556Z</time></trkpt><trkpt lat="45.7907178" lon="13.79829"><ele>247.0</ele><time>2026-05-03T10:36:11.556Z</time></trkpt><trkpt lat="45.790805" lon="13.7983388"><ele>247.0</ele><time>2026-05-03T10:36:12.555Z</time></trkpt><trkpt lat="45.7908907" lon="13.7983652"><ele>247.0</ele><time>2026-05-03T10:36:13.556Z</time></trkpt><trkpt lat="45.790975" lon="13.7983933"><ele>246.99999999999997</ele><time>2026-05-03T10:36:14.555Z</time></trkpt><trkpt lat="45.7910526" lon="13.7984297"><ele>247.0</ele><time>2026-05-03T10:36:15.555Z</time></trkpt><trkpt lat="45.7911282" lon="13.7984792"><ele>246.83333333333331</ele><time>2026-05-03T10:36:16.555Z</time></trkpt><trkpt lat="45.7912054" lon="13.798545"><ele>246.66666666666666</ele><time>2026-05-03T10:36:17.555Z</time></trkpt><trkpt lat="45.7912772" lon="13.7986094"><ele>246.5</ele><time>2026-05-03T10:36:18.556Z</time></trkpt><trkpt lat="45.7913539" lon="13.7986973"><ele>246.33333333333331</ele><time>2026-05-03T10:36:19.555Z</time></trkpt><trkpt lat="45.7914199" lon="13.7987829"><ele>246.16666666666666</ele><time>2026-05-03T10:36:20.556Z</time></trkpt><trkpt lat="45.7914852" lon="13.7988632"><ele>246.0</ele><time>2026-05-03T10:36:21.556Z</time></trkpt><trkpt lat="45.7915495" lon="13.7989484"><ele>246.0</ele><time>2026-05-03T10:36:22.555Z</time></trkpt><trkpt lat="45.7916057" lon="13.7990336"><ele>246.00000000000003</ele><time>2026-05-03T10:36:23.556Z</time></trkpt><trkpt lat="45.7916773" lon="13.7991208"><ele>246.00000000000003</ele><time>2026-05-03T10:36:24.556Z</time></trkpt><trkpt lat="45.7917448" lon="13.7992116"><ele>246.0</ele><time>2026-05-03T10:36:25.556Z</time></trkpt><trkpt lat="45.7918211" lon="13.799299"><ele>246.0</ele><time>2026-05-03T10:36:26.556Z</time></trkpt><trkpt lat="45.7918857" lon="13.7993797"><ele>246.4</ele><time>2026-05-03T10:36:27.555Z</time></trkpt><trkpt lat="45.7919541" lon="13.7994698"><ele>246.8</ele><time>2026-05-03T10:36:28.555Z</time></trkpt><trkpt lat="45.7920313" lon="13.7995485"><ele>247.20000000000002</ele><time>2026-05-03T10:36:29.556Z</time></trkpt><trkpt lat="45.7921092" lon="13.7996178"><ele>247.60000000000002</ele><time>2026-05-03T10:36:30.556Z</time></trkpt><trkpt lat="45.792189" lon="13.7996909"><ele>248.0</ele><time>2026-05-03T10:36:31.556Z</time></trkpt><trkpt lat="45.7922686" lon="13.7997627"><ele>248.0</ele><time>2026-05-03T10:36:32.555Z</time></trkpt><trkpt lat="45.7923662" lon="13.7998414"><ele>248.0</ele><time>2026-05-03T10:36:33.556Z</time></trkpt><trkpt lat="45.7924562" lon="13.7999174"><ele>248.0</ele><time>2026-05-03T10:36:34.555Z</time></trkpt><trkpt lat="45.7925255" lon="13.7999899"><ele>248.0</ele><time>2026-05-03T10:36:35.556Z</time></trkpt><trkpt lat="45.7926051" lon="13.8000693"><ele>248.0</ele><time>2026-05-03T10:36:36.556Z</time></trkpt><trkpt lat="45.7926966" lon="13.8001294"><ele>248.4</ele><time>2026-05-03T10:36:37.556Z</time></trkpt><trkpt lat="45.7927716" lon="13.800194"><ele>248.8</ele><time>2026-05-03T10:36:38.555Z</time></trkpt><trkpt lat="45.7928446" lon="13.8002719"><ele>249.2</ele><time>2026-05-03T10:36:39.555Z</time></trkpt><trkpt lat="45.7929188" lon="13.8003508"><ele>249.6</ele><time>2026-05-03T10:36:40.556Z</time></trkpt><trkpt lat="45.7930082" lon="13.8004351"><ele>250.0</ele><time>2026-05-03T10:36:41.555Z</time></trkpt><trkpt lat="45.793085" lon="13.8004978"><ele>249.99999999999997</ele><time>2026-05-03T10:36:42.556Z</time></trkpt><trkpt lat="45.7931665" lon="13.8005561"><ele>250.0</ele><time>2026-05-03T10:36:43.555Z</time></trkpt><trkpt lat="45.7932185" lon="13.800624"><ele>250.0</ele><time>2026-05-03T10:36:44.556Z</time></trkpt><trkpt lat="45.7932944" lon="13.8006792"><ele>250.0</ele><time>2026-05-03T10:36:45.556Z</time></trkpt><trkpt lat="45.7933669" lon="13.8007472"><ele>249.99999999999997</ele><time>2026-05-03T10:36:46.556Z</time></trkpt><trkpt lat="45.7934514" lon="13.8008266"><ele>250.0</ele><time>2026-05-03T10:36:47.556Z</time></trkpt><trkpt lat="45.7935366" lon="13.800888"><ele>250.8</ele><time>2026-05-03T10:36:48.555Z</time></trkpt><trkpt lat="45.7936242" lon="13.8009811"><ele>251.6</ele><time>2026-05-03T10:36:49.555Z</time></trkpt><trkpt lat="45.7937027" lon="13.8010412"><ele>252.39999999999998</ele><time>2026-05-03T10:36:50.555Z</time></trkpt><trkpt lat="45.7937943" lon="13.8011006"><ele>253.2</ele><time>2026-05-03T10:36:51.556Z</time></trkpt><trkpt lat="45.7938688" lon="13.8011899"><ele>254.0</ele><time>2026-05-03T10:36:52.555Z</time></trkpt><trkpt lat="45.7939412" lon="13.8012698"><ele>254.00000000000003</ele><time>2026-05-03T10:36:53.556Z</time></trkpt><trkpt lat="45.7940141" lon="13.801357"><ele>254.0</ele><time>2026-05-03T10:36:54.555Z</time></trkpt><trkpt lat="45.7940829" lon="13.8014388"><ele>254.0</ele><time>2026-05-03T10:36:55.555Z</time></trkpt><trkpt lat="45.7941365" lon="13.8015373"><ele>254.0</ele><time>2026-05-03T10:36:56.556Z</time></trkpt><trkpt lat="45.7941835" lon="13.8016365"><ele>254.00000000000003</ele><time>2026-05-03T10:36:57.556Z</time></trkpt><trkpt lat="45.7942034" lon="13.8017531"><ele>254.0</ele><time>2026-05-03T10:36:58.556Z</time></trkpt><trkpt lat="45.7942452" lon="13.8018746"><ele>254.16666666666669</ele><time>2026-05-03T10:36:59.555Z</time></trkpt><trkpt lat="45.7942816" lon="13.8019913"><ele>254.33333333333334</ele><time>2026-05-03T10:37:00.555Z</time></trkpt><trkpt lat="45.7943256" lon="13.8021111"><ele>254.5</ele><time>2026-05-03T10:37:01.556Z</time></trkpt><trkpt lat="45.7943641" lon="13.8022232"><ele>254.66666666666669</ele><time>2026-05-03T10:37:02.556Z</time></trkpt><trkpt lat="45.794402" lon="13.8023315"><ele>254.83333333333334</ele><time>2026-05-03T10:37:03.555Z</time></trkpt><trkpt lat="45.7944444" lon="13.8024396"><ele>255.0</ele><time>2026-05-03T10:37:04.556Z</time></trkpt><trkpt lat="45.7944816" lon="13.8025488"><ele>255.66666666666666</ele><time>2026-05-03T10:37:05.555Z</time></trkpt><trkpt lat="45.7945265" lon="13.8026562"><ele>256.3333333333333</ele><time>2026-05-03T10:37:06.555Z</time></trkpt><trkpt lat="45.7945724" lon="13.8027598"><ele>257.0</ele><time>2026-05-03T10:37:07.556Z</time></trkpt><trkpt lat="45.7946071" lon="13.8028569"><ele>257.66666666666663</ele><time>2026-05-03T10:37:08.555Z</time></trkpt><trkpt lat="45.7946431" lon="13.8029639"><ele>258.3333333333333</ele><time>2026-05-03T10:37:09.555Z</time></trkpt><trkpt lat="45.7946732" lon="13.8030605"><ele>259.0</ele><time>2026-05-03T10:37:10.555Z</time></trkpt><trkpt lat="45.7947036" lon="13.8031678"><ele>259.0</ele><time>2026-05-03T10:37:11.555Z</time></trkpt><trkpt lat="45.794737" lon="13.8032793"><ele>259.0</ele><time>2026-05-03T10:37:12.556Z</time></trkpt><trkpt lat="45.7947765" lon="13.8033812"><ele>259.0</ele><time>2026-05-03T10:37:13.555Z</time></trkpt><trkpt lat="45.7948149" lon="13.803487"><ele>259.0</ele><time>2026-05-03T10:37:14.556Z</time></trkpt><trkpt lat="45.7948647" lon="13.80359"><ele>259.0</ele><time>2026-05-03T10:37:15.555Z</time></trkpt><trkpt lat="45.7949202" lon="13.8036974"><ele>259.0</ele><time>2026-05-03T10:37:16.556Z</time></trkpt><trkpt lat="45.7949746" lon="13.8038112"><ele>258.59999999999997</ele><time>2026-05-03T10:37:17.555Z</time></trkpt><trkpt lat="45.7950449" lon="13.8039161"><ele>258.2</ele><time>2026-05-03T10:37:18.555Z</time></trkpt><trkpt lat="45.7951154" lon="13.804006"><ele>257.79999999999995</ele><time>2026-05-03T10:37:19.556Z</time></trkpt><trkpt lat="45.7951845" lon="13.8041017"><ele>257.4</ele><time>2026-05-03T10:37:20.555Z</time></trkpt><trkpt lat="45.7952519" lon="13.8041933"><ele>257.0</ele><time>2026-05-03T10:37:21.556Z</time></trkpt><trkpt lat="45.7953212" lon="13.8042755"><ele>257.5</ele><time>2026-05-03T10:37:22.555Z</time></trkpt><trkpt lat="45.7953885" lon="13.8043609"><ele>258.0</ele><time>2026-05-03T10:37:23.555Z</time></trkpt><trkpt lat="45.795464" lon="13.8044319"><ele>258.5</ele><time>2026-05-03T10:37:24.556Z</time></trkpt><trkpt lat="45.7955446" lon="13.8045004"><ele>259.0</ele><time>2026-05-03T10:37:25.556Z</time></trkpt><trkpt lat="45.7956186" lon="13.8045641"><ele>259.5</ele><time>2026-05-03T10:37:26.555Z</time></trkpt><trkpt lat="45.7956911" lon="13.8046379"><ele>260.0</ele><time>2026-05-03T10:37:27.555Z</time></trkpt><trkpt lat="45.7957515" lon="13.8047166"><ele>260.0</ele><time>2026-05-03T10:37:28.556Z</time></trkpt><trkpt lat="45.795805" lon="13.804807"><ele>260.0</ele><time>2026-05-03T10:37:29.556Z</time></trkpt><trkpt lat="45.7958782" lon="13.8048779"><ele>260.0</ele><time>2026-05-03T10:37:30.555Z</time></trkpt><trkpt lat="45.795966" lon="13.8049312"><ele>260.0</ele><time>2026-05-03T10:37:31.556Z</time></trkpt><trkpt lat="45.7960392" lon="13.8049812"><ele>260.0</ele><time>2026-05-03T10:37:32.556Z</time></trkpt><trkpt lat="45.7961318" lon="13.805028"><ele>260.0</ele><time>2026-05-03T10:37:33.556Z</time></trkpt><trkpt lat="45.7962215" lon="13.805055"><ele>260.2</ele><time>2026-05-03T10:37:34.556Z</time></trkpt><trkpt lat="45.7963113" lon="13.8050946"><ele>260.4</ele><time>2026-05-03T10:37:35.555Z</time></trkpt><trkpt lat="45.7964065" lon="13.8051352"><ele>260.6</ele><time>2026-05-03T10:37:36.556Z</time></trkpt><trkpt lat="45.7964936" lon="13.8051843"><ele>260.8</ele><time>2026-05-03T10:37:37.556Z</time></trkpt><trkpt lat="45.7966112" lon="13.805212"><ele>261.0</ele><time>2026-05-03T10:37:38.555Z</time></trkpt><trkpt lat="45.7967133" lon="13.8052322"><ele>261.0</ele><time>2026-05-03T10:37:39.556Z</time></trkpt><trkpt lat="45.7968048" lon="13.8052586"><ele>261.0</ele><time>2026-05-03T10:37:40.555Z</time></trkpt><trkpt lat="45.796902" lon="13.8052926"><ele>261.0</ele><time>2026-05-03T10:37:41.556Z</time></trkpt><trkpt lat="45.7969973" lon="13.805326"><ele>261.0</ele><time>2026-05-03T10:37:42.556Z</time></trkpt><trkpt lat="45.7970881" lon="13.805346"><ele>261.0</ele><time>2026-05-03T10:37:43.555Z</time></trkpt><trkpt lat="45.7971646" lon="13.8053776"><ele>261.6666666666667</ele><time>2026-05-03T10:37:44.555Z</time></trkpt><trkpt lat="45.7972489" lon="13.8054042"><ele>262.3333333333333</ele><time>2026-05-03T10:37:45.555Z</time></trkpt><trkpt lat="45.7973211" lon="13.805388"><ele>263.0</ele><time>2026-05-03T10:37:46.556Z</time></trkpt><trkpt lat="45.7974015" lon="13.8054014"><ele>263.66666666666663</ele><time>2026-05-03T10:37:47.555Z</time></trkpt><trkpt lat="45.797475" lon="13.8054"><ele>264.3333333333333</ele><time>2026-05-03T10:37:48.556Z</time></trkpt><trkpt lat="45.79754" lon="13.8053902"><ele>265.0</ele><time>2026-05-03T10:37:49.556Z</time></trkpt><trkpt lat="45.7976112" lon="13.8053989"><ele>265.3333333333333</ele><time>2026-05-03T10:37:50.556Z</time></trkpt><trkpt lat="45.7976747" lon="13.8053926"><ele>265.66666666666663</ele><time>2026-05-03T10:37:51.555Z</time></trkpt><trkpt lat="45.7977363" lon="13.8053648"><ele>266.0</ele><time>2026-05-03T10:37:52.556Z</time></trkpt><trkpt lat="45.7978016" lon="13.8053591"><ele>266.3333333333333</ele><time>2026-05-03T10:37:53.556Z</time></trkpt><trkpt lat="45.7978665" lon="13.805348"><ele>266.6666666666667</ele><time>2026-05-03T10:37:54.556Z</time></trkpt><trkpt lat="45.7979787" lon="13.8053411"><ele>267.0</ele><time>2026-05-03T10:37:56.556Z</time></trkpt><trkpt lat="45.7980732" lon="13.8053063"><ele>267.0</ele><time>2026-05-03T10:37:58.556Z</time></trkpt><trkpt lat="45.7981675" lon="13.8052734"><ele>267.0</ele><time>2026-05-03T10:38:00.555Z</time></trkpt><trkpt lat="45.7982859" lon="13.8052298"><ele>267.0</ele><time>2026-05-03T10:38:02.556Z</time></trkpt><trkpt lat="45.7983517" lon="13.8051847"><ele>267.0</ele><time>2026-05-03T10:38:03.556Z</time></trkpt><trkpt lat="45.7984251" lon="13.805186"><ele>267.0</ele><time>2026-05-03T10:38:04.556Z</time></trkpt><trkpt lat="45.7985027" lon="13.8051477"><ele>267.0</ele><time>2026-05-03T10:38:06.556Z</time></trkpt><trkpt lat="45.7984337" lon="13.8051424"><ele>267.0</ele><time>2026-05-03T10:38:10.555Z</time></trkpt><trkpt lat="45.7983978" lon="13.8052418"><ele>267.0</ele><time>2026-05-03T10:38:12.555Z</time></trkpt><trkpt lat="45.7983353" lon="13.8052683"><ele>267.0</ele><time>2026-05-03T10:38:13.556Z</time></trkpt><trkpt lat="45.7982175" lon="13.8052851"><ele>267.0</ele><time>2026-05-03T10:38:15.556Z</time></trkpt><trkpt lat="45.7981316" lon="13.8053004"><ele>267.0</ele><time>2026-05-03T10:38:16.556Z</time></trkpt><trkpt lat="45.798047" lon="13.8053216"><ele>267.0</ele><time>2026-05-03T10:38:17.555Z</time></trkpt><trkpt lat="45.7979463" lon="13.8053402"><ele>267.0</ele><time>2026-05-03T10:38:18.556Z</time></trkpt><trkpt lat="45.7978665" lon="13.8053539"><ele>267.0</ele><time>2026-05-03T10:38:19.555Z</time></trkpt><trkpt lat="45.797771" lon="13.8053648"><ele>267.0</ele><time>2026-05-03T10:38:20.556Z</time></trkpt><trkpt lat="45.7976829" lon="13.8053714"><ele>267.0</ele><time>2026-05-03T10:38:21.556Z</time></trkpt><trkpt lat="45.7975933" lon="13.8053841"><ele>267.0</ele><time>2026-05-03T10:38:22.556Z</time></trkpt><trkpt lat="45.7975063" lon="13.8053933"><ele>267.0</ele><time>2026-05-03T10:38:23.555Z</time></trkpt><trkpt lat="45.7974272" lon="13.8053936"><ele>266.6666666666667</ele><time>2026-05-03T10:38:24.555Z</time></trkpt><trkpt lat="45.7973596" lon="13.8053824"><ele>266.3333333333333</ele><time>2026-05-03T10:38:25.556Z</time></trkpt><trkpt lat="45.7972889" lon="13.8053707"><ele>266.0</ele><time>2026-05-03T10:38:26.556Z</time></trkpt><trkpt lat="45.7972109" lon="13.8053524"><ele>265.66666666666663</ele><time>2026-05-03T10:38:27.556Z</time></trkpt><trkpt lat="45.7971473" lon="13.805332"><ele>265.3333333333333</ele><time>2026-05-03T10:38:28.556Z</time></trkpt><trkpt lat="45.797047" lon="13.8053264"><ele>265.0</ele><time>2026-05-03T10:38:30.555Z</time></trkpt><trkpt lat="45.7969895" lon="13.8053928"><ele>265.0</ele><time>2026-05-03T10:38:32.555Z</time></trkpt><trkpt lat="45.7969603" lon="13.8054942"><ele>265.0</ele><time>2026-05-03T10:38:34.555Z</time></trkpt><trkpt lat="45.7969889" lon="13.8056316"><ele>265.0</ele><time>2026-05-03T10:38:36.556Z</time></trkpt><trkpt lat="45.7970159" lon="13.805723"><ele>265.0</ele><time>2026-05-03T10:38:37.556Z</time></trkpt><trkpt lat="45.7970496" lon="13.8058198"><ele>265.0</ele><time>2026-05-03T10:38:38.556Z</time></trkpt><trkpt lat="45.797093" lon="13.8058891"><ele>265.0</ele><time>2026-05-03T10:38:39.556Z</time></trkpt><trkpt lat="45.7971219" lon="13.8060063"><ele>264.66666666666663</ele><time>2026-05-03T10:38:40.555Z</time></trkpt><trkpt lat="45.797172" lon="13.8060985"><ele>264.3333333333333</ele><time>2026-05-03T10:38:41.556Z</time></trkpt><trkpt lat="45.7972144" lon="13.8061871"><ele>264.0</ele><time>2026-05-03T10:38:42.555Z</time></trkpt><trkpt lat="45.7972597" lon="13.8062678"><ele>263.6666666666667</ele><time>2026-05-03T10:38:43.556Z</time></trkpt><trkpt lat="45.7973206" lon="13.8063472"><ele>263.33333333333337</ele><time>2026-05-03T10:38:44.555Z</time></trkpt><trkpt lat="45.7973751" lon="13.8063998"><ele>263.0</ele><time>2026-05-03T10:38:45.556Z</time></trkpt><trkpt lat="45.7974416" lon="13.8064704"><ele>263.0</ele><time>2026-05-03T10:38:46.556Z</time></trkpt><trkpt lat="45.7974962" lon="13.8065566"><ele>263.0</ele><time>2026-05-03T10:38:47.555Z</time></trkpt><trkpt lat="45.7975483" lon="13.806654"><ele>263.0</ele><time>2026-05-03T10:38:48.555Z</time></trkpt><trkpt lat="45.7975996" lon="13.806767"><ele>263.0</ele><time>2026-05-03T10:38:49.555Z</time></trkpt><trkpt lat="45.7976564" lon="13.8068839"><ele>263.0</ele><time>2026-05-03T10:38:50.556Z</time></trkpt><trkpt lat="45.7977265" lon="13.8069901"><ele>263.2</ele><time>2026-05-03T10:38:51.556Z</time></trkpt><trkpt lat="45.7977914" lon="13.8071077"><ele>263.4</ele><time>2026-05-03T10:38:52.555Z</time></trkpt><trkpt lat="45.7978667" lon="13.807187"><ele>263.59999999999997</ele><time>2026-05-03T10:38:53.555Z</time></trkpt><trkpt lat="45.7979374" lon="13.8072723"><ele>263.8</ele><time>2026-05-03T10:38:54.556Z</time></trkpt><trkpt lat="45.7980103" lon="13.8073655"><ele>264.0</ele><time>2026-05-03T10:38:55.555Z</time></trkpt><trkpt lat="45.7980758" lon="13.8074555"><ele>264.0</ele><time>2026-05-03T10:38:56.555Z</time></trkpt><trkpt lat="45.7981578" lon="13.8075134"><ele>264.0</ele><time>2026-05-03T10:38:57.556Z</time></trkpt><trkpt lat="45.7982214" lon="13.8075639"><ele>264.0</ele><time>2026-05-03T10:38:58.556Z</time></trkpt><trkpt lat="45.7983041" lon="13.8076232"><ele>264.0</ele><time>2026-05-03T10:38:59.556Z</time></trkpt><trkpt lat="45.798379" lon="13.8076986"><ele>264.0</ele><time>2026-05-03T10:39:00.556Z</time></trkpt><trkpt lat="45.7984515" lon="13.8077702"><ele>264.0</ele><time>2026-05-03T10:39:01.555Z</time></trkpt><trkpt lat="45.7985288" lon="13.8078491"><ele>263.8</ele><time>2026-05-03T10:39:02.555Z</time></trkpt><trkpt lat="45.7985953" lon="13.8079368"><ele>263.59999999999997</ele><time>2026-05-03T10:39:03.556Z</time></trkpt><trkpt lat="45.79866" lon="13.8080301"><ele>263.4</ele><time>2026-05-03T10:39:04.555Z</time></trkpt><trkpt lat="45.7987357" lon="13.8081317"><ele>263.2</ele><time>2026-05-03T10:39:05.555Z</time></trkpt><trkpt lat="45.7988095" lon="13.8082231"><ele>263.0</ele><time>2026-05-03T10:39:06.556Z</time></trkpt><trkpt lat="45.7988882" lon="13.8083001"><ele>263.0</ele><time>2026-05-03T10:39:07.556Z</time></trkpt><trkpt lat="45.7989639" lon="13.8083841"><ele>263.0</ele><time>2026-05-03T10:39:08.556Z</time></trkpt><trkpt lat="45.7991229" lon="13.808508"><ele>263.0</ele><time>2026-05-03T10:39:10.553Z</time></trkpt><trkpt lat="45.7991871" lon="13.8085711"><ele>263.0</ele><time>2026-05-03T10:39:11.554Z</time></trkpt><trkpt lat="45.7992623" lon="13.8086276"><ele>263.0</ele><time>2026-05-03T10:39:12.549Z</time></trkpt><trkpt lat="45.7993382" lon="13.8086625"><ele>262.2</ele><time>2026-05-03T10:39:13.555Z</time></trkpt><trkpt lat="45.7994126" lon="13.8087029"><ele>261.4</ele><time>2026-05-03T10:39:14.55Z</time></trkpt><trkpt lat="45.7994748" lon="13.8086872"><ele>260.59999999999997</ele><time>2026-05-03T10:39:15.549Z</time></trkpt><trkpt lat="45.7995971" lon="13.8087501"><ele>259.8</ele><time>2026-05-03T10:39:17.55Z</time></trkpt><trkpt lat="45.7996432" lon="13.8088124"><ele>259.0</ele><time>2026-05-03T10:39:18.55Z</time></trkpt><trkpt lat="45.7997322" lon="13.8089228"><ele>259.0</ele><time>2026-05-03T10:39:20.55Z</time></trkpt><trkpt lat="45.7997891" lon="13.8090092"><ele>259.0</ele><time>2026-05-03T10:39:21.549Z</time></trkpt><trkpt lat="45.7998461" lon="13.8091245"><ele>259.0</ele><time>2026-05-03T10:39:22.549Z</time></trkpt><trkpt lat="45.7999002" lon="13.8092194"><ele>259.0</ele><time>2026-05-03T10:39:23.55Z</time></trkpt><trkpt lat="45.7999386" lon="13.809326"><ele>259.0</ele><time>2026-05-03T10:39:24.55Z</time></trkpt><trkpt lat="45.8000124" lon="13.8094113"><ele>259.0</ele><time>2026-05-03T10:39:25.55Z</time></trkpt><trkpt lat="45.8000566" lon="13.80952"><ele>258.59999999999997</ele><time>2026-05-03T10:39:26.55Z</time></trkpt><trkpt lat="45.8001007" lon="13.8096309"><ele>258.2</ele><time>2026-05-03T10:39:27.55Z</time></trkpt><trkpt lat="45.8001523" lon="13.8097497"><ele>257.79999999999995</ele><time>2026-05-03T10:39:28.55Z</time></trkpt><trkpt lat="45.8001716" lon="13.8098863"><ele>257.4</ele><time>2026-05-03T10:39:29.55Z</time></trkpt><trkpt lat="45.8002032" lon="13.8100195"><ele>257.0</ele><time>2026-05-03T10:39:30.55Z</time></trkpt><trkpt lat="45.8002464" lon="13.8101435"><ele>257.1666666666667</ele><time>2026-05-03T10:39:31.549Z</time></trkpt><trkpt lat="45.800274" lon="13.810269"><ele>257.33333333333337</ele><time>2026-05-03T10:39:32.55Z</time></trkpt><trkpt lat="45.8002981" lon="13.8103758"><ele>257.5</ele><time>2026-05-03T10:39:33.549Z</time></trkpt><trkpt lat="45.8003276" lon="13.8104801"><ele>257.6666666666667</ele><time>2026-05-03T10:39:34.549Z</time></trkpt><trkpt lat="45.8003433" lon="13.8105852"><ele>257.8333333333333</ele><time>2026-05-03T10:39:35.55Z</time></trkpt><trkpt lat="45.8003619" lon="13.8107053"><ele>258.0</ele><time>2026-05-03T10:39:36.549Z</time></trkpt><trkpt lat="45.8003743" lon="13.8108001"><ele>257.99999999999994</ele><time>2026-05-03T10:39:37.549Z</time></trkpt><trkpt lat="45.8003931" lon="13.8108864"><ele>258.0</ele><time>2026-05-03T10:39:38.55Z</time></trkpt><trkpt lat="45.8003637" lon="13.8109811"><ele>258.0</ele><time>2026-05-03T10:39:39.55Z</time></trkpt><trkpt lat="45.8003331" lon="13.8110627"><ele>258.0</ele><time>2026-05-03T10:39:40.55Z</time></trkpt><trkpt lat="45.8002735" lon="13.8111292"><ele>258.0</ele><time>2026-05-03T10:39:41.55Z</time></trkpt><trkpt lat="45.8002382" lon="13.8112197"><ele>257.99999999999994</ele><time>2026-05-03T10:39:42.55Z</time></trkpt><trkpt lat="45.8002341" lon="13.8113108"><ele>258.0</ele><time>2026-05-03T10:39:43.549Z</time></trkpt><trkpt lat="45.8002455" lon="13.8114215"><ele>258.0</ele><time>2026-05-03T10:39:44.549Z</time></trkpt><trkpt lat="45.8002659" lon="13.8115268"><ele>258.0</ele><time>2026-05-03T10:39:45.549Z</time></trkpt><trkpt lat="45.8002921" lon="13.8116156"><ele>258.0</ele><time>2026-05-03T10:39:46.55Z</time></trkpt><trkpt lat="45.8003232" lon="13.8117292"><ele>258.0</ele><time>2026-05-03T10:39:47.549Z</time></trkpt><trkpt lat="45.8003506" lon="13.8118484"><ele>258.0</ele><time>2026-05-03T10:39:48.549Z</time></trkpt><trkpt lat="45.8003738" lon="13.8119822"><ele>258.0</ele><time>2026-05-03T10:39:49.549Z</time></trkpt><trkpt lat="45.8003749" lon="13.8120906"><ele>258.6</ele><time>2026-05-03T10:39:50.549Z</time></trkpt><trkpt lat="45.8004172" lon="13.8122051"><ele>259.20000000000005</ele><time>2026-05-03T10:39:51.549Z</time></trkpt><trkpt lat="45.8004941" lon="13.8123222"><ele>259.8</ele><time>2026-05-03T10:39:52.55Z</time></trkpt><trkpt lat="45.8005397" lon="13.8124211"><ele>260.40000000000003</ele><time>2026-05-03T10:39:53.55Z</time></trkpt><trkpt lat="45.800596" lon="13.8125344"><ele>261.0</ele><time>2026-05-03T10:39:54.55Z</time></trkpt><trkpt lat="45.8006597" lon="13.8126072"><ele>261.6</ele><time>2026-05-03T10:39:55.549Z</time></trkpt><trkpt lat="45.800717" lon="13.8127135"><ele>262.20000000000005</ele><time>2026-05-03T10:39:56.549Z</time></trkpt><trkpt lat="45.8008019" lon="13.8128022"><ele>262.79999999999995</ele><time>2026-05-03T10:39:57.55Z</time></trkpt><trkpt lat="45.8008467" lon="13.8128755"><ele>263.4</ele><time>2026-05-03T10:39:58.55Z</time></trkpt><trkpt lat="45.800904" lon="13.8129833"><ele>264.0</ele><time>2026-05-03T10:39:59.55Z</time></trkpt><trkpt lat="45.8009632" lon="13.8130796"><ele>264.6666666666667</ele><time>2026-05-03T10:40:00.549Z</time></trkpt><trkpt lat="45.8010235" lon="13.8131791"><ele>265.3333333333333</ele><time>2026-05-03T10:40:01.55Z</time></trkpt><trkpt lat="45.8010476" lon="13.8132656"><ele>266.0</ele><time>2026-05-03T10:40:02.55Z</time></trkpt><trkpt lat="45.801105" lon="13.8133843"><ele>266.66666666666663</ele><time>2026-05-03T10:40:03.55Z</time></trkpt><trkpt lat="45.8011579" lon="13.8134875"><ele>267.3333333333333</ele><time>2026-05-03T10:40:04.55Z</time></trkpt><trkpt lat="45.8011927" lon="13.8136091"><ele>268.0</ele><time>2026-05-03T10:40:05.549Z</time></trkpt><trkpt lat="45.8012666" lon="13.8137163"><ele>268.16666666666663</ele><time>2026-05-03T10:40:06.55Z</time></trkpt><trkpt lat="45.8013302" lon="13.8138262"><ele>268.3333333333333</ele><time>2026-05-03T10:40:07.55Z</time></trkpt><trkpt lat="45.8013886" lon="13.8139214"><ele>268.5</ele><time>2026-05-03T10:40:08.549Z</time></trkpt><trkpt lat="45.8014422" lon="13.8140108"><ele>268.6666666666667</ele><time>2026-05-03T10:40:09.55Z</time></trkpt><trkpt lat="45.8014641" lon="13.814129"><ele>268.83333333333337</ele><time>2026-05-03T10:40:10.55Z</time></trkpt><trkpt lat="45.8014863" lon="13.8142518"><ele>269.0</ele><time>2026-05-03T10:40:11.549Z</time></trkpt><trkpt lat="45.8015236" lon="13.8143661"><ele>269.0</ele><time>2026-05-03T10:40:12.549Z</time></trkpt><trkpt lat="45.8015718" lon="13.8144599"><ele>269.0</ele><time>2026-05-03T10:40:13.55Z</time></trkpt><trkpt lat="45.8016125" lon="13.8145636"><ele>269.0</ele><time>2026-05-03T10:40:14.549Z</time></trkpt><trkpt lat="45.8016129" lon="13.8146777"><ele>269.0</ele><time>2026-05-03T10:40:15.549Z</time></trkpt><trkpt lat="45.8016201" lon="13.8147899"><ele>269.0</ele><time>2026-05-03T10:40:16.55Z</time></trkpt><trkpt lat="45.8016509" lon="13.8149042"><ele>269.0</ele><time>2026-05-03T10:40:17.549Z</time></trkpt><trkpt lat="45.801665" lon="13.8150351"><ele>269.0</ele><time>2026-05-03T10:40:18.55Z</time></trkpt><trkpt lat="45.801691" lon="13.8151586"><ele>269.0</ele><time>2026-05-03T10:40:19.549Z</time></trkpt><trkpt lat="45.8017265" lon="13.8152826"><ele>269.0</ele><time>2026-05-03T10:40:20.549Z</time></trkpt><trkpt lat="45.8017749" lon="13.8153932"><ele>269.0</ele><time>2026-05-03T10:40:21.55Z</time></trkpt><trkpt lat="45.8018273" lon="13.8155048"><ele>269.0</ele><time>2026-05-03T10:40:22.55Z</time></trkpt><trkpt lat="45.8018819" lon="13.8156043"><ele>269.2</ele><time>2026-05-03T10:40:23.55Z</time></trkpt><trkpt lat="45.8019301" lon="13.8157255"><ele>269.4</ele><time>2026-05-03T10:40:24.55Z</time></trkpt><trkpt lat="45.8019763" lon="13.8158401"><ele>269.6</ele><time>2026-05-03T10:40:25.55Z</time></trkpt><trkpt lat="45.8020155" lon="13.8159719"><ele>269.8</ele><time>2026-05-03T10:40:26.55Z</time></trkpt><trkpt lat="45.8020613" lon="13.8160995"><ele>270.0</ele><time>2026-05-03T10:40:27.55Z</time></trkpt><trkpt lat="45.8021415" lon="13.8161878"><ele>270.0</ele><time>2026-05-03T10:40:28.549Z</time></trkpt><trkpt lat="45.8021963" lon="13.8163112"><ele>270.0</ele><time>2026-05-03T10:40:29.55Z</time></trkpt><trkpt lat="45.8022701" lon="13.8164125"><ele>270.0</ele><time>2026-05-03T10:40:30.549Z</time></trkpt><trkpt lat="45.8023204" lon="13.8165171"><ele>270.0</ele><time>2026-05-03T10:40:31.55Z</time></trkpt><trkpt lat="45.8024078" lon="13.8166044"><ele>270.0</ele><time>2026-05-03T10:40:32.55Z</time></trkpt><trkpt lat="45.8024631" lon="13.8167049"><ele>270.0</ele><time>2026-05-03T10:40:33.55Z</time></trkpt><trkpt lat="45.8025074" lon="13.8167914"><ele>270.0</ele><time>2026-05-03T10:40:34.549Z</time></trkpt><trkpt lat="45.8025741" lon="13.8168729"><ele>270.0</ele><time>2026-05-03T10:40:35.55Z</time></trkpt><trkpt lat="45.8026476" lon="13.8170143"><ele>270.0</ele><time>2026-05-03T10:40:37.55Z</time></trkpt><trkpt lat="45.8026952" lon="13.8170945"><ele>270.0</ele><time>2026-05-03T10:40:38.55Z</time></trkpt><trkpt lat="45.8027269" lon="13.8171847"><ele>270.0</ele><time>2026-05-03T10:40:39.55Z</time></trkpt><trkpt lat="45.8028058" lon="13.8173146"><ele>269.5</ele><time>2026-05-03T10:40:41.55Z</time></trkpt><trkpt lat="45.802846" lon="13.8173863"><ele>269.0</ele><time>2026-05-03T10:40:42.55Z</time></trkpt><trkpt lat="45.8029655" lon="13.817506"><ele>268.5</ele><time>2026-05-03T10:40:44.55Z</time></trkpt><trkpt lat="45.8030312" lon="13.8175677"><ele>268.0</ele><time>2026-05-03T10:40:45.55Z</time></trkpt><trkpt lat="45.803096" lon="13.8176197"><ele>267.5</ele><time>2026-05-03T10:40:46.55Z</time></trkpt><trkpt lat="45.8031656" lon="13.8176753"><ele>267.0</ele><time>2026-05-03T10:40:47.55Z</time></trkpt><trkpt lat="45.8032275" lon="13.8177476"><ele>267.0</ele><time>2026-05-03T10:40:48.549Z</time></trkpt><trkpt lat="45.8033081" lon="13.8177973"><ele>267.0</ele><time>2026-05-03T10:40:49.55Z</time></trkpt><trkpt lat="45.8033758" lon="13.8178296"><ele>267.0</ele><time>2026-05-03T10:40:50.549Z</time></trkpt><trkpt lat="45.8034138" lon="13.8179231"><ele>267.0</ele><time>2026-05-03T10:40:52.549Z</time></trkpt><trkpt lat="45.8034596" lon="13.8179911"><ele>267.0</ele><time>2026-05-03T10:40:55.549Z</time></trkpt><trkpt lat="45.80354" lon="13.8180947"><ele>267.0</ele><time>2026-05-03T10:40:57.55Z</time></trkpt><trkpt lat="45.8036331" lon="13.8181791"><ele>266.8333333333333</ele><time>2026-05-03T10:40:59.55Z</time></trkpt><trkpt lat="45.8037008" lon="13.8181943"><ele>266.6666666666667</ele><time>2026-05-03T10:41:00.55Z</time></trkpt><trkpt lat="45.8038345" lon="13.8182677"><ele>266.5</ele><time>2026-05-03T10:41:02.549Z</time></trkpt><trkpt lat="45.8038938" lon="13.8183477"><ele>266.33333333333337</ele><time>2026-05-03T10:41:03.55Z</time></trkpt><trkpt lat="45.8039682" lon="13.8183947"><ele>266.1666666666667</ele><time>2026-05-03T10:41:04.55Z</time></trkpt><trkpt lat="45.8040249" lon="13.8184501"><ele>266.0</ele><time>2026-05-03T10:41:05.55Z</time></trkpt><trkpt lat="45.8041358" lon="13.8185331"><ele>266.0</ele><time>2026-05-03T10:41:07.55Z</time></trkpt><trkpt lat="45.804208" lon="13.8185961"><ele>266.0</ele><time>2026-05-03T10:41:08.55Z</time></trkpt><trkpt lat="45.8042712" lon="13.8186479"><ele>266.0</ele><time>2026-05-03T10:41:09.549Z</time></trkpt><trkpt lat="45.8043515" lon="13.818719"><ele>266.0</ele><time>2026-05-03T10:41:10.55Z</time></trkpt><trkpt lat="45.804421" lon="13.8187838"><ele>266.0</ele><time>2026-05-03T10:41:11.55Z</time></trkpt><trkpt lat="45.8044977" lon="13.8188388"><ele>266.0</ele><time>2026-05-03T10:41:12.55Z</time></trkpt><trkpt lat="45.8045547" lon="13.8188877"><ele>266.1666666666667</ele><time>2026-05-03T10:41:13.55Z</time></trkpt><trkpt lat="45.8045825" lon="13.8190182"><ele>266.33333333333337</ele><time>2026-05-03T10:41:15.55Z</time></trkpt><trkpt lat="45.804593" lon="13.8191611"><ele>266.5</ele><time>2026-05-03T10:41:17.55Z</time></trkpt><trkpt lat="45.8046548" lon="13.8192281"><ele>266.6666666666667</ele><time>2026-05-03T10:41:19.549Z</time></trkpt><trkpt lat="45.8047141" lon="13.8192597"><ele>266.8333333333333</ele><time>2026-05-03T10:41:20.549Z</time></trkpt><trkpt lat="45.8047771" lon="13.819309"><ele>267.0</ele><time>2026-05-03T10:41:21.549Z</time></trkpt><trkpt lat="45.804832" lon="13.8193766"><ele>267.5</ele><time>2026-05-03T10:41:22.55Z</time></trkpt><trkpt lat="45.8048924" lon="13.8194218"><ele>268.0</ele><time>2026-05-03T10:41:23.55Z</time></trkpt><trkpt lat="45.8049519" lon="13.8194605"><ele>268.5</ele><time>2026-05-03T10:41:24.549Z</time></trkpt><trkpt lat="45.8050126" lon="13.8195016"><ele>269.0</ele><time>2026-05-03T10:41:25.55Z</time></trkpt><trkpt lat="45.8051222" lon="13.8195649"><ele>269.5</ele><time>2026-05-03T10:41:27.549Z</time></trkpt><trkpt lat="45.8051834" lon="13.8196162"><ele>270.0</ele><time>2026-05-03T10:41:28.55Z</time></trkpt><trkpt lat="45.8052359" lon="13.8196715"><ele>270.0</ele><time>2026-05-03T10:41:29.55Z</time></trkpt><trkpt lat="45.8052895" lon="13.8197391"><ele>270.0</ele><time>2026-05-03T10:41:30.549Z</time></trkpt><trkpt lat="45.8053376" lon="13.8198114"><ele>270.0</ele><time>2026-05-03T10:41:31.549Z</time></trkpt><trkpt lat="45.8053845" lon="13.8198825"><ele>270.0</ele><time>2026-05-03T10:41:32.55Z</time></trkpt><trkpt lat="45.8054688" lon="13.8200136"><ele>270.0</ele><time>2026-05-03T10:41:34.55Z</time></trkpt><trkpt lat="45.8055231" lon="13.8200835"><ele>270.0</ele><time>2026-05-03T10:41:35.549Z</time></trkpt><trkpt lat="45.8055921" lon="13.8200885"><ele>270.0</ele><time>2026-05-03T10:41:36.55Z</time></trkpt><trkpt lat="45.8056601" lon="13.8201527"><ele>270.0</ele><time>2026-05-03T10:41:37.55Z</time></trkpt><trkpt lat="45.805708" lon="13.8202156"><ele>270.0</ele><time>2026-05-03T10:41:38.549Z</time></trkpt><trkpt lat="45.8057686" lon="13.8202698"><ele>270.0</ele><time>2026-05-03T10:41:39.55Z</time></trkpt><trkpt lat="45.8057926" lon="13.8203747"><ele>270.0</ele><time>2026-05-03T10:41:40.55Z</time></trkpt><trkpt lat="45.8058275" lon="13.8204532"><ele>270.0</ele><time>2026-05-03T10:41:41.549Z</time></trkpt><trkpt lat="45.8058992" lon="13.8206249"><ele>270.0</ele><time>2026-05-03T10:41:43.549Z</time></trkpt><trkpt lat="45.8059427" lon="13.8207356"><ele>270.0</ele><time>2026-05-03T10:41:44.55Z</time></trkpt><trkpt lat="45.8060003" lon="13.8207979"><ele>270.0</ele><time>2026-05-03T10:41:45.549Z</time></trkpt><trkpt lat="45.8061087" lon="13.8208653"><ele>270.0</ele><time>2026-05-03T10:41:47.55Z</time></trkpt><trkpt lat="45.8062149" lon="13.8209494"><ele>270.0</ele><time>2026-05-03T10:41:49.549Z</time></trkpt><trkpt lat="45.8062809" lon="13.821017"><ele>271.1666666666667</ele><time>2026-05-03T10:41:50.55Z</time></trkpt><trkpt lat="45.8063511" lon="13.8210734"><ele>272.3333333333333</ele><time>2026-05-03T10:41:51.549Z</time></trkpt><trkpt lat="45.8064152" lon="13.8211337"><ele>273.5</ele><time>2026-05-03T10:41:52.549Z</time></trkpt><trkpt lat="45.8064376" lon="13.8212863"><ele>274.66666666666663</ele><time>2026-05-03T10:41:53.549Z</time></trkpt><trkpt lat="45.8065099" lon="13.8213568"><ele>275.8333333333333</ele><time>2026-05-03T10:41:54.55Z</time></trkpt><trkpt lat="45.806566" lon="13.8214068"><ele>277.0</ele><time>2026-05-03T10:41:55.549Z</time></trkpt><trkpt lat="45.8066257" lon="13.8214854"><ele>277.0</ele><time>2026-05-03T10:41:56.549Z</time></trkpt><trkpt lat="45.8066842" lon="13.821581"><ele>277.0</ele><time>2026-05-03T10:41:57.55Z</time></trkpt><trkpt lat="45.8067413" lon="13.8216741"><ele>277.0</ele><time>2026-05-03T10:41:58.55Z</time></trkpt><trkpt lat="45.8067819" lon="13.8217696"><ele>277.0</ele><time>2026-05-03T10:41:59.549Z</time></trkpt><trkpt lat="45.8068181" lon="13.82186"><ele>277.0</ele><time>2026-05-03T10:42:00.549Z</time></trkpt><trkpt lat="45.8068625" lon="13.8219593"><ele>277.0</ele><time>2026-05-03T10:42:01.549Z</time></trkpt><trkpt lat="45.806906" lon="13.8220649"><ele>277.66666666666663</ele><time>2026-05-03T10:42:02.55Z</time></trkpt><trkpt lat="45.8069474" lon="13.8221766"><ele>278.3333333333333</ele><time>2026-05-03T10:42:03.55Z</time></trkpt><trkpt lat="45.8069724" lon="13.8222826"><ele>279.0</ele><time>2026-05-03T10:42:04.549Z</time></trkpt><trkpt lat="45.8069989" lon="13.8223843"><ele>279.6666666666667</ele><time>2026-05-03T10:42:05.55Z</time></trkpt><trkpt lat="45.806999" lon="13.8224875"><ele>280.33333333333337</ele><time>2026-05-03T10:42:06.549Z</time></trkpt><trkpt lat="45.8069646" lon="13.8226137"><ele>281.0</ele><time>2026-05-03T10:42:07.55Z</time></trkpt><trkpt lat="45.8069288" lon="13.8227401"><ele>281.0</ele><time>2026-05-03T10:42:08.549Z</time></trkpt><trkpt lat="45.8069089" lon="13.8228613"><ele>281.0</ele><time>2026-05-03T10:42:09.55Z</time></trkpt><trkpt lat="45.8069185" lon="13.8229638"><ele>281.0</ele><time>2026-05-03T10:42:10.549Z</time></trkpt><trkpt lat="45.8069501" lon="13.8230443"><ele>281.0</ele><time>2026-05-03T10:42:11.55Z</time></trkpt><trkpt lat="45.8069919" lon="13.8231443"><ele>281.0</ele><time>2026-05-03T10:42:12.549Z</time></trkpt><trkpt lat="45.8070259" lon="13.8232453"><ele>281.0</ele><time>2026-05-03T10:42:13.549Z</time></trkpt><trkpt lat="45.8070749" lon="13.823328"><ele>281.0</ele><time>2026-05-03T10:42:14.549Z</time></trkpt><trkpt lat="45.8071194" lon="13.8234032"><ele>281.0</ele><time>2026-05-03T10:42:15.549Z</time></trkpt><trkpt lat="45.8071671" lon="13.823479"><ele>281.0</ele><time>2026-05-03T10:42:16.55Z</time></trkpt><trkpt lat="45.8072416" lon="13.8234919"><ele>281.0</ele><time>2026-05-03T10:42:17.549Z</time></trkpt><trkpt lat="45.807315" lon="13.8235956"><ele>281.0</ele><time>2026-05-03T10:42:19.55Z</time></trkpt><trkpt lat="45.8073988" lon="13.8237638"><ele>280.6</ele><time>2026-05-03T10:42:21.55Z</time></trkpt><trkpt lat="45.8074734" lon="13.823873"><ele>280.20000000000005</ele><time>2026-05-03T10:42:22.55Z</time></trkpt><trkpt lat="45.807549" lon="13.8239749"><ele>279.79999999999995</ele><time>2026-05-03T10:42:23.55Z</time></trkpt><trkpt lat="45.8076047" lon="13.824092"><ele>279.4</ele><time>2026-05-03T10:42:24.549Z</time></trkpt><trkpt lat="45.8076606" lon="13.8242191"><ele>279.0</ele><time>2026-05-03T10:42:25.55Z</time></trkpt><trkpt lat="45.8077255" lon="13.8243376"><ele>278.4</ele><time>2026-05-03T10:42:26.55Z</time></trkpt><trkpt lat="45.8077885" lon="13.8244463"><ele>277.79999999999995</ele><time>2026-05-03T10:42:27.549Z</time></trkpt><trkpt lat="45.8078451" lon="13.824565"><ele>277.20000000000005</ele><time>2026-05-03T10:42:28.55Z</time></trkpt><trkpt lat="45.8078709" lon="13.8247061"><ele>276.6</ele><time>2026-05-03T10:42:29.549Z</time></trkpt><trkpt lat="45.8079066" lon="13.8248549"><ele>276.0</ele><time>2026-05-03T10:42:30.549Z</time></trkpt><trkpt lat="45.8079187" lon="13.8249961"><ele>276.0</ele><time>2026-05-03T10:42:31.55Z</time></trkpt><trkpt lat="45.8079471" lon="13.8251311"><ele>276.0</ele><time>2026-05-03T10:42:32.55Z</time></trkpt><trkpt lat="45.8079682" lon="13.8252626"><ele>276.0</ele><time>2026-05-03T10:42:33.549Z</time></trkpt><trkpt lat="45.8080012" lon="13.8253917"><ele>276.0</ele><time>2026-05-03T10:42:34.55Z</time></trkpt><trkpt lat="45.8080357" lon="13.825517"><ele>276.0</ele><time>2026-05-03T10:42:35.549Z</time></trkpt><trkpt lat="45.8080865" lon="13.8256407"><ele>276.0</ele><time>2026-05-03T10:42:36.549Z</time></trkpt><trkpt lat="45.8081371" lon="13.8257622"><ele>276.0</ele><time>2026-05-03T10:42:37.55Z</time></trkpt><trkpt lat="45.8081877" lon="13.8258788"><ele>276.0</ele><time>2026-05-03T10:42:38.55Z</time></trkpt><trkpt lat="45.8082353" lon="13.8259831"><ele>276.0</ele><time>2026-05-03T10:42:39.55Z</time></trkpt><trkpt lat="45.8082671" lon="13.8260854"><ele>276.0</ele><time>2026-05-03T10:42:40.549Z</time></trkpt><trkpt lat="45.8082992" lon="13.8261942"><ele>276.0</ele><time>2026-05-03T10:42:41.55Z</time></trkpt><trkpt lat="45.8083033" lon="13.826309"><ele>276.5</ele><time>2026-05-03T10:42:42.55Z</time></trkpt><trkpt lat="45.8083101" lon="13.8264223"><ele>277.0</ele><time>2026-05-03T10:42:43.549Z</time></trkpt><trkpt lat="45.8083283" lon="13.8265151"><ele>277.5</ele><time>2026-05-03T10:42:44.55Z</time></trkpt><trkpt lat="45.8083817" lon="13.8266591"><ele>278.0</ele><time>2026-05-03T10:42:46.549Z</time></trkpt><trkpt lat="45.8084325" lon="13.826722"><ele>278.5</ele><time>2026-05-03T10:42:47.55Z</time></trkpt><trkpt lat="45.8084972" lon="13.8267812"><ele>279.0</ele><time>2026-05-03T10:42:48.55Z</time></trkpt><trkpt lat="45.8085793" lon="13.8268332"><ele>279.1428571428571</ele><time>2026-05-03T10:42:49.549Z</time></trkpt><trkpt lat="45.8086422" lon="13.8268617"><ele>279.2857142857143</ele><time>2026-05-03T10:42:50.549Z</time></trkpt><trkpt lat="45.8087076" lon="13.826855"><ele>279.42857142857144</ele><time>2026-05-03T10:42:51.549Z</time></trkpt><trkpt lat="45.8087889" lon="13.8268264"><ele>279.57142857142856</ele><time>2026-05-03T10:42:52.55Z</time></trkpt><trkpt lat="45.8088581" lon="13.826799"><ele>279.7142857142857</ele><time>2026-05-03T10:42:53.549Z</time></trkpt><trkpt lat="45.8089339" lon="13.8268029"><ele>279.85714285714283</ele><time>2026-05-03T10:42:54.55Z</time></trkpt><trkpt lat="45.8090175" lon="13.8268244"><ele>280.0</ele><time>2026-05-03T10:42:55.549Z</time></trkpt><trkpt lat="45.8090874" lon="13.826885"><ele>280.66666666666663</ele><time>2026-05-03T10:42:56.55Z</time></trkpt><trkpt lat="45.8091515" lon="13.8269694"><ele>281.3333333333333</ele><time>2026-05-03T10:42:57.55Z</time></trkpt><trkpt lat="45.8092068" lon="13.8270519"><ele>282.0</ele><time>2026-05-03T10:42:58.549Z</time></trkpt><trkpt lat="45.8092637" lon="13.827151"><ele>282.6666666666667</ele><time>2026-05-03T10:42:59.55Z</time></trkpt><trkpt lat="45.8093083" lon="13.8272442"><ele>283.33333333333337</ele><time>2026-05-03T10:43:00.55Z</time></trkpt><trkpt lat="45.8093553" lon="13.8273341"><ele>284.0</ele><time>2026-05-03T10:43:01.549Z</time></trkpt><trkpt lat="45.8094324" lon="13.8274692"><ele>284.33333333333337</ele><time>2026-05-03T10:43:03.549Z</time></trkpt><trkpt lat="45.8094952" lon="13.8275722"><ele>284.6666666666667</ele><time>2026-05-03T10:43:05.55Z</time></trkpt><trkpt lat="45.8095317" lon="13.8276705"><ele>285.0</ele><time>2026-05-03T10:43:07.549Z</time></trkpt><trkpt lat="45.8095245" lon="13.8277791"><ele>285.3333333333333</ele><time>2026-05-03T10:43:09.549Z</time></trkpt><trkpt lat="45.8095425" lon="13.8278964"><ele>285.66666666666663</ele><time>2026-05-03T10:43:11.55Z</time></trkpt><trkpt lat="45.8095783" lon="13.8279778"><ele>286.0</ele><time>2026-05-03T10:43:13.549Z</time></trkpt><trkpt lat="45.8096588" lon="13.8280381"><ele>287.0</ele><time>2026-05-03T10:43:15.55Z</time></trkpt><trkpt lat="45.8097299" lon="13.8280638"><ele>288.0</ele><time>2026-05-03T10:43:17.55Z</time></trkpt><trkpt lat="45.8098413" lon="13.8280935"><ele>289.0</ele><time>2026-05-03T10:43:19.55Z</time></trkpt><trkpt lat="45.809959" lon="13.8281424"><ele>290.0</ele><time>2026-05-03T10:43:21.55Z</time></trkpt><trkpt lat="45.8100299" lon="13.8281762"><ele>291.0</ele><time>2026-05-03T10:43:22.55Z</time></trkpt><trkpt lat="45.8101269" lon="13.8282377"><ele>291.6</ele><time>2026-05-03T10:43:24.549Z</time></trkpt><trkpt lat="45.81023" lon="13.8282902"><ele>292.20000000000005</ele><time>2026-05-03T10:43:26.549Z</time></trkpt><trkpt lat="45.8102984" lon="13.8283928"><ele>292.79999999999995</ele><time>2026-05-03T10:43:28.549Z</time></trkpt><trkpt lat="45.810324" lon="13.8284845"><ele>293.4</ele><time>2026-05-03T10:43:30.55Z</time></trkpt><trkpt lat="45.810384" lon="13.8286065"><ele>294.0</ele><time>2026-05-03T10:43:33.549Z</time></trkpt><trkpt lat="45.8104521" lon="13.8286862"><ele>294.8</ele><time>2026-05-03T10:43:35.55Z</time></trkpt><trkpt lat="45.8105286" lon="13.8286903"><ele>295.59999999999997</ele><time>2026-05-03T10:43:37.55Z</time></trkpt><trkpt lat="45.8106397" lon="13.8286898"><ele>296.4</ele><time>2026-05-03T10:43:39.549Z</time></trkpt><trkpt lat="45.8107466" lon="13.8286339"><ele>297.2</ele><time>2026-05-03T10:43:41.549Z</time></trkpt><trkpt lat="45.8108426" lon="13.8286031"><ele>298.0</ele><time>2026-05-03T10:43:43.55Z</time></trkpt><trkpt lat="45.8109133" lon="13.8285762"><ele>297.5</ele><time>2026-05-03T10:43:44.549Z</time></trkpt><trkpt lat="45.8110363" lon="13.8285446"><ele>297.0</ele><time>2026-05-03T10:43:46.55Z</time></trkpt><trkpt lat="45.8111092" lon="13.8285493"><ele>296.5</ele><time>2026-05-03T10:43:47.549Z</time></trkpt><trkpt lat="45.8111831" lon="13.8285542"><ele>296.0</ele><time>2026-05-03T10:43:48.55Z</time></trkpt><trkpt lat="45.8112452" lon="13.8285704"><ele>295.5</ele><time>2026-05-03T10:43:49.549Z</time></trkpt><trkpt lat="45.8113065" lon="13.8285983"><ele>295.0</ele><time>2026-05-03T10:43:50.549Z</time></trkpt><trkpt lat="45.8113707" lon="13.8286644"><ele>295.0</ele><time>2026-05-03T10:43:51.55Z</time></trkpt><trkpt lat="45.8114363" lon="13.8287441"><ele>295.0</ele><time>2026-05-03T10:43:52.549Z</time></trkpt><trkpt lat="45.8114829" lon="13.8288284"><ele>295.0</ele><time>2026-05-03T10:43:53.549Z</time></trkpt><trkpt lat="45.8115354" lon="13.8289107"><ele>295.0</ele><time>2026-05-03T10:43:54.55Z</time></trkpt><trkpt lat="45.8115955" lon="13.8289874"><ele>295.0</ele><time>2026-05-03T10:43:55.55Z</time></trkpt><trkpt lat="45.8116567" lon="13.8290833"><ele>295.0</ele><time>2026-05-03T10:43:56.55Z</time></trkpt><trkpt lat="45.8117032" lon="13.8291893"><ele>295.0</ele><time>2026-05-03T10:43:57.549Z</time></trkpt><trkpt lat="45.8117568" lon="13.829299"><ele>295.0</ele><time>2026-05-03T10:43:58.549Z</time></trkpt><trkpt lat="45.8118121" lon="13.8293998"><ele>295.0</ele><time>2026-05-03T10:43:59.55Z</time></trkpt><trkpt lat="45.8118766" lon="13.8294885"><ele>295.0</ele><time>2026-05-03T10:44:00.549Z</time></trkpt><trkpt lat="45.8119431" lon="13.8295714"><ele>295.0</ele><time>2026-05-03T10:44:01.55Z</time></trkpt><trkpt lat="45.8120217" lon="13.829658"><ele>295.0</ele><time>2026-05-03T10:44:02.549Z</time></trkpt><trkpt lat="45.8121042" lon="13.8297477"><ele>295.0</ele><time>2026-05-03T10:44:03.549Z</time></trkpt><trkpt lat="45.8121828" lon="13.8298312"><ele>295.0</ele><time>2026-05-03T10:44:04.55Z</time></trkpt><trkpt lat="45.8122657" lon="13.8299235"><ele>295.0</ele><time>2026-05-03T10:44:05.549Z</time></trkpt><trkpt lat="45.8123331" lon="13.8300032"><ele>295.0</ele><time>2026-05-03T10:44:06.549Z</time></trkpt><trkpt lat="45.8124058" lon="13.8300773"><ele>294.25</ele><time>2026-05-03T10:44:07.55Z</time></trkpt><trkpt lat="45.812482" lon="13.8301462"><ele>293.5</ele><time>2026-05-03T10:44:08.549Z</time></trkpt><trkpt lat="45.8125499" lon="13.8302195"><ele>292.75</ele><time>2026-05-03T10:44:09.55Z</time></trkpt><trkpt lat="45.812743" lon="13.8304742"><ele>292.0</ele><time>2026-05-03T10:44:12.554Z</time></trkpt><trkpt lat="45.8128234" lon="13.8305249"><ele>292.0</ele><time>2026-05-03T10:44:13.555Z</time></trkpt><trkpt lat="45.812897" lon="13.8305803"><ele>292.0</ele><time>2026-05-03T10:44:14.551Z</time></trkpt><trkpt lat="45.8129713" lon="13.8306339"><ele>292.0</ele><time>2026-05-03T10:44:15.55Z</time></trkpt><trkpt lat="45.8130373" lon="13.8306959"><ele>292.0</ele><time>2026-05-03T10:44:16.552Z</time></trkpt><trkpt lat="45.8131304" lon="13.8308486"><ele>292.0</ele><time>2026-05-03T10:44:18.55Z</time></trkpt><trkpt lat="45.8131377" lon="13.8309452"><ele>292.0</ele><time>2026-05-03T10:44:19.549Z</time></trkpt><trkpt lat="45.8131677" lon="13.8310417"><ele>292.0</ele><time>2026-05-03T10:44:20.549Z</time></trkpt><trkpt lat="45.8131713" lon="13.8311487"><ele>292.0</ele><time>2026-05-03T10:44:21.55Z</time></trkpt><trkpt lat="45.8131927" lon="13.831259"><ele>292.0</ele><time>2026-05-03T10:44:22.55Z</time></trkpt><trkpt lat="45.8132063" lon="13.8313623"><ele>292.0</ele><time>2026-05-03T10:44:23.55Z</time></trkpt><trkpt lat="45.8132049" lon="13.8315424"><ele>292.0</ele><time>2026-05-03T10:44:25.55Z</time></trkpt><trkpt lat="45.813217" lon="13.8316423"><ele>292.0</ele><time>2026-05-03T10:44:26.55Z</time></trkpt><trkpt lat="45.8132743" lon="13.8317022"><ele>292.0</ele><time>2026-05-03T10:44:27.55Z</time></trkpt><trkpt lat="45.8132997" lon="13.8318418"><ele>292.0</ele><time>2026-05-03T10:44:29.55Z</time></trkpt><trkpt lat="45.8132971" lon="13.8320371"><ele>292.0</ele><time>2026-05-03T10:44:31.55Z</time></trkpt><trkpt lat="45.8133128" lon="13.8322046"><ele>292.0</ele><time>2026-05-03T10:44:33.55Z</time></trkpt><trkpt lat="45.813317" lon="13.8323253"><ele>292.16666666666663</ele><time>2026-05-03T10:44:34.55Z</time></trkpt><trkpt lat="45.8133413" lon="13.832417"><ele>292.3333333333333</ele><time>2026-05-03T10:44:35.549Z</time></trkpt><trkpt lat="45.8133402" lon="13.8325295"><ele>292.5</ele><time>2026-05-03T10:44:36.55Z</time></trkpt><trkpt lat="45.8133521" lon="13.8326224"><ele>292.6666666666667</ele><time>2026-05-03T10:44:37.55Z</time></trkpt><trkpt lat="45.8133718" lon="13.8327221"><ele>292.83333333333337</ele><time>2026-05-03T10:44:38.549Z</time></trkpt><trkpt lat="45.8134143" lon="13.8328913"><ele>293.0</ele><time>2026-05-03T10:44:40.549Z</time></trkpt><trkpt lat="45.8134209" lon="13.83299"><ele>292.99999999999994</ele><time>2026-05-03T10:44:41.549Z</time></trkpt><trkpt lat="45.8134298" lon="13.833101"><ele>293.0</ele><time>2026-05-03T10:44:42.55Z</time></trkpt><trkpt lat="45.8134311" lon="13.8331954"><ele>293.0</ele><time>2026-05-03T10:44:43.55Z</time></trkpt><trkpt lat="45.813446" lon="13.8333004"><ele>293.0</ele><time>2026-05-03T10:44:44.549Z</time></trkpt><trkpt lat="45.813452" lon="13.8334083"><ele>293.0</ele><time>2026-05-03T10:44:45.55Z</time></trkpt><trkpt lat="45.8134563" lon="13.8334994"><ele>292.99999999999994</ele><time>2026-05-03T10:44:46.549Z</time></trkpt><trkpt lat="45.8134583" lon="13.8336056"><ele>293.0</ele><time>2026-05-03T10:44:47.55Z</time></trkpt><trkpt lat="45.8134594" lon="13.83371"><ele>292.6666666666667</ele><time>2026-05-03T10:44:48.55Z</time></trkpt><trkpt lat="45.813476" lon="13.8338439"><ele>292.33333333333337</ele><time>2026-05-03T10:44:49.549Z</time></trkpt><trkpt lat="45.813479" lon="13.8339372"><ele>292.0</ele><time>2026-05-03T10:44:50.549Z</time></trkpt><trkpt lat="45.8134836" lon="13.8340452"><ele>291.6666666666667</ele><time>2026-05-03T10:44:51.55Z</time></trkpt><trkpt lat="45.8134985" lon="13.834136"><ele>291.3333333333333</ele><time>2026-05-03T10:44:52.549Z</time></trkpt><trkpt lat="45.8135044" lon="13.834257"><ele>291.0</ele><time>2026-05-03T10:44:53.55Z</time></trkpt><trkpt lat="45.8135208" lon="13.834348"><ele>289.8</ele><time>2026-05-03T10:44:54.55Z</time></trkpt><trkpt lat="45.813528" lon="13.8344396"><ele>288.6</ele><time>2026-05-03T10:44:55.55Z</time></trkpt><trkpt lat="45.8135337" lon="13.8345484"><ele>287.4</ele><time>2026-05-03T10:44:56.549Z</time></trkpt><trkpt lat="45.8135524" lon="13.8347356"><ele>286.2</ele><time>2026-05-03T10:44:58.549Z</time></trkpt><trkpt lat="45.8135896" lon="13.8348938"><ele>285.0</ele><time>2026-05-03T10:45:00.549Z</time></trkpt><trkpt lat="45.8136351" lon="13.8349718"><ele>284.8</ele><time>2026-05-03T10:45:01.55Z</time></trkpt><trkpt lat="45.8136824" lon="13.8351374"><ele>284.6</ele><time>2026-05-03T10:45:03.549Z</time></trkpt><trkpt lat="45.8136941" lon="13.8352342"><ele>284.4</ele><time>2026-05-03T10:45:04.549Z</time></trkpt><trkpt lat="45.813717" lon="13.8354063"><ele>284.2</ele><time>2026-05-03T10:45:06.549Z</time></trkpt><trkpt lat="45.8137558" lon="13.8355153"><ele>284.0</ele><time>2026-05-03T10:45:08.549Z</time></trkpt><trkpt lat="45.8138269" lon="13.8356253"><ele>284.0</ele><time>2026-05-03T10:45:10.549Z</time></trkpt><trkpt lat="45.8138712" lon="13.8356951"><ele>284.0</ele><time>2026-05-03T10:45:11.549Z</time></trkpt><trkpt lat="45.8139309" lon="13.8358307"><ele>284.0</ele><time>2026-05-03T10:45:13.549Z</time></trkpt><trkpt lat="45.8139318" lon="13.8359325"><ele>284.0</ele><time>2026-05-03T10:45:14.549Z</time></trkpt><trkpt lat="45.8139391" lon="13.8361049"><ele>284.0</ele><time>2026-05-03T10:45:16.55Z</time></trkpt><trkpt lat="45.8138576" lon="13.836253"><ele>283.5</ele><time>2026-05-03T10:45:18.549Z</time></trkpt><trkpt lat="45.8138072" lon="13.8364304"><ele>283.0</ele><time>2026-05-03T10:45:20.55Z</time></trkpt><trkpt lat="45.8138236" lon="13.8365366"><ele>282.5</ele><time>2026-05-03T10:45:21.55Z</time></trkpt><trkpt lat="45.8137886" lon="13.8366223"><ele>282.0</ele><time>2026-05-03T10:45:22.549Z</time></trkpt><trkpt lat="45.8137603" lon="13.8367275"><ele>281.5</ele><time>2026-05-03T10:45:23.549Z</time></trkpt><trkpt lat="45.8137255" lon="13.8368127"><ele>281.0</ele><time>2026-05-03T10:45:24.55Z</time></trkpt><trkpt lat="45.8136988" lon="13.8368991"><ele>280.8</ele><time>2026-05-03T10:45:25.549Z</time></trkpt><trkpt lat="45.8136637" lon="13.8369876"><ele>280.6</ele><time>2026-05-03T10:45:26.549Z</time></trkpt><trkpt lat="45.8136201" lon="13.8371764"><ele>280.4</ele><time>2026-05-03T10:45:28.549Z</time></trkpt><trkpt lat="45.8135839" lon="13.8373405"><ele>280.2</ele><time>2026-05-03T10:45:30.549Z</time></trkpt><trkpt lat="45.8135862" lon="13.8374393"><ele>280.0</ele><time>2026-05-03T10:45:31.549Z</time></trkpt><trkpt lat="45.8135945" lon="13.8375362"><ele>280.0</ele><time>2026-05-03T10:45:32.55Z</time></trkpt><trkpt lat="45.813599" lon="13.8376324"><ele>280.0</ele><time>2026-05-03T10:45:33.55Z</time></trkpt><trkpt lat="45.8136141" lon="13.837739"><ele>280.0</ele><time>2026-05-03T10:45:34.55Z</time></trkpt><trkpt lat="45.8136506" lon="13.8378388"><ele>280.0</ele><time>2026-05-03T10:45:35.55Z</time></trkpt><trkpt lat="45.8136788" lon="13.8379474"><ele>280.0</ele><time>2026-05-03T10:45:36.55Z</time></trkpt><trkpt lat="45.813696" lon="13.8380528"><ele>280.0</ele><time>2026-05-03T10:45:37.549Z</time></trkpt><trkpt lat="45.813716" lon="13.8381501"><ele>280.0</ele><time>2026-05-03T10:45:38.55Z</time></trkpt><trkpt lat="45.8137446" lon="13.838232"><ele>279.66666666666663</ele><time>2026-05-03T10:45:39.55Z</time></trkpt><trkpt lat="45.8137606" lon="13.8383376"><ele>279.3333333333333</ele><time>2026-05-03T10:45:40.55Z</time></trkpt><trkpt lat="45.8137842" lon="13.8384559"><ele>279.0</ele><time>2026-05-03T10:45:41.55Z</time></trkpt><trkpt lat="45.813788" lon="13.8385687"><ele>278.6666666666667</ele><time>2026-05-03T10:45:42.55Z</time></trkpt><trkpt lat="45.8137999" lon="13.8386746"><ele>278.33333333333337</ele><time>2026-05-03T10:45:43.55Z</time></trkpt><trkpt lat="45.8137884" lon="13.8387993"><ele>278.0</ele><time>2026-05-03T10:45:44.549Z</time></trkpt><trkpt lat="45.813759" lon="13.8389139"><ele>277.83333333333337</ele><time>2026-05-03T10:45:45.549Z</time></trkpt><trkpt lat="45.813764" lon="13.8390392"><ele>277.6666666666667</ele><time>2026-05-03T10:45:46.549Z</time></trkpt><trkpt lat="45.8137843" lon="13.8391327"><ele>277.5</ele><time>2026-05-03T10:45:47.55Z</time></trkpt><trkpt lat="45.8137941" lon="13.8392534"><ele>277.3333333333333</ele><time>2026-05-03T10:45:48.549Z</time></trkpt><trkpt lat="45.8138053" lon="13.8393795"><ele>277.16666666666663</ele><time>2026-05-03T10:45:49.549Z</time></trkpt><trkpt lat="45.813815" lon="13.8394848"><ele>277.0</ele><time>2026-05-03T10:45:50.549Z</time></trkpt><trkpt lat="45.8138203" lon="13.8395973"><ele>276.66666666666663</ele><time>2026-05-03T10:45:51.549Z</time></trkpt><trkpt lat="45.8138265" lon="13.8397013"><ele>276.3333333333333</ele><time>2026-05-03T10:45:52.55Z</time></trkpt><trkpt lat="45.8138501" lon="13.8398666"><ele>276.0</ele><time>2026-05-03T10:45:54.55Z</time></trkpt><trkpt lat="45.8138487" lon="13.8399702"><ele>275.6666666666667</ele><time>2026-05-03T10:45:55.549Z</time></trkpt><trkpt lat="45.813842" lon="13.8400661"><ele>275.33333333333337</ele><time>2026-05-03T10:45:56.55Z</time></trkpt><trkpt lat="45.8138339" lon="13.8401825"><ele>275.0</ele><time>2026-05-03T10:45:57.55Z</time></trkpt><trkpt lat="45.8138292" lon="13.8402865"><ele>274.5</ele><time>2026-05-03T10:45:58.549Z</time></trkpt><trkpt lat="45.8138339" lon="13.8403968"><ele>274.0</ele><time>2026-05-03T10:45:59.55Z</time></trkpt><trkpt lat="45.8138407" lon="13.8405003"><ele>273.5</ele><time>2026-05-03T10:46:00.549Z</time></trkpt><trkpt lat="45.8138303" lon="13.8406157"><ele>273.0</ele><time>2026-05-03T10:46:01.55Z</time></trkpt><trkpt lat="45.8138307" lon="13.8407373"><ele>272.5</ele><time>2026-05-03T10:46:02.55Z</time></trkpt><trkpt lat="45.8138277" lon="13.8408492"><ele>272.0</ele><time>2026-05-03T10:46:03.55Z</time></trkpt><trkpt lat="45.8138261" lon="13.8409753"><ele>271.6666666666667</ele><time>2026-05-03T10:46:04.55Z</time></trkpt><trkpt lat="45.813822" lon="13.8410835"><ele>271.33333333333337</ele><time>2026-05-03T10:46:05.549Z</time></trkpt><trkpt lat="45.8138041" lon="13.8411816"><ele>271.0</ele><time>2026-05-03T10:46:06.549Z</time></trkpt><trkpt lat="45.8138218" lon="13.841302"><ele>270.6666666666667</ele><time>2026-05-03T10:46:07.549Z</time></trkpt><trkpt lat="45.8138299" lon="13.8414127"><ele>270.3333333333333</ele><time>2026-05-03T10:46:08.55Z</time></trkpt><trkpt lat="45.8138623" lon="13.841528"><ele>270.0</ele><time>2026-05-03T10:46:09.549Z</time></trkpt><trkpt lat="45.8138575" lon="13.8416272"><ele>270.0</ele><time>2026-05-03T10:46:10.55Z</time></trkpt><trkpt lat="45.813899" lon="13.8417264"><ele>270.0</ele><time>2026-05-03T10:46:11.549Z</time></trkpt><trkpt lat="45.8139227" lon="13.8418328"><ele>270.0</ele><time>2026-05-03T10:46:12.549Z</time></trkpt><trkpt lat="45.8139432" lon="13.8419492"><ele>270.0</ele><time>2026-05-03T10:46:13.549Z</time></trkpt><trkpt lat="45.8139597" lon="13.8420608"><ele>270.0</ele><time>2026-05-03T10:46:14.549Z</time></trkpt><trkpt lat="45.8139987" lon="13.8421788"><ele>270.0</ele><time>2026-05-03T10:46:15.549Z</time></trkpt><trkpt lat="45.8140166" lon="13.842306"><ele>270.4</ele><time>2026-05-03T10:46:16.549Z</time></trkpt><trkpt lat="45.8140403" lon="13.8424393"><ele>270.8</ele><time>2026-05-03T10:46:17.549Z</time></trkpt><trkpt lat="45.8140649" lon="13.8425395"><ele>271.2</ele><time>2026-05-03T10:46:18.549Z</time></trkpt><trkpt lat="45.8140873" lon="13.8426356"><ele>271.6</ele><time>2026-05-03T10:46:19.55Z</time></trkpt><trkpt lat="45.8141284" lon="13.8428203"><ele>272.0</ele><time>2026-05-03T10:46:21.55Z</time></trkpt><trkpt lat="45.8141426" lon="13.8429357"><ele>272.0</ele><time>2026-05-03T10:46:22.55Z</time></trkpt><trkpt lat="45.8141418" lon="13.8430814"><ele>272.0</ele><time>2026-05-03T10:46:23.549Z</time></trkpt><trkpt lat="45.8141497" lon="13.8432117"><ele>272.0</ele><time>2026-05-03T10:46:24.549Z</time></trkpt><trkpt lat="45.814139" lon="13.8433229"><ele>272.0</ele><time>2026-05-03T10:46:25.55Z</time></trkpt><trkpt lat="45.8141195" lon="13.8434482"><ele>272.0</ele><time>2026-05-03T10:46:26.55Z</time></trkpt><trkpt lat="45.8141157" lon="13.843562"><ele>272.0</ele><time>2026-05-03T10:46:27.55Z</time></trkpt><trkpt lat="45.8141224" lon="13.8436896"><ele>272.0</ele><time>2026-05-03T10:46:28.55Z</time></trkpt><trkpt lat="45.8141317" lon="13.843831"><ele>272.0</ele><time>2026-05-03T10:46:29.549Z</time></trkpt><trkpt lat="45.8141209" lon="13.8439478"><ele>272.0</ele><time>2026-05-03T10:46:30.55Z</time></trkpt><trkpt lat="45.8140777" lon="13.8441054"><ele>272.0</ele><time>2026-05-03T10:46:32.549Z</time></trkpt><trkpt lat="45.814099" lon="13.8441921"><ele>272.0</ele><time>2026-05-03T10:46:33.549Z</time></trkpt><trkpt lat="45.8141246" lon="13.8443152"><ele>273.4</ele><time>2026-05-03T10:46:34.549Z</time></trkpt><trkpt lat="45.814137" lon="13.8444196"><ele>274.79999999999995</ele><time>2026-05-03T10:46:35.55Z</time></trkpt><trkpt lat="45.8141697" lon="13.8445318"><ele>276.2</ele><time>2026-05-03T10:46:36.55Z</time></trkpt><trkpt lat="45.8141883" lon="13.8446444"><ele>277.59999999999997</ele><time>2026-05-03T10:46:37.55Z</time></trkpt><trkpt lat="45.8142415" lon="13.8448256"><ele>279.0</ele><time>2026-05-03T10:46:39.55Z</time></trkpt><trkpt lat="45.8142714" lon="13.844933"><ele>279.0</ele><time>2026-05-03T10:46:40.549Z</time></trkpt><trkpt lat="45.8142936" lon="13.8450425"><ele>279.0</ele><time>2026-05-03T10:46:41.55Z</time></trkpt><trkpt lat="45.8143204" lon="13.8451515"><ele>279.0</ele><time>2026-05-03T10:46:42.549Z</time></trkpt><trkpt lat="45.8144013" lon="13.8453144"><ele>279.0</ele><time>2026-05-03T10:46:44.549Z</time></trkpt><trkpt lat="45.814434" lon="13.8454368"><ele>279.0</ele><time>2026-05-03T10:46:46.549Z</time></trkpt><trkpt lat="45.814485" lon="13.8455167"><ele>280.0</ele><time>2026-05-03T10:46:47.55Z</time></trkpt><trkpt lat="45.8145241" lon="13.8456192"><ele>281.0</ele><time>2026-05-03T10:46:49.55Z</time></trkpt><trkpt lat="45.8145561" lon="13.8457333"><ele>282.0</ele><time>2026-05-03T10:46:51.549Z</time></trkpt><trkpt lat="45.8146205" lon="13.8458465"><ele>283.0</ele><time>2026-05-03T10:46:53.549Z</time></trkpt><trkpt lat="45.814693" lon="13.8459045"><ele>284.0</ele><time>2026-05-03T10:46:54.55Z</time></trkpt><trkpt lat="45.8146984" lon="13.8459971"><ele>285.0</ele><time>2026-05-03T10:46:55.549Z</time></trkpt><trkpt lat="45.814725" lon="13.8460972"><ele>285.0</ele><time>2026-05-03T10:46:56.55Z</time></trkpt><trkpt lat="45.8147475" lon="13.8461921"><ele>285.0</ele><time>2026-05-03T10:46:57.55Z</time></trkpt><trkpt lat="45.8147725" lon="13.8463452"><ele>285.0</ele><time>2026-05-03T10:46:58.549Z</time></trkpt><trkpt lat="45.8147921" lon="13.8464704"><ele>285.0</ele><time>2026-05-03T10:46:59.549Z</time></trkpt><trkpt lat="45.8147878" lon="13.8465639"><ele>285.0</ele><time>2026-05-03T10:47:00.549Z</time></trkpt><trkpt lat="45.8148022" lon="13.8467347"><ele>285.2</ele><time>2026-05-03T10:47:01.549Z</time></trkpt><trkpt lat="45.8147694" lon="13.8468678"><ele>285.4</ele><time>2026-05-03T10:47:02.55Z</time></trkpt><trkpt lat="45.8147737" lon="13.8470113"><ele>285.6</ele><time>2026-05-03T10:47:03.549Z</time></trkpt><trkpt lat="45.8147982" lon="13.8471284"><ele>285.8</ele><time>2026-05-03T10:47:04.549Z</time></trkpt><trkpt lat="45.8148498" lon="13.8472418"><ele>286.0</ele><time>2026-05-03T10:47:05.55Z</time></trkpt><trkpt lat="45.8148701" lon="13.8473564"><ele>286.0</ele><time>2026-05-03T10:47:06.549Z</time></trkpt><trkpt lat="45.8149306" lon="13.8474508"><ele>286.0</ele><time>2026-05-03T10:47:07.55Z</time></trkpt><trkpt lat="45.8149835" lon="13.847549"><ele>286.0</ele><time>2026-05-03T10:47:08.55Z</time></trkpt><trkpt lat="45.8149779" lon="13.8477659"><ele>286.0</ele><time>2026-05-03T10:47:10.55Z</time></trkpt><trkpt lat="45.8150533" lon="13.8478655"><ele>286.0</ele><time>2026-05-03T10:47:11.549Z</time></trkpt><trkpt lat="45.8150763" lon="13.8479774"><ele>286.1428571428571</ele><time>2026-05-03T10:47:12.549Z</time></trkpt><trkpt lat="45.815109" lon="13.8480631"><ele>286.2857142857143</ele><time>2026-05-03T10:47:13.55Z</time></trkpt><trkpt lat="45.8151571" lon="13.8481457"><ele>286.42857142857144</ele><time>2026-05-03T10:47:14.55Z</time></trkpt><trkpt lat="45.8151853" lon="13.8482466"><ele>286.57142857142856</ele><time>2026-05-03T10:47:15.55Z</time></trkpt><trkpt lat="45.8152129" lon="13.8483424"><ele>286.7142857142857</ele><time>2026-05-03T10:47:16.549Z</time></trkpt><trkpt lat="45.8152373" lon="13.8484343"><ele>286.85714285714283</ele><time>2026-05-03T10:47:17.549Z</time></trkpt><trkpt lat="45.8152487" lon="13.8485329"><ele>287.0</ele><time>2026-05-03T10:47:18.55Z</time></trkpt><trkpt lat="45.8152638" lon="13.8486937"><ele>286.0</ele><time>2026-05-03T10:47:20.55Z</time></trkpt><trkpt lat="45.8152724" lon="13.8488409"><ele>285.0</ele><time>2026-05-03T10:47:22.549Z</time></trkpt><trkpt lat="45.8152674" lon="13.848953"><ele>284.0</ele><time>2026-05-03T10:47:24.549Z</time></trkpt><trkpt lat="45.8152685" lon="13.8490886"><ele>283.0</ele><time>2026-05-03T10:47:26.55Z</time></trkpt><trkpt lat="45.8152912" lon="13.8491979"><ele>282.0</ele><time>2026-05-03T10:47:28.549Z</time></trkpt><trkpt lat="45.8153066" lon="13.8493004"><ele>281.0</ele><time>2026-05-03T10:47:30.549Z</time></trkpt><trkpt lat="45.815317" lon="13.8493905"><ele>281.40000000000003</ele><time>2026-05-03T10:47:33.549Z</time></trkpt><trkpt lat="45.815341" lon="13.8494892"><ele>281.8</ele><time>2026-05-03T10:47:37.55Z</time></trkpt><trkpt lat="45.8152551" lon="13.8495482"><ele>282.20000000000005</ele><time>2026-05-03T10:47:39.549Z</time></trkpt><trkpt lat="45.8151483" lon="13.8495861"><ele>282.6</ele><time>2026-05-03T10:47:41.55Z</time></trkpt><trkpt lat="45.8150468" lon="13.8496336"><ele>283.0</ele><time>2026-05-03T10:47:43.549Z</time></trkpt><trkpt lat="45.8149425" lon="13.8496726"><ele>283.0</ele><time>2026-05-03T10:47:45.55Z</time></trkpt><trkpt lat="45.8149172" lon="13.8497803"><ele>283.0</ele><time>2026-05-03T10:47:47.55Z</time></trkpt><trkpt lat="45.8149719" lon="13.8499332"><ele>283.0</ele><time>2026-05-03T10:47:49.55Z</time></trkpt><trkpt lat="45.814997" lon="13.8500442"><ele>283.0</ele><time>2026-05-03T10:47:50.55Z</time></trkpt><trkpt lat="45.8150225" lon="13.8501413"><ele>283.0</ele><time>2026-05-03T10:47:51.549Z</time></trkpt><trkpt lat="45.8150582" lon="13.8502729"><ele>282.16666666666663</ele><time>2026-05-03T10:47:52.55Z</time></trkpt><trkpt lat="45.8151105" lon="13.850379"><ele>281.3333333333333</ele><time>2026-05-03T10:47:53.55Z</time></trkpt><trkpt lat="45.8151452" lon="13.850484"><ele>280.5</ele><time>2026-05-03T10:47:54.55Z</time></trkpt><trkpt lat="45.815185" lon="13.8505889"><ele>279.6666666666667</ele><time>2026-05-03T10:47:55.55Z</time></trkpt><trkpt lat="45.8152447" lon="13.8506777"><ele>278.83333333333337</ele><time>2026-05-03T10:47:56.55Z</time></trkpt><trkpt lat="45.8153242" lon="13.8507441"><ele>278.0</ele><time>2026-05-03T10:47:57.55Z</time></trkpt><trkpt lat="45.8154125" lon="13.8507987"><ele>277.6</ele><time>2026-05-03T10:47:58.55Z</time></trkpt><trkpt lat="45.8155052" lon="13.8508455"><ele>277.20000000000005</ele><time>2026-05-03T10:47:59.55Z</time></trkpt><trkpt lat="45.8155946" lon="13.8508881"><ele>276.8</ele><time>2026-05-03T10:48:00.549Z</time></trkpt><trkpt lat="45.8156844" lon="13.8509322"><ele>276.40000000000003</ele><time>2026-05-03T10:48:01.55Z</time></trkpt><trkpt lat="45.8157594" lon="13.8510032"><ele>276.0</ele><time>2026-05-03T10:48:02.55Z</time></trkpt><trkpt lat="45.8158244" lon="13.8510915"><ele>276.0</ele><time>2026-05-03T10:48:03.549Z</time></trkpt><trkpt lat="45.8158835" lon="13.8511889"><ele>276.0</ele><time>2026-05-03T10:48:04.549Z</time></trkpt><trkpt lat="45.8159404" lon="13.8512962"><ele>276.0</ele><time>2026-05-03T10:48:05.55Z</time></trkpt><trkpt lat="45.8159819" lon="13.851413"><ele>276.0</ele><time>2026-05-03T10:48:06.55Z</time></trkpt><trkpt lat="45.8160235" lon="13.8515237"><ele>276.0</ele><time>2026-05-03T10:48:07.55Z</time></trkpt><trkpt lat="45.8160863" lon="13.851631"><ele>276.0</ele><time>2026-05-03T10:48:08.549Z</time></trkpt><trkpt lat="45.8161238" lon="13.8517877"><ele>276.0</ele><time>2026-05-03T10:48:10.549Z</time></trkpt><trkpt lat="45.8161444" lon="13.8519469"><ele>276.0</ele><time>2026-05-03T10:48:12.55Z</time></trkpt><trkpt lat="45.8160789" lon="13.8521092"><ele>276.0</ele><time>2026-05-03T10:48:14.549Z</time></trkpt><trkpt lat="45.81603" lon="13.8521794"><ele>276.0</ele><time>2026-05-03T10:48:15.55Z</time></trkpt><trkpt lat="45.8159857" lon="13.8522928"><ele>276.0</ele><time>2026-05-03T10:48:16.55Z</time></trkpt><trkpt lat="45.815951" lon="13.8523933"><ele>276.0</ele><time>2026-05-03T10:48:17.549Z</time></trkpt><trkpt lat="45.8158709" lon="13.8524846"><ele>276.0</ele><time>2026-05-03T10:48:18.55Z</time></trkpt><trkpt lat="45.8158238" lon="13.852557"><ele>276.0</ele><time>2026-05-03T10:48:19.55Z</time></trkpt><trkpt lat="45.8157866" lon="13.8526377"><ele>276.0</ele><time>2026-05-03T10:48:20.549Z</time></trkpt><trkpt lat="45.8157464" lon="13.8527364"><ele>276.0</ele><time>2026-05-03T10:48:21.549Z</time></trkpt><trkpt lat="45.8157073" lon="13.8528286"><ele>276.0</ele><time>2026-05-03T10:48:22.549Z</time></trkpt><trkpt lat="45.8156554" lon="13.85289"><ele>276.0</ele><time>2026-05-03T10:48:24.55Z</time></trkpt><trkpt lat="45.815599" lon="13.8528409"><ele>276.0</ele><time>2026-05-03T10:48:25.55Z</time></trkpt><trkpt lat="45.8156565" lon="13.8528859"><ele>276.0</ele><time>2026-05-03T10:48:29.55Z</time></trkpt><trkpt lat="45.8157661" lon="13.8528255"><ele>276.0</ele><time>2026-05-03T10:48:33.55Z</time></trkpt><trkpt lat="45.8158419" lon="13.8527323"><ele>276.0</ele><time>2026-05-03T10:48:35.55Z</time></trkpt><trkpt lat="45.8158939" lon="13.8525693"><ele>276.0</ele><time>2026-05-03T10:48:37.55Z</time></trkpt><trkpt lat="45.8159593" lon="13.8523966"><ele>276.0</ele><time>2026-05-03T10:48:39.55Z</time></trkpt><trkpt lat="45.8159753" lon="13.8522344"><ele>276.0</ele><time>2026-05-03T10:48:41.549Z</time></trkpt><trkpt lat="45.8159833" lon="13.8521144"><ele>276.0</ele><time>2026-05-03T10:48:43.55Z</time></trkpt><trkpt lat="45.8160493" lon="13.8520335"><ele>276.0</ele><time>2026-05-03T10:48:44.549Z</time></trkpt><trkpt lat="45.8161602" lon="13.852006"><ele>277.5</ele><time>2026-05-03T10:48:46.55Z</time></trkpt><trkpt lat="45.8162634" lon="13.8520251"><ele>279.0</ele><time>2026-05-03T10:48:48.55Z</time></trkpt><trkpt lat="45.8162803" lon="13.8521174"><ele>280.5</ele><time>2026-05-03T10:48:49.55Z</time></trkpt><trkpt lat="45.8163731" lon="13.8521511"><ele>282.0</ele><time>2026-05-03T10:48:51.549Z</time></trkpt><trkpt lat="45.8164673" lon="13.852223"><ele>283.5</ele><time>2026-05-03T10:48:53.55Z</time></trkpt><trkpt lat="45.8165371" lon="13.8522546"><ele>285.0</ele><time>2026-05-03T10:48:54.549Z</time></trkpt><trkpt lat="45.8166376" lon="13.852258"><ele>285.0</ele><time>2026-05-03T10:48:56.55Z</time></trkpt><trkpt lat="45.8167611" lon="13.8522394"><ele>285.0</ele><time>2026-05-03T10:48:58.549Z</time></trkpt><trkpt lat="45.8168807" lon="13.8522939"><ele>285.0</ele><time>2026-05-03T10:49:00.55Z</time></trkpt><trkpt lat="45.8169498" lon="13.852281"><ele>285.0</ele><time>2026-05-03T10:49:01.55Z</time></trkpt><trkpt lat="45.8170736" lon="13.8522616"><ele>285.0</ele><time>2026-05-03T10:49:03.549Z</time></trkpt><trkpt lat="45.817147" lon="13.8522495"><ele>287.25</ele><time>2026-05-03T10:49:04.549Z</time></trkpt><trkpt lat="45.8172696" lon="13.8523159"><ele>289.5</ele><time>2026-05-03T10:49:06.55Z</time></trkpt><trkpt lat="45.8173516" lon="13.8523963"><ele>291.75</ele><time>2026-05-03T10:49:08.55Z</time></trkpt><trkpt lat="45.8174309" lon="13.8525162"><ele>294.0</ele><time>2026-05-03T10:49:10.55Z</time></trkpt><trkpt lat="45.8174691" lon="13.8527238"><ele>295.5</ele><time>2026-05-03T10:49:13.543Z</time></trkpt><trkpt lat="45.8174616" lon="13.852829"><ele>297.0</ele><time>2026-05-03T10:49:14.553Z</time></trkpt><trkpt lat="45.8174634" lon="13.8529206"><ele>298.5</ele><time>2026-05-03T10:49:15.542Z</time></trkpt><trkpt lat="45.8174707" lon="13.853035"><ele>300.0</ele><time>2026-05-03T10:49:18.549Z</time></trkpt><trkpt lat="45.8173923" lon="13.8531087"><ele>301.5</ele><time>2026-05-03T10:49:23.55Z</time></trkpt><trkpt lat="45.8173183" lon="13.8531736"><ele>303.0</ele><time>2026-05-03T10:49:24.55Z</time></trkpt><trkpt lat="45.8172478" lon="13.8532518"><ele>303.0</ele><time>2026-05-03T10:49:26.55Z</time></trkpt><trkpt lat="45.8171867" lon="13.853391"><ele>303.0</ele><time>2026-05-03T10:49:29.55Z</time></trkpt><trkpt lat="45.8171611" lon="13.8534776"><ele>303.0</ele><time>2026-05-03T10:49:30.549Z</time></trkpt><trkpt lat="45.8171023" lon="13.8536125"><ele>303.0</ele><time>2026-05-03T10:49:32.55Z</time></trkpt><trkpt lat="45.8170548" lon="13.8536794"><ele>303.0</ele><time>2026-05-03T10:49:33.549Z</time></trkpt><trkpt lat="45.8170382" lon="13.8538058"><ele>303.0</ele><time>2026-05-03T10:49:35.549Z</time></trkpt><trkpt lat="45.8171087" lon="13.8539134"><ele>304.5</ele><time>2026-05-03T10:49:37.549Z</time></trkpt><trkpt lat="45.8172151" lon="13.8539968"><ele>306.0</ele><time>2026-05-03T10:49:39.549Z</time></trkpt><trkpt lat="45.8172693" lon="13.8540535"><ele>307.5</ele><time>2026-05-03T10:49:40.55Z</time></trkpt><trkpt lat="45.8173357" lon="13.8541009"><ele>309.0</ele><time>2026-05-03T10:49:41.55Z</time></trkpt><trkpt lat="45.8173913" lon="13.854152"><ele>310.5</ele><time>2026-05-03T10:49:42.55Z</time></trkpt><trkpt lat="45.8174501" lon="13.8542031"><ele>312.0</ele><time>2026-05-03T10:49:43.55Z</time></trkpt><trkpt lat="45.8175312" lon="13.854267"><ele>312.42857142857144</ele><time>2026-05-03T10:49:44.55Z</time></trkpt><trkpt lat="45.8175829" lon="13.8543221"><ele>312.85714285714283</ele><time>2026-05-03T10:49:45.55Z</time></trkpt><trkpt lat="45.8176381" lon="13.854383"><ele>313.2857142857143</ele><time>2026-05-03T10:49:46.55Z</time></trkpt><trkpt lat="45.8176927" lon="13.8544641"><ele>313.7142857142857</ele><time>2026-05-03T10:49:47.549Z</time></trkpt><trkpt lat="45.8177469" lon="13.8545341"><ele>314.1428571428571</ele><time>2026-05-03T10:49:48.55Z</time></trkpt><trkpt lat="45.817804" lon="13.8546029"><ele>314.57142857142856</ele><time>2026-05-03T10:49:49.549Z</time></trkpt><trkpt lat="45.8178636" lon="13.8546693"><ele>315.0</ele><time>2026-05-03T10:49:50.55Z</time></trkpt><trkpt lat="45.8179231" lon="13.8547254"><ele>315.0</ele><time>2026-05-03T10:49:51.55Z</time></trkpt><trkpt lat="45.8179852" lon="13.854796"><ele>315.0</ele><time>2026-05-03T10:49:52.549Z</time></trkpt><trkpt lat="45.8180486" lon="13.8548628"><ele>315.0</ele><time>2026-05-03T10:49:53.55Z</time></trkpt><trkpt lat="45.8181286" lon="13.8549553"><ele>315.0</ele><time>2026-05-03T10:49:55.55Z</time></trkpt><trkpt lat="45.81818" lon="13.8550266"><ele>315.0</ele><time>2026-05-03T10:49:57.55Z</time></trkpt><trkpt lat="45.8182341" lon="13.8550951"><ele>315.0</ele><time>2026-05-03T10:49:59.549Z</time></trkpt><trkpt lat="45.8182943" lon="13.8552158"><ele>314.6</ele><time>2026-05-03T10:50:01.549Z</time></trkpt><trkpt lat="45.8183478" lon="13.8553447"><ele>314.2</ele><time>2026-05-03T10:50:03.55Z</time></trkpt><trkpt lat="45.8183472" lon="13.8554826"><ele>313.8</ele><time>2026-05-03T10:50:05.549Z</time></trkpt><trkpt lat="45.8183224" lon="13.8556041"><ele>313.4</ele><time>2026-05-03T10:50:07.549Z</time></trkpt><trkpt lat="45.8182929" lon="13.8556861"><ele>313.0</ele><time>2026-05-03T10:50:08.549Z</time></trkpt><trkpt lat="45.8182694" lon="13.8558459"><ele>311.16666666666663</ele><time>2026-05-03T10:50:10.549Z</time></trkpt><trkpt lat="45.8182466" lon="13.8560129"><ele>309.3333333333333</ele><time>2026-05-03T10:50:12.549Z</time></trkpt><trkpt lat="45.8181991" lon="13.8561838"><ele>307.5</ele><time>2026-05-03T10:50:14.549Z</time></trkpt><trkpt lat="45.8181621" lon="13.8562576"><ele>305.6666666666667</ele><time>2026-05-03T10:50:15.55Z</time></trkpt><trkpt lat="45.8181266" lon="13.8563351"><ele>303.83333333333337</ele><time>2026-05-03T10:50:16.549Z</time></trkpt><trkpt lat="45.8180807" lon="13.8563993"><ele>302.0</ele><time>2026-05-03T10:50:17.55Z</time></trkpt><trkpt lat="45.8180191" lon="13.8565253"><ele>302.0</ele><time>2026-05-03T10:50:19.55Z</time></trkpt><trkpt lat="45.8179565" lon="13.8566716"><ele>302.0</ele><time>2026-05-03T10:50:21.55Z</time></trkpt><trkpt lat="45.8179298" lon="13.8567555"><ele>302.0</ele><time>2026-05-03T10:50:22.549Z</time></trkpt><trkpt lat="45.8178506" lon="13.8569089"><ele>302.0</ele><time>2026-05-03T10:50:24.55Z</time></trkpt><trkpt lat="45.8178209" lon="13.856992"><ele>302.0</ele><time>2026-05-03T10:50:25.549Z</time></trkpt><trkpt lat="45.8177831" lon="13.8570745"><ele>302.8</ele><time>2026-05-03T10:50:26.549Z</time></trkpt><trkpt lat="45.8177461" lon="13.8571512"><ele>303.6</ele><time>2026-05-03T10:50:27.55Z</time></trkpt><trkpt lat="45.8176965" lon="13.8573138"><ele>304.40000000000003</ele><time>2026-05-03T10:50:29.55Z</time></trkpt><trkpt lat="45.8176561" lon="13.8574766"><ele>305.2</ele><time>2026-05-03T10:50:31.55Z</time></trkpt><trkpt lat="45.8176334" lon="13.8575801"><ele>306.0</ele><time>2026-05-03T10:50:32.549Z</time></trkpt><trkpt lat="45.8176085" lon="13.8576696"><ele>306.0</ele><time>2026-05-03T10:50:33.55Z</time></trkpt><trkpt lat="45.8176171" lon="13.8577855"><ele>306.0</ele><time>2026-05-03T10:50:34.55Z</time></trkpt><trkpt lat="45.817611" lon="13.8579"><ele>306.0</ele><time>2026-05-03T10:50:35.549Z</time></trkpt><trkpt lat="45.8176314" lon="13.8579863"><ele>306.0</ele><time>2026-05-03T10:50:36.549Z</time></trkpt><trkpt lat="45.8176412" lon="13.8581033"><ele>306.0</ele><time>2026-05-03T10:50:37.549Z</time></trkpt><trkpt lat="45.8176575" lon="13.8582093"><ele>306.0</ele><time>2026-05-03T10:50:38.55Z</time></trkpt><trkpt lat="45.8176511" lon="13.8583291"><ele>306.8</ele><time>2026-05-03T10:50:39.55Z</time></trkpt><trkpt lat="45.817643" lon="13.858464"><ele>307.6</ele><time>2026-05-03T10:50:41.55Z</time></trkpt><trkpt lat="45.817608" lon="13.8586288"><ele>308.4</ele><time>2026-05-03T10:53:14.549Z</time></trkpt><trkpt lat="45.8176003" lon="13.8588399"><ele>309.2</ele><time>2026-05-03T10:53:16.55Z</time></trkpt><trkpt lat="45.8175944" lon="13.8589576"><ele>310.0</ele><time>2026-05-03T10:53:17.55Z</time></trkpt><trkpt lat="45.8175779" lon="13.8590601"><ele>310.0</ele><time>2026-05-03T10:53:18.549Z</time></trkpt><trkpt lat="45.817568" lon="13.8591535"><ele>310.0</ele><time>2026-05-03T10:53:19.55Z</time></trkpt><trkpt lat="45.8175583" lon="13.8592523"><ele>310.0</ele><time>2026-05-03T10:53:20.55Z</time></trkpt><trkpt lat="45.8175797" lon="13.859426"><ele>310.0</ele><time>2026-05-03T10:53:22.55Z</time></trkpt><trkpt lat="45.8176126" lon="13.8595102"><ele>310.0</ele><time>2026-05-03T10:53:23.55Z</time></trkpt><trkpt lat="45.8176617" lon="13.8596044"><ele>310.0</ele><time>2026-05-03T10:53:24.55Z</time></trkpt><trkpt lat="45.8177293" lon="13.8597632"><ele>308.66666666666663</ele><time>2026-05-03T10:53:26.549Z</time></trkpt><trkpt lat="45.8177878" lon="13.8599128"><ele>307.3333333333333</ele><time>2026-05-03T10:53:28.55Z</time></trkpt><trkpt lat="45.8178344" lon="13.8599758"><ele>306.0</ele><time>2026-05-03T10:53:29.55Z</time></trkpt><trkpt lat="45.8179004" lon="13.8600221"><ele>304.6666666666667</ele><time>2026-05-03T10:53:30.55Z</time></trkpt><trkpt lat="45.818003" lon="13.8600805"><ele>303.33333333333337</ele><time>2026-05-03T10:53:32.55Z</time></trkpt><trkpt lat="45.8180593" lon="13.8601246"><ele>302.0</ele><time>2026-05-03T10:53:33.549Z</time></trkpt><trkpt lat="45.8181354" lon="13.8601714"><ele>303.1666666666667</ele><time>2026-05-03T10:53:34.55Z</time></trkpt><trkpt lat="45.8182072" lon="13.8602149"><ele>304.33333333333337</ele><time>2026-05-03T10:53:35.549Z</time></trkpt><trkpt lat="45.8182684" lon="13.8602652"><ele>305.5</ele><time>2026-05-03T10:53:36.549Z</time></trkpt><trkpt lat="45.8183424" lon="13.8602943"><ele>306.6666666666667</ele><time>2026-05-03T10:53:37.55Z</time></trkpt><trkpt lat="45.8184245" lon="13.8603327"><ele>307.8333333333333</ele><time>2026-05-03T10:53:38.55Z</time></trkpt><trkpt lat="45.818503" lon="13.860367"><ele>309.0</ele><time>2026-05-03T10:53:39.549Z</time></trkpt><trkpt lat="45.818567" lon="13.8604242"><ele>309.0</ele><time>2026-05-03T10:53:40.549Z</time></trkpt><trkpt lat="45.8186278" lon="13.8604823"><ele>309.0</ele><time>2026-05-03T10:53:41.55Z</time></trkpt><trkpt lat="45.8186922" lon="13.8605363"><ele>309.0</ele><time>2026-05-03T10:53:42.549Z</time></trkpt><trkpt lat="45.8187646" lon="13.8605844"><ele>309.0</ele><time>2026-05-03T10:53:43.549Z</time></trkpt><trkpt lat="45.8188275" lon="13.8606259"><ele>309.0</ele><time>2026-05-03T10:53:44.549Z</time></trkpt><trkpt lat="45.8189491" lon="13.8606386"><ele>309.0</ele><time>2026-05-03T10:53:46.55Z</time></trkpt><trkpt lat="45.8190124" lon="13.86065"><ele>309.0</ele><time>2026-05-03T10:53:47.55Z</time></trkpt><trkpt lat="45.819101" lon="13.8606698"><ele>309.0</ele><time>2026-05-03T10:53:48.549Z</time></trkpt><trkpt lat="45.8191878" lon="13.8607886"><ele>309.0</ele><time>2026-05-03T10:53:50.55Z</time></trkpt><trkpt lat="45.8192271" lon="13.8609258"><ele>309.0</ele><time>2026-05-03T10:53:52.549Z</time></trkpt><trkpt lat="45.8192518" lon="13.86101"><ele>309.0</ele><time>2026-05-03T10:53:53.55Z</time></trkpt><trkpt lat="45.8192817" lon="13.8611657"><ele>305.3333333333333</ele><time>2026-05-03T10:53:55.549Z</time></trkpt><trkpt lat="45.8193295" lon="13.8613262"><ele>301.6666666666667</ele><time>2026-05-03T10:53:57.55Z</time></trkpt><trkpt lat="45.819357" lon="13.8614091"><ele>298.0</ele><time>2026-05-03T10:53:58.549Z</time></trkpt><trkpt lat="45.8193678" lon="13.8615049"><ele>294.33333333333337</ele><time>2026-05-03T10:53:59.549Z</time></trkpt><trkpt lat="45.8193866" lon="13.8615986"><ele>290.6666666666667</ele><time>2026-05-03T10:54:00.549Z</time></trkpt><trkpt lat="45.8193928" lon="13.8616923"><ele>287.0</ele><time>2026-05-03T10:54:01.549Z</time></trkpt><trkpt lat="45.8194056" lon="13.8618619"><ele>287.0</ele><time>2026-05-03T10:54:03.549Z</time></trkpt><trkpt lat="45.8194614" lon="13.8620109"><ele>287.0</ele><time>2026-05-03T10:54:05.549Z</time></trkpt><trkpt lat="45.8194759" lon="13.8621119"><ele>287.0</ele><time>2026-05-03T10:54:06.55Z</time></trkpt><trkpt lat="45.819495" lon="13.8622032"><ele>287.0</ele><time>2026-05-03T10:54:07.549Z</time></trkpt><trkpt lat="45.8195029" lon="13.8623072"><ele>287.0</ele><time>2026-05-03T10:54:08.55Z</time></trkpt><trkpt lat="45.8195346" lon="13.8624067"><ele>287.0</ele><time>2026-05-03T10:54:09.549Z</time></trkpt><trkpt lat="45.8195599" lon="13.8624986"><ele>287.0</ele><time>2026-05-03T10:54:10.55Z</time></trkpt><trkpt lat="45.8195943" lon="13.8625957"><ele>287.0</ele><time>2026-05-03T10:54:11.55Z</time></trkpt><trkpt lat="45.819665" lon="13.8629054"><ele>287.0</ele><time>2026-05-03T10:54:14.547Z</time></trkpt><trkpt lat="45.8196656" lon="13.8629975"><ele>287.0</ele><time>2026-05-03T10:54:15.56Z</time></trkpt><trkpt lat="45.819691" lon="13.8631024"><ele>287.0</ele><time>2026-05-03T10:54:16.552Z</time></trkpt><trkpt lat="45.8197093" lon="13.8631989"><ele>287.83333333333337</ele><time>2026-05-03T10:54:17.547Z</time></trkpt><trkpt lat="45.8197195" lon="13.8633175"><ele>288.6666666666667</ele><time>2026-05-03T10:54:18.551Z</time></trkpt><trkpt lat="45.8197343" lon="13.8634176"><ele>289.5</ele><time>2026-05-03T10:54:19.551Z</time></trkpt><trkpt lat="45.8197551" lon="13.8635233"><ele>290.3333333333333</ele><time>2026-05-03T10:54:20.552Z</time></trkpt><trkpt lat="45.8197687" lon="13.8636308"><ele>291.16666666666663</ele><time>2026-05-03T10:54:21.551Z</time></trkpt><trkpt lat="45.8197775" lon="13.8637448"><ele>292.0</ele><time>2026-05-03T10:54:22.551Z</time></trkpt><trkpt lat="45.8197778" lon="13.8638476"><ele>292.8333333333333</ele><time>2026-05-03T10:54:23.552Z</time></trkpt><trkpt lat="45.8198286" lon="13.8639531"><ele>293.66666666666663</ele><time>2026-05-03T10:54:24.551Z</time></trkpt><trkpt lat="45.819856" lon="13.8640645"><ele>294.5</ele><time>2026-05-03T10:54:25.552Z</time></trkpt><trkpt lat="45.8198718" lon="13.8641671"><ele>295.3333333333333</ele><time>2026-05-03T10:54:26.551Z</time></trkpt><trkpt lat="45.8199148" lon="13.864279"><ele>296.1666666666667</ele><time>2026-05-03T10:54:27.551Z</time></trkpt><trkpt lat="45.8199501" lon="13.8643913"><ele>297.0</ele><time>2026-05-03T10:54:28.552Z</time></trkpt><trkpt lat="45.8199769" lon="13.8644997"><ele>297.2</ele><time>2026-05-03T10:54:29.552Z</time></trkpt><trkpt lat="45.8200156" lon="13.8645869"><ele>297.4</ele><time>2026-05-03T10:54:30.552Z</time></trkpt><trkpt lat="45.8200691" lon="13.8647282"><ele>297.6</ele><time>2026-05-03T10:54:32.552Z</time></trkpt><trkpt lat="45.8201371" lon="13.8648385"><ele>297.8</ele><time>2026-05-03T10:54:34.552Z</time></trkpt><trkpt lat="45.8201663" lon="13.8649884"><ele>298.0</ele><time>2026-05-03T10:54:36.552Z</time></trkpt><trkpt lat="45.8201857" lon="13.8651517"><ele>294.0</ele><time>2026-05-03T10:54:38.551Z</time></trkpt><trkpt lat="45.8202018" lon="13.8652656"><ele>290.0</ele><time>2026-05-03T10:54:40.551Z</time></trkpt><trkpt lat="45.8202928" lon="13.865378"><ele>286.0</ele><time>2026-05-03T10:54:42.551Z</time></trkpt><trkpt lat="45.8203415" lon="13.8654392"><ele>282.0</ele><time>2026-05-03T10:54:43.551Z</time></trkpt><trkpt lat="45.8204568" lon="13.8655398"><ele>278.0</ele><time>2026-05-03T10:54:45.552Z</time></trkpt><trkpt lat="45.8205061" lon="13.8656152"><ele>278.0</ele><time>2026-05-03T10:54:47.552Z</time></trkpt><trkpt lat="45.8205289" lon="13.8657449"><ele>278.0</ele><time>2026-05-03T10:54:49.552Z</time></trkpt><trkpt lat="45.8204952" lon="13.8658597"><ele>278.0</ele><time>2026-05-03T10:54:51.551Z</time></trkpt><trkpt lat="45.8204589" lon="13.8659547"><ele>278.0</ele><time>2026-05-03T10:54:53.551Z</time></trkpt><trkpt lat="45.8204098" lon="13.866054"><ele>278.0</ele><time>2026-05-03T10:54:56.552Z</time></trkpt><trkpt lat="45.820371" lon="13.8661289"><ele>278.0</ele><time>2026-05-03T10:54:58.551Z</time></trkpt><trkpt lat="45.8203383" lon="13.8662108"><ele>277.1666666666667</ele><time>2026-05-03T10:55:00.551Z</time></trkpt><trkpt lat="45.8203248" lon="13.8663327"><ele>276.33333333333337</ele><time>2026-05-03T10:55:02.551Z</time></trkpt><trkpt lat="45.8202431" lon="13.866431"><ele>275.5</ele><time>2026-05-03T10:55:04.552Z</time></trkpt><trkpt lat="45.8201724" lon="13.8664779"><ele>274.6666666666667</ele><time>2026-05-03T10:55:06.551Z</time></trkpt><trkpt lat="45.8200974" lon="13.86649"><ele>273.8333333333333</ele><time>2026-05-03T10:55:08.551Z</time></trkpt><trkpt lat="45.8200309" lon="13.8664915"><ele>273.0</ele><time>2026-05-03T10:55:09.551Z</time></trkpt><trkpt lat="45.8200022" lon="13.8666288"><ele>273.0</ele><time>2026-05-03T10:55:13.552Z</time></trkpt><trkpt lat="45.8199325" lon="13.8667274"><ele>273.0</ele><time>2026-05-03T10:55:14.552Z</time></trkpt><trkpt lat="45.8199168" lon="13.8668403"><ele>273.0</ele><time>2026-05-03T10:55:15.551Z</time></trkpt><trkpt lat="45.8199154" lon="13.8669499"><ele>273.0</ele><time>2026-05-03T10:55:16.551Z</time></trkpt><trkpt lat="45.8198988" lon="13.867114"><ele>273.0</ele><time>2026-05-03T10:55:18.551Z</time></trkpt><trkpt lat="45.8198977" lon="13.8672083"><ele>273.0</ele><time>2026-05-03T10:55:19.552Z</time></trkpt><trkpt lat="45.8199079" lon="13.8673585"><ele>273.0</ele><time>2026-05-03T10:55:21.552Z</time></trkpt><trkpt lat="45.8199463" lon="13.8674333"><ele>273.0</ele><time>2026-05-03T10:55:22.551Z</time></trkpt><trkpt lat="45.8199394" lon="13.8675484"><ele>273.0</ele><time>2026-05-03T10:55:24.551Z</time></trkpt><trkpt lat="45.8199439" lon="13.8677104"><ele>273.0</ele><time>2026-05-03T10:55:26.552Z</time></trkpt><trkpt lat="45.8199137" lon="13.8678242"><ele>273.0</ele><time>2026-05-03T10:55:28.551Z</time></trkpt><trkpt lat="45.8199338" lon="13.8679103"><ele>273.0</ele><time>2026-05-03T10:55:29.552Z</time></trkpt><trkpt lat="45.8199205" lon="13.8680271"><ele>271.2</ele><time>2026-05-03T10:55:32.551Z</time></trkpt><trkpt lat="45.8199101" lon="13.8681501"><ele>269.4</ele><time>2026-05-03T10:55:34.552Z</time></trkpt><trkpt lat="45.8198965" lon="13.8682854"><ele>267.59999999999997</ele><time>2026-05-03T10:55:36.552Z</time></trkpt><trkpt lat="45.8198995" lon="13.8684553"><ele>265.8</ele><time>2026-05-03T10:55:38.552Z</time></trkpt><trkpt lat="45.8199157" lon="13.8686383"><ele>264.0</ele><time>2026-05-03T10:55:40.551Z</time></trkpt><trkpt lat="45.8199231" lon="13.8687559"><ele>263.42857142857144</ele><time>2026-05-03T10:55:41.551Z</time></trkpt><trkpt lat="45.8199297" lon="13.8688651"><ele>262.8571428571429</ele><time>2026-05-03T10:55:42.551Z</time></trkpt><trkpt lat="45.8199376" lon="13.8689619"><ele>262.28571428571433</ele><time>2026-05-03T10:55:43.552Z</time></trkpt><trkpt lat="45.8199495" lon="13.8690706"><ele>261.7142857142857</ele><time>2026-05-03T10:55:44.551Z</time></trkpt><trkpt lat="45.8199518" lon="13.8691733"><ele>261.14285714285717</ele><time>2026-05-03T10:55:45.551Z</time></trkpt><trkpt lat="45.8199649" lon="13.8692872"><ele>260.5714285714286</ele><time>2026-05-03T10:55:46.551Z</time></trkpt><trkpt lat="45.819966" lon="13.869389"><ele>260.0</ele><time>2026-05-03T10:55:47.552Z</time></trkpt><trkpt lat="45.8199722" lon="13.8694859"><ele>259.6666666666667</ele><time>2026-05-03T10:55:48.552Z</time></trkpt><trkpt lat="45.8199746" lon="13.8696402"><ele>259.33333333333337</ele><time>2026-05-03T10:55:50.552Z</time></trkpt><trkpt lat="45.8199865" lon="13.869736"><ele>259.0</ele><time>2026-05-03T10:55:52.551Z</time></trkpt><trkpt lat="45.8199943" lon="13.8698398"><ele>258.6666666666667</ele><time>2026-05-03T10:55:54.551Z</time></trkpt><trkpt lat="45.8200002" lon="13.8699298"><ele>258.3333333333333</ele><time>2026-05-03T10:55:56.552Z</time></trkpt><trkpt lat="45.8200088" lon="13.8700446"><ele>258.0</ele><time>2026-05-03T10:55:59.552Z</time></trkpt><trkpt lat="45.8200216" lon="13.8701603"><ele>257.1666666666667</ele><time>2026-05-03T10:56:01.551Z</time></trkpt><trkpt lat="45.8200131" lon="13.8702646"><ele>256.3333333333333</ele><time>2026-05-03T10:56:03.552Z</time></trkpt><trkpt lat="45.8199916" lon="13.870378"><ele>255.5</ele><time>2026-05-03T10:56:06.551Z</time></trkpt><trkpt lat="45.8199867" lon="13.8704833"><ele>254.66666666666666</ele><time>2026-05-03T10:56:09.552Z</time></trkpt><trkpt lat="45.8200126" lon="13.8705712"><ele>253.83333333333331</ele><time>2026-05-03T10:56:11.552Z</time></trkpt><trkpt lat="45.8200303" lon="13.8706585"><ele>253.0</ele><time>2026-05-03T10:56:13.551Z</time></trkpt><trkpt lat="45.8200793" lon="13.8707791"><ele>252.99999999999997</ele><time>2026-05-03T10:56:16.552Z</time></trkpt><trkpt lat="45.8201088" lon="13.8709018"><ele>253.0</ele><time>2026-05-03T10:56:19.552Z</time></trkpt><trkpt lat="45.8201191" lon="13.8709976"><ele>253.0</ele><time>2026-05-03T10:56:21.552Z</time></trkpt><trkpt lat="45.8201561" lon="13.8711298"><ele>253.0</ele><time>2026-05-03T10:56:23.551Z</time></trkpt><trkpt lat="45.8202028" lon="13.8712487"><ele>252.99999999999997</ele><time>2026-05-03T10:56:25.552Z</time></trkpt><trkpt lat="45.8202516" lon="13.8713684"><ele>253.0</ele><time>2026-05-03T10:56:27.552Z</time></trkpt><trkpt lat="45.8203158" lon="13.8714803"><ele>250.2</ele><time>2026-05-03T10:56:29.551Z</time></trkpt><trkpt lat="45.8203918" lon="13.8716098"><ele>247.4</ele><time>2026-05-03T10:56:31.552Z</time></trkpt><trkpt lat="45.8204467" lon="13.8717292"><ele>244.59999999999997</ele><time>2026-05-03T10:56:33.551Z</time></trkpt><trkpt lat="45.8204995" lon="13.8718068"><ele>241.79999999999998</ele><time>2026-05-03T10:56:35.552Z</time></trkpt><trkpt lat="45.8205254" lon="13.8719346"><ele>239.0</ele><time>2026-05-03T10:56:37.552Z</time></trkpt><trkpt lat="45.8205627" lon="13.8720599"><ele>239.00000000000003</ele><time>2026-05-03T10:56:39.552Z</time></trkpt><trkpt lat="45.8206054" lon="13.8721879"><ele>239.0</ele><time>2026-05-03T10:56:42.551Z</time></trkpt><trkpt lat="45.8206116" lon="13.8722916"><ele>239.0</ele><time>2026-05-03T10:56:44.552Z</time></trkpt><trkpt lat="45.8206365" lon="13.8724038"><ele>239.0</ele><time>2026-05-03T10:56:47.552Z</time></trkpt><trkpt lat="45.8206549" lon="13.8725313"><ele>239.00000000000003</ele><time>2026-05-03T10:56:50.552Z</time></trkpt><trkpt lat="45.8206834" lon="13.872646"><ele>239.0</ele><time>2026-05-03T10:56:53.551Z</time></trkpt><trkpt lat="45.820712" lon="13.872755"><ele>237.50000000000003</ele><time>2026-05-03T10:56:56.552Z</time></trkpt><trkpt lat="45.8207266" lon="13.8728525"><ele>236.0</ele><time>2026-05-03T10:56:59.552Z</time></trkpt><trkpt lat="45.8207469" lon="13.8729464"><ele>234.5</ele><time>2026-05-03T10:57:02.552Z</time></trkpt><trkpt lat="45.820772" lon="13.8730804"><ele>233.0</ele><time>2026-05-03T10:57:05.552Z</time></trkpt><trkpt lat="45.8207986" lon="13.8731825"><ele>231.50000000000003</ele><time>2026-05-03T10:57:07.552Z</time></trkpt><trkpt lat="45.8208287" lon="13.8732859"><ele>230.0</ele><time>2026-05-03T10:57:09.552Z</time></trkpt><trkpt lat="45.8208496" lon="13.873377"><ele>227.83333333333334</ele><time>2026-05-03T10:57:11.551Z</time></trkpt><trkpt lat="45.8208863" lon="13.873459"><ele>225.66666666666669</ele><time>2026-05-03T10:57:14.551Z</time></trkpt><trkpt lat="45.820913" lon="13.8735571"><ele>223.5</ele><time>2026-05-03T10:57:17.552Z</time></trkpt><trkpt lat="45.8209225" lon="13.8736841"><ele>221.33333333333331</ele><time>2026-05-03T10:57:20.551Z</time></trkpt><trkpt lat="45.8209459" lon="13.8738028"><ele>219.16666666666666</ele><time>2026-05-03T10:57:23.552Z</time></trkpt><trkpt lat="45.8209863" lon="13.8739166"><ele>217.0</ele><time>2026-05-03T10:57:25.552Z</time></trkpt><trkpt lat="45.8210247" lon="13.8740104"><ele>216.66666666666666</ele><time>2026-05-03T10:57:27.551Z</time></trkpt><trkpt lat="45.8210647" lon="13.8740941"><ele>216.33333333333331</ele><time>2026-05-03T10:57:29.552Z</time></trkpt><trkpt lat="45.8211056" lon="13.8741629"><ele>216.0</ele><time>2026-05-03T10:57:31.551Z</time></trkpt><trkpt lat="45.8211801" lon="13.8742275"><ele>215.66666666666669</ele><time>2026-05-03T10:57:34.552Z</time></trkpt><trkpt lat="45.8212478" lon="13.874287"><ele>215.33333333333334</ele><time>2026-05-03T10:57:37.551Z</time></trkpt><trkpt lat="45.8213212" lon="13.874346"><ele>215.0</ele><time>2026-05-03T10:57:40.551Z</time></trkpt><trkpt lat="45.8213747" lon="13.8744439"><ele>214.66666666666669</ele><time>2026-05-03T10:57:43.552Z</time></trkpt><trkpt lat="45.8214102" lon="13.8745205"><ele>214.33333333333334</ele><time>2026-05-03T10:57:45.551Z</time></trkpt><trkpt lat="45.8214641" lon="13.8746184"><ele>214.0</ele><time>2026-05-03T10:57:48.552Z</time></trkpt><trkpt lat="45.8215014" lon="13.8747233"><ele>213.66666666666669</ele><time>2026-05-03T10:57:51.551Z</time></trkpt><trkpt lat="45.8215369" lon="13.8748397"><ele>213.33333333333334</ele><time>2026-05-03T10:57:54.552Z</time></trkpt><trkpt lat="45.8215706" lon="13.8749406"><ele>213.0</ele><time>2026-05-03T10:57:57.551Z</time></trkpt><trkpt lat="45.8216111" lon="13.8750141"><ele>213.0</ele><time>2026-05-03T10:57:59.551Z</time></trkpt><trkpt lat="45.8216738" lon="13.8750986"><ele>213.0</ele><time>2026-05-03T10:58:02.551Z</time></trkpt><trkpt lat="45.8217288" lon="13.8751735"><ele>213.0</ele><time>2026-05-03T10:58:04.551Z</time></trkpt><trkpt lat="45.8217634" lon="13.8752891"><ele>213.0</ele><time>2026-05-03T10:58:06.552Z</time></trkpt><trkpt lat="45.8218013" lon="13.8753917"><ele>213.0</ele><time>2026-05-03T10:58:08.551Z</time></trkpt><trkpt lat="45.8218238" lon="13.8755089"><ele>213.0</ele><time>2026-05-03T10:58:11.551Z</time></trkpt><trkpt lat="45.8218446" lon="13.8756317"><ele>208.66666666666666</ele><time>2026-05-03T10:58:14.552Z</time></trkpt><trkpt lat="45.8218807" lon="13.8757348"><ele>204.33333333333334</ele><time>2026-05-03T10:58:18.551Z</time></trkpt><trkpt lat="45.8219405" lon="13.8758478"><ele>200.0</ele><time>2026-05-03T10:58:21.551Z</time></trkpt><trkpt lat="45.8219935" lon="13.8759495"><ele>195.66666666666669</ele><time>2026-05-03T10:58:23.551Z</time></trkpt><trkpt lat="45.8220356" lon="13.8760359"><ele>191.33333333333334</ele><time>2026-05-03T10:58:25.552Z</time></trkpt><trkpt lat="45.8220725" lon="13.8761235"><ele>187.0</ele><time>2026-05-03T10:58:27.552Z</time></trkpt><trkpt lat="45.8221242" lon="13.8762122"><ele>185.33333333333334</ele><time>2026-05-03T10:58:29.551Z</time></trkpt><trkpt lat="45.8221771" lon="13.8762987"><ele>183.66666666666669</ele><time>2026-05-03T10:58:31.552Z</time></trkpt><trkpt lat="45.8222101" lon="13.8763897"><ele>182.0</ele><time>2026-05-03T10:58:33.551Z</time></trkpt><trkpt lat="45.8222157" lon="13.8764811"><ele>180.33333333333334</ele><time>2026-05-03T10:58:35.552Z</time></trkpt><trkpt lat="45.8221904" lon="13.8765852"><ele>178.66666666666666</ele><time>2026-05-03T10:58:37.551Z</time></trkpt><trkpt lat="45.8221423" lon="13.8766666"><ele>177.0</ele><time>2026-05-03T10:58:39.552Z</time></trkpt><trkpt lat="45.8220473" lon="13.8766636"><ele>177.0</ele><time>2026-05-03T10:58:42.552Z</time></trkpt><trkpt lat="45.8219828" lon="13.8766369"><ele>177.0</ele><time>2026-05-03T10:58:44.551Z</time></trkpt><trkpt lat="45.8219129" lon="13.876621"><ele>177.0</ele><time>2026-05-03T10:58:47.551Z</time></trkpt><trkpt lat="45.8218317" lon="13.8766495"><ele>177.0</ele><time>2026-05-03T10:58:51.551Z</time></trkpt><trkpt lat="45.821767" lon="13.8766602"><ele>177.0</ele><time>2026-05-03T10:58:53.551Z</time></trkpt><trkpt lat="45.8217026" lon="13.8766639"><ele>177.0</ele><time>2026-05-03T10:58:55.552Z</time></trkpt><trkpt lat="45.8216283" lon="13.8766603"><ele>177.0</ele><time>2026-05-03T10:58:57.551Z</time></trkpt><trkpt lat="45.821564" lon="13.8766436"><ele>177.83333333333334</ele><time>2026-05-03T10:58:59.552Z</time></trkpt><trkpt lat="45.8214943" lon="13.8766292"><ele>178.66666666666666</ele><time>2026-05-03T10:59:01.551Z</time></trkpt><trkpt lat="45.8214227" lon="13.8766255"><ele>179.5</ele><time>2026-05-03T10:59:04.552Z</time></trkpt><trkpt lat="45.8212765" lon="13.8766062"><ele>180.33333333333331</ele><time>2026-05-03T10:59:15.543Z</time></trkpt><trkpt lat="45.8211862" lon="13.8765932"><ele>181.16666666666666</ele><time>2026-05-03T10:59:17.576Z</time></trkpt><trkpt lat="45.8211202" lon="13.8765775"><ele>182.0</ele><time>2026-05-03T10:59:19.544Z</time></trkpt><trkpt lat="45.8210326" lon="13.8765776"><ele>182.0</ele><time>2026-05-03T10:59:23.544Z</time></trkpt><trkpt lat="45.8209764" lon="13.8766511"><ele>182.0</ele><time>2026-05-03T10:59:26.543Z</time></trkpt><trkpt lat="45.8209902" lon="13.8767455"><ele>182.0</ele><time>2026-05-03T10:59:30.544Z</time></trkpt><trkpt lat="45.8210216" lon="13.8768364"><ele>182.0</ele><time>2026-05-03T10:59:32.544Z</time></trkpt><trkpt lat="45.8210795" lon="13.8769398"><ele>182.0</ele><time>2026-05-03T10:59:34.543Z</time></trkpt><trkpt lat="45.8211304" lon="13.8770269"><ele>182.0</ele><time>2026-05-03T10:59:36.544Z</time></trkpt><trkpt lat="45.8211829" lon="13.8771162"><ele>179.39999999999998</ele><time>2026-05-03T10:59:38.543Z</time></trkpt><trkpt lat="45.8212843" lon="13.8771968"><ele>176.79999999999998</ele><time>2026-05-03T10:59:40.543Z</time></trkpt><trkpt lat="45.8213695" lon="13.877294"><ele>174.2</ele><time>2026-05-03T10:59:42.544Z</time></trkpt><trkpt lat="45.8214493" lon="13.8773935"><ele>171.6</ele><time>2026-05-03T10:59:44.544Z</time></trkpt><trkpt lat="45.8215054" lon="13.8774938"><ele>169.0</ele><time>2026-05-03T10:59:46.543Z</time></trkpt><trkpt lat="45.8215858" lon="13.877601"><ele>168.5</ele><time>2026-05-03T10:59:48.544Z</time></trkpt><trkpt lat="45.8216311" lon="13.8776657"><ele>168.0</ele><time>2026-05-03T10:59:49.543Z</time></trkpt><trkpt lat="45.8216888" lon="13.8777649"><ele>167.5</ele><time>2026-05-03T10:59:51.544Z</time></trkpt><trkpt lat="45.8217831" lon="13.8778339"><ele>167.0</ele><time>2026-05-03T10:59:53.544Z</time></trkpt><trkpt lat="45.8218517" lon="13.8778609"><ele>166.5</ele><time>2026-05-03T10:59:55.543Z</time></trkpt><trkpt lat="45.8219328" lon="13.8779226"><ele>166.0</ele><time>2026-05-03T10:59:57.544Z</time></trkpt><trkpt lat="45.8220209" lon="13.8779547"><ele>159.33333333333334</ele><time>2026-05-03T10:59:59.544Z</time></trkpt><trkpt lat="45.8220955" lon="13.8780028"><ele>152.66666666666666</ele><time>2026-05-03T11:00:01.544Z</time></trkpt><trkpt lat="45.8221063" lon="13.8780953"><ele>146.0</ele><time>2026-05-03T11:00:05.543Z</time></trkpt><trkpt lat="45.8225205" lon="13.8798585"><ele>146.0</ele><time>2026-05-03T11:05:51.548Z</time></trkpt><trkpt lat="45.8226217" lon="13.8800452"><ele>146.0</ele><time>2026-05-03T11:05:55.548Z</time></trkpt><trkpt lat="45.8226859" lon="13.8800879"><ele>146.0</ele><time>2026-05-03T11:05:56.549Z</time></trkpt><trkpt lat="45.8227476" lon="13.880133"><ele>146.0</ele><time>2026-05-03T11:05:57.549Z</time></trkpt><trkpt lat="45.8228103" lon="13.880176"><ele>146.0</ele><time>2026-05-03T11:05:58.548Z</time></trkpt><trkpt lat="45.8228916" lon="13.8801865"><ele>147.16666666666666</ele><time>2026-05-03T11:06:01.549Z</time></trkpt><trkpt lat="45.8229492" lon="13.8801405"><ele>148.33333333333331</ele><time>2026-05-03T11:06:02.548Z</time></trkpt><trkpt lat="45.8230064" lon="13.8800982"><ele>149.5</ele><time>2026-05-03T11:06:03.549Z</time></trkpt><trkpt lat="45.8230698" lon="13.8800422"><ele>150.66666666666666</ele><time>2026-05-03T11:06:04.548Z</time></trkpt><trkpt lat="45.8231334" lon="13.8799833"><ele>151.83333333333334</ele><time>2026-05-03T11:06:05.548Z</time></trkpt><trkpt lat="45.8232124" lon="13.8799083"><ele>153.0</ele><time>2026-05-03T11:06:06.549Z</time></trkpt><trkpt lat="45.8232816" lon="13.8798535"><ele>153.0</ele><time>2026-05-03T11:06:07.549Z</time></trkpt><trkpt lat="45.8233558" lon="13.8797932"><ele>153.0</ele><time>2026-05-03T11:06:08.549Z</time></trkpt><trkpt lat="45.8234265" lon="13.8797238"><ele>153.0</ele><time>2026-05-03T11:06:09.549Z</time></trkpt><trkpt lat="45.8234897" lon="13.8796541"><ele>153.0</ele><time>2026-05-03T11:06:10.549Z</time></trkpt><trkpt lat="45.8235509" lon="13.8795734"><ele>153.0</ele><time>2026-05-03T11:06:11.548Z</time></trkpt><trkpt lat="45.8236111" lon="13.8794676"><ele>153.0</ele><time>2026-05-03T11:06:12.549Z</time></trkpt><trkpt lat="45.823664" lon="13.87936"><ele>154.8</ele><time>2026-05-03T11:06:13.549Z</time></trkpt><trkpt lat="45.8237145" lon="13.8792487"><ele>156.60000000000002</ele><time>2026-05-03T11:06:14.549Z</time></trkpt><trkpt lat="45.8237593" lon="13.8791186"><ele>158.39999999999998</ele><time>2026-05-03T11:06:15.548Z</time></trkpt><trkpt lat="45.8238166" lon="13.8790038"><ele>160.2</ele><time>2026-05-03T11:06:16.548Z</time></trkpt><trkpt lat="45.8238647" lon="13.8788742"><ele>162.0</ele><time>2026-05-03T11:06:17.549Z</time></trkpt><trkpt lat="45.8239101" lon="13.8787551"><ele>162.0</ele><time>2026-05-03T11:06:18.548Z</time></trkpt><trkpt lat="45.8239726" lon="13.8786399"><ele>162.0</ele><time>2026-05-03T11:06:19.548Z</time></trkpt><trkpt lat="45.8240285" lon="13.8785262"><ele>162.0</ele><time>2026-05-03T11:06:20.549Z</time></trkpt><trkpt lat="45.8240906" lon="13.8784185"><ele>162.0</ele><time>2026-05-03T11:06:21.549Z</time></trkpt><trkpt lat="45.8241479" lon="13.878293"><ele>162.0</ele><time>2026-05-03T11:06:22.549Z</time></trkpt><trkpt lat="45.8242061" lon="13.8781702"><ele>162.39999999999998</ele><time>2026-05-03T11:06:23.548Z</time></trkpt><trkpt lat="45.8242688" lon="13.8780555"><ele>162.79999999999998</ele><time>2026-05-03T11:06:24.548Z</time></trkpt><trkpt lat="45.8243171" lon="13.8779301"><ele>163.2</ele><time>2026-05-03T11:06:25.548Z</time></trkpt><trkpt lat="45.8243487" lon="13.8777606"><ele>163.6</ele><time>2026-05-03T11:06:26.549Z</time></trkpt><trkpt lat="45.8244082" lon="13.8776488"><ele>164.0</ele><time>2026-05-03T11:06:27.548Z</time></trkpt><trkpt lat="45.8244611" lon="13.8775247"><ele>161.0</ele><time>2026-05-03T11:06:28.549Z</time></trkpt><trkpt lat="45.8245264" lon="13.8774349"><ele>158.0</ele><time>2026-05-03T11:06:29.548Z</time></trkpt><trkpt lat="45.824587" lon="13.8773215"><ele>155.0</ele><time>2026-05-03T11:06:30.548Z</time></trkpt><trkpt lat="45.8246551" lon="13.877243"><ele>152.0</ele><time>2026-05-03T11:06:31.548Z</time></trkpt><trkpt lat="45.8247162" lon="13.8771596"><ele>149.0</ele><time>2026-05-03T11:06:32.548Z</time></trkpt><trkpt lat="45.824777" lon="13.8770571"><ele>149.0</ele><time>2026-05-03T11:06:33.549Z</time></trkpt><trkpt lat="45.8248263" lon="13.8769636"><ele>149.0</ele><time>2026-05-03T11:06:34.548Z</time></trkpt><trkpt lat="45.8248754" lon="13.8768466"><ele>149.0</ele><time>2026-05-03T11:06:35.549Z</time></trkpt><trkpt lat="45.8249033" lon="13.8767361"><ele>149.0</ele><time>2026-05-03T11:06:36.549Z</time></trkpt><trkpt lat="45.8249357" lon="13.8766234"><ele>149.0</ele><time>2026-05-03T11:06:37.549Z</time></trkpt><trkpt lat="45.8249702" lon="13.8764737"><ele>148.4</ele><time>2026-05-03T11:06:38.549Z</time></trkpt><trkpt lat="45.8249953" lon="13.8763644"><ele>147.8</ele><time>2026-05-03T11:06:39.549Z</time></trkpt><trkpt lat="45.8250083" lon="13.8762325"><ele>147.2</ele><time>2026-05-03T11:06:40.549Z</time></trkpt><trkpt lat="45.8250252" lon="13.8760988"><ele>146.6</ele><time>2026-05-03T11:06:41.549Z</time></trkpt><trkpt lat="45.8250379" lon="13.8759727"><ele>146.0</ele><time>2026-05-03T11:06:42.549Z</time></trkpt><trkpt lat="45.8250628" lon="13.8758428"><ele>145.6</ele><time>2026-05-03T11:06:43.548Z</time></trkpt><trkpt lat="45.8250901" lon="13.8757183"><ele>145.2</ele><time>2026-05-03T11:06:44.548Z</time></trkpt><trkpt lat="45.8251135" lon="13.8755997"><ele>144.8</ele><time>2026-05-03T11:06:45.549Z</time></trkpt><trkpt lat="45.8251657" lon="13.8754524"><ele>144.4</ele><time>2026-05-03T11:06:47.548Z</time></trkpt><trkpt lat="45.8252362" lon="13.8754378"><ele>144.0</ele><time>2026-05-03T11:06:49.548Z</time></trkpt><trkpt lat="45.8253515" lon="13.8754714"><ele>146.75</ele><time>2026-05-03T11:06:51.548Z</time></trkpt><trkpt lat="45.8254673" lon="13.8754828"><ele>149.5</ele><time>2026-05-03T11:06:53.549Z</time></trkpt><trkpt lat="45.8254751" lon="13.8752893"><ele>152.25</ele><time>2026-05-03T11:06:56.548Z</time></trkpt><trkpt lat="45.8255393" lon="13.875129"><ele>155.0</ele><time>2026-05-03T11:06:58.549Z</time></trkpt><trkpt lat="45.8255705" lon="13.8750341"><ele>155.0</ele><time>2026-05-03T11:06:59.549Z</time></trkpt><trkpt lat="45.8256558" lon="13.8749108"><ele>155.0</ele><time>2026-05-03T11:07:01.549Z</time></trkpt><trkpt lat="45.825708" lon="13.8748039"><ele>155.0</ele><time>2026-05-03T11:07:02.548Z</time></trkpt><trkpt lat="45.8257462" lon="13.8745983"><ele>155.0</ele><time>2026-05-03T11:07:04.549Z</time></trkpt><trkpt lat="45.8257668" lon="13.8745088"><ele>155.0</ele><time>2026-05-03T11:07:05.548Z</time></trkpt><trkpt lat="45.8258403" lon="13.8743621"><ele>155.0</ele><time>2026-05-03T11:07:07.549Z</time></trkpt><trkpt lat="45.8258949" lon="13.8742909"><ele>155.0</ele><time>2026-05-03T11:07:08.549Z</time></trkpt><trkpt lat="45.8259365" lon="13.8741956"><ele>155.0</ele><time>2026-05-03T11:07:09.548Z</time></trkpt><trkpt lat="45.8260077" lon="13.8741474"><ele>155.0</ele><time>2026-05-03T11:07:10.549Z</time></trkpt><trkpt lat="45.8260677" lon="13.8741101"><ele>155.0</ele><time>2026-05-03T11:07:11.549Z</time></trkpt><trkpt lat="45.8261698" lon="13.8740263"><ele>155.0</ele><time>2026-05-03T11:07:13.548Z</time></trkpt><trkpt lat="45.8262464" lon="13.8739957"><ele>156.6</ele><time>2026-05-03T11:07:14.548Z</time></trkpt><trkpt lat="45.8263648" lon="13.8739858"><ele>158.2</ele><time>2026-05-03T11:07:16.548Z</time></trkpt><trkpt lat="45.8264309" lon="13.8739956"><ele>159.8</ele><time>2026-05-03T11:07:17.549Z</time></trkpt><trkpt lat="45.8265556" lon="13.8739756"><ele>161.4</ele><time>2026-05-03T11:07:19.549Z</time></trkpt><trkpt lat="45.8266198" lon="13.8739502"><ele>163.0</ele><time>2026-05-03T11:07:20.548Z</time></trkpt><trkpt lat="45.8267279" lon="13.8738725"><ele>163.0</ele><time>2026-05-03T11:07:22.549Z</time></trkpt><trkpt lat="45.8268006" lon="13.8738687"><ele>163.0</ele><time>2026-05-03T11:07:23.549Z</time></trkpt><trkpt lat="45.8268802" lon="13.8738663"><ele>163.0</ele><time>2026-05-03T11:07:24.549Z</time></trkpt><trkpt lat="45.8269689" lon="13.8738631"><ele>163.0</ele><time>2026-05-03T11:07:25.548Z</time></trkpt><trkpt lat="45.8270693" lon="13.873876"><ele>163.0</ele><time>2026-05-03T11:07:26.548Z</time></trkpt><trkpt lat="45.8271447" lon="13.8738797"><ele>163.0</ele><time>2026-05-03T11:07:27.549Z</time></trkpt><trkpt lat="45.8272281" lon="13.8738817"><ele>164.83333333333334</ele><time>2026-05-03T11:07:28.549Z</time></trkpt><trkpt lat="45.8272978" lon="13.8738775"><ele>166.66666666666669</ele><time>2026-05-03T11:07:29.549Z</time></trkpt><trkpt lat="45.827378" lon="13.8739145"><ele>168.5</ele><time>2026-05-03T11:07:30.549Z</time></trkpt><trkpt lat="45.8274448" lon="13.8739583"><ele>170.33333333333334</ele><time>2026-05-03T11:07:31.549Z</time></trkpt><trkpt lat="45.8275078" lon="13.8740054"><ele>172.16666666666666</ele><time>2026-05-03T11:07:32.548Z</time></trkpt><trkpt lat="45.8276022" lon="13.8739925"><ele>174.0</ele><time>2026-05-03T11:07:34.549Z</time></trkpt><trkpt lat="45.8276649" lon="13.8739114"><ele>176.2</ele><time>2026-05-03T11:07:36.549Z</time></trkpt><trkpt lat="45.8277095" lon="13.8737567"><ele>178.39999999999998</ele><time>2026-05-03T11:07:38.548Z</time></trkpt><trkpt lat="45.8277521" lon="13.8736618"><ele>180.6</ele><time>2026-05-03T11:07:39.548Z</time></trkpt><trkpt lat="45.8277644" lon="13.8735233"><ele>182.8</ele><time>2026-05-03T11:07:40.548Z</time></trkpt><trkpt lat="45.8277627" lon="13.8733839"><ele>185.0</ele><time>2026-05-03T11:07:41.549Z</time></trkpt><trkpt lat="45.8277856" lon="13.8732555"><ele>185.0</ele><time>2026-05-03T11:07:42.549Z</time></trkpt><trkpt lat="45.827829" lon="13.8731749"><ele>185.0</ele><time>2026-05-03T11:07:43.548Z</time></trkpt><trkpt lat="45.827872" lon="13.8730898"><ele>185.0</ele><time>2026-05-03T11:07:44.548Z</time></trkpt><trkpt lat="45.8279457" lon="13.8729969"><ele>185.0</ele><time>2026-05-03T11:07:46.549Z</time></trkpt><trkpt lat="45.828021" lon="13.8731846"><ele>185.0</ele><time>2026-05-03T11:07:49.549Z</time></trkpt><trkpt lat="45.8280706" lon="13.8732623"><ele>185.0</ele><time>2026-05-03T11:07:50.549Z</time></trkpt><trkpt lat="45.8281166" lon="13.8733308"><ele>185.0</ele><time>2026-05-03T11:07:51.549Z</time></trkpt><trkpt lat="45.8281735" lon="13.8734252"><ele>185.0</ele><time>2026-05-03T11:07:52.548Z</time></trkpt><trkpt lat="45.8282417" lon="13.8735091"><ele>185.0</ele><time>2026-05-03T11:07:53.549Z</time></trkpt><trkpt lat="45.8282956" lon="13.8735957"><ele>185.0</ele><time>2026-05-03T11:07:54.549Z</time></trkpt><trkpt lat="45.8283373" lon="13.8736833"><ele>185.0</ele><time>2026-05-03T11:07:55.549Z</time></trkpt><trkpt lat="45.8283746" lon="13.873773"><ele>185.16666666666666</ele><time>2026-05-03T11:07:56.548Z</time></trkpt><trkpt lat="45.8284499" lon="13.87387"><ele>185.33333333333331</ele><time>2026-05-03T11:07:57.548Z</time></trkpt><trkpt lat="45.8284939" lon="13.8739555"><ele>185.5</ele><time>2026-05-03T11:07:58.548Z</time></trkpt><trkpt lat="45.8285468" lon="13.874037"><ele>185.66666666666666</ele><time>2026-05-03T11:07:59.549Z</time></trkpt><trkpt lat="45.8286134" lon="13.8740981"><ele>185.83333333333334</ele><time>2026-05-03T11:08:00.548Z</time></trkpt><trkpt lat="45.828677" lon="13.8741681"><ele>186.0</ele><time>2026-05-03T11:08:01.549Z</time></trkpt><trkpt lat="45.8287286" lon="13.8742703"><ele>187.0</ele><time>2026-05-03T11:08:02.548Z</time></trkpt><trkpt lat="45.8287798" lon="13.8743633"><ele>188.0</ele><time>2026-05-03T11:08:03.549Z</time></trkpt><trkpt lat="45.8288405" lon="13.8744819"><ele>189.0</ele><time>2026-05-03T11:08:05.549Z</time></trkpt><trkpt lat="45.8289342" lon="13.8745618"><ele>190.0</ele><time>2026-05-03T11:08:07.549Z</time></trkpt><trkpt lat="45.8289895" lon="13.8746372"><ele>191.0</ele><time>2026-05-03T11:08:09.548Z</time></trkpt><trkpt lat="45.8290505" lon="13.8747308"><ele>191.0</ele><time>2026-05-03T11:08:13.549Z</time></trkpt><trkpt lat="45.8289823" lon="13.8747712"><ele>191.0</ele><time>2026-05-03T11:08:16.548Z</time></trkpt><trkpt lat="45.8289557" lon="13.8746323"><ele>191.0</ele><time>2026-05-03T11:08:19.549Z</time></trkpt><trkpt lat="45.8288904" lon="13.8745077"><ele>191.0</ele><time>2026-05-03T11:08:21.548Z</time></trkpt><trkpt lat="45.8288423" lon="13.8744389"><ele>191.0</ele><time>2026-05-03T11:08:22.549Z</time></trkpt><trkpt lat="45.8287534" lon="13.8743268"><ele>191.8</ele><time>2026-05-03T11:08:24.548Z</time></trkpt><trkpt lat="45.8286734" lon="13.874211"><ele>192.60000000000002</ele><time>2026-05-03T11:08:26.548Z</time></trkpt><trkpt lat="45.8285805" lon="13.874082"><ele>193.4</ele><time>2026-05-03T11:08:28.549Z</time></trkpt><trkpt lat="45.8284974" lon="13.8739617"><ele>194.2</ele><time>2026-05-03T11:08:30.548Z</time></trkpt><trkpt lat="45.8284463" lon="13.8739024"><ele>195.0</ele><time>2026-05-03T11:08:31.549Z</time></trkpt><trkpt lat="45.8283742" lon="13.8737326"><ele>193.71428571428572</ele><time>2026-05-03T11:08:33.548Z</time></trkpt><trkpt lat="45.8283349" lon="13.873657"><ele>192.42857142857142</ele><time>2026-05-03T11:08:34.549Z</time></trkpt><trkpt lat="45.8282863" lon="13.8735995"><ele>191.14285714285717</ele><time>2026-05-03T11:08:35.549Z</time></trkpt><trkpt lat="45.8282379" lon="13.8735262"><ele>189.85714285714286</ele><time>2026-05-03T11:08:36.548Z</time></trkpt><trkpt lat="45.8281938" lon="13.8734478"><ele>188.57142857142858</ele><time>2026-05-03T11:08:37.548Z</time></trkpt><trkpt lat="45.8281422" lon="13.8733836"><ele>187.2857142857143</ele><time>2026-05-03T11:08:38.549Z</time></trkpt><trkpt lat="45.8280962" lon="13.8733175"><ele>186.0</ele><time>2026-05-03T11:08:39.549Z</time></trkpt><trkpt lat="45.8280459" lon="13.8732548"><ele>185.8</ele><time>2026-05-03T11:08:40.549Z</time></trkpt><trkpt lat="45.8279945" lon="13.8731888"><ele>185.60000000000002</ele><time>2026-05-03T11:08:41.548Z</time></trkpt><trkpt lat="45.8279586" lon="13.8730226"><ele>185.4</ele><time>2026-05-03T11:08:43.549Z</time></trkpt><trkpt lat="45.8279361" lon="13.8728961"><ele>185.2</ele><time>2026-05-03T11:08:46.548Z</time></trkpt><trkpt lat="45.8279591" lon="13.8728006"><ele>185.0</ele><time>2026-05-03T11:08:48.549Z</time></trkpt><trkpt lat="45.8280354" lon="13.8726791"><ele>185.0</ele><time>2026-05-03T11:08:50.549Z</time></trkpt><trkpt lat="45.8280829" lon="13.8726179"><ele>185.0</ele><time>2026-05-03T11:08:51.549Z</time></trkpt><trkpt lat="45.8281641" lon="13.8725257"><ele>185.0</ele><time>2026-05-03T11:08:53.549Z</time></trkpt><trkpt lat="45.8282479" lon="13.8725211"><ele>185.0</ele><time>2026-05-03T11:08:57.549Z</time></trkpt><trkpt lat="45.8284188" lon="13.8724748"><ele>185.0</ele><time>2026-05-03T11:09:01.549Z</time></trkpt><trkpt lat="45.8284991" lon="13.8724281"><ele>179.0</ele><time>2026-05-03T11:09:03.549Z</time></trkpt><trkpt lat="45.8285756" lon="13.8723684"><ele>173.0</ele><time>2026-05-03T11:09:05.548Z</time></trkpt><trkpt lat="45.8286564" lon="13.872338"><ele>167.0</ele><time>2026-05-03T11:09:07.549Z</time></trkpt><trkpt lat="45.8288196" lon="13.8724604"><ele>161.0</ele><time>2026-05-03T11:09:13.549Z</time></trkpt><trkpt lat="45.8288685" lon="13.8725932"><ele>167.0</ele><time>2026-05-03T11:09:14.549Z</time></trkpt><trkpt lat="45.82903" lon="13.8727122"><ele>173.0</ele><time>2026-05-03T11:09:17.547Z</time></trkpt><trkpt lat="45.8291313" lon="13.8727797"><ele>179.0</ele><time>2026-05-03T11:09:19.543Z</time></trkpt><trkpt lat="45.8292242" lon="13.8728581"><ele>185.0</ele><time>2026-05-03T11:09:21.549Z</time></trkpt><trkpt lat="45.829296" lon="13.8728908"><ele>181.99999999999997</ele><time>2026-05-03T11:09:23.545Z</time></trkpt><trkpt lat="45.8293738" lon="13.872943"><ele>179.0</ele><time>2026-05-03T11:09:25.545Z</time></trkpt><trkpt lat="45.8294501" lon="13.8729878"><ele>176.0</ele><time>2026-05-03T11:09:27.545Z</time></trkpt><trkpt lat="45.8295032" lon="13.8730381"><ele>173.0</ele><time>2026-05-03T11:09:30.544Z</time></trkpt><trkpt lat="45.8295785" lon="13.8730681"><ele>170.0</ele><time>2026-05-03T11:09:33.545Z</time></trkpt><trkpt lat="45.829649" lon="13.8730699"><ele>166.99999999999997</ele><time>2026-05-03T11:09:35.545Z</time></trkpt><trkpt lat="45.8297111" lon="13.8730932"><ele>164.0</ele><time>2026-05-03T11:09:37.544Z</time></trkpt><trkpt lat="45.8297745" lon="13.8731118"><ele>164.0</ele><time>2026-05-03T11:09:39.545Z</time></trkpt><trkpt lat="45.829856" lon="13.8731043"><ele>164.0</ele><time>2026-05-03T11:09:41.545Z</time></trkpt><trkpt lat="45.8299507" lon="13.8730948"><ele>164.0</ele><time>2026-05-03T11:09:43.544Z</time></trkpt><trkpt lat="45.8300612" lon="13.8730589"><ele>164.0</ele><time>2026-05-03T11:09:44.545Z</time></trkpt><trkpt lat="45.8301339" lon="13.8730619"><ele>164.0</ele><time>2026-05-03T11:09:47.545Z</time></trkpt><trkpt lat="45.8302194" lon="13.8730468"><ele>164.0</ele><time>2026-05-03T11:09:49.545Z</time></trkpt><trkpt lat="45.8303023" lon="13.8731023"><ele>163.66666666666666</ele><time>2026-05-03T11:09:51.544Z</time></trkpt><trkpt lat="45.8303546" lon="13.8731594"><ele>163.33333333333331</ele><time>2026-05-03T11:09:52.545Z</time></trkpt><trkpt lat="45.8304369" lon="13.8731951"><ele>163.0</ele><time>2026-05-03T11:09:53.544Z</time></trkpt><trkpt lat="45.8304932" lon="13.8732597"><ele>162.66666666666666</ele><time>2026-05-03T11:09:54.544Z</time></trkpt><trkpt lat="45.8305613" lon="13.8733126"><ele>162.33333333333334</ele><time>2026-05-03T11:09:55.545Z</time></trkpt><trkpt lat="45.83063" lon="13.8733835"><ele>162.0</ele><time>2026-05-03T11:09:56.544Z</time></trkpt><trkpt lat="45.830712" lon="13.8734902"><ele>162.0</ele><time>2026-05-03T11:09:57.545Z</time></trkpt><trkpt lat="45.8307851" lon="13.873596"><ele>162.0</ele><time>2026-05-03T11:09:58.544Z</time></trkpt><trkpt lat="45.8308627" lon="13.8736809"><ele>162.0</ele><time>2026-05-03T11:09:59.545Z</time></trkpt><trkpt lat="45.830963" lon="13.8737729"><ele>162.0</ele><time>2026-05-03T11:10:00.544Z</time></trkpt><trkpt lat="45.831048" lon="13.8738708"><ele>162.0</ele><time>2026-05-03T11:10:01.544Z</time></trkpt><trkpt lat="45.8311285" lon="13.873989"><ele>161.25</ele><time>2026-05-03T11:10:02.545Z</time></trkpt><trkpt lat="45.8312058" lon="13.8740994"><ele>160.5</ele><time>2026-05-03T11:10:03.545Z</time></trkpt><trkpt lat="45.8312956" lon="13.8742072"><ele>159.75</ele><time>2026-05-03T11:10:04.544Z</time></trkpt><trkpt lat="45.8314064" lon="13.8742812"><ele>159.0</ele><time>2026-05-03T11:10:05.544Z</time></trkpt><trkpt lat="45.8314977" lon="13.8743716"><ele>158.25</ele><time>2026-05-03T11:10:06.545Z</time></trkpt><trkpt lat="45.8315977" lon="13.8744248"><ele>157.5</ele><time>2026-05-03T11:10:07.544Z</time></trkpt><trkpt lat="45.8317124" lon="13.8744728"><ele>156.75</ele><time>2026-05-03T11:10:08.545Z</time></trkpt><trkpt lat="45.831831" lon="13.8745311"><ele>156.0</ele><time>2026-05-03T11:10:09.545Z</time></trkpt><trkpt lat="45.831973" lon="13.874589"><ele>156.0</ele><time>2026-05-03T11:10:10.544Z</time></trkpt><trkpt lat="45.8320993" lon="13.8746626"><ele>156.0</ele><time>2026-05-03T11:10:11.544Z</time></trkpt><trkpt lat="45.8322066" lon="13.8747363"><ele>156.0</ele><time>2026-05-03T11:10:12.545Z</time></trkpt><trkpt lat="45.8322883" lon="13.8747773"><ele>156.0</ele><time>2026-05-03T11:10:13.544Z</time></trkpt><trkpt lat="45.8324021" lon="13.8748489"><ele>156.0</ele><time>2026-05-03T11:10:14.544Z</time></trkpt><trkpt lat="45.8325048" lon="13.8749442"><ele>156.0</ele><time>2026-05-03T11:10:15.544Z</time></trkpt><trkpt lat="45.8325883" lon="13.8750556"><ele>156.0</ele><time>2026-05-03T11:10:16.544Z</time></trkpt><trkpt lat="45.8326848" lon="13.8751605"><ele>156.0</ele><time>2026-05-03T11:10:17.544Z</time></trkpt><trkpt lat="45.8327712" lon="13.875271"><ele>155.0</ele><time>2026-05-03T11:10:18.545Z</time></trkpt><trkpt lat="45.8328787" lon="13.8753806"><ele>154.0</ele><time>2026-05-03T11:10:19.544Z</time></trkpt><trkpt lat="45.8329832" lon="13.8754745"><ele>153.0</ele><time>2026-05-03T11:10:20.544Z</time></trkpt><trkpt lat="45.8331004" lon="13.875558"><ele>152.0</ele><time>2026-05-03T11:10:21.545Z</time></trkpt><trkpt lat="45.8332078" lon="13.8756359"><ele>152.0</ele><time>2026-05-03T11:10:22.545Z</time></trkpt><trkpt lat="45.8333282" lon="13.875714"><ele>152.0</ele><time>2026-05-03T11:10:23.545Z</time></trkpt><trkpt lat="45.833445" lon="13.8757704"><ele>152.0</ele><time>2026-05-03T11:10:24.544Z</time></trkpt><trkpt lat="45.8335594" lon="13.8758232"><ele>152.0</ele><time>2026-05-03T11:10:25.545Z</time></trkpt><trkpt lat="45.8336776" lon="13.8758825"><ele>153.0</ele><time>2026-05-03T11:10:26.544Z</time></trkpt><trkpt lat="45.8337943" lon="13.87596"><ele>154.0</ele><time>2026-05-03T11:10:27.545Z</time></trkpt><trkpt lat="45.8338932" lon="13.8760371"><ele>155.0</ele><time>2026-05-03T11:10:28.545Z</time></trkpt><trkpt lat="45.8339752" lon="13.8761354"><ele>156.0</ele><time>2026-05-03T11:10:29.545Z</time></trkpt><trkpt lat="45.8340705" lon="13.8762456"><ele>156.0</ele><time>2026-05-03T11:10:30.544Z</time></trkpt><trkpt lat="45.8341665" lon="13.8763632"><ele>156.0</ele><time>2026-05-03T11:10:31.544Z</time></trkpt><trkpt lat="45.834253" lon="13.8764753"><ele>156.0</ele><time>2026-05-03T11:10:32.545Z</time></trkpt><trkpt lat="45.8343303" lon="13.8765796"><ele>156.0</ele><time>2026-05-03T11:10:33.544Z</time></trkpt><trkpt lat="45.8344181" lon="13.8767169"><ele>156.25</ele><time>2026-05-03T11:10:34.545Z</time></trkpt><trkpt lat="45.8345053" lon="13.8768644"><ele>156.5</ele><time>2026-05-03T11:10:35.545Z</time></trkpt><trkpt lat="45.8345915" lon="13.8769809"><ele>156.75</ele><time>2026-05-03T11:10:36.544Z</time></trkpt><trkpt lat="45.8346824" lon="13.8770844"><ele>157.0</ele><time>2026-05-03T11:10:37.544Z</time></trkpt><trkpt lat="45.8347677" lon="13.8772022"><ele>157.0</ele><time>2026-05-03T11:10:38.545Z</time></trkpt><trkpt lat="45.8348513" lon="13.8773248"><ele>157.0</ele><time>2026-05-03T11:10:39.545Z</time></trkpt><trkpt lat="45.8349346" lon="13.877461"><ele>157.0</ele><time>2026-05-03T11:10:40.544Z</time></trkpt><trkpt lat="45.8350166" lon="13.8775878"><ele>157.0</ele><time>2026-05-03T11:10:41.545Z</time></trkpt><trkpt lat="45.8350916" lon="13.8777238"><ele>157.6</ele><time>2026-05-03T11:10:42.545Z</time></trkpt><trkpt lat="45.835175" lon="13.8778384"><ele>158.2</ele><time>2026-05-03T11:10:43.544Z</time></trkpt><trkpt lat="45.8352543" lon="13.8779437"><ele>158.8</ele><time>2026-05-03T11:10:44.544Z</time></trkpt><trkpt lat="45.8353281" lon="13.8780309"><ele>159.4</ele><time>2026-05-03T11:10:45.545Z</time></trkpt><trkpt lat="45.8353924" lon="13.8781081"><ele>160.0</ele><time>2026-05-03T11:10:46.545Z</time></trkpt><trkpt lat="45.8354554" lon="13.878179"><ele>160.0</ele><time>2026-05-03T11:10:47.544Z</time></trkpt><trkpt lat="45.8355093" lon="13.8782442"><ele>160.0</ele><time>2026-05-03T11:10:48.544Z</time></trkpt><trkpt lat="45.8355599" lon="13.8783017"><ele>160.0</ele><time>2026-05-03T11:10:49.545Z</time></trkpt><trkpt lat="45.8356512" lon="13.8783256"><ele>160.0</ele><time>2026-05-03T11:10:51.544Z</time></trkpt><trkpt lat="45.8357239" lon="13.878235"><ele>160.0</ele><time>2026-05-03T11:10:53.545Z</time></trkpt><trkpt lat="45.8357824" lon="13.8781987"><ele>160.0</ele><time>2026-05-03T11:10:54.545Z</time></trkpt><trkpt lat="45.8359113" lon="13.8781827"><ele>161.0</ele><time>2026-05-03T11:10:56.545Z</time></trkpt><trkpt lat="45.8359798" lon="13.8781966"><ele>162.0</ele><time>2026-05-03T11:10:57.544Z</time></trkpt><trkpt lat="45.8360462" lon="13.8782093"><ele>163.0</ele><time>2026-05-03T11:10:58.544Z</time></trkpt><trkpt lat="45.8361097" lon="13.8782478"><ele>164.0</ele><time>2026-05-03T11:10:59.545Z</time></trkpt><trkpt lat="45.8361749" lon="13.8782849"><ele>165.0</ele><time>2026-05-03T11:11:00.544Z</time></trkpt><trkpt lat="45.8362314" lon="13.8783536"><ele>166.0</ele><time>2026-05-03T11:11:01.545Z</time></trkpt><trkpt lat="45.8362922" lon="13.8784034"><ele>167.0</ele><time>2026-05-03T11:11:02.545Z</time></trkpt><trkpt lat="45.8363968" lon="13.8785047"><ele>167.0</ele><time>2026-05-03T11:11:04.545Z</time></trkpt><trkpt lat="45.836451" lon="13.8785575"><ele>167.0</ele><time>2026-05-03T11:11:05.545Z</time></trkpt><trkpt lat="45.8365188" lon="13.8785982"><ele>167.0</ele><time>2026-05-03T11:11:06.544Z</time></trkpt><trkpt lat="45.8365793" lon="13.8787465"><ele>167.0</ele><time>2026-05-03T11:11:08.545Z</time></trkpt><trkpt lat="45.8366428" lon="13.8788132"><ele>167.0</ele><time>2026-05-03T11:11:09.544Z</time></trkpt><trkpt lat="45.8367557" lon="13.8789089"><ele>169.39999999999998</ele><time>2026-05-03T11:11:11.544Z</time></trkpt><trkpt lat="45.8368028" lon="13.8789716"><ele>171.79999999999998</ele><time>2026-05-03T11:11:12.545Z</time></trkpt><trkpt lat="45.8369011" lon="13.8790122"><ele>174.2</ele><time>2026-05-03T11:11:14.545Z</time></trkpt><trkpt lat="45.8369665" lon="13.879009"><ele>176.6</ele><time>2026-05-03T11:11:15.544Z</time></trkpt><trkpt lat="45.8370923" lon="13.8790557"><ele>179.0</ele><time>2026-05-03T11:11:17.544Z</time></trkpt><trkpt lat="45.8371765" lon="13.8791733"><ele>179.0</ele><time>2026-05-03T11:11:19.544Z</time></trkpt><trkpt lat="45.83724" lon="13.8792323"><ele>179.0</ele><time>2026-05-03T11:11:20.545Z</time></trkpt><trkpt lat="45.8373651" lon="13.8793556"><ele>179.0</ele><time>2026-05-03T11:11:22.544Z</time></trkpt><trkpt lat="45.8374415" lon="13.8794203"><ele>179.0</ele><time>2026-05-03T11:11:23.544Z</time></trkpt><trkpt lat="45.8375066" lon="13.879491"><ele>179.0</ele><time>2026-05-03T11:11:24.544Z</time></trkpt><trkpt lat="45.8375846" lon="13.8795274"><ele>179.5</ele><time>2026-05-03T11:11:25.544Z</time></trkpt><trkpt lat="45.8376495" lon="13.8795473"><ele>180.0</ele><time>2026-05-03T11:11:26.544Z</time></trkpt><trkpt lat="45.8377278" lon="13.8795328"><ele>180.5</ele><time>2026-05-03T11:11:27.544Z</time></trkpt><trkpt lat="45.837815" lon="13.8795223"><ele>181.0</ele><time>2026-05-03T11:11:28.545Z</time></trkpt><trkpt lat="45.8378783" lon="13.8795231"><ele>181.5</ele><time>2026-05-03T11:11:29.544Z</time></trkpt><trkpt lat="45.8379626" lon="13.8795133"><ele>182.0</ele><time>2026-05-03T11:11:30.544Z</time></trkpt><trkpt lat="45.8380457" lon="13.8795044"><ele>182.0</ele><time>2026-05-03T11:11:31.545Z</time></trkpt><trkpt lat="45.8381351" lon="13.8795127"><ele>182.0</ele><time>2026-05-03T11:11:32.544Z</time></trkpt><trkpt lat="45.8382201" lon="13.8795316"><ele>182.0</ele><time>2026-05-03T11:11:33.545Z</time></trkpt><trkpt lat="45.8383184" lon="13.8795466"><ele>182.0</ele><time>2026-05-03T11:11:34.544Z</time></trkpt><trkpt lat="45.8384141" lon="13.8795484"><ele>182.0</ele><time>2026-05-03T11:11:35.545Z</time></trkpt><trkpt lat="45.8385055" lon="13.8795426"><ele>182.8</ele><time>2026-05-03T11:11:36.544Z</time></trkpt><trkpt lat="45.8386007" lon="13.8795412"><ele>183.6</ele><time>2026-05-03T11:11:37.544Z</time></trkpt><trkpt lat="45.8386985" lon="13.8795342"><ele>184.4</ele><time>2026-05-03T11:11:38.545Z</time></trkpt><trkpt lat="45.8388025" lon="13.8795323"><ele>185.20000000000002</ele><time>2026-05-03T11:11:39.545Z</time></trkpt><trkpt lat="45.8388942" lon="13.8795322"><ele>186.0</ele><time>2026-05-03T11:11:40.544Z</time></trkpt><trkpt lat="45.8389847" lon="13.879535"><ele>186.0</ele><time>2026-05-03T11:11:41.544Z</time></trkpt><trkpt lat="45.8390615" lon="13.8795364"><ele>186.0</ele><time>2026-05-03T11:11:42.545Z</time></trkpt><trkpt lat="45.8391536" lon="13.8795392"><ele>186.0</ele><time>2026-05-03T11:11:43.544Z</time></trkpt><trkpt lat="45.8392483" lon="13.8795473"><ele>186.0</ele><time>2026-05-03T11:11:44.544Z</time></trkpt><trkpt lat="45.839338" lon="13.8795639"><ele>186.0</ele><time>2026-05-03T11:11:45.544Z</time></trkpt><trkpt lat="45.8394201" lon="13.8795894"><ele>186.0</ele><time>2026-05-03T11:11:46.544Z</time></trkpt><trkpt lat="45.8395098" lon="13.8796147"><ele>187.4</ele><time>2026-05-03T11:11:47.545Z</time></trkpt><trkpt lat="45.8396" lon="13.8796403"><ele>188.8</ele><time>2026-05-03T11:11:48.544Z</time></trkpt><trkpt lat="45.8397009" lon="13.8796625"><ele>190.20000000000002</ele><time>2026-05-03T11:11:49.544Z</time></trkpt><trkpt lat="45.8397977" lon="13.8796748"><ele>191.60000000000002</ele><time>2026-05-03T11:11:50.545Z</time></trkpt><trkpt lat="45.8398896" lon="13.8796936"><ele>193.0</ele><time>2026-05-03T11:11:51.545Z</time></trkpt><trkpt lat="45.8399852" lon="13.8797101"><ele>193.0</ele><time>2026-05-03T11:11:52.544Z</time></trkpt><trkpt lat="45.8400738" lon="13.8797313"><ele>193.0</ele><time>2026-05-03T11:11:53.544Z</time></trkpt><trkpt lat="45.8401614" lon="13.8797771"><ele>193.0</ele><time>2026-05-03T11:11:54.545Z</time></trkpt><trkpt lat="45.8402527" lon="13.879811"><ele>193.0</ele><time>2026-05-03T11:11:55.544Z</time></trkpt><trkpt lat="45.8403507" lon="13.8798535"><ele>193.0</ele><time>2026-05-03T11:11:56.545Z</time></trkpt><trkpt lat="45.8404482" lon="13.8798939"><ele>193.99999999999997</ele><time>2026-05-03T11:11:57.544Z</time></trkpt><trkpt lat="45.8405438" lon="13.8799247"><ele>195.0</ele><time>2026-05-03T11:11:58.544Z</time></trkpt><trkpt lat="45.8406206" lon="13.8799537"><ele>196.0</ele><time>2026-05-03T11:11:59.545Z</time></trkpt><trkpt lat="45.8406887" lon="13.8799626"><ele>197.0</ele><time>2026-05-03T11:12:00.545Z</time></trkpt><trkpt lat="45.8407522" lon="13.879971"><ele>197.99999999999997</ele><time>2026-05-03T11:12:01.544Z</time></trkpt><trkpt lat="45.8408611" lon="13.8799849"><ele>199.0</ele><time>2026-05-03T11:12:03.544Z</time></trkpt><trkpt lat="45.8409614" lon="13.8800511"><ele>199.66666666666666</ele><time>2026-05-03T11:12:05.545Z</time></trkpt><trkpt lat="45.8410007" lon="13.8801223"><ele>200.33333333333331</ele><time>2026-05-03T11:12:07.544Z</time></trkpt><trkpt lat="45.8410684" lon="13.8801232"><ele>201.0</ele><time>2026-05-03T11:12:09.544Z</time></trkpt><trkpt lat="45.8411775" lon="13.8800049"><ele>201.66666666666669</ele><time>2026-05-03T11:12:11.544Z</time></trkpt><trkpt lat="45.8412425" lon="13.8799438"><ele>202.33333333333334</ele><time>2026-05-03T11:12:12.545Z</time></trkpt><trkpt lat="45.8413054" lon="13.8798831"><ele>203.0</ele><time>2026-05-03T11:12:13.545Z</time></trkpt><trkpt lat="45.8413754" lon="13.8798104"><ele>203.00000000000003</ele><time>2026-05-03T11:12:14.545Z</time></trkpt><trkpt lat="45.8414418" lon="13.8797441"><ele>203.0</ele><time>2026-05-03T11:12:15.545Z</time></trkpt><trkpt lat="45.8414896" lon="13.8796604"><ele>203.0</ele><time>2026-05-03T11:12:16.545Z</time></trkpt><trkpt lat="45.8415687" lon="13.8795981"><ele>203.0</ele><time>2026-05-03T11:12:17.545Z</time></trkpt><trkpt lat="45.841628" lon="13.8795183"><ele>203.00000000000003</ele><time>2026-05-03T11:12:18.545Z</time></trkpt><trkpt lat="45.8416914" lon="13.8794274"><ele>203.0</ele><time>2026-05-03T11:12:19.545Z</time></trkpt><trkpt lat="45.8417474" lon="13.8793239"><ele>205.00000000000003</ele><time>2026-05-03T11:12:20.545Z</time></trkpt><trkpt lat="45.8418091" lon="13.8792325"><ele>207.0</ele><time>2026-05-03T11:12:21.544Z</time></trkpt><trkpt lat="45.8418598" lon="13.8791346"><ele>209.0</ele><time>2026-05-03T11:12:22.544Z</time></trkpt><trkpt lat="45.8419099" lon="13.8790499"><ele>211.0</ele><time>2026-05-03T11:12:23.544Z</time></trkpt><trkpt lat="45.8419749" lon="13.8789717"><ele>213.00000000000003</ele><time>2026-05-03T11:12:24.544Z</time></trkpt><trkpt lat="45.8420485" lon="13.8788956"><ele>215.0</ele><time>2026-05-03T11:12:25.544Z</time></trkpt><trkpt lat="45.8421238" lon="13.8788186"><ele>215.00000000000003</ele><time>2026-05-03T11:12:26.545Z</time></trkpt><trkpt lat="45.842182" lon="13.8787395"><ele>215.0</ele><time>2026-05-03T11:12:27.545Z</time></trkpt><trkpt lat="45.8422247" lon="13.8786387"><ele>215.0</ele><time>2026-05-03T11:12:28.544Z</time></trkpt><trkpt lat="45.8422452" lon="13.8785417"><ele>215.0</ele><time>2026-05-03T11:12:29.545Z</time></trkpt><trkpt lat="45.8422782" lon="13.8784393"><ele>215.00000000000003</ele><time>2026-05-03T11:12:30.544Z</time></trkpt><trkpt lat="45.8423011" lon="13.8783469"><ele>215.0</ele><time>2026-05-03T11:12:31.544Z</time></trkpt><trkpt lat="45.8423397" lon="13.8782269"><ele>214.8</ele><time>2026-05-03T11:12:32.545Z</time></trkpt><trkpt lat="45.8423842" lon="13.8781225"><ele>214.6</ele><time>2026-05-03T11:12:33.544Z</time></trkpt><trkpt lat="45.8424472" lon="13.8780178"><ele>214.39999999999998</ele><time>2026-05-03T11:12:34.544Z</time></trkpt><trkpt lat="45.8425185" lon="13.8779097"><ele>214.2</ele><time>2026-05-03T11:12:36.545Z</time></trkpt><trkpt lat="45.8426535" lon="13.8778957"><ele>214.0</ele><time>2026-05-03T11:12:38.545Z</time></trkpt><trkpt lat="45.8427583" lon="13.8779421"><ele>216.83333333333331</ele><time>2026-05-03T11:12:40.544Z</time></trkpt><trkpt lat="45.8428391" lon="13.8779892"><ele>219.66666666666666</ele><time>2026-05-03T11:12:41.545Z</time></trkpt><trkpt lat="45.8429092" lon="13.8780235"><ele>222.5</ele><time>2026-05-03T11:12:42.544Z</time></trkpt><trkpt lat="45.842982" lon="13.8779662"><ele>225.33333333333331</ele><time>2026-05-03T11:12:44.545Z</time></trkpt><trkpt lat="45.8430248" lon="13.877869"><ele>228.16666666666666</ele><time>2026-05-03T11:12:46.545Z</time></trkpt><trkpt lat="45.8430345" lon="13.8777672"><ele>231.0</ele><time>2026-05-03T11:12:47.544Z</time></trkpt><trkpt lat="45.8430398" lon="13.8776655"><ele>231.0</ele><time>2026-05-03T11:12:48.544Z</time></trkpt><trkpt lat="45.8430975" lon="13.877602"><ele>231.00000000000003</ele><time>2026-05-03T11:12:49.545Z</time></trkpt><trkpt lat="45.8431899" lon="13.8774673"><ele>231.00000000000003</ele><time>2026-05-03T11:12:51.545Z</time></trkpt><trkpt lat="45.8433105" lon="13.8773007"><ele>231.0</ele><time>2026-05-03T11:12:53.545Z</time></trkpt><trkpt lat="45.8433671" lon="13.8772313"><ele>231.0</ele><time>2026-05-03T11:12:54.545Z</time></trkpt><trkpt lat="45.8434267" lon="13.8771482"><ele>234.66666666666666</ele><time>2026-05-03T11:12:55.544Z</time></trkpt><trkpt lat="45.8434839" lon="13.8770769"><ele>238.33333333333331</ele><time>2026-05-03T11:12:56.545Z</time></trkpt><trkpt lat="45.8435577" lon="13.876975"><ele>242.0</ele><time>2026-05-03T11:12:57.545Z</time></trkpt><trkpt lat="45.8436184" lon="13.8768941"><ele>245.66666666666666</ele><time>2026-05-03T11:12:58.545Z</time></trkpt><trkpt lat="45.843668" lon="13.8767791"><ele>249.33333333333331</ele><time>2026-05-03T11:12:59.545Z</time></trkpt><trkpt lat="45.8437207" lon="13.8766873"><ele>253.0</ele><time>2026-05-03T11:13:00.545Z</time></trkpt><trkpt lat="45.8438179" lon="13.8766915"><ele>253.16666666666666</ele><time>2026-05-03T11:13:01.544Z</time></trkpt><trkpt lat="45.8438796" lon="13.8766231"><ele>253.33333333333331</ele><time>2026-05-03T11:13:02.544Z</time></trkpt><trkpt lat="45.8439406" lon="13.8765554"><ele>253.5</ele><time>2026-05-03T11:13:03.544Z</time></trkpt><trkpt lat="45.843978" lon="13.8764499"><ele>253.66666666666669</ele><time>2026-05-03T11:13:04.545Z</time></trkpt><trkpt lat="45.8440351" lon="13.876328"><ele>253.83333333333334</ele><time>2026-05-03T11:13:05.544Z</time></trkpt><trkpt lat="45.8440785" lon="13.8762188"><ele>254.0</ele><time>2026-05-03T11:13:06.544Z</time></trkpt><trkpt lat="45.8441504" lon="13.8761161"><ele>254.0</ele><time>2026-05-03T11:13:07.545Z</time></trkpt><trkpt lat="45.8442002" lon="13.8760078"><ele>253.99999999999997</ele><time>2026-05-03T11:13:08.545Z</time></trkpt><trkpt lat="45.844253" lon="13.8758376"><ele>253.99999999999997</ele><time>2026-05-03T11:13:09.545Z</time></trkpt><trkpt lat="45.8443024" lon="13.8757139"><ele>254.0</ele><time>2026-05-03T11:13:10.545Z</time></trkpt><trkpt lat="45.8443222" lon="13.8755906"><ele>254.0</ele><time>2026-05-03T11:13:12.545Z</time></trkpt><trkpt lat="45.8444014" lon="13.8755654"><ele>258.2</ele><time>2026-05-03T11:13:26.544Z</time></trkpt><trkpt lat="45.8444122" lon="13.8756755"><ele>262.4</ele><time>2026-05-03T11:13:27.545Z</time></trkpt><trkpt lat="45.8444399" lon="13.8758059"><ele>266.6</ele><time>2026-05-03T11:13:29.545Z</time></trkpt><trkpt lat="45.8445089" lon="13.8759362"><ele>270.8</ele><time>2026-05-03T11:13:31.545Z</time></trkpt><trkpt lat="45.8446067" lon="13.8760166"><ele>275.0</ele><time>2026-05-03T11:13:33.545Z</time></trkpt><trkpt lat="45.8446633" lon="13.8760855"><ele>275.33333333333337</ele><time>2026-05-03T11:13:35.545Z</time></trkpt><trkpt lat="45.844692" lon="13.876204"><ele>275.6666666666667</ele><time>2026-05-03T11:13:36.545Z</time></trkpt><trkpt lat="45.8447515" lon="13.8763751"><ele>276.0</ele><time>2026-05-03T11:13:38.544Z</time></trkpt><trkpt lat="45.8447711" lon="13.8764629"><ele>276.3333333333333</ele><time>2026-05-03T11:13:39.544Z</time></trkpt><trkpt lat="45.8447905" lon="13.8765592"><ele>276.66666666666663</ele><time>2026-05-03T11:13:40.544Z</time></trkpt><trkpt lat="45.8448088" lon="13.8766518"><ele>277.0</ele><time>2026-05-03T11:13:41.545Z</time></trkpt><trkpt lat="45.8448259" lon="13.8767716"><ele>277.0</ele><time>2026-05-03T11:13:42.545Z</time></trkpt><trkpt lat="45.8448419" lon="13.8768666"><ele>277.0</ele><time>2026-05-03T11:13:43.544Z</time></trkpt><trkpt lat="45.8449088" lon="13.8769381"><ele>277.0</ele><time>2026-05-03T11:13:44.544Z</time></trkpt><trkpt lat="45.844949" lon="13.8770278"><ele>277.0</ele><time>2026-05-03T11:13:45.545Z</time></trkpt><trkpt lat="45.8450411" lon="13.8771377"><ele>277.0</ele><time>2026-05-03T11:13:46.545Z</time></trkpt><trkpt lat="45.8451429" lon="13.8772298"><ele>281.8333333333333</ele><time>2026-05-03T11:13:47.544Z</time></trkpt><trkpt lat="45.8451999" lon="13.8773269"><ele>286.66666666666663</ele><time>2026-05-03T11:13:48.545Z</time></trkpt><trkpt lat="45.8452685" lon="13.8774212"><ele>291.5</ele><time>2026-05-03T11:13:49.544Z</time></trkpt><trkpt lat="45.8453315" lon="13.8775207"><ele>296.3333333333333</ele><time>2026-05-03T11:13:50.545Z</time></trkpt><trkpt lat="45.8453973" lon="13.877602"><ele>301.1666666666667</ele><time>2026-05-03T11:13:51.545Z</time></trkpt><trkpt lat="45.8454636" lon="13.8776782"><ele>306.0</ele><time>2026-05-03T11:13:52.545Z</time></trkpt><trkpt lat="45.8454972" lon="13.8777668"><ele>306.0</ele><time>2026-05-03T11:13:53.545Z</time></trkpt><trkpt lat="45.8455348" lon="13.8778656"><ele>306.0</ele><time>2026-05-03T11:13:54.545Z</time></trkpt><trkpt lat="45.8455535" lon="13.8779765"><ele>306.0</ele><time>2026-05-03T11:13:55.545Z</time></trkpt><trkpt lat="45.8455857" lon="13.8780802"><ele>306.0</ele><time>2026-05-03T11:13:56.545Z</time></trkpt><trkpt lat="45.8456151" lon="13.8781765"><ele>306.0</ele><time>2026-05-03T11:13:57.545Z</time></trkpt><trkpt lat="45.8456374" lon="13.8782813"><ele>306.0</ele><time>2026-05-03T11:13:58.544Z</time></trkpt><trkpt lat="45.8456676" lon="13.8783997"><ele>306.3333333333333</ele><time>2026-05-03T11:13:59.545Z</time></trkpt><trkpt lat="45.8456826" lon="13.8785189"><ele>306.6666666666667</ele><time>2026-05-03T11:14:00.544Z</time></trkpt><trkpt lat="45.8457044" lon="13.8786351"><ele>307.0</ele><time>2026-05-03T11:14:01.544Z</time></trkpt><trkpt lat="45.8457093" lon="13.8787617"><ele>307.33333333333337</ele><time>2026-05-03T11:14:02.545Z</time></trkpt><trkpt lat="45.8457175" lon="13.8788903"><ele>307.6666666666667</ele><time>2026-05-03T11:14:03.545Z</time></trkpt><trkpt lat="45.8457246" lon="13.8790207"><ele>308.0</ele><time>2026-05-03T11:14:04.544Z</time></trkpt><trkpt lat="45.8457546" lon="13.8791441"><ele>308.0</ele><time>2026-05-03T11:14:05.545Z</time></trkpt><trkpt lat="45.8457718" lon="13.8792492"><ele>308.0</ele><time>2026-05-03T11:14:06.544Z</time></trkpt><trkpt lat="45.84579" lon="13.8793737"><ele>308.0</ele><time>2026-05-03T11:14:07.545Z</time></trkpt><trkpt lat="45.8458136" lon="13.8794667"><ele>308.0</ele><time>2026-05-03T11:14:08.544Z</time></trkpt><trkpt lat="45.8458406" lon="13.8795596"><ele>308.0</ele><time>2026-05-03T11:14:09.544Z</time></trkpt><trkpt lat="45.8458619" lon="13.8796728"><ele>308.0</ele><time>2026-05-03T11:14:10.544Z</time></trkpt><trkpt lat="45.8458969" lon="13.8797516"><ele>306.8</ele><time>2026-05-03T11:14:11.545Z</time></trkpt><trkpt lat="45.8459565" lon="13.8798552"><ele>305.6</ele><time>2026-05-03T11:14:12.545Z</time></trkpt><trkpt lat="45.8460134" lon="13.8799572"><ele>304.4</ele><time>2026-05-03T11:14:13.544Z</time></trkpt><trkpt lat="45.8460734" lon="13.8800467"><ele>303.2</ele><time>2026-05-03T11:14:14.545Z</time></trkpt><trkpt lat="45.8461708" lon="13.8802414"><ele>302.0</ele><time>2026-05-03T11:14:16.545Z</time></trkpt><trkpt lat="45.8462082" lon="13.8803199"><ele>305.1666666666667</ele><time>2026-05-03T11:14:17.544Z</time></trkpt><trkpt lat="45.8462528" lon="13.8804088"><ele>308.33333333333337</ele><time>2026-05-03T11:14:18.536Z</time></trkpt><trkpt lat="45.8463076" lon="13.8804834"><ele>311.5</ele><time>2026-05-03T11:14:21.544Z</time></trkpt><trkpt lat="45.8463625" lon="13.880531"><ele>314.6666666666667</ele><time>2026-05-03T11:14:23.544Z</time></trkpt><trkpt lat="45.8464209" lon="13.8805803"><ele>317.8333333333333</ele><time>2026-05-03T11:14:24.544Z</time></trkpt><trkpt lat="45.84652" lon="13.8806357"><ele>321.0</ele><time>2026-05-03T11:14:26.543Z</time></trkpt><trkpt lat="45.8465811" lon="13.8807095"><ele>321.0</ele><time>2026-05-03T11:14:27.544Z</time></trkpt><trkpt lat="45.8466523" lon="13.8807535"><ele>321.0</ele><time>2026-05-03T11:14:28.543Z</time></trkpt><trkpt lat="45.8467301" lon="13.8808042"><ele>321.0</ele><time>2026-05-03T11:14:29.543Z</time></trkpt><trkpt lat="45.8467911" lon="13.8808272"><ele>321.0</ele><time>2026-05-03T11:14:30.543Z</time></trkpt><trkpt lat="45.8468719" lon="13.880852"><ele>321.0</ele><time>2026-05-03T11:14:31.544Z</time></trkpt><trkpt lat="45.8469442" lon="13.8808621"><ele>321.0</ele><time>2026-05-03T11:14:32.543Z</time></trkpt><trkpt lat="45.8470172" lon="13.8808717"><ele>323.1666666666667</ele><time>2026-05-03T11:14:33.544Z</time></trkpt><trkpt lat="45.8471165" lon="13.8809449"><ele>325.3333333333333</ele><time>2026-05-03T11:14:35.543Z</time></trkpt><trkpt lat="45.8471572" lon="13.8810245"><ele>327.5</ele><time>2026-05-03T11:14:36.544Z</time></trkpt><trkpt lat="45.8472069" lon="13.881105"><ele>329.66666666666663</ele><time>2026-05-03T11:14:37.544Z</time></trkpt><trkpt lat="45.8472554" lon="13.8811982"><ele>331.8333333333333</ele><time>2026-05-03T11:14:38.543Z</time></trkpt><trkpt lat="45.8473165" lon="13.8812711"><ele>334.0</ele><time>2026-05-03T11:14:39.544Z</time></trkpt><trkpt lat="45.8473674" lon="13.8813432"><ele>334.0</ele><time>2026-05-03T11:14:40.544Z</time></trkpt><trkpt lat="45.8474717" lon="13.8814529"><ele>334.0</ele><time>2026-05-03T11:14:42.543Z</time></trkpt><trkpt lat="45.8475314" lon="13.8815078"><ele>334.0</ele><time>2026-05-03T11:14:43.543Z</time></trkpt><trkpt lat="45.8476065" lon="13.8816194"><ele>334.0</ele><time>2026-05-03T11:14:45.544Z</time></trkpt><trkpt lat="45.8476792" lon="13.881703"><ele>334.0</ele><time>2026-05-03T11:14:47.544Z</time></trkpt><trkpt lat="45.847716" lon="13.8818469"><ele>336.5</ele><time>2026-05-03T11:14:49.544Z</time></trkpt><trkpt lat="45.8478006" lon="13.8819464"><ele>339.0</ele><time>2026-05-03T11:14:51.544Z</time></trkpt><trkpt lat="45.8478566" lon="13.8819925"><ele>341.5</ele><time>2026-05-03T11:14:52.544Z</time></trkpt><trkpt lat="45.8479257" lon="13.8820411"><ele>344.0</ele><time>2026-05-03T11:14:53.544Z</time></trkpt><trkpt lat="45.8480173" lon="13.8821101"><ele>346.5</ele><time>2026-05-03T11:14:55.544Z</time></trkpt><trkpt lat="45.8480312" lon="13.8822055"><ele>349.0</ele><time>2026-05-03T11:15:07.543Z</time></trkpt><trkpt lat="45.8479584" lon="13.8822559"><ele>349.0</ele><time>2026-05-03T11:15:09.543Z</time></trkpt><trkpt lat="45.8479096" lon="13.8823365"><ele>349.0</ele><time>2026-05-03T11:15:12.543Z</time></trkpt><trkpt lat="45.8479893" lon="13.8822782"><ele>349.0</ele><time>2026-05-03T11:15:44.544Z</time></trkpt><trkpt lat="45.8480672" lon="13.8822563"><ele>349.0</ele><time>2026-05-03T11:15:46.543Z</time></trkpt><trkpt lat="45.848122" lon="13.882205"><ele>349.0</ele><time>2026-05-03T11:15:49.544Z</time></trkpt><trkpt lat="45.848184" lon="13.8821188"><ele>349.0</ele><time>2026-05-03T11:15:52.543Z</time></trkpt><trkpt lat="45.848188" lon="13.8820108"><ele>349.0</ele><time>2026-05-03T11:15:53.544Z</time></trkpt><trkpt lat="45.8482569" lon="13.8819194"><ele>349.0</ele><time>2026-05-03T11:15:55.544Z</time></trkpt><trkpt lat="45.8483496" lon="13.8818153"><ele>349.0</ele><time>2026-05-03T11:15:57.544Z</time></trkpt><trkpt lat="45.8484611" lon="13.8818326"><ele>349.0</ele><time>2026-05-03T11:16:01.543Z</time></trkpt><trkpt lat="45.8484758" lon="13.8820032"><ele>349.0</ele><time>2026-05-03T11:16:03.544Z</time></trkpt><trkpt lat="45.8484674" lon="13.8821095"><ele>348.66666666666663</ele><time>2026-05-03T11:16:04.544Z</time></trkpt><trkpt lat="45.8484835" lon="13.8822311"><ele>348.3333333333333</ele><time>2026-05-03T11:16:05.544Z</time></trkpt><trkpt lat="45.8484816" lon="13.8823399"><ele>348.0</ele><time>2026-05-03T11:16:06.544Z</time></trkpt><trkpt lat="45.8484748" lon="13.8824535"><ele>347.6666666666667</ele><time>2026-05-03T11:16:07.543Z</time></trkpt><trkpt lat="45.8484632" lon="13.8825725"><ele>347.33333333333337</ele><time>2026-05-03T11:16:08.543Z</time></trkpt><trkpt lat="45.848462" lon="13.8826988"><ele>347.0</ele><time>2026-05-03T11:16:09.544Z</time></trkpt><trkpt lat="45.848443" lon="13.882825"><ele>347.0</ele><time>2026-05-03T11:16:10.544Z</time></trkpt><trkpt lat="45.8484291" lon="13.8829519"><ele>347.0</ele><time>2026-05-03T11:16:11.544Z</time></trkpt><trkpt lat="45.8484384" lon="13.8830718"><ele>347.0</ele><time>2026-05-03T11:16:12.543Z</time></trkpt><trkpt lat="45.8484274" lon="13.8831996"><ele>347.0</ele><time>2026-05-03T11:16:13.544Z</time></trkpt><trkpt lat="45.8484563" lon="13.8833385"><ele>347.0</ele><time>2026-05-03T11:16:14.544Z</time></trkpt><trkpt lat="45.8484577" lon="13.8834679"><ele>346.0</ele><time>2026-05-03T11:16:15.543Z</time></trkpt><trkpt lat="45.8484628" lon="13.8835997"><ele>345.0</ele><time>2026-05-03T11:16:16.543Z</time></trkpt><trkpt lat="45.8484553" lon="13.8837175"><ele>344.0</ele><time>2026-05-03T11:16:17.543Z</time></trkpt><trkpt lat="45.8484515" lon="13.8838234"><ele>343.0</ele><time>2026-05-03T11:16:18.544Z</time></trkpt><trkpt lat="45.8484969" lon="13.8839687"><ele>342.0</ele><time>2026-05-03T11:16:19.543Z</time></trkpt><trkpt lat="45.8485139" lon="13.8840793"><ele>341.0</ele><time>2026-05-03T11:16:20.543Z</time></trkpt><trkpt lat="45.8485517" lon="13.8841824"><ele>337.8</ele><time>2026-05-03T11:16:21.544Z</time></trkpt><trkpt lat="45.8485882" lon="13.8842905"><ele>334.6</ele><time>2026-05-03T11:16:22.543Z</time></trkpt><trkpt lat="45.848582" lon="13.8844379"><ele>331.4</ele><time>2026-05-03T11:16:23.544Z</time></trkpt><trkpt lat="45.848662" lon="13.884554"><ele>328.2</ele><time>2026-05-03T11:16:24.544Z</time></trkpt><trkpt lat="45.8486747" lon="13.8846774"><ele>325.0</ele><time>2026-05-03T11:16:25.543Z</time></trkpt><trkpt lat="45.8487549" lon="13.8848237"><ele>325.0</ele><time>2026-05-03T11:16:26.544Z</time></trkpt><trkpt lat="45.8487992" lon="13.8849186"><ele>325.0</ele><time>2026-05-03T11:16:27.544Z</time></trkpt><trkpt lat="45.8488371" lon="13.8850447"><ele>325.0</ele><time>2026-05-03T11:16:28.543Z</time></trkpt><trkpt lat="45.8488771" lon="13.8851688"><ele>325.0</ele><time>2026-05-03T11:16:29.544Z</time></trkpt><trkpt lat="45.8489215" lon="13.8852852"><ele>325.0</ele><time>2026-05-03T11:16:30.544Z</time></trkpt><trkpt lat="45.8489599" lon="13.8854162"><ele>325.0</ele><time>2026-05-03T11:16:31.544Z</time></trkpt><trkpt lat="45.8489994" lon="13.8855322"><ele>325.0</ele><time>2026-05-03T11:16:32.543Z</time></trkpt><trkpt lat="45.8490421" lon="13.8856391"><ele>325.0</ele><time>2026-05-03T11:16:33.543Z</time></trkpt><trkpt lat="45.8490795" lon="13.8857606"><ele>325.0</ele><time>2026-05-03T11:16:34.543Z</time></trkpt><trkpt lat="45.8490984" lon="13.8858643"><ele>325.0</ele><time>2026-05-03T11:16:35.543Z</time></trkpt><trkpt lat="45.8491102" lon="13.8859688"><ele>325.0</ele><time>2026-05-03T11:16:36.543Z</time></trkpt><trkpt lat="45.8491352" lon="13.8860886"><ele>325.0</ele><time>2026-05-03T11:16:37.543Z</time></trkpt><trkpt lat="45.8491526" lon="13.8861904"><ele>325.0</ele><time>2026-05-03T11:16:38.544Z</time></trkpt><trkpt lat="45.8492173" lon="13.8862393"><ele>325.0</ele><time>2026-05-03T11:16:39.543Z</time></trkpt><trkpt lat="45.8492445" lon="13.8863237"><ele>325.0</ele><time>2026-05-03T11:16:40.543Z</time></trkpt><trkpt lat="45.8492686" lon="13.8864148"><ele>325.0</ele><time>2026-05-03T11:16:41.543Z</time></trkpt><trkpt lat="45.849311" lon="13.8864845"><ele>325.0</ele><time>2026-05-03T11:16:42.543Z</time></trkpt><trkpt lat="45.8492812" lon="13.8865796"><ele>325.0</ele><time>2026-05-03T11:16:43.544Z</time></trkpt><trkpt lat="45.8493043" lon="13.8866721"><ele>324.3333333333333</ele><time>2026-05-03T11:16:44.544Z</time></trkpt><trkpt lat="45.849346" lon="13.8867624"><ele>323.66666666666663</ele><time>2026-05-03T11:16:45.543Z</time></trkpt><trkpt lat="45.8493916" lon="13.8868495"><ele>323.0</ele><time>2026-05-03T11:16:46.544Z</time></trkpt><trkpt lat="45.8494571" lon="13.886914"><ele>322.3333333333333</ele><time>2026-05-03T11:16:47.544Z</time></trkpt><trkpt lat="45.849534" lon="13.8869527"><ele>321.6666666666667</ele><time>2026-05-03T11:16:48.544Z</time></trkpt><trkpt lat="45.8496087" lon="13.8869882"><ele>321.0</ele><time>2026-05-03T11:16:49.544Z</time></trkpt><trkpt lat="45.8497208" lon="13.886996"><ele>321.0</ele><time>2026-05-03T11:16:50.543Z</time></trkpt><trkpt lat="45.8498137" lon="13.8870502"><ele>321.0</ele><time>2026-05-03T11:16:51.544Z</time></trkpt><trkpt lat="45.849902" lon="13.8870884"><ele>321.0</ele><time>2026-05-03T11:16:52.544Z</time></trkpt><trkpt lat="45.8500023" lon="13.8871156"><ele>321.0</ele><time>2026-05-03T11:16:53.543Z</time></trkpt><trkpt lat="45.8500965" lon="13.8871435"><ele>321.0</ele><time>2026-05-03T11:16:54.543Z</time></trkpt><trkpt lat="45.8501846" lon="13.8871833"><ele>320.1666666666667</ele><time>2026-05-03T11:16:55.543Z</time></trkpt><trkpt lat="45.8502513" lon="13.8872266"><ele>319.3333333333333</ele><time>2026-05-03T11:16:56.544Z</time></trkpt><trkpt lat="45.8503057" lon="13.8872983"><ele>318.5</ele><time>2026-05-03T11:16:57.543Z</time></trkpt><trkpt lat="45.8503514" lon="13.8874092"><ele>317.66666666666663</ele><time>2026-05-03T11:16:58.544Z</time></trkpt><trkpt lat="45.850387" lon="13.8875341"><ele>316.8333333333333</ele><time>2026-05-03T11:16:59.544Z</time></trkpt><trkpt lat="45.8504254" lon="13.8876624"><ele>316.0</ele><time>2026-05-03T11:17:00.544Z</time></trkpt><trkpt lat="45.8504638" lon="13.8877952"><ele>315.66666666666663</ele><time>2026-05-03T11:17:01.543Z</time></trkpt><trkpt lat="45.850493" lon="13.8878883"><ele>315.3333333333333</ele><time>2026-05-03T11:17:02.544Z</time></trkpt><trkpt lat="45.8505252" lon="13.887998"><ele>315.0</ele><time>2026-05-03T11:17:03.543Z</time></trkpt><trkpt lat="45.8505125" lon="13.8881187"><ele>314.6666666666667</ele><time>2026-05-03T11:17:04.544Z</time></trkpt><trkpt lat="45.850514" lon="13.88823"><ele>314.33333333333337</ele><time>2026-05-03T11:17:05.544Z</time></trkpt><trkpt lat="45.8505491" lon="13.8883417"><ele>314.0</ele><time>2026-05-03T11:17:06.544Z</time></trkpt><trkpt lat="45.8505504" lon="13.8884858"><ele>313.33333333333337</ele><time>2026-05-03T11:17:07.543Z</time></trkpt><trkpt lat="45.8505727" lon="13.888574"><ele>312.6666666666667</ele><time>2026-05-03T11:17:08.543Z</time></trkpt><trkpt lat="45.8505417" lon="13.8887358"><ele>312.0</ele><time>2026-05-03T11:17:10.543Z</time></trkpt><trkpt lat="45.850502" lon="13.8888594"><ele>311.3333333333333</ele><time>2026-05-03T11:17:11.544Z</time></trkpt><trkpt lat="45.8504622" lon="13.8889663"><ele>310.66666666666663</ele><time>2026-05-03T11:17:12.543Z</time></trkpt><trkpt lat="45.8503831" lon="13.8889962"><ele>310.0</ele><time>2026-05-03T11:17:13.544Z</time></trkpt><trkpt lat="45.8503386" lon="13.889071"><ele>310.0</ele><time>2026-05-03T11:17:14.544Z</time></trkpt><trkpt lat="45.8502031" lon="13.8891305"><ele>310.0</ele><time>2026-05-03T11:17:15.543Z</time></trkpt><trkpt lat="45.850134" lon="13.8892003"><ele>310.0</ele><time>2026-05-03T11:17:16.544Z</time></trkpt><trkpt lat="45.8500268" lon="13.8892405"><ele>310.0</ele><time>2026-05-03T11:17:18.544Z</time></trkpt><trkpt lat="45.8499391" lon="13.8893053"><ele>310.0</ele><time>2026-05-03T11:17:19.544Z</time></trkpt><trkpt lat="45.8499186" lon="13.8894021"><ele>311.0</ele><time>2026-05-03T11:17:20.544Z</time></trkpt><trkpt lat="45.8498689" lon="13.8894942"><ele>312.0</ele><time>2026-05-03T11:17:21.544Z</time></trkpt><trkpt lat="45.8498464" lon="13.8896027"><ele>313.0</ele><time>2026-05-03T11:17:23.544Z</time></trkpt><trkpt lat="45.8499198" lon="13.8896173"><ele>314.0</ele><time>2026-05-03T11:17:24.543Z</time></trkpt><trkpt lat="45.850056" lon="13.8896034"><ele>315.0</ele><time>2026-05-03T11:17:26.543Z</time></trkpt><trkpt lat="45.8501472" lon="13.8895882"><ele>315.0</ele><time>2026-05-03T11:17:27.543Z</time></trkpt><trkpt lat="45.8502916" lon="13.8896325"><ele>315.0</ele><time>2026-05-03T11:17:29.544Z</time></trkpt><trkpt lat="45.8503807" lon="13.8896713"><ele>315.0</ele><time>2026-05-03T11:17:30.544Z</time></trkpt><trkpt lat="45.8504657" lon="13.8897065"><ele>315.0</ele><time>2026-05-03T11:17:31.543Z</time></trkpt><trkpt lat="45.8505449" lon="13.8897198"><ele>315.0</ele><time>2026-05-03T11:17:32.543Z</time></trkpt><trkpt lat="45.8506409" lon="13.8898024"><ele>315.0</ele><time>2026-05-03T11:17:34.543Z</time></trkpt><trkpt lat="45.850695" lon="13.8899725"><ele>315.0</ele><time>2026-05-03T11:17:36.544Z</time></trkpt><trkpt lat="45.8507284" lon="13.8900617"><ele>315.0</ele><time>2026-05-03T11:17:37.544Z</time></trkpt><trkpt lat="45.8507994" lon="13.8902056"><ele>315.0</ele><time>2026-05-03T11:17:39.543Z</time></trkpt><trkpt lat="45.850832" lon="13.8902952"><ele>315.0</ele><time>2026-05-03T11:17:40.543Z</time></trkpt><trkpt lat="45.8508653" lon="13.890381"><ele>315.0</ele><time>2026-05-03T11:17:41.543Z</time></trkpt><trkpt lat="45.8508993" lon="13.8905042"><ele>315.0</ele><time>2026-05-03T11:17:42.544Z</time></trkpt><trkpt lat="45.8509317" lon="13.8906175"><ele>315.0</ele><time>2026-05-03T11:17:43.543Z</time></trkpt><trkpt lat="45.8509757" lon="13.8907447"><ele>315.0</ele><time>2026-05-03T11:17:44.544Z</time></trkpt><trkpt lat="45.851" lon="13.8908767"><ele>315.0</ele><time>2026-05-03T11:17:45.543Z</time></trkpt><trkpt lat="45.8510297" lon="13.891001"><ele>312.4</ele><time>2026-05-03T11:17:46.544Z</time></trkpt><trkpt lat="45.8510712" lon="13.8911623"><ele>309.8</ele><time>2026-05-03T11:17:47.544Z</time></trkpt><trkpt lat="45.8511111" lon="13.8912956"><ele>307.2</ele><time>2026-05-03T11:17:48.544Z</time></trkpt><trkpt lat="45.8511614" lon="13.8914167"><ele>304.6</ele><time>2026-05-03T11:17:49.544Z</time></trkpt><trkpt lat="45.8512077" lon="13.891546"><ele>302.0</ele><time>2026-05-03T11:17:50.544Z</time></trkpt><trkpt lat="45.8512357" lon="13.8916401"><ele>302.0</ele><time>2026-05-03T11:17:51.543Z</time></trkpt><trkpt lat="45.8512881" lon="13.89175"><ele>302.0</ele><time>2026-05-03T11:17:52.543Z</time></trkpt><trkpt lat="45.8513142" lon="13.89184"><ele>302.0</ele><time>2026-05-03T11:17:53.543Z</time></trkpt><trkpt lat="45.8513514" lon="13.8919525"><ele>302.0</ele><time>2026-05-03T11:17:54.544Z</time></trkpt><trkpt lat="45.8513944" lon="13.8920602"><ele>302.0</ele><time>2026-05-03T11:17:55.544Z</time></trkpt><trkpt lat="45.8514297" lon="13.8921803"><ele>302.0</ele><time>2026-05-03T11:17:56.544Z</time></trkpt><trkpt lat="45.8514657" lon="13.892288"><ele>302.8</ele><time>2026-05-03T11:17:57.544Z</time></trkpt><trkpt lat="45.8515007" lon="13.8924146"><ele>303.6</ele><time>2026-05-03T11:17:58.544Z</time></trkpt><trkpt lat="45.851505" lon="13.8925824"><ele>304.40000000000003</ele><time>2026-05-03T11:17:59.544Z</time></trkpt><trkpt lat="45.8515216" lon="13.8927308"><ele>305.2</ele><time>2026-05-03T11:18:00.543Z</time></trkpt><trkpt lat="45.851542" lon="13.8928949"><ele>306.0</ele><time>2026-05-03T11:18:01.543Z</time></trkpt><trkpt lat="45.85156" lon="13.893042"><ele>306.0</ele><time>2026-05-03T11:18:02.544Z</time></trkpt><trkpt lat="45.8516183" lon="13.893216"><ele>306.0</ele><time>2026-05-03T11:18:03.544Z</time></trkpt><trkpt lat="45.8516468" lon="13.8933675"><ele>306.0</ele><time>2026-05-03T11:18:04.544Z</time></trkpt><trkpt lat="45.8517044" lon="13.8934362"><ele>306.0</ele><time>2026-05-03T11:18:05.544Z</time></trkpt><trkpt lat="45.8517523" lon="13.893568"><ele>306.0</ele><time>2026-05-03T11:18:06.544Z</time></trkpt><trkpt lat="45.8517876" lon="13.8936932"><ele>303.8333333333333</ele><time>2026-05-03T11:18:07.544Z</time></trkpt><trkpt lat="45.8518392" lon="13.8938141"><ele>301.6666666666667</ele><time>2026-05-03T11:18:08.544Z</time></trkpt><trkpt lat="45.8518805" lon="13.893931"><ele>299.5</ele><time>2026-05-03T11:18:09.543Z</time></trkpt><trkpt lat="45.8519257" lon="13.8940241"><ele>297.33333333333337</ele><time>2026-05-03T11:18:10.543Z</time></trkpt><trkpt lat="45.8519771" lon="13.8941104"><ele>295.1666666666667</ele><time>2026-05-03T11:18:11.544Z</time></trkpt><trkpt lat="45.8520331" lon="13.8941931"><ele>293.0</ele><time>2026-05-03T11:18:12.543Z</time></trkpt><trkpt lat="45.8520659" lon="13.8942853"><ele>292.8</ele><time>2026-05-03T11:18:13.543Z</time></trkpt><trkpt lat="45.8521098" lon="13.8943869"><ele>292.6</ele><time>2026-05-03T11:18:14.544Z</time></trkpt><trkpt lat="45.8521561" lon="13.8944959"><ele>292.4</ele><time>2026-05-03T11:18:15.544Z</time></trkpt><trkpt lat="45.852195" lon="13.8945952"><ele>292.2</ele><time>2026-05-03T11:18:16.543Z</time></trkpt><trkpt lat="45.8522323" lon="13.8946792"><ele>292.0</ele><time>2026-05-03T11:18:17.544Z</time></trkpt><trkpt lat="45.8522767" lon="13.8948689"><ele>292.0</ele><time>2026-05-03T11:18:19.543Z</time></trkpt><trkpt lat="45.852293" lon="13.8949728"><ele>292.0</ele><time>2026-05-03T11:18:20.543Z</time></trkpt><trkpt lat="45.8522899" lon="13.8951117"><ele>292.0</ele><time>2026-05-03T11:18:21.543Z</time></trkpt><trkpt lat="45.852297" lon="13.8952336"><ele>292.0</ele><time>2026-05-03T11:18:22.543Z</time></trkpt><trkpt lat="45.852284" lon="13.8953767"><ele>292.0</ele><time>2026-05-03T11:18:23.544Z</time></trkpt><trkpt lat="45.8522557" lon="13.895547"><ele>290.8</ele><time>2026-05-03T11:18:25.543Z</time></trkpt><trkpt lat="45.852234" lon="13.8957226"><ele>289.6</ele><time>2026-05-03T11:18:27.544Z</time></trkpt><trkpt lat="45.8522002" lon="13.8958056"><ele>288.40000000000003</ele><time>2026-05-03T11:18:28.543Z</time></trkpt><trkpt lat="45.8521404" lon="13.8959276"><ele>287.2</ele><time>2026-05-03T11:18:29.543Z</time></trkpt><trkpt lat="45.8521019" lon="13.8960319"><ele>286.0</ele><time>2026-05-03T11:18:30.543Z</time></trkpt><trkpt lat="45.8520433" lon="13.8961929"><ele>284.6</ele><time>2026-05-03T11:18:32.543Z</time></trkpt><trkpt lat="45.8520291" lon="13.8962969"><ele>283.20000000000005</ele><time>2026-05-03T11:18:33.544Z</time></trkpt><trkpt lat="45.8520264" lon="13.8964115"><ele>281.79999999999995</ele><time>2026-05-03T11:18:34.544Z</time></trkpt><trkpt lat="45.8520232" lon="13.8965498"><ele>280.4</ele><time>2026-05-03T11:18:35.544Z</time></trkpt><trkpt lat="45.8520676" lon="13.8966499"><ele>279.0</ele><time>2026-05-03T11:18:36.544Z</time></trkpt><trkpt lat="45.852129" lon="13.8967929"><ele>278.2</ele><time>2026-05-03T11:18:37.544Z</time></trkpt><trkpt lat="45.8521802" lon="13.8969118"><ele>277.4</ele><time>2026-05-03T11:18:38.544Z</time></trkpt><trkpt lat="45.8522313" lon="13.8970198"><ele>276.6</ele><time>2026-05-03T11:18:39.544Z</time></trkpt><trkpt lat="45.8522792" lon="13.8971282"><ele>275.8</ele><time>2026-05-03T11:18:40.543Z</time></trkpt><trkpt lat="45.8523203" lon="13.8972493"><ele>275.0</ele><time>2026-05-03T11:18:41.544Z</time></trkpt><trkpt lat="45.8523422" lon="13.8973697"><ele>275.0</ele><time>2026-05-03T11:18:42.544Z</time></trkpt><trkpt lat="45.852353" lon="13.8975108"><ele>275.0</ele><time>2026-05-03T11:18:43.543Z</time></trkpt><trkpt lat="45.8523778" lon="13.8976336"><ele>275.0</ele><time>2026-05-03T11:18:44.544Z</time></trkpt><trkpt lat="45.8524224" lon="13.8977446"><ele>275.0</ele><time>2026-05-03T11:18:45.543Z</time></trkpt><trkpt lat="45.8524843" lon="13.897841"><ele>275.0</ele><time>2026-05-03T11:18:46.543Z</time></trkpt><trkpt lat="45.8525295" lon="13.8979473"><ele>275.1666666666667</ele><time>2026-05-03T11:18:47.543Z</time></trkpt><trkpt lat="45.8526027" lon="13.8980083"><ele>275.33333333333337</ele><time>2026-05-03T11:18:48.544Z</time></trkpt><trkpt lat="45.8526898" lon="13.8980993"><ele>275.5</ele><time>2026-05-03T11:18:50.544Z</time></trkpt><trkpt lat="45.8527521" lon="13.8981251"><ele>275.6666666666667</ele><time>2026-05-03T11:18:51.544Z</time></trkpt><trkpt lat="45.8528223" lon="13.8981121"><ele>275.8333333333333</ele><time>2026-05-03T11:18:53.543Z</time></trkpt><trkpt lat="45.8528685" lon="13.8980506"><ele>276.0</ele><time>2026-05-03T11:18:54.543Z</time></trkpt><trkpt lat="45.8529781" lon="13.8979149"><ele>274.0</ele><time>2026-05-03T11:18:56.544Z</time></trkpt><trkpt lat="45.8530552" lon="13.8978338"><ele>272.0</ele><time>2026-05-03T11:18:57.544Z</time></trkpt><trkpt lat="45.8531558" lon="13.8977917"><ele>270.0</ele><time>2026-05-03T11:18:58.544Z</time></trkpt><trkpt lat="45.8532588" lon="13.8977634"><ele>268.0</ele><time>2026-05-03T11:18:59.544Z</time></trkpt><trkpt lat="45.85334" lon="13.8976999"><ele>266.0</ele><time>2026-05-03T11:19:00.543Z</time></trkpt><trkpt lat="45.8534271" lon="13.897636"><ele>266.0</ele><time>2026-05-03T11:19:01.544Z</time></trkpt><trkpt lat="45.8534902" lon="13.8975588"><ele>266.0</ele><time>2026-05-03T11:19:02.544Z</time></trkpt><trkpt lat="45.8535476" lon="13.8974969"><ele>266.0</ele><time>2026-05-03T11:19:03.544Z</time></trkpt><trkpt lat="45.8536321" lon="13.8975042"><ele>266.0</ele><time>2026-05-03T11:19:04.544Z</time></trkpt><trkpt lat="45.8537418" lon="13.8974687"><ele>266.0</ele><time>2026-05-03T11:19:06.544Z</time></trkpt><trkpt lat="45.8537967" lon="13.8974214"><ele>266.0</ele><time>2026-05-03T11:19:08.544Z</time></trkpt><trkpt lat="45.8538707" lon="13.8973419"><ele>266.0</ele><time>2026-05-03T11:19:10.543Z</time></trkpt><trkpt lat="45.8539471" lon="13.8972171"><ele>266.0</ele><time>2026-05-03T11:19:12.544Z</time></trkpt><trkpt lat="45.8540302" lon="13.897122"><ele>266.0</ele><time>2026-05-03T11:19:14.544Z</time></trkpt><trkpt lat="45.8542157" lon="13.8970458"><ele>266.0</ele><time>2026-05-03T11:19:18.541Z</time></trkpt><trkpt lat="45.854307" lon="13.8970475"><ele>265.6666666666667</ele><time>2026-05-03T11:19:20.541Z</time></trkpt><trkpt lat="45.8543809" lon="13.8970531"><ele>265.33333333333337</ele><time>2026-05-03T11:19:22.547Z</time></trkpt><trkpt lat="45.8544596" lon="13.897149"><ele>265.0</ele><time>2026-05-03T11:19:24.535Z</time></trkpt><trkpt lat="45.8545342" lon="13.8971552"><ele>264.6666666666667</ele><time>2026-05-03T11:19:26.534Z</time></trkpt><trkpt lat="45.8546023" lon="13.8971239"><ele>264.3333333333333</ele><time>2026-05-03T11:19:29.534Z</time></trkpt><trkpt lat="45.8545975" lon="13.8970054"><ele>264.0</ele><time>2026-05-03T11:19:33.534Z</time></trkpt><trkpt lat="45.8545684" lon="13.8969251"><ele>264.0</ele><time>2026-05-03T11:19:36.535Z</time></trkpt><trkpt lat="45.8545256" lon="13.8968144"><ele>264.0</ele><time>2026-05-03T11:19:41.535Z</time></trkpt><trkpt lat="45.8545357" lon="13.8967188"><ele>264.0</ele><time>2026-05-03T11:19:44.534Z</time></trkpt><trkpt lat="45.8545916" lon="13.8967887"><ele>264.0</ele><time>2026-05-03T11:19:52.535Z</time></trkpt><trkpt lat="45.8546262" lon="13.8968778"><ele>264.0</ele><time>2026-05-03T11:19:54.535Z</time></trkpt><trkpt lat="45.8546977" lon="13.8969955"><ele>264.0</ele><time>2026-05-03T11:19:56.535Z</time></trkpt><trkpt lat="45.8546761" lon="13.8971389"><ele>264.0</ele><time>2026-05-03T11:19:58.535Z</time></trkpt><trkpt lat="45.8545693" lon="13.8972224"><ele>264.0</ele><time>2026-05-03T11:20:02.535Z</time></trkpt><trkpt lat="45.8545134" lon="13.8972646"><ele>264.0</ele><time>2026-05-03T11:20:07.534Z</time></trkpt><trkpt lat="45.8544516" lon="13.8973563"><ele>264.0</ele><time>2026-05-03T11:20:10.534Z</time></trkpt><trkpt lat="45.8545" lon="13.8974863"><ele>264.0</ele><time>2026-05-03T11:20:12.535Z</time></trkpt><trkpt lat="45.8545412" lon="13.8976245"><ele>263.6666666666667</ele><time>2026-05-03T11:20:14.535Z</time></trkpt><trkpt lat="45.8546023" lon="13.8977849"><ele>263.3333333333333</ele><time>2026-05-03T11:20:16.535Z</time></trkpt><trkpt lat="45.8546491" lon="13.8978682"><ele>263.0</ele><time>2026-05-03T11:20:17.534Z</time></trkpt><trkpt lat="45.8546881" lon="13.8979658"><ele>262.66666666666663</ele><time>2026-05-03T11:20:18.535Z</time></trkpt><trkpt lat="45.8547232" lon="13.8980553"><ele>262.3333333333333</ele><time>2026-05-03T11:20:19.535Z</time></trkpt><trkpt lat="45.8547646" lon="13.8981549"><ele>262.0</ele><time>2026-05-03T11:20:20.534Z</time></trkpt><trkpt lat="45.854809" lon="13.8982364"><ele>262.0</ele><time>2026-05-03T11:20:21.534Z</time></trkpt><trkpt lat="45.8548629" lon="13.8983228"><ele>262.0</ele><time>2026-05-03T11:20:22.535Z</time></trkpt><trkpt lat="45.8549255" lon="13.8984043"><ele>262.0</ele><time>2026-05-03T11:20:23.535Z</time></trkpt><trkpt lat="45.8549889" lon="13.8984648"><ele>262.0</ele><time>2026-05-03T11:20:24.534Z</time></trkpt><trkpt lat="45.8550494" lon="13.8985166"><ele>262.0</ele><time>2026-05-03T11:20:25.534Z</time></trkpt><trkpt lat="45.8551362" lon="13.8985253"><ele>262.0</ele><time>2026-05-03T11:20:26.535Z</time></trkpt><trkpt lat="45.8552245" lon="13.8985056"><ele>261.16666666666663</ele><time>2026-05-03T11:20:27.535Z</time></trkpt><trkpt lat="45.8552981" lon="13.8984896"><ele>260.3333333333333</ele><time>2026-05-03T11:20:28.534Z</time></trkpt><trkpt lat="45.8553701" lon="13.8984637"><ele>259.5</ele><time>2026-05-03T11:20:29.535Z</time></trkpt><trkpt lat="45.8554342" lon="13.8984399"><ele>258.6666666666667</ele><time>2026-05-03T11:20:30.534Z</time></trkpt><trkpt lat="45.8555024" lon="13.8984201"><ele>257.83333333333337</ele><time>2026-05-03T11:20:31.535Z</time></trkpt><trkpt lat="45.8555669" lon="13.8984079"><ele>257.0</ele><time>2026-05-03T11:20:32.535Z</time></trkpt><trkpt lat="45.8556755" lon="13.8984027"><ele>256.8</ele><time>2026-05-03T11:20:34.534Z</time></trkpt><trkpt lat="45.855743" lon="13.898514"><ele>256.6</ele><time>2026-05-03T11:20:36.535Z</time></trkpt><trkpt lat="45.8557834" lon="13.8986561"><ele>256.40000000000003</ele><time>2026-05-03T11:20:38.535Z</time></trkpt><trkpt lat="45.8557839" lon="13.8987526"><ele>256.2</ele><time>2026-05-03T11:20:39.534Z</time></trkpt><trkpt lat="45.8558162" lon="13.8989246"><ele>256.0</ele><time>2026-05-03T11:20:41.535Z</time></trkpt><trkpt lat="45.855852" lon="13.8990219"><ele>255.99999999999997</ele><time>2026-05-03T11:20:42.535Z</time></trkpt><trkpt lat="45.8558768" lon="13.8991238"><ele>256.0</ele><time>2026-05-03T11:20:43.535Z</time></trkpt><trkpt lat="45.8559138" lon="13.8992313"><ele>256.0</ele><time>2026-05-03T11:20:44.535Z</time></trkpt><trkpt lat="45.8559486" lon="13.8993354"><ele>256.0</ele><time>2026-05-03T11:20:45.535Z</time></trkpt><trkpt lat="45.855978" lon="13.8994488"><ele>255.99999999999997</ele><time>2026-05-03T11:20:46.534Z</time></trkpt><trkpt lat="45.8560095" lon="13.8995696"><ele>256.0</ele><time>2026-05-03T11:20:47.535Z</time></trkpt><trkpt lat="45.8559915" lon="13.899694"><ele>255.60000000000002</ele><time>2026-05-03T11:20:48.535Z</time></trkpt><trkpt lat="45.8560373" lon="13.8998246"><ele>255.20000000000002</ele><time>2026-05-03T11:20:49.535Z</time></trkpt><trkpt lat="45.8561009" lon="13.8999047"><ele>254.79999999999998</ele><time>2026-05-03T11:20:50.535Z</time></trkpt><trkpt lat="45.8561599" lon="13.8999994"><ele>254.39999999999998</ele><time>2026-05-03T11:20:51.535Z</time></trkpt><trkpt lat="45.8562146" lon="13.9000914"><ele>254.0</ele><time>2026-05-03T11:20:52.534Z</time></trkpt><trkpt lat="45.8562659" lon="13.9002155"><ele>254.0</ele><time>2026-05-03T11:20:53.534Z</time></trkpt><trkpt lat="45.8563241" lon="13.9003268"><ele>253.99999999999997</ele><time>2026-05-03T11:20:54.534Z</time></trkpt><trkpt lat="45.8563802" lon="13.9004509"><ele>253.99999999999997</ele><time>2026-05-03T11:20:55.535Z</time></trkpt><trkpt lat="45.8564303" lon="13.9005806"><ele>254.0</ele><time>2026-05-03T11:20:56.534Z</time></trkpt><trkpt lat="45.8564592" lon="13.9007037"><ele>254.0</ele><time>2026-05-03T11:20:57.535Z</time></trkpt><trkpt lat="45.8564804" lon="13.9007905"><ele>254.00000000000003</ele><time>2026-05-03T11:20:58.534Z</time></trkpt><trkpt lat="45.8565086" lon="13.9009034"><ele>254.0</ele><time>2026-05-03T11:20:59.534Z</time></trkpt><trkpt lat="45.8565233" lon="13.9010112"><ele>254.0</ele><time>2026-05-03T11:21:00.535Z</time></trkpt><trkpt lat="45.8565574" lon="13.9011434"><ele>254.0</ele><time>2026-05-03T11:21:01.535Z</time></trkpt><trkpt lat="45.8566159" lon="13.9012742"><ele>254.00000000000003</ele><time>2026-05-03T11:21:02.534Z</time></trkpt><trkpt lat="45.8566638" lon="13.9013656"><ele>254.0</ele><time>2026-05-03T11:21:03.534Z</time></trkpt><trkpt lat="45.856723" lon="13.9014684"><ele>255.33333333333334</ele><time>2026-05-03T11:21:04.534Z</time></trkpt><trkpt lat="45.8567426" lon="13.901586"><ele>256.6666666666667</ele><time>2026-05-03T11:21:05.534Z</time></trkpt><trkpt lat="45.8567791" lon="13.9016943"><ele>258.0</ele><time>2026-05-03T11:21:06.535Z</time></trkpt><trkpt lat="45.8567443" lon="13.9018102"><ele>259.3333333333333</ele><time>2026-05-03T11:21:07.535Z</time></trkpt><trkpt lat="45.8567384" lon="13.9019036"><ele>260.66666666666663</ele><time>2026-05-03T11:21:08.535Z</time></trkpt><trkpt lat="45.8567304" lon="13.9020199"><ele>262.0</ele><time>2026-05-03T11:21:09.534Z</time></trkpt><trkpt lat="45.8567387" lon="13.9021235"><ele>262.4</ele><time>2026-05-03T11:21:10.534Z</time></trkpt><trkpt lat="45.8567778" lon="13.9022501"><ele>262.79999999999995</ele><time>2026-05-03T11:21:11.535Z</time></trkpt><trkpt lat="45.8568021" lon="13.9023798"><ele>263.2</ele><time>2026-05-03T11:21:12.535Z</time></trkpt><trkpt lat="45.8568251" lon="13.9024931"><ele>263.59999999999997</ele><time>2026-05-03T11:21:13.535Z</time></trkpt><trkpt lat="45.856856" lon="13.9026209"><ele>264.0</ele><time>2026-05-03T11:21:14.534Z</time></trkpt><trkpt lat="45.85689" lon="13.9027422"><ele>264.8333333333333</ele><time>2026-05-03T11:21:15.535Z</time></trkpt><trkpt lat="45.8569257" lon="13.9028652"><ele>265.6666666666667</ele><time>2026-05-03T11:21:16.534Z</time></trkpt><trkpt lat="45.8569572" lon="13.9029781"><ele>266.5</ele><time>2026-05-03T11:21:17.535Z</time></trkpt><trkpt lat="45.8569904" lon="13.9031001"><ele>267.33333333333337</ele><time>2026-05-03T11:21:18.535Z</time></trkpt><trkpt lat="45.8570164" lon="13.9032193"><ele>268.1666666666667</ele><time>2026-05-03T11:21:19.534Z</time></trkpt><trkpt lat="45.8570386" lon="13.9033389"><ele>269.0</ele><time>2026-05-03T11:21:20.535Z</time></trkpt><trkpt lat="45.8570556" lon="13.903433"><ele>269.33333333333337</ele><time>2026-05-03T11:21:21.535Z</time></trkpt><trkpt lat="45.8570701" lon="13.9035279"><ele>269.6666666666667</ele><time>2026-05-03T11:21:22.535Z</time></trkpt><trkpt lat="45.8571261" lon="13.9036542"><ele>270.0</ele><time>2026-05-03T11:21:24.534Z</time></trkpt><trkpt lat="45.8571768" lon="13.903758"><ele>270.3333333333333</ele><time>2026-05-03T11:21:26.534Z</time></trkpt><trkpt lat="45.857186" lon="13.9038483"><ele>270.66666666666663</ele><time>2026-05-03T11:21:28.534Z</time></trkpt><trkpt lat="45.8571559" lon="13.9039346"><ele>271.0</ele><time>2026-05-03T11:21:30.534Z</time></trkpt><trkpt lat="45.857108" lon="13.9040016"><ele>271.0</ele><time>2026-05-03T11:21:32.535Z</time></trkpt><trkpt lat="45.857044" lon="13.9040726"><ele>271.0</ele><time>2026-05-03T11:21:35.535Z</time></trkpt><trkpt lat="45.8571344" lon="13.9039965"><ele>271.0</ele><time>2026-05-03T11:21:43.535Z</time></trkpt><trkpt lat="45.8571884" lon="13.9038989"><ele>271.0</ele><time>2026-05-03T11:21:45.535Z</time></trkpt><trkpt lat="45.8572066" lon="13.9037702"><ele>271.0</ele><time>2026-05-03T11:21:48.534Z</time></trkpt><trkpt lat="45.8571844" lon="13.9036734"><ele>271.0</ele><time>2026-05-03T11:21:50.534Z</time></trkpt><trkpt lat="45.8572167" lon="13.9035479"><ele>271.0</ele><time>2026-05-03T11:21:53.535Z</time></trkpt><trkpt lat="45.8573011" lon="13.9034668"><ele>271.0</ele><time>2026-05-03T11:21:55.535Z</time></trkpt><trkpt lat="45.8573678" lon="13.9033583"><ele>271.0</ele><time>2026-05-03T11:21:57.534Z</time></trkpt><trkpt lat="45.8574487" lon="13.9033467"><ele>271.0</ele><time>2026-05-03T11:21:59.534Z</time></trkpt><trkpt lat="45.8574926" lon="13.9032332"><ele>271.0</ele><time>2026-05-03T11:22:01.534Z</time></trkpt><trkpt lat="45.8574897" lon="13.9031182"><ele>270.66666666666663</ele><time>2026-05-03T11:22:03.535Z</time></trkpt><trkpt lat="45.8575405" lon="13.9030368"><ele>270.3333333333333</ele><time>2026-05-03T11:22:05.534Z</time></trkpt><trkpt lat="45.8576272" lon="13.9030001"><ele>270.0</ele><time>2026-05-03T11:22:07.535Z</time></trkpt><trkpt lat="45.8577085" lon="13.9030139"><ele>269.6666666666667</ele><time>2026-05-03T11:22:09.534Z</time></trkpt><trkpt lat="45.8577727" lon="13.9030312"><ele>269.33333333333337</ele><time>2026-05-03T11:22:10.534Z</time></trkpt><trkpt lat="45.857823" lon="13.9030915"><ele>269.0</ele><time>2026-05-03T11:22:12.534Z</time></trkpt><trkpt lat="45.8578974" lon="13.903164"><ele>268.2</ele><time>2026-05-03T11:22:15.534Z</time></trkpt><trkpt lat="45.8579594" lon="13.9032141"><ele>267.4</ele><time>2026-05-03T11:22:17.535Z</time></trkpt><trkpt lat="45.8580659" lon="13.9032367"><ele>266.6</ele><time>2026-05-03T11:22:19.534Z</time></trkpt><trkpt lat="45.8581986" lon="13.9032004"><ele>265.8</ele><time>2026-05-03T11:22:21.534Z</time></trkpt><trkpt lat="45.8583194" lon="13.9031739"><ele>265.0</ele><time>2026-05-03T11:22:23.534Z</time></trkpt><trkpt lat="45.8584305" lon="13.9031577"><ele>263.6</ele><time>2026-05-03T11:22:25.534Z</time></trkpt><trkpt lat="45.8585467" lon="13.9031311"><ele>262.2</ele><time>2026-05-03T11:22:27.535Z</time></trkpt><trkpt lat="45.858653" lon="13.9031392"><ele>260.8</ele><time>2026-05-03T11:22:29.534Z</time></trkpt><trkpt lat="45.8587596" lon="13.903186"><ele>259.4</ele><time>2026-05-03T11:22:31.535Z</time></trkpt><trkpt lat="45.8588636" lon="13.9031964"><ele>258.0</ele><time>2026-05-03T11:22:33.535Z</time></trkpt><trkpt lat="45.858935" lon="13.9031751"><ele>258.0</ele><time>2026-05-03T11:22:34.535Z</time></trkpt><trkpt lat="45.8590743" lon="13.9031863"><ele>258.0</ele><time>2026-05-03T11:22:36.535Z</time></trkpt><trkpt lat="45.8591889" lon="13.9031294"><ele>258.0</ele><time>2026-05-03T11:22:38.534Z</time></trkpt><trkpt lat="45.8592971" lon="13.9030554"><ele>258.0</ele><time>2026-05-03T11:22:40.534Z</time></trkpt><trkpt lat="45.8593496" lon="13.9029543"><ele>254.4</ele><time>2026-05-03T11:22:41.535Z</time></trkpt><trkpt lat="45.8593883" lon="13.9028801"><ele>250.8</ele><time>2026-05-03T11:22:44.535Z</time></trkpt><trkpt lat="45.8594348" lon="13.902773"><ele>247.2</ele><time>2026-05-03T11:22:47.535Z</time></trkpt><trkpt lat="45.8594781" lon="13.9026946"><ele>243.6</ele><time>2026-05-03T11:22:49.534Z</time></trkpt><trkpt lat="45.8595123" lon="13.9026114"><ele>240.0</ele><time>2026-05-03T11:22:51.535Z</time></trkpt><trkpt lat="45.8597169" lon="13.902237"><ele>240.0</ele><time>2026-05-03T11:26:41.541Z</time></trkpt><trkpt lat="45.8598605" lon="13.9021187"><ele>240.0</ele><time>2026-05-03T11:26:45.541Z</time></trkpt><trkpt lat="45.859932" lon="13.9020435"><ele>240.0</ele><time>2026-05-03T11:26:47.541Z</time></trkpt><trkpt lat="45.8599992" lon="13.901943"><ele>240.0</ele><time>2026-05-03T11:26:49.54Z</time></trkpt><trkpt lat="45.8600155" lon="13.9017896"><ele>234.6</ele><time>2026-05-03T11:26:50.541Z</time></trkpt><trkpt lat="45.8601228" lon="13.9016165"><ele>229.2</ele><time>2026-05-03T11:26:52.541Z</time></trkpt><trkpt lat="45.8601622" lon="13.9015424"><ele>223.8</ele><time>2026-05-03T11:26:53.541Z</time></trkpt><trkpt lat="45.8602216" lon="13.9014765"><ele>218.4</ele><time>2026-05-03T11:26:54.54Z</time></trkpt><trkpt lat="45.8602951" lon="13.9013641"><ele>213.0</ele><time>2026-05-03T11:26:55.54Z</time></trkpt><trkpt lat="45.8602958" lon="13.901198"><ele>213.0</ele><time>2026-05-03T11:26:57.54Z</time></trkpt><trkpt lat="45.8603179" lon="13.9011045"><ele>213.0</ele><time>2026-05-03T11:26:58.54Z</time></trkpt><trkpt lat="45.8603566" lon="13.9009299"><ele>213.0</ele><time>2026-05-03T11:27:00.541Z</time></trkpt><trkpt lat="45.8603893" lon="13.9007573"><ele>213.0</ele><time>2026-05-03T11:27:02.541Z</time></trkpt><trkpt lat="45.8604394" lon="13.9006077"><ele>213.0</ele><time>2026-05-03T11:27:04.541Z</time></trkpt><trkpt lat="45.8604746" lon="13.9004624"><ele>214.60000000000002</ele><time>2026-05-03T11:27:06.541Z</time></trkpt><trkpt lat="45.8605191" lon="13.9002726"><ele>216.20000000000002</ele><time>2026-05-03T11:28:49.542Z</time></trkpt><trkpt lat="45.8605359" lon="13.9001681"><ele>217.8</ele><time>2026-05-03T11:28:51.541Z</time></trkpt><trkpt lat="45.8605685" lon="13.9000395"><ele>219.4</ele><time>2026-05-03T11:28:53.542Z</time></trkpt><trkpt lat="45.8606205" lon="13.8999375"><ele>221.0</ele><time>2026-05-03T11:28:55.542Z</time></trkpt><trkpt lat="45.8606918" lon="13.8997937"><ele>221.0</ele><time>2026-05-03T11:28:57.542Z</time></trkpt><trkpt lat="45.8607402" lon="13.8996872"><ele>221.00000000000003</ele><time>2026-05-03T11:28:59.542Z</time></trkpt><trkpt lat="45.8608238" lon="13.8997079"><ele>221.00000000000003</ele><time>2026-05-03T11:29:01.542Z</time></trkpt><trkpt lat="45.8608715" lon="13.8998988"><ele>221.0</ele><time>2026-05-03T11:29:03.542Z</time></trkpt><trkpt lat="45.8609003" lon="13.9000663"><ele>221.0</ele><time>2026-05-03T11:29:05.541Z</time></trkpt><trkpt lat="45.8609161" lon="13.9001592"><ele>221.0</ele><time>2026-05-03T11:29:06.542Z</time></trkpt><trkpt lat="45.8609425" lon="13.9002847"><ele>221.00000000000003</ele><time>2026-05-03T11:29:08.541Z</time></trkpt><trkpt lat="45.8609721" lon="13.9004381"><ele>221.00000000000003</ele><time>2026-05-03T11:29:10.541Z</time></trkpt><trkpt lat="45.8609495" lon="13.9005595"><ele>221.0</ele><time>2026-05-03T11:29:12.541Z</time></trkpt><trkpt lat="45.860992" lon="13.9006839"><ele>221.0</ele><time>2026-05-03T11:29:13.541Z</time></trkpt><trkpt lat="45.8609099" lon="13.9008131"><ele>219.0</ele><time>2026-05-03T11:29:14.541Z</time></trkpt><trkpt lat="45.8609035" lon="13.9009182"><ele>217.0</ele><time>2026-05-03T11:29:15.541Z</time></trkpt><trkpt lat="45.8608816" lon="13.9010558"><ele>215.0</ele><time>2026-05-03T11:29:17.542Z</time></trkpt><trkpt lat="45.8608442" lon="13.9013656"><ele>213.0</ele><time>2026-05-03T11:29:20.538Z</time></trkpt><trkpt lat="45.8608406" lon="13.9014699"><ele>213.0</ele><time>2026-05-03T11:29:21.539Z</time></trkpt><trkpt lat="45.8608059" lon="13.9015633"><ele>213.0</ele><time>2026-05-03T11:29:22.543Z</time></trkpt><trkpt lat="45.8607971" lon="13.9016636"><ele>213.0</ele><time>2026-05-03T11:29:23.534Z</time></trkpt><trkpt lat="45.8608099" lon="13.9017759"><ele>213.0</ele><time>2026-05-03T11:29:24.533Z</time></trkpt><trkpt lat="45.8608115" lon="13.9018818"><ele>213.0</ele><time>2026-05-03T11:29:25.529Z</time></trkpt><trkpt lat="45.860837" lon="13.9020887"><ele>213.0</ele><time>2026-05-03T11:29:27.529Z</time></trkpt><trkpt lat="45.8608427" lon="13.9021971"><ele>211.8</ele><time>2026-05-03T11:29:28.529Z</time></trkpt><trkpt lat="45.8608725" lon="13.9023781"><ele>210.60000000000002</ele><time>2026-05-03T11:29:30.53Z</time></trkpt><trkpt lat="45.8609094" lon="13.9025037"><ele>209.39999999999998</ele><time>2026-05-03T11:29:32.529Z</time></trkpt><trkpt lat="45.860894" lon="13.9026394"><ele>208.2</ele><time>2026-05-03T11:29:34.53Z</time></trkpt><trkpt lat="45.8609233" lon="13.9028003"><ele>207.0</ele><time>2026-05-03T11:29:36.529Z</time></trkpt><trkpt lat="45.8609512" lon="13.9029738"><ele>201.5</ele><time>2026-05-03T11:29:38.529Z</time></trkpt><trkpt lat="45.8609655" lon="13.9031241"><ele>196.0</ele><time>2026-05-03T11:29:40.529Z</time></trkpt><trkpt lat="45.861037" lon="13.9032214"><ele>190.5</ele><time>2026-05-03T11:29:42.529Z</time></trkpt><trkpt lat="45.861112" lon="13.9032731"><ele>185.0</ele><time>2026-05-03T11:29:44.529Z</time></trkpt><trkpt lat="45.8611659" lon="13.9033201"><ele>179.5</ele><time>2026-05-03T11:29:46.53Z</time></trkpt><trkpt lat="45.8612562" lon="13.9033618"><ele>174.0</ele><time>2026-05-03T11:29:48.529Z</time></trkpt><trkpt lat="45.8613248" lon="13.9033945"><ele>174.0</ele><time>2026-05-03T11:29:50.53Z</time></trkpt><trkpt lat="45.8613926" lon="13.9033641"><ele>174.0</ele><time>2026-05-03T11:29:53.53Z</time></trkpt><trkpt lat="45.8614693" lon="13.9033142"><ele>174.0</ele><time>2026-05-03T11:29:55.53Z</time></trkpt><trkpt lat="45.8616127" lon="13.9032941"><ele>174.0</ele><time>2026-05-03T11:29:57.53Z</time></trkpt><trkpt lat="45.8617426" lon="13.903244"><ele>174.0</ele><time>2026-05-03T11:29:59.53Z</time></trkpt><trkpt lat="45.8618206" lon="13.9031949"><ele>169.83333333333334</ele><time>2026-05-03T11:30:00.53Z</time></trkpt><trkpt lat="45.8618996" lon="13.9031579"><ele>165.66666666666666</ele><time>2026-05-03T11:30:01.53Z</time></trkpt><trkpt lat="45.8620136" lon="13.9030552"><ele>161.5</ele><time>2026-05-03T11:30:03.529Z</time></trkpt><trkpt lat="45.8620845" lon="13.9030618"><ele>157.33333333333331</ele><time>2026-05-03T11:30:04.53Z</time></trkpt><trkpt lat="45.862148" lon="13.9030384"><ele>153.16666666666666</ele><time>2026-05-03T11:30:05.529Z</time></trkpt><trkpt lat="45.8622124" lon="13.903022"><ele>149.0</ele><time>2026-05-03T11:30:07.53Z</time></trkpt><trkpt lat="45.862306" lon="13.9029943"><ele>149.0</ele><time>2026-05-03T11:30:09.53Z</time></trkpt><trkpt lat="45.8623783" lon="13.9029057"><ele>149.0</ele><time>2026-05-03T11:30:11.53Z</time></trkpt><trkpt lat="45.8624558" lon="13.902815"><ele>149.0</ele><time>2026-05-03T11:30:13.529Z</time></trkpt><trkpt lat="45.8625607" lon="13.9027424"><ele>149.0</ele><time>2026-05-03T11:30:15.53Z</time></trkpt><trkpt lat="45.8626379" lon="13.9027159"><ele>149.0</ele><time>2026-05-03T11:30:16.53Z</time></trkpt><trkpt lat="45.8627332" lon="13.9026297"><ele>145.2</ele><time>2026-05-03T11:30:18.529Z</time></trkpt><trkpt lat="45.8628279" lon="13.9025444"><ele>141.4</ele><time>2026-05-03T11:30:20.53Z</time></trkpt><trkpt lat="45.8629162" lon="13.9024853"><ele>137.6</ele><time>2026-05-03T11:30:22.53Z</time></trkpt><trkpt lat="45.8629854" lon="13.9024308"><ele>133.8</ele><time>2026-05-03T11:30:24.529Z</time></trkpt><trkpt lat="45.863089" lon="13.9024121"><ele>130.0</ele><time>2026-05-03T11:30:26.53Z</time></trkpt><trkpt lat="45.8632044" lon="13.9023806"><ele>130.0</ele><time>2026-05-03T11:30:28.53Z</time></trkpt><trkpt lat="45.8632708" lon="13.9023665"><ele>130.0</ele><time>2026-05-03T11:30:29.53Z</time></trkpt><trkpt lat="45.8633795" lon="13.9023013"><ele>130.0</ele><time>2026-05-03T11:30:31.53Z</time></trkpt><trkpt lat="45.8634876" lon="13.9022785"><ele>130.0</ele><time>2026-05-03T11:30:33.53Z</time></trkpt><trkpt lat="45.8635726" lon="13.9022606"><ele>130.0</ele><time>2026-05-03T11:30:34.53Z</time></trkpt><trkpt lat="45.8636415" lon="13.902222"><ele>126.66666666666667</ele><time>2026-05-03T11:30:36.529Z</time></trkpt><trkpt lat="45.8637134" lon="13.902143"><ele>123.33333333333334</ele><time>2026-05-03T11:30:38.53Z</time></trkpt><trkpt lat="45.863771" lon="13.9020313"><ele>120.0</ele><time>2026-05-03T11:30:40.529Z</time></trkpt><trkpt lat="45.8638148" lon="13.9019351"><ele>116.66666666666666</ele><time>2026-05-03T11:30:42.53Z</time></trkpt><trkpt lat="45.8638675" lon="13.9018682"><ele>113.33333333333333</ele><time>2026-05-03T11:30:43.53Z</time></trkpt><trkpt lat="45.8639324" lon="13.9019874"><ele>110.0</ele><time>2026-05-03T11:30:46.529Z</time></trkpt><trkpt lat="45.863956" lon="13.9020802"><ele>110.0</ele><time>2026-05-03T11:30:48.53Z</time></trkpt><trkpt lat="45.8639335" lon="13.902234"><ele>110.0</ele><time>2026-05-03T11:30:50.53Z</time></trkpt><trkpt lat="45.8639872" lon="13.9023779"><ele>110.0</ele><time>2026-05-03T11:30:52.529Z</time></trkpt><trkpt lat="45.8640142" lon="13.9024685"><ele>110.0</ele><time>2026-05-03T11:30:54.53Z</time></trkpt><trkpt lat="45.8641107" lon="13.9025358"><ele>110.0</ele><time>2026-05-03T11:30:56.53Z</time></trkpt><trkpt lat="45.864209" lon="13.9025994"><ele>109.49999999999999</ele><time>2026-05-03T11:30:59.53Z</time></trkpt><trkpt lat="45.8641628" lon="13.9026815"><ele>109.0</ele><time>2026-05-03T11:31:00.529Z</time></trkpt><trkpt lat="45.8641836" lon="13.9027838"><ele>108.5</ele><time>2026-05-03T11:31:02.529Z</time></trkpt><trkpt lat="45.8641914" lon="13.9029071"><ele>108.0</ele><time>2026-05-03T11:31:04.53Z</time></trkpt><trkpt lat="45.8642475" lon="13.9029847"><ele>107.49999999999999</ele><time>2026-05-03T11:31:06.53Z</time></trkpt><trkpt lat="45.8642851" lon="13.9030753"><ele>107.0</ele><time>2026-05-03T11:31:08.529Z</time></trkpt><trkpt lat="45.8643048" lon="13.9032233"><ele>104.0</ele><time>2026-05-03T11:31:10.53Z</time></trkpt><trkpt lat="45.8642876" lon="13.903403"><ele>101.0</ele><time>2026-05-03T11:31:12.53Z</time></trkpt><trkpt lat="45.8643027" lon="13.9035565"><ele>98.0</ele><time>2026-05-03T11:31:14.529Z</time></trkpt><trkpt lat="45.86436" lon="13.903694"><ele>95.0</ele><time>2026-05-03T11:31:16.529Z</time></trkpt><trkpt lat="45.8644307" lon="13.9038093"><ele>94.8</ele><time>2026-05-03T11:31:18.53Z</time></trkpt><trkpt lat="45.8644848" lon="13.903937"><ele>94.6</ele><time>2026-05-03T11:31:20.529Z</time></trkpt><trkpt lat="45.8645711" lon="13.9039888"><ele>94.4</ele><time>2026-05-03T11:31:22.529Z</time></trkpt><trkpt lat="45.8645891" lon="13.9041324"><ele>94.2</ele><time>2026-05-03T11:31:24.529Z</time></trkpt><trkpt lat="45.8646097" lon="13.9042315"><ele>94.0</ele><time>2026-05-03T11:31:26.53Z</time></trkpt><trkpt lat="45.8646248" lon="13.9043424"><ele>93.83333333333333</ele><time>2026-05-03T11:31:28.53Z</time></trkpt><trkpt lat="45.8646001" lon="13.9044586"><ele>93.66666666666666</ele><time>2026-05-03T11:31:30.529Z</time></trkpt><trkpt lat="45.8645925" lon="13.9045947"><ele>93.5</ele><time>2026-05-03T11:31:32.53Z</time></trkpt><trkpt lat="45.8646082" lon="13.9046858"><ele>93.33333333333333</ele><time>2026-05-03T11:31:33.529Z</time></trkpt><trkpt lat="45.864617" lon="13.904779"><ele>93.16666666666667</ele><time>2026-05-03T11:31:34.529Z</time></trkpt><trkpt lat="45.8646369" lon="13.9048857"><ele>93.0</ele><time>2026-05-03T11:31:35.529Z</time></trkpt><trkpt lat="45.8646596" lon="13.9049919"><ele>92.66666666666667</ele><time>2026-05-03T11:31:36.53Z</time></trkpt><trkpt lat="45.8646778" lon="13.9051021"><ele>92.33333333333333</ele><time>2026-05-03T11:31:37.53Z</time></trkpt><trkpt lat="45.8646942" lon="13.9052043"><ele>92.0</ele><time>2026-05-03T11:31:38.53Z</time></trkpt><trkpt lat="45.8646957" lon="13.9053296"><ele>91.66666666666666</ele><time>2026-05-03T11:31:39.53Z</time></trkpt><trkpt lat="45.864687" lon="13.9054512"><ele>91.33333333333333</ele><time>2026-05-03T11:31:40.529Z</time></trkpt><trkpt lat="45.8646758" lon="13.905582"><ele>91.0</ele><time>2026-05-03T11:31:41.53Z</time></trkpt><trkpt lat="45.8646645" lon="13.9057123"><ele>91.0</ele><time>2026-05-03T11:31:42.53Z</time></trkpt><trkpt lat="45.8646511" lon="13.9058416"><ele>91.0</ele><time>2026-05-03T11:31:43.53Z</time></trkpt><trkpt lat="45.8646423" lon="13.9059748"><ele>91.0</ele><time>2026-05-03T11:31:44.529Z</time></trkpt><trkpt lat="45.8646219" lon="13.9061078"><ele>91.0</ele><time>2026-05-03T11:31:45.53Z</time></trkpt><trkpt lat="45.8646058" lon="13.9062432"><ele>91.0</ele><time>2026-05-03T11:31:46.53Z</time></trkpt><trkpt lat="45.8645829" lon="13.9063778"><ele>90.4</ele><time>2026-05-03T11:31:47.53Z</time></trkpt><trkpt lat="45.8645653" lon="13.9065156"><ele>89.8</ele><time>2026-05-03T11:31:48.53Z</time></trkpt><trkpt lat="45.8645589" lon="13.9066497"><ele>89.2</ele><time>2026-05-03T11:31:49.529Z</time></trkpt><trkpt lat="45.8645404" lon="13.9067876"><ele>88.60000000000001</ele><time>2026-05-03T11:31:50.529Z</time></trkpt><trkpt lat="45.8645313" lon="13.9069202"><ele>88.0</ele><time>2026-05-03T11:31:51.529Z</time></trkpt><trkpt lat="45.8644984" lon="13.9070404"><ele>87.80000000000001</ele><time>2026-05-03T11:31:52.529Z</time></trkpt><trkpt lat="45.8644804" lon="13.9071685"><ele>87.6</ele><time>2026-05-03T11:31:53.529Z</time></trkpt><trkpt lat="45.8644707" lon="13.9072971"><ele>87.4</ele><time>2026-05-03T11:31:54.53Z</time></trkpt><trkpt lat="45.8644606" lon="13.9074307"><ele>87.19999999999999</ele><time>2026-05-03T11:31:55.53Z</time></trkpt><trkpt lat="45.8644632" lon="13.9075521"><ele>87.0</ele><time>2026-05-03T11:31:56.53Z</time></trkpt><trkpt lat="45.8644595" lon="13.9076975"><ele>87.0</ele><time>2026-05-03T11:31:57.53Z</time></trkpt><trkpt lat="45.8644873" lon="13.9078461"><ele>87.0</ele><time>2026-05-03T11:31:58.529Z</time></trkpt><trkpt lat="45.8644896" lon="13.9079862"><ele>87.0</ele><time>2026-05-03T11:31:59.53Z</time></trkpt><trkpt lat="45.8645366" lon="13.9081091"><ele>87.0</ele><time>2026-05-03T11:32:00.53Z</time></trkpt><trkpt lat="45.8645596" lon="13.9082226"><ele>87.0</ele><time>2026-05-03T11:32:01.53Z</time></trkpt><trkpt lat="45.8646802" lon="13.90824"><ele>87.0</ele><time>2026-05-03T11:32:02.529Z</time></trkpt><trkpt lat="45.8647527" lon="13.9082906"><ele>87.0</ele><time>2026-05-03T11:32:03.529Z</time></trkpt><trkpt lat="45.8648543" lon="13.9083366"><ele>87.0</ele><time>2026-05-03T11:32:05.529Z</time></trkpt><trkpt lat="45.8649218" lon="13.9083368"><ele>87.0</ele><time>2026-05-03T11:32:06.529Z</time></trkpt><trkpt lat="45.8649851" lon="13.9083526"><ele>87.0</ele><time>2026-05-03T11:32:07.53Z</time></trkpt><trkpt lat="45.8651107" lon="13.9083453"><ele>87.0</ele><time>2026-05-03T11:32:09.529Z</time></trkpt><trkpt lat="45.8652253" lon="13.9083721"><ele>86.5</ele><time>2026-05-03T11:32:11.53Z</time></trkpt><trkpt lat="45.8652772" lon="13.9085006"><ele>86.0</ele><time>2026-05-03T11:32:13.529Z</time></trkpt><trkpt lat="45.8652855" lon="13.9086768"><ele>85.5</ele><time>2026-05-03T11:32:15.53Z</time></trkpt><trkpt lat="45.8652859" lon="13.9087928"><ele>85.0</ele><time>2026-05-03T11:32:16.53Z</time></trkpt><trkpt lat="45.8652863" lon="13.9088954"><ele>84.5</ele><time>2026-05-03T11:32:17.529Z</time></trkpt><trkpt lat="45.8652752" lon="13.9089902"><ele>84.0</ele><time>2026-05-03T11:32:18.53Z</time></trkpt><trkpt lat="45.8652926" lon="13.9091396"><ele>84.0</ele><time>2026-05-03T11:32:20.529Z</time></trkpt><trkpt lat="45.8653192" lon="13.909259"><ele>84.0</ele><time>2026-05-03T11:32:22.53Z</time></trkpt><trkpt lat="45.8653267" lon="13.9093833"><ele>84.0</ele><time>2026-05-03T11:32:24.53Z</time></trkpt><trkpt lat="45.8653535" lon="13.9094792"><ele>84.0</ele><time>2026-05-03T11:32:26.529Z</time></trkpt><trkpt lat="45.8653499" lon="13.9093865"><ele>84.0</ele><time>2026-05-03T11:32:29.53Z</time></trkpt><trkpt lat="45.8653153" lon="13.9092415"><ele>84.0</ele><time>2026-05-03T11:32:31.53Z</time></trkpt><trkpt lat="45.8652933" lon="13.9091528"><ele>84.0</ele><time>2026-05-03T11:32:32.53Z</time></trkpt><trkpt lat="45.8652652" lon="13.9090205"><ele>84.0</ele><time>2026-05-03T11:32:34.53Z</time></trkpt><trkpt lat="45.8652424" lon="13.9088998"><ele>84.0</ele><time>2026-05-03T11:32:36.53Z</time></trkpt><trkpt lat="45.8653182" lon="13.9088393"><ele>84.0</ele><time>2026-05-03T11:35:12.539Z</time></trkpt><trkpt lat="45.8653444" lon="13.9089239"><ele>84.0</ele><time>2026-05-03T11:35:14.539Z</time></trkpt><trkpt lat="45.8653236" lon="13.9090242"><ele>84.0</ele><time>2026-05-03T11:35:15.538Z</time></trkpt><trkpt lat="45.8653285" lon="13.9091171"><ele>84.0</ele><time>2026-05-03T11:35:16.539Z</time></trkpt><trkpt lat="45.8653382" lon="13.909211"><ele>84.0</ele><time>2026-05-03T11:35:17.538Z</time></trkpt><trkpt lat="45.8653489" lon="13.9093076"><ele>84.0</ele><time>2026-05-03T11:35:18.539Z</time></trkpt><trkpt lat="45.8653666" lon="13.9094165"><ele>84.0</ele><time>2026-05-03T11:35:19.538Z</time></trkpt><trkpt lat="45.8653833" lon="13.9095264"><ele>84.0</ele><time>2026-05-03T11:35:20.538Z</time></trkpt><trkpt lat="45.8653982" lon="13.9096521"><ele>84.0</ele><time>2026-05-03T11:35:21.539Z</time></trkpt><trkpt lat="45.8654122" lon="13.9097797"><ele>84.0</ele><time>2026-05-03T11:35:22.539Z</time></trkpt><trkpt lat="45.8654164" lon="13.9099114"><ele>84.0</ele><time>2026-05-03T11:35:23.538Z</time></trkpt><trkpt lat="45.8654248" lon="13.9100412"><ele>84.0</ele><time>2026-05-03T11:35:24.538Z</time></trkpt><trkpt lat="45.865429" lon="13.9101619"><ele>84.0</ele><time>2026-05-03T11:35:25.539Z</time></trkpt><trkpt lat="45.8654309" lon="13.9102846"><ele>84.0</ele><time>2026-05-03T11:35:26.539Z</time></trkpt><trkpt lat="45.8654384" lon="13.910421"><ele>84.0</ele><time>2026-05-03T11:35:27.539Z</time></trkpt><trkpt lat="45.8654431" lon="13.9105454"><ele>84.14285714285714</ele><time>2026-05-03T11:35:28.539Z</time></trkpt><trkpt lat="45.8654512" lon="13.9106687"><ele>84.28571428571428</ele><time>2026-05-03T11:35:29.539Z</time></trkpt><trkpt lat="45.8654566" lon="13.9107788"><ele>84.42857142857143</ele><time>2026-05-03T11:35:30.538Z</time></trkpt><trkpt lat="45.8654657" lon="13.9108819"><ele>84.57142857142857</ele><time>2026-05-03T11:35:31.538Z</time></trkpt><trkpt lat="45.8654873" lon="13.9109802"><ele>84.71428571428571</ele><time>2026-05-03T11:35:32.539Z</time></trkpt><trkpt lat="45.8655075" lon="13.9110685"><ele>84.85714285714286</ele><time>2026-05-03T11:35:33.539Z</time></trkpt><trkpt lat="45.86554" lon="13.9111466"><ele>85.0</ele><time>2026-05-03T11:35:34.539Z</time></trkpt><trkpt lat="45.8655625" lon="13.9112959"><ele>85.0</ele><time>2026-05-03T11:35:36.539Z</time></trkpt><trkpt lat="45.8655036" lon="13.9114549"><ele>85.0</ele><time>2026-05-03T11:35:38.538Z</time></trkpt><trkpt lat="45.8654782" lon="13.9115516"><ele>85.0</ele><time>2026-05-03T11:35:39.539Z</time></trkpt><trkpt lat="45.8654596" lon="13.9116591"><ele>85.0</ele><time>2026-05-03T11:35:40.539Z</time></trkpt><trkpt lat="45.8654592" lon="13.9117769"><ele>85.0</ele><time>2026-05-03T11:35:41.539Z</time></trkpt><trkpt lat="45.8654706" lon="13.9119146"><ele>84.8</ele><time>2026-05-03T11:35:42.539Z</time></trkpt><trkpt lat="45.8654739" lon="13.9120501"><ele>84.6</ele><time>2026-05-03T11:35:43.539Z</time></trkpt><trkpt lat="45.8654716" lon="13.9121877"><ele>84.4</ele><time>2026-05-03T11:35:44.539Z</time></trkpt><trkpt lat="45.865456" lon="13.9123287"><ele>84.2</ele><time>2026-05-03T11:35:45.539Z</time></trkpt><trkpt lat="45.8654421" lon="13.9124712"><ele>84.0</ele><time>2026-05-03T11:35:46.539Z</time></trkpt><trkpt lat="45.8654368" lon="13.9126093"><ele>84.4</ele><time>2026-05-03T11:35:47.538Z</time></trkpt><trkpt lat="45.8654246" lon="13.9127436"><ele>84.80000000000001</ele><time>2026-05-03T11:35:48.538Z</time></trkpt><trkpt lat="45.865408" lon="13.9128685"><ele>85.19999999999999</ele><time>2026-05-03T11:35:49.538Z</time></trkpt><trkpt lat="45.8653953" lon="13.9130117"><ele>85.6</ele><time>2026-05-03T11:35:50.538Z</time></trkpt><trkpt lat="45.8653738" lon="13.9131527"><ele>86.0</ele><time>2026-05-03T11:35:51.539Z</time></trkpt><trkpt lat="45.8653486" lon="13.9132939"><ele>85.8</ele><time>2026-05-03T11:35:52.539Z</time></trkpt><trkpt lat="45.8653186" lon="13.9134238"><ele>85.6</ele><time>2026-05-03T11:35:53.539Z</time></trkpt><trkpt lat="45.8652881" lon="13.9135633"><ele>85.4</ele><time>2026-05-03T11:35:54.538Z</time></trkpt><trkpt lat="45.8652526" lon="13.9136849"><ele>85.2</ele><time>2026-05-03T11:35:55.539Z</time></trkpt><trkpt lat="45.8652214" lon="13.913811"><ele>85.0</ele><time>2026-05-03T11:35:56.538Z</time></trkpt><trkpt lat="45.8651944" lon="13.9139188"><ele>85.0</ele><time>2026-05-03T11:35:57.539Z</time></trkpt><trkpt lat="45.8651737" lon="13.9140319"><ele>85.0</ele><time>2026-05-03T11:35:58.539Z</time></trkpt><trkpt lat="45.8651452" lon="13.9141385"><ele>85.0</ele><time>2026-05-03T11:35:59.538Z</time></trkpt><trkpt lat="45.8651102" lon="13.9142297"><ele>85.0</ele><time>2026-05-03T11:36:00.538Z</time></trkpt><trkpt lat="45.8650963" lon="13.9143231"><ele>85.0</ele><time>2026-05-03T11:36:01.538Z</time></trkpt><trkpt lat="45.8650646" lon="13.9144066"><ele>85.0</ele><time>2026-05-03T11:36:02.538Z</time></trkpt><trkpt lat="45.8650318" lon="13.9145331"><ele>85.2</ele><time>2026-05-03T11:36:04.539Z</time></trkpt><trkpt lat="45.8650511" lon="13.914652"><ele>85.4</ele><time>2026-05-03T11:36:06.539Z</time></trkpt><trkpt lat="45.8651206" lon="13.9147632"><ele>85.6</ele><time>2026-05-03T11:36:08.539Z</time></trkpt><trkpt lat="45.8651869" lon="13.914867"><ele>85.8</ele><time>2026-05-03T11:36:09.538Z</time></trkpt><trkpt lat="45.8652591" lon="13.9149571"><ele>86.0</ele><time>2026-05-03T11:36:10.539Z</time></trkpt><trkpt lat="45.8653121" lon="13.9150639"><ele>85.83333333333334</ele><time>2026-05-03T11:36:11.539Z</time></trkpt><trkpt lat="45.8653682" lon="13.9151619"><ele>85.66666666666667</ele><time>2026-05-03T11:36:12.539Z</time></trkpt><trkpt lat="45.8654154" lon="13.9152629"><ele>85.5</ele><time>2026-05-03T11:36:13.539Z</time></trkpt><trkpt lat="45.8654585" lon="13.9153648"><ele>85.33333333333333</ele><time>2026-05-03T11:36:14.538Z</time></trkpt><trkpt lat="45.8655009" lon="13.9154528"><ele>85.16666666666666</ele><time>2026-05-03T11:36:15.538Z</time></trkpt><trkpt lat="45.8655356" lon="13.9155426"><ele>85.0</ele><time>2026-05-03T11:36:16.538Z</time></trkpt><trkpt lat="45.8655778" lon="13.9156299"><ele>85.0</ele><time>2026-05-03T11:36:17.539Z</time></trkpt><trkpt lat="45.865621" lon="13.9157247"><ele>85.0</ele><time>2026-05-03T11:36:18.539Z</time></trkpt><trkpt lat="45.8656649" lon="13.9158282"><ele>85.0</ele><time>2026-05-03T11:36:19.538Z</time></trkpt><trkpt lat="45.8657093" lon="13.9159469"><ele>85.0</ele><time>2026-05-03T11:36:20.538Z</time></trkpt><trkpt lat="45.8657732" lon="13.9160779"><ele>85.0</ele><time>2026-05-03T11:36:21.539Z</time></trkpt><trkpt lat="45.865833" lon="13.9162128"><ele>85.25</ele><time>2026-05-03T11:36:22.539Z</time></trkpt><trkpt lat="45.8659025" lon="13.9163435"><ele>85.5</ele><time>2026-05-03T11:36:23.539Z</time></trkpt><trkpt lat="45.8659677" lon="13.9164909"><ele>85.75</ele><time>2026-05-03T11:36:24.538Z</time></trkpt><trkpt lat="45.8660256" lon="13.9166412"><ele>86.0</ele><time>2026-05-03T11:36:25.538Z</time></trkpt><trkpt lat="45.866091" lon="13.9167738"><ele>86.0</ele><time>2026-05-03T11:36:26.538Z</time></trkpt><trkpt lat="45.8661554" lon="13.9169178"><ele>86.0</ele><time>2026-05-03T11:36:27.538Z</time></trkpt><trkpt lat="45.8662233" lon="13.91705"><ele>86.0</ele><time>2026-05-03T11:36:28.539Z</time></trkpt><trkpt lat="45.8662847" lon="13.9171827"><ele>86.0</ele><time>2026-05-03T11:36:29.538Z</time></trkpt><trkpt lat="45.8663448" lon="13.9173283"><ele>86.0</ele><time>2026-05-03T11:36:30.538Z</time></trkpt><trkpt lat="45.8664118" lon="13.9174634"><ele>86.0</ele><time>2026-05-03T11:36:31.539Z</time></trkpt><trkpt lat="45.866479" lon="13.9176147"><ele>86.0</ele><time>2026-05-03T11:36:32.538Z</time></trkpt><trkpt lat="45.8665411" lon="13.9177425"><ele>86.0</ele><time>2026-05-03T11:36:33.539Z</time></trkpt><trkpt lat="45.8666046" lon="13.9178848"><ele>86.0</ele><time>2026-05-03T11:36:34.538Z</time></trkpt><trkpt lat="45.8666676" lon="13.918024"><ele>86.0</ele><time>2026-05-03T11:36:35.539Z</time></trkpt><trkpt lat="45.8667336" lon="13.9181707"><ele>86.0</ele><time>2026-05-03T11:36:36.539Z</time></trkpt><trkpt lat="45.866804" lon="13.9183332"><ele>86.0</ele><time>2026-05-03T11:36:37.538Z</time></trkpt><trkpt lat="45.8668688" lon="13.918476"><ele>86.5</ele><time>2026-05-03T11:36:38.539Z</time></trkpt><trkpt lat="45.8669331" lon="13.9186237"><ele>87.0</ele><time>2026-05-03T11:36:39.539Z</time></trkpt><trkpt lat="45.8670053" lon="13.9187699"><ele>87.5</ele><time>2026-05-03T11:36:40.538Z</time></trkpt><trkpt lat="45.8670746" lon="13.9189225"><ele>88.0</ele><time>2026-05-03T11:36:41.538Z</time></trkpt><trkpt lat="45.8671513" lon="13.9190666"><ele>88.0</ele><time>2026-05-03T11:36:42.539Z</time></trkpt><trkpt lat="45.8672202" lon="13.9192106"><ele>88.0</ele><time>2026-05-03T11:36:43.539Z</time></trkpt><trkpt lat="45.8672837" lon="13.9193734"><ele>88.0</ele><time>2026-05-03T11:36:44.539Z</time></trkpt><trkpt lat="45.867348" lon="13.919544"><ele>88.0</ele><time>2026-05-03T11:36:45.539Z</time></trkpt><trkpt lat="45.8674205" lon="13.9197054"><ele>88.0</ele><time>2026-05-03T11:36:46.539Z</time></trkpt><trkpt lat="45.8674862" lon="13.9198636"><ele>88.0</ele><time>2026-05-03T11:36:47.538Z</time></trkpt><trkpt lat="45.8675615" lon="13.9200119"><ele>88.0</ele><time>2026-05-03T11:36:48.539Z</time></trkpt><trkpt lat="45.8676379" lon="13.9201608"><ele>88.0</ele><time>2026-05-03T11:36:49.539Z</time></trkpt><trkpt lat="45.867706" lon="13.9203216"><ele>89.0</ele><time>2026-05-03T11:36:50.538Z</time></trkpt><trkpt lat="45.8677822" lon="13.9204846"><ele>90.0</ele><time>2026-05-03T11:36:51.539Z</time></trkpt><trkpt lat="45.8678591" lon="13.9206439"><ele>91.0</ele><time>2026-05-03T11:36:52.539Z</time></trkpt><trkpt lat="45.8679228" lon="13.9207976"><ele>92.0</ele><time>2026-05-03T11:36:53.539Z</time></trkpt><trkpt lat="45.867997" lon="13.9209584"><ele>92.25</ele><time>2026-05-03T11:36:54.538Z</time></trkpt><trkpt lat="45.8680666" lon="13.9211191"><ele>92.5</ele><time>2026-05-03T11:36:55.539Z</time></trkpt><trkpt lat="45.8681347" lon="13.9212686"><ele>92.75</ele><time>2026-05-03T11:36:56.538Z</time></trkpt><trkpt lat="45.8682062" lon="13.9214337"><ele>93.0</ele><time>2026-05-03T11:36:57.539Z</time></trkpt><trkpt lat="45.868279" lon="13.9215958"><ele>93.0</ele><time>2026-05-03T11:36:58.539Z</time></trkpt><trkpt lat="45.8683465" lon="13.9217665"><ele>93.0</ele><time>2026-05-03T11:36:59.538Z</time></trkpt><trkpt lat="45.868416" lon="13.921927"><ele>93.0</ele><time>2026-05-03T11:37:00.539Z</time></trkpt><trkpt lat="45.8684814" lon="13.9220769"><ele>93.0</ele><time>2026-05-03T11:37:01.538Z</time></trkpt><trkpt lat="45.8685338" lon="13.92224"><ele>93.75</ele><time>2026-05-03T11:37:02.539Z</time></trkpt><trkpt lat="45.8685754" lon="13.9224115"><ele>94.5</ele><time>2026-05-03T11:37:03.538Z</time></trkpt><trkpt lat="45.8686167" lon="13.9225791"><ele>95.25</ele><time>2026-05-03T11:37:04.538Z</time></trkpt><trkpt lat="45.8686555" lon="13.9227641"><ele>96.0</ele><time>2026-05-03T11:37:05.538Z</time></trkpt><trkpt lat="45.8686903" lon="13.922946"><ele>96.0</ele><time>2026-05-03T11:37:06.538Z</time></trkpt><trkpt lat="45.868733" lon="13.9231206"><ele>96.0</ele><time>2026-05-03T11:37:07.538Z</time></trkpt><trkpt lat="45.8687744" lon="13.9232989"><ele>96.0</ele><time>2026-05-03T11:37:08.539Z</time></trkpt><trkpt lat="45.868816" lon="13.9234756"><ele>96.0</ele><time>2026-05-03T11:37:09.538Z</time></trkpt><trkpt lat="45.8688604" lon="13.9236425"><ele>96.75</ele><time>2026-05-03T11:37:10.538Z</time></trkpt><trkpt lat="45.8689028" lon="13.9238203"><ele>97.5</ele><time>2026-05-03T11:37:11.539Z</time></trkpt><trkpt lat="45.8689511" lon="13.9240063"><ele>98.25</ele><time>2026-05-03T11:37:12.538Z</time></trkpt><trkpt lat="45.8689986" lon="13.9241609"><ele>99.0</ele><time>2026-05-03T11:37:13.538Z</time></trkpt><trkpt lat="45.8690575" lon="13.9243502"><ele>99.0</ele><time>2026-05-03T11:37:14.539Z</time></trkpt><trkpt lat="45.8690983" lon="13.9245239"><ele>99.0</ele><time>2026-05-03T11:37:15.538Z</time></trkpt><trkpt lat="45.8691431" lon="13.9247049"><ele>99.0</ele><time>2026-05-03T11:37:16.539Z</time></trkpt><trkpt lat="45.869199" lon="13.9248934"><ele>99.0</ele><time>2026-05-03T11:37:17.539Z</time></trkpt><trkpt lat="45.869208" lon="13.9250762"><ele>99.0</ele><time>2026-05-03T11:37:18.538Z</time></trkpt><trkpt lat="45.8692473" lon="13.9252582"><ele>99.0</ele><time>2026-05-03T11:37:19.538Z</time></trkpt><trkpt lat="45.8692854" lon="13.9254238"><ele>99.0</ele><time>2026-05-03T11:37:20.538Z</time></trkpt><trkpt lat="45.8693725" lon="13.9255983"><ele>99.0</ele><time>2026-05-03T11:37:21.539Z</time></trkpt><trkpt lat="45.8693831" lon="13.9257992"><ele>98.6</ele><time>2026-05-03T11:37:22.538Z</time></trkpt><trkpt lat="45.869419" lon="13.9259925"><ele>98.2</ele><time>2026-05-03T11:37:23.538Z</time></trkpt><trkpt lat="45.8694485" lon="13.9261512"><ele>97.8</ele><time>2026-05-03T11:37:24.539Z</time></trkpt><trkpt lat="45.8694854" lon="13.9262755"><ele>97.39999999999999</ele><time>2026-05-03T11:37:25.539Z</time></trkpt><trkpt lat="45.8695262" lon="13.9264029"><ele>97.0</ele><time>2026-05-03T11:37:26.538Z</time></trkpt><trkpt lat="45.8695712" lon="13.9265021"><ele>97.0</ele><time>2026-05-03T11:37:27.539Z</time></trkpt><trkpt lat="45.8696632" lon="13.926615"><ele>97.0</ele><time>2026-05-03T11:37:28.539Z</time></trkpt><trkpt lat="45.8697064" lon="13.9267236"><ele>97.0</ele><time>2026-05-03T11:37:29.539Z</time></trkpt><trkpt lat="45.8698022" lon="13.9268353"><ele>97.0</ele><time>2026-05-03T11:37:30.539Z</time></trkpt><trkpt lat="45.8698786" lon="13.9269049"><ele>97.0</ele><time>2026-05-03T11:37:31.539Z</time></trkpt><trkpt lat="45.8699494" lon="13.9270015"><ele>97.00000000000001</ele><time>2026-05-03T11:37:32.538Z</time></trkpt><trkpt lat="45.8699978" lon="13.9270887"><ele>97.0</ele><time>2026-05-03T11:37:33.538Z</time></trkpt><trkpt lat="45.8700395" lon="13.9271782"><ele>97.0</ele><time>2026-05-03T11:37:34.538Z</time></trkpt><trkpt lat="45.8700651" lon="13.9272614"><ele>97.0</ele><time>2026-05-03T11:37:35.538Z</time></trkpt><trkpt lat="45.8700818" lon="13.9273965"><ele>97.00000000000001</ele><time>2026-05-03T11:37:37.539Z</time></trkpt><trkpt lat="45.8700076" lon="13.927532"><ele>97.0</ele><time>2026-05-03T11:37:39.539Z</time></trkpt><trkpt lat="45.869938" lon="13.9276399"><ele>97.0</ele><time>2026-05-03T11:37:40.539Z</time></trkpt><trkpt lat="45.8698612" lon="13.9277511"><ele>97.0</ele><time>2026-05-03T11:37:41.539Z</time></trkpt><trkpt lat="45.8697782" lon="13.9278796"><ele>97.0</ele><time>2026-05-03T11:37:42.539Z</time></trkpt><trkpt lat="45.8697003" lon="13.9280191"><ele>97.0</ele><time>2026-05-03T11:37:43.538Z</time></trkpt><trkpt lat="45.8696305" lon="13.9281478"><ele>97.0</ele><time>2026-05-03T11:37:44.538Z</time></trkpt><trkpt lat="45.8695581" lon="13.9282556"><ele>97.0</ele><time>2026-05-03T11:37:45.538Z</time></trkpt><trkpt lat="45.8694875" lon="13.9283761"><ele>97.0</ele><time>2026-05-03T11:37:46.538Z</time></trkpt><trkpt lat="45.8694097" lon="13.9284902"><ele>97.0</ele><time>2026-05-03T11:37:47.538Z</time></trkpt><trkpt lat="45.8693364" lon="13.9286123"><ele>97.0</ele><time>2026-05-03T11:37:48.538Z</time></trkpt><trkpt lat="45.8692561" lon="13.9287465"><ele>97.0</ele><time>2026-05-03T11:37:49.538Z</time></trkpt><trkpt lat="45.8691798" lon="13.928866"><ele>97.0</ele><time>2026-05-03T11:37:50.539Z</time></trkpt><trkpt lat="45.8690931" lon="13.9289825"><ele>97.0</ele><time>2026-05-03T11:37:51.538Z</time></trkpt><trkpt lat="45.8690078" lon="13.9291116"><ele>97.0</ele><time>2026-05-03T11:37:52.538Z</time></trkpt><trkpt lat="45.8689146" lon="13.9292445"><ele>97.5</ele><time>2026-05-03T11:37:53.538Z</time></trkpt><trkpt lat="45.8688237" lon="13.9293746"><ele>98.0</ele><time>2026-05-03T11:37:54.539Z</time></trkpt><trkpt lat="45.8687326" lon="13.9295007"><ele>98.5</ele><time>2026-05-03T11:37:55.539Z</time></trkpt><trkpt lat="45.8686435" lon="13.9296284"><ele>99.0</ele><time>2026-05-03T11:37:56.538Z</time></trkpt><trkpt lat="45.8685521" lon="13.9297501"><ele>99.0</ele><time>2026-05-03T11:37:57.538Z</time></trkpt><trkpt lat="45.8684642" lon="13.9298807"><ele>99.0</ele><time>2026-05-03T11:37:58.539Z</time></trkpt><trkpt lat="45.8683722" lon="13.9300047"><ele>99.0</ele><time>2026-05-03T11:37:59.538Z</time></trkpt><trkpt lat="45.8682804" lon="13.9301329"><ele>99.0</ele><time>2026-05-03T11:38:00.539Z</time></trkpt><trkpt lat="45.8681814" lon="13.930257"><ele>99.25</ele><time>2026-05-03T11:38:01.538Z</time></trkpt><trkpt lat="45.8680884" lon="13.9303881"><ele>99.5</ele><time>2026-05-03T11:38:02.538Z</time></trkpt><trkpt lat="45.8679876" lon="13.9305166"><ele>99.75</ele><time>2026-05-03T11:38:03.539Z</time></trkpt><trkpt lat="45.8678925" lon="13.9306449"><ele>100.0</ele><time>2026-05-03T11:38:04.539Z</time></trkpt><trkpt lat="45.8677959" lon="13.9307669"><ele>99.75</ele><time>2026-05-03T11:38:05.539Z</time></trkpt><trkpt lat="45.867705" lon="13.9309028"><ele>99.5</ele><time>2026-05-03T11:38:06.538Z</time></trkpt><trkpt lat="45.8676023" lon="13.9310357"><ele>99.25</ele><time>2026-05-03T11:38:07.539Z</time></trkpt><trkpt lat="45.867504" lon="13.9311749"><ele>99.0</ele><time>2026-05-03T11:38:08.539Z</time></trkpt><trkpt lat="45.8673999" lon="13.9313117"><ele>98.75</ele><time>2026-05-03T11:38:09.539Z</time></trkpt><trkpt lat="45.8672967" lon="13.9314521"><ele>98.5</ele><time>2026-05-03T11:38:10.538Z</time></trkpt><trkpt lat="45.8671853" lon="13.9315884"><ele>98.25</ele><time>2026-05-03T11:38:11.538Z</time></trkpt><trkpt lat="45.8670736" lon="13.9317304"><ele>98.0</ele><time>2026-05-03T11:38:12.539Z</time></trkpt><trkpt lat="45.8669628" lon="13.9318706"><ele>98.0</ele><time>2026-05-03T11:38:13.539Z</time></trkpt><trkpt lat="45.8668472" lon="13.9320303"><ele>98.0</ele><time>2026-05-03T11:38:14.538Z</time></trkpt><trkpt lat="45.8667265" lon="13.9321838"><ele>98.0</ele><time>2026-05-03T11:38:15.539Z</time></trkpt><trkpt lat="45.8666116" lon="13.9323218"><ele>97.80000000000001</ele><time>2026-05-03T11:38:16.539Z</time></trkpt><trkpt lat="45.8665038" lon="13.9324384"><ele>97.6</ele><time>2026-05-03T11:38:17.538Z</time></trkpt><trkpt lat="45.8664073" lon="13.932534"><ele>97.4</ele><time>2026-05-03T11:38:18.538Z</time></trkpt><trkpt lat="45.8663236" lon="13.9326133"><ele>97.19999999999999</ele><time>2026-05-03T11:38:19.538Z</time></trkpt><trkpt lat="45.8662589" lon="13.9326764"><ele>97.0</ele><time>2026-05-03T11:38:20.539Z</time></trkpt><trkpt lat="45.8662083" lon="13.9327445"><ele>97.00000000000001</ele><time>2026-05-03T11:38:21.539Z</time></trkpt><trkpt lat="45.8661484" lon="13.9329001"><ele>97.0</ele><time>2026-05-03T11:38:23.538Z</time></trkpt><trkpt lat="45.8661305" lon="13.9329908"><ele>97.0</ele><time>2026-05-03T11:38:24.539Z</time></trkpt><trkpt lat="45.8660748" lon="13.9330575"><ele>97.0</ele><time>2026-05-03T11:38:25.538Z</time></trkpt><trkpt lat="45.8660054" lon="13.9331256"><ele>97.00000000000001</ele><time>2026-05-03T11:38:26.538Z</time></trkpt><trkpt lat="45.8659226" lon="13.9332115"><ele>97.0</ele><time>2026-05-03T11:38:27.539Z</time></trkpt><trkpt lat="45.8658381" lon="13.93329"><ele>97.0</ele><time>2026-05-03T11:38:28.538Z</time></trkpt><trkpt lat="45.8657506" lon="13.9333762"><ele>97.0</ele><time>2026-05-03T11:38:29.539Z</time></trkpt><trkpt lat="45.8656538" lon="13.9334745"><ele>97.0</ele><time>2026-05-03T11:38:30.539Z</time></trkpt><trkpt lat="45.8655738" lon="13.9335726"><ele>97.0</ele><time>2026-05-03T11:38:31.538Z</time></trkpt><trkpt lat="45.8654963" lon="13.9336654"><ele>97.0</ele><time>2026-05-03T11:38:32.539Z</time></trkpt><trkpt lat="45.8654208" lon="13.933759"><ele>97.0</ele><time>2026-05-03T11:38:33.539Z</time></trkpt><trkpt lat="45.8653374" lon="13.9338445"><ele>97.0</ele><time>2026-05-03T11:38:34.538Z</time></trkpt><trkpt lat="45.8652589" lon="13.9339435"><ele>97.0</ele><time>2026-05-03T11:38:35.538Z</time></trkpt><trkpt lat="45.8651693" lon="13.9340326"><ele>97.0</ele><time>2026-05-03T11:38:36.538Z</time></trkpt><trkpt lat="45.8650741" lon="13.9341275"><ele>97.0</ele><time>2026-05-03T11:38:37.539Z</time></trkpt><trkpt lat="45.8649853" lon="13.9342309"><ele>96.75</ele><time>2026-05-03T11:38:38.538Z</time></trkpt><trkpt lat="45.8648904" lon="13.9343457"><ele>96.5</ele><time>2026-05-03T11:38:39.539Z</time></trkpt><trkpt lat="45.8647864" lon="13.9344764"><ele>96.25</ele><time>2026-05-03T11:38:40.538Z</time></trkpt><trkpt lat="45.8646854" lon="13.9345832"><ele>96.0</ele><time>2026-05-03T11:38:41.539Z</time></trkpt><trkpt lat="45.8645785" lon="13.9347071"><ele>96.0</ele><time>2026-05-03T11:38:42.539Z</time></trkpt><trkpt lat="45.8644537" lon="13.9348275"><ele>96.0</ele><time>2026-05-03T11:38:43.538Z</time></trkpt><trkpt lat="45.864339" lon="13.9349367"><ele>96.0</ele><time>2026-05-03T11:38:44.539Z</time></trkpt><trkpt lat="45.8642388" lon="13.9350458"><ele>96.0</ele><time>2026-05-03T11:38:45.539Z</time></trkpt><trkpt lat="45.8641604" lon="13.9351321"><ele>96.42857142857142</ele><time>2026-05-03T11:38:46.538Z</time></trkpt><trkpt lat="45.8640947" lon="13.9351993"><ele>96.85714285714286</ele><time>2026-05-03T11:38:47.539Z</time></trkpt><trkpt lat="45.8640361" lon="13.9352562"><ele>97.28571428571428</ele><time>2026-05-03T11:38:48.538Z</time></trkpt><trkpt lat="45.864002" lon="13.9353407"><ele>97.71428571428571</ele><time>2026-05-03T11:38:49.538Z</time></trkpt><trkpt lat="45.8639658" lon="13.9354191"><ele>98.14285714285714</ele><time>2026-05-03T11:38:50.538Z</time></trkpt><trkpt lat="45.8639097" lon="13.9355056"><ele>98.57142857142857</ele><time>2026-05-03T11:38:51.538Z</time></trkpt><trkpt lat="45.863846" lon="13.9355786"><ele>99.0</ele><time>2026-05-03T11:38:52.539Z</time></trkpt><trkpt lat="45.8637786" lon="13.9356196"><ele>99.0</ele><time>2026-05-03T11:38:53.539Z</time></trkpt><trkpt lat="45.8637108" lon="13.9356729"><ele>99.0</ele><time>2026-05-03T11:38:54.539Z</time></trkpt><trkpt lat="45.8636396" lon="13.9357324"><ele>99.0</ele><time>2026-05-03T11:38:55.539Z</time></trkpt><trkpt lat="45.8635715" lon="13.9358049"><ele>99.0</ele><time>2026-05-03T11:38:56.538Z</time></trkpt><trkpt lat="45.8634964" lon="13.9358874"><ele>99.0</ele><time>2026-05-03T11:38:57.539Z</time></trkpt><trkpt lat="45.8634168" lon="13.9359752"><ele>99.0</ele><time>2026-05-03T11:38:58.539Z</time></trkpt><trkpt lat="45.8633324" lon="13.9360671"><ele>98.75</ele><time>2026-05-03T11:38:59.538Z</time></trkpt><trkpt lat="45.8632399" lon="13.9361542"><ele>98.5</ele><time>2026-05-03T11:39:00.539Z</time></trkpt><trkpt lat="45.8631406" lon="13.9362314"><ele>98.25</ele><time>2026-05-03T11:39:01.539Z</time></trkpt><trkpt lat="45.8630327" lon="13.9363016"><ele>98.0</ele><time>2026-05-03T11:39:02.539Z</time></trkpt><trkpt lat="45.8629234" lon="13.9363687"><ele>98.0</ele><time>2026-05-03T11:39:03.538Z</time></trkpt><trkpt lat="45.8628289" lon="13.9364346"><ele>98.0</ele><time>2026-05-03T11:39:04.538Z</time></trkpt><trkpt lat="45.8627328" lon="13.9365175"><ele>98.0</ele><time>2026-05-03T11:39:05.539Z</time></trkpt><trkpt lat="45.8626461" lon="13.9365969"><ele>98.0</ele><time>2026-05-03T11:39:06.539Z</time></trkpt><trkpt lat="45.8625579" lon="13.9366781"><ele>98.0</ele><time>2026-05-03T11:39:07.539Z</time></trkpt><trkpt lat="45.8624838" lon="13.9367883"><ele>97.4</ele><time>2026-05-03T11:39:08.539Z</time></trkpt><trkpt lat="45.862412" lon="13.9368852"><ele>96.80000000000001</ele><time>2026-05-03T11:39:09.538Z</time></trkpt><trkpt lat="45.8623318" lon="13.9369964"><ele>96.2</ele><time>2026-05-03T11:39:10.538Z</time></trkpt><trkpt lat="45.8622578" lon="13.9371035"><ele>95.6</ele><time>2026-05-03T11:39:11.539Z</time></trkpt><trkpt lat="45.8621719" lon="13.9372017"><ele>95.0</ele><time>2026-05-03T11:39:12.539Z</time></trkpt><trkpt lat="45.8620759" lon="13.9373039"><ele>95.0</ele><time>2026-05-03T11:39:13.538Z</time></trkpt><trkpt lat="45.8619811" lon="13.9373978"><ele>95.0</ele><time>2026-05-03T11:39:14.539Z</time></trkpt><trkpt lat="45.8618899" lon="13.9374912"><ele>95.0</ele><time>2026-05-03T11:39:15.539Z</time></trkpt><trkpt lat="45.8617982" lon="13.9375897"><ele>95.0</ele><time>2026-05-03T11:39:16.539Z</time></trkpt><trkpt lat="45.86169" lon="13.9376824"><ele>95.0</ele><time>2026-05-03T11:39:17.539Z</time></trkpt><trkpt lat="45.8615891" lon="13.9377776"><ele>95.0</ele><time>2026-05-03T11:39:18.539Z</time></trkpt><trkpt lat="45.8614851" lon="13.9378756"><ele>95.0</ele><time>2026-05-03T11:39:19.539Z</time></trkpt><trkpt lat="45.8611914" lon="13.9381651"><ele>95.0</ele><time>2026-05-03T11:39:22.533Z</time></trkpt><trkpt lat="45.8611058" lon="13.9382422"><ele>95.0</ele><time>2026-05-03T11:39:23.536Z</time></trkpt><trkpt lat="45.8610311" lon="13.9383123"><ele>95.0</ele><time>2026-05-03T11:39:24.536Z</time></trkpt><trkpt lat="45.8609607" lon="13.9383982"><ele>95.0</ele><time>2026-05-03T11:39:25.541Z</time></trkpt><trkpt lat="45.8608902" lon="13.938477"><ele>95.0</ele><time>2026-05-03T11:39:26.535Z</time></trkpt><trkpt lat="45.8607911" lon="13.9385986"><ele>95.0</ele><time>2026-05-03T11:39:28.536Z</time></trkpt><trkpt lat="45.8607161" lon="13.9386494"><ele>95.0</ele><time>2026-05-03T11:39:29.536Z</time></trkpt><trkpt lat="45.8606269" lon="13.9387101"><ele>95.0</ele><time>2026-05-03T11:39:30.536Z</time></trkpt><trkpt lat="45.8605318" lon="13.9387863"><ele>95.0</ele><time>2026-05-03T11:39:31.535Z</time></trkpt><trkpt lat="45.860442" lon="13.9388795"><ele>95.0</ele><time>2026-05-03T11:39:32.536Z</time></trkpt><trkpt lat="45.860343" lon="13.9389683"><ele>95.0</ele><time>2026-05-03T11:39:33.535Z</time></trkpt><trkpt lat="45.8602398" lon="13.9390675"><ele>95.0</ele><time>2026-05-03T11:39:34.535Z</time></trkpt><trkpt lat="45.8601389" lon="13.9391744"><ele>95.0</ele><time>2026-05-03T11:39:35.536Z</time></trkpt><trkpt lat="45.8600266" lon="13.9392845"><ele>95.0</ele><time>2026-05-03T11:39:36.536Z</time></trkpt><trkpt lat="45.8599041" lon="13.9394007"><ele>96.0</ele><time>2026-05-03T11:39:37.535Z</time></trkpt><trkpt lat="45.8597795" lon="13.9395107"><ele>97.0</ele><time>2026-05-03T11:39:38.536Z</time></trkpt><trkpt lat="45.8596537" lon="13.9396251"><ele>98.0</ele><time>2026-05-03T11:39:39.535Z</time></trkpt><trkpt lat="45.8595204" lon="13.9397468"><ele>98.0</ele><time>2026-05-03T11:39:40.535Z</time></trkpt><trkpt lat="45.8593924" lon="13.9398667"><ele>98.0</ele><time>2026-05-03T11:39:41.535Z</time></trkpt><trkpt lat="45.8592582" lon="13.9399897"><ele>98.0</ele><time>2026-05-03T11:39:42.536Z</time></trkpt><trkpt lat="45.8591272" lon="13.9401092"><ele>97.66666666666666</ele><time>2026-05-03T11:39:43.535Z</time></trkpt><trkpt lat="45.8589987" lon="13.940235"><ele>97.33333333333334</ele><time>2026-05-03T11:39:44.536Z</time></trkpt><trkpt lat="45.8588648" lon="13.940355"><ele>97.0</ele><time>2026-05-03T11:39:45.535Z</time></trkpt><trkpt lat="45.8587323" lon="13.9404702"><ele>97.0</ele><time>2026-05-03T11:39:46.536Z</time></trkpt><trkpt lat="45.8585992" lon="13.9405822"><ele>97.0</ele><time>2026-05-03T11:39:47.536Z</time></trkpt><trkpt lat="45.8584694" lon="13.9406974"><ele>97.0</ele><time>2026-05-03T11:39:48.536Z</time></trkpt><trkpt lat="45.8583367" lon="13.9408053"><ele>96.5</ele><time>2026-05-03T11:39:49.536Z</time></trkpt><trkpt lat="45.8582102" lon="13.9409053"><ele>96.0</ele><time>2026-05-03T11:39:50.535Z</time></trkpt><trkpt lat="45.8580982" lon="13.9410025"><ele>95.5</ele><time>2026-05-03T11:39:51.536Z</time></trkpt><trkpt lat="45.8579959" lon="13.9411003"><ele>95.0</ele><time>2026-05-03T11:39:52.535Z</time></trkpt><trkpt lat="45.857892" lon="13.9411932"><ele>95.0</ele><time>2026-05-03T11:39:53.536Z</time></trkpt><trkpt lat="45.8577977" lon="13.9412822"><ele>95.0</ele><time>2026-05-03T11:39:54.535Z</time></trkpt><trkpt lat="45.8577101" lon="13.9413724"><ele>95.0</ele><time>2026-05-03T11:39:55.536Z</time></trkpt><trkpt lat="45.8576339" lon="13.9414439"><ele>95.0</ele><time>2026-05-03T11:39:56.535Z</time></trkpt><trkpt lat="45.857573" lon="13.9415233"><ele>95.0</ele><time>2026-05-03T11:39:57.536Z</time></trkpt><trkpt lat="45.8575007" lon="13.9415836"><ele>95.4</ele><time>2026-05-03T11:39:58.535Z</time></trkpt><trkpt lat="45.857423" lon="13.9416445"><ele>95.8</ele><time>2026-05-03T11:39:59.536Z</time></trkpt><trkpt lat="45.8573356" lon="13.9417024"><ele>96.19999999999999</ele><time>2026-05-03T11:40:00.536Z</time></trkpt><trkpt lat="45.8572376" lon="13.9417765"><ele>96.6</ele><time>2026-05-03T11:40:01.536Z</time></trkpt><trkpt lat="45.8571323" lon="13.9418651"><ele>97.0</ele><time>2026-05-03T11:40:02.536Z</time></trkpt><trkpt lat="45.8570202" lon="13.9419506"><ele>97.75</ele><time>2026-05-03T11:40:03.535Z</time></trkpt><trkpt lat="45.8569128" lon="13.9420422"><ele>98.5</ele><time>2026-05-03T11:40:04.535Z</time></trkpt><trkpt lat="45.8567936" lon="13.9421371"><ele>99.25</ele><time>2026-05-03T11:40:05.535Z</time></trkpt><trkpt lat="45.8566715" lon="13.9422253"><ele>100.0</ele><time>2026-05-03T11:40:06.536Z</time></trkpt><trkpt lat="45.8565495" lon="13.9423172"><ele>100.25</ele><time>2026-05-03T11:40:07.536Z</time></trkpt><trkpt lat="45.8564201" lon="13.9424161"><ele>100.5</ele><time>2026-05-03T11:40:08.535Z</time></trkpt><trkpt lat="45.8562941" lon="13.9425179"><ele>100.75</ele><time>2026-05-03T11:40:09.536Z</time></trkpt><trkpt lat="45.8561646" lon="13.9426308"><ele>101.0</ele><time>2026-05-03T11:40:10.536Z</time></trkpt><trkpt lat="45.8560264" lon="13.9427359"><ele>100.66666666666666</ele><time>2026-05-03T11:40:11.536Z</time></trkpt><trkpt lat="45.8558833" lon="13.9428529"><ele>100.33333333333334</ele><time>2026-05-03T11:40:12.536Z</time></trkpt><trkpt lat="45.8557528" lon="13.942963"><ele>100.0</ele><time>2026-05-03T11:40:13.535Z</time></trkpt><trkpt lat="45.8556247" lon="13.9430821"><ele>100.0</ele><time>2026-05-03T11:40:14.536Z</time></trkpt><trkpt lat="45.8554916" lon="13.9431931"><ele>100.0</ele><time>2026-05-03T11:40:15.536Z</time></trkpt><trkpt lat="45.8553626" lon="13.9433042"><ele>100.0</ele><time>2026-05-03T11:40:16.536Z</time></trkpt><trkpt lat="45.855234" lon="13.9434053"><ele>99.5</ele><time>2026-05-03T11:40:17.535Z</time></trkpt><trkpt lat="45.8551088" lon="13.9435134"><ele>99.0</ele><time>2026-05-03T11:40:18.536Z</time></trkpt><trkpt lat="45.8549863" lon="13.9436268"><ele>98.5</ele><time>2026-05-03T11:40:19.536Z</time></trkpt><trkpt lat="45.8548576" lon="13.9437274"><ele>98.0</ele><time>2026-05-03T11:40:20.536Z</time></trkpt><trkpt lat="45.8547318" lon="13.9438273"><ele>98.0</ele><time>2026-05-03T11:40:21.535Z</time></trkpt><trkpt lat="45.8546094" lon="13.9439183"><ele>98.0</ele><time>2026-05-03T11:40:22.535Z</time></trkpt><trkpt lat="45.8544807" lon="13.9440099"><ele>98.0</ele><time>2026-05-03T11:40:23.536Z</time></trkpt><trkpt lat="45.8543394" lon="13.9441055"><ele>98.0</ele><time>2026-05-03T11:40:24.535Z</time></trkpt><trkpt lat="45.8541962" lon="13.9442045"><ele>98.33333333333333</ele><time>2026-05-03T11:40:25.535Z</time></trkpt><trkpt lat="45.8540651" lon="13.9443023"><ele>98.66666666666666</ele><time>2026-05-03T11:40:26.535Z</time></trkpt><trkpt lat="45.8539223" lon="13.9444054"><ele>99.0</ele><time>2026-05-03T11:40:27.535Z</time></trkpt><trkpt lat="45.8537849" lon="13.9445083"><ele>99.0</ele><time>2026-05-03T11:40:28.536Z</time></trkpt><trkpt lat="45.8536423" lon="13.9446137"><ele>99.0</ele><time>2026-05-03T11:40:29.535Z</time></trkpt><trkpt lat="45.853498" lon="13.9447166"><ele>99.0</ele><time>2026-05-03T11:40:30.535Z</time></trkpt><trkpt lat="45.8533678" lon="13.9448155"><ele>98.33333333333334</ele><time>2026-05-03T11:40:31.536Z</time></trkpt><trkpt lat="45.8532311" lon="13.9449171"><ele>97.66666666666667</ele><time>2026-05-03T11:40:32.535Z</time></trkpt><trkpt lat="45.853096" lon="13.9450233"><ele>97.0</ele><time>2026-05-03T11:40:33.535Z</time></trkpt><trkpt lat="45.8529641" lon="13.9451152"><ele>97.0</ele><time>2026-05-03T11:40:34.536Z</time></trkpt><trkpt lat="45.8528284" lon="13.9452149"><ele>97.0</ele><time>2026-05-03T11:40:35.536Z</time></trkpt><trkpt lat="45.85269" lon="13.9453174"><ele>97.0</ele><time>2026-05-03T11:40:36.536Z</time></trkpt><trkpt lat="45.8525573" lon="13.9454134"><ele>97.0</ele><time>2026-05-03T11:40:37.535Z</time></trkpt><trkpt lat="45.852421" lon="13.9455162"><ele>97.0</ele><time>2026-05-03T11:40:38.536Z</time></trkpt><trkpt lat="45.8522824" lon="13.9456148"><ele>97.0</ele><time>2026-05-03T11:40:39.536Z</time></trkpt><trkpt lat="45.8521461" lon="13.9457224"><ele>97.0</ele><time>2026-05-03T11:40:40.536Z</time></trkpt><trkpt lat="45.8520111" lon="13.9458324"><ele>97.0</ele><time>2026-05-03T11:40:41.535Z</time></trkpt><trkpt lat="45.8518735" lon="13.9459409"><ele>97.0</ele><time>2026-05-03T11:40:42.536Z</time></trkpt><trkpt lat="45.8517291" lon="13.9460479"><ele>96.75</ele><time>2026-05-03T11:40:43.536Z</time></trkpt><trkpt lat="45.8515973" lon="13.9461566"><ele>96.5</ele><time>2026-05-03T11:40:44.536Z</time></trkpt><trkpt lat="45.8514617" lon="13.9462549"><ele>96.25</ele><time>2026-05-03T11:40:45.535Z</time></trkpt><trkpt lat="45.8513372" lon="13.9463383"><ele>96.0</ele><time>2026-05-03T11:40:46.535Z</time></trkpt><trkpt lat="45.8512214" lon="13.9464201"><ele>96.0</ele><time>2026-05-03T11:40:47.536Z</time></trkpt><trkpt lat="45.8511257" lon="13.9464884"><ele>96.0</ele><time>2026-05-03T11:40:48.536Z</time></trkpt><trkpt lat="45.8510347" lon="13.9465538"><ele>96.0</ele><time>2026-05-03T11:40:49.536Z</time></trkpt><trkpt lat="45.8509329" lon="13.9466082"><ele>96.0</ele><time>2026-05-03T11:40:50.536Z</time></trkpt><trkpt lat="45.8508304" lon="13.9466491"><ele>96.0</ele><time>2026-05-03T11:40:51.535Z</time></trkpt><trkpt lat="45.8507458" lon="13.9466845"><ele>96.0</ele><time>2026-05-03T11:40:52.536Z</time></trkpt><trkpt lat="45.8506554" lon="13.9466996"><ele>96.0</ele><time>2026-05-03T11:40:53.536Z</time></trkpt><trkpt lat="45.8505829" lon="13.9467213"><ele>96.0</ele><time>2026-05-03T11:40:54.535Z</time></trkpt><trkpt lat="45.8505141" lon="13.9467508"><ele>96.0</ele><time>2026-05-03T11:40:55.536Z</time></trkpt><trkpt lat="45.8504373" lon="13.9468058"><ele>96.0</ele><time>2026-05-03T11:40:57.536Z</time></trkpt><trkpt lat="45.8504151" lon="13.9469112"><ele>96.0</ele><time>2026-05-03T11:40:59.536Z</time></trkpt><trkpt lat="45.8504359" lon="13.9469998"><ele>96.0</ele><time>2026-05-03T11:41:00.535Z</time></trkpt><trkpt lat="45.850468" lon="13.9470923"><ele>96.0</ele><time>2026-05-03T11:41:01.536Z</time></trkpt><trkpt lat="45.8504979" lon="13.9471859"><ele>96.0</ele><time>2026-05-03T11:41:02.536Z</time></trkpt><trkpt lat="45.8505368" lon="13.947306"><ele>96.0</ele><time>2026-05-03T11:41:03.535Z</time></trkpt><trkpt lat="45.8505747" lon="13.9474236"><ele>96.0</ele><time>2026-05-03T11:41:04.536Z</time></trkpt><trkpt lat="45.8506303" lon="13.9475224"><ele>96.0</ele><time>2026-05-03T11:41:05.535Z</time></trkpt><trkpt lat="45.8506848" lon="13.9476211"><ele>96.0</ele><time>2026-05-03T11:41:06.535Z</time></trkpt><trkpt lat="45.8507385" lon="13.94773"><ele>96.0</ele><time>2026-05-03T11:41:07.536Z</time></trkpt><trkpt lat="45.8507811" lon="13.9478279"><ele>96.0</ele><time>2026-05-03T11:41:08.535Z</time></trkpt><trkpt lat="45.8508461" lon="13.9479344"><ele>96.0</ele><time>2026-05-03T11:41:09.536Z</time></trkpt><trkpt lat="45.8509072" lon="13.9480293"><ele>96.0</ele><time>2026-05-03T11:41:10.535Z</time></trkpt><trkpt lat="45.850961" lon="13.9481231"><ele>96.0</ele><time>2026-05-03T11:41:11.535Z</time></trkpt><trkpt lat="45.851022" lon="13.9482262"><ele>96.0</ele><time>2026-05-03T11:41:12.536Z</time></trkpt><trkpt lat="45.8510754" lon="13.9483299"><ele>96.0</ele><time>2026-05-03T11:41:13.536Z</time></trkpt><trkpt lat="45.8511151" lon="13.9484235"><ele>96.0</ele><time>2026-05-03T11:41:14.536Z</time></trkpt><trkpt lat="45.8511689" lon="13.948503"><ele>96.0</ele><time>2026-05-03T11:41:15.536Z</time></trkpt><trkpt lat="45.851229" lon="13.9486244"><ele>96.0</ele><time>2026-05-03T11:41:17.536Z</time></trkpt><trkpt lat="45.851298" lon="13.9487304"><ele>96.0</ele><time>2026-05-03T11:41:28.535Z</time></trkpt><trkpt lat="45.8513482" lon="13.9488658"><ele>96.19999999999999</ele><time>2026-05-03T11:41:30.536Z</time></trkpt><trkpt lat="45.8513921" lon="13.9489542"><ele>96.39999999999999</ele><time>2026-05-03T11:41:31.536Z</time></trkpt><trkpt lat="45.851426" lon="13.9490704"><ele>96.6</ele><time>2026-05-03T11:41:32.535Z</time></trkpt><trkpt lat="45.8514818" lon="13.9491977"><ele>96.8</ele><time>2026-05-03T11:41:33.536Z</time></trkpt><trkpt lat="45.8515349" lon="13.9493217"><ele>97.0</ele><time>2026-05-03T11:41:34.536Z</time></trkpt><trkpt lat="45.8515823" lon="13.9494285"><ele>97.00000000000001</ele><time>2026-05-03T11:41:35.535Z</time></trkpt><trkpt lat="45.8516254" lon="13.9495319"><ele>97.0</ele><time>2026-05-03T11:41:36.536Z</time></trkpt><trkpt lat="45.8516644" lon="13.9496293"><ele>97.0</ele><time>2026-05-03T11:41:37.535Z</time></trkpt><trkpt lat="45.8516974" lon="13.9497338"><ele>97.0</ele><time>2026-05-03T11:41:38.535Z</time></trkpt><trkpt lat="45.8517395" lon="13.9498153"><ele>97.00000000000001</ele><time>2026-05-03T11:41:39.535Z</time></trkpt><trkpt lat="45.8517753" lon="13.9499048"><ele>97.0</ele><time>2026-05-03T11:41:40.535Z</time></trkpt><trkpt lat="45.8518119" lon="13.949987"><ele>97.50000000000001</ele><time>2026-05-03T11:41:41.536Z</time></trkpt><trkpt lat="45.8518446" lon="13.9500715"><ele>98.0</ele><time>2026-05-03T11:41:42.535Z</time></trkpt><trkpt lat="45.8518797" lon="13.9501536"><ele>98.5</ele><time>2026-05-03T11:41:43.536Z</time></trkpt><trkpt lat="45.8519424" lon="13.9503131"><ele>99.0</ele><time>2026-05-03T11:41:45.536Z</time></trkpt><trkpt lat="45.8519822" lon="13.9503993"><ele>99.50000000000001</ele><time>2026-05-03T11:41:46.536Z</time></trkpt><trkpt lat="45.8520152" lon="13.95048"><ele>100.0</ele><time>2026-05-03T11:41:47.536Z</time></trkpt><trkpt lat="45.8520484" lon="13.950577"><ele>100.0</ele><time>2026-05-03T11:41:48.535Z</time></trkpt><trkpt lat="45.8520892" lon="13.9506796"><ele>100.0</ele><time>2026-05-03T11:41:49.536Z</time></trkpt><trkpt lat="45.852139" lon="13.9507801"><ele>100.0</ele><time>2026-05-03T11:41:50.536Z</time></trkpt><trkpt lat="45.8521955" lon="13.9508913"><ele>100.0</ele><time>2026-05-03T11:41:51.536Z</time></trkpt><trkpt lat="45.8522498" lon="13.9510161"><ele>100.0</ele><time>2026-05-03T11:41:52.536Z</time></trkpt><trkpt lat="45.8523152" lon="13.9511449"><ele>99.75</ele><time>2026-05-03T11:41:53.535Z</time></trkpt><trkpt lat="45.8523793" lon="13.9512983"><ele>99.5</ele><time>2026-05-03T11:41:54.535Z</time></trkpt><trkpt lat="45.8524389" lon="13.9514587"><ele>99.25</ele><time>2026-05-03T11:41:55.536Z</time></trkpt><trkpt lat="45.8524959" lon="13.9516266"><ele>99.0</ele><time>2026-05-03T11:41:56.536Z</time></trkpt><trkpt lat="45.8525631" lon="13.9517822"><ele>99.75</ele><time>2026-05-03T11:41:57.535Z</time></trkpt><trkpt lat="45.852631" lon="13.9519442"><ele>100.5</ele><time>2026-05-03T11:41:58.536Z</time></trkpt><trkpt lat="45.8526952" lon="13.9521158"><ele>101.25</ele><time>2026-05-03T11:41:59.535Z</time></trkpt><trkpt lat="45.8527824" lon="13.9522765"><ele>102.0</ele><time>2026-05-03T11:42:00.536Z</time></trkpt><trkpt lat="45.8528625" lon="13.9524401"><ele>102.0</ele><time>2026-05-03T11:42:01.536Z</time></trkpt><trkpt lat="45.8529364" lon="13.9526112"><ele>102.0</ele><time>2026-05-03T11:42:02.536Z</time></trkpt><trkpt lat="45.8530055" lon="13.9527678"><ele>102.0</ele><time>2026-05-03T11:42:03.536Z</time></trkpt><trkpt lat="45.8530656" lon="13.952902"><ele>102.0</ele><time>2026-05-03T11:42:04.536Z</time></trkpt><trkpt lat="45.8531135" lon="13.9530183"><ele>102.0</ele><time>2026-05-03T11:42:05.536Z</time></trkpt><trkpt lat="45.8531491" lon="13.9530945"><ele>102.0</ele><time>2026-05-03T11:42:06.536Z</time></trkpt><trkpt lat="45.8531898" lon="13.9531953"><ele>102.0</ele><time>2026-05-03T11:42:21.536Z</time></trkpt><trkpt lat="45.8532342" lon="13.9532808"><ele>102.0</ele><time>2026-05-03T11:42:23.536Z</time></trkpt><trkpt lat="45.8532864" lon="13.9534201"><ele>102.0</ele><time>2026-05-03T11:42:25.535Z</time></trkpt><trkpt lat="45.8533149" lon="13.9535079"><ele>102.0</ele><time>2026-05-03T11:42:26.536Z</time></trkpt><trkpt lat="45.8533672" lon="13.9536036"><ele>102.25</ele><time>2026-05-03T11:42:27.535Z</time></trkpt><trkpt lat="45.8534254" lon="13.9537132"><ele>102.5</ele><time>2026-05-03T11:42:28.535Z</time></trkpt><trkpt lat="45.8534997" lon="13.9538354"><ele>102.75</ele><time>2026-05-03T11:42:29.535Z</time></trkpt><trkpt lat="45.853585" lon="13.9539719"><ele>103.0</ele><time>2026-05-03T11:42:30.535Z</time></trkpt><trkpt lat="45.8536788" lon="13.9541056"><ele>103.25</ele><time>2026-05-03T11:42:31.536Z</time></trkpt><trkpt lat="45.8537729" lon="13.9542302"><ele>103.5</ele><time>2026-05-03T11:42:32.536Z</time></trkpt><trkpt lat="45.8538636" lon="13.9543597"><ele>103.75</ele><time>2026-05-03T11:42:33.536Z</time></trkpt><trkpt lat="45.8539536" lon="13.9544752"><ele>104.0</ele><time>2026-05-03T11:42:34.536Z</time></trkpt><trkpt lat="45.8540498" lon="13.9545815"><ele>104.0</ele><time>2026-05-03T11:42:35.535Z</time></trkpt><trkpt lat="45.8541368" lon="13.9546762"><ele>104.0</ele><time>2026-05-03T11:42:36.535Z</time></trkpt><trkpt lat="45.8542374" lon="13.9547675"><ele>104.0</ele><time>2026-05-03T11:42:37.536Z</time></trkpt><trkpt lat="45.8543469" lon="13.9548362"><ele>104.0</ele><time>2026-05-03T11:42:38.536Z</time></trkpt><trkpt lat="45.854462" lon="13.9549052"><ele>104.80000000000001</ele><time>2026-05-03T11:42:39.535Z</time></trkpt><trkpt lat="45.8545815" lon="13.9549526"><ele>105.60000000000001</ele><time>2026-05-03T11:42:40.536Z</time></trkpt><trkpt lat="45.8546965" lon="13.9549975"><ele>106.4</ele><time>2026-05-03T11:42:41.535Z</time></trkpt><trkpt lat="45.8548024" lon="13.9550199"><ele>107.2</ele><time>2026-05-03T11:42:42.535Z</time></trkpt><trkpt lat="45.8548968" lon="13.9550523"><ele>108.0</ele><time>2026-05-03T11:42:43.535Z</time></trkpt><trkpt lat="45.8549847" lon="13.9550973"><ele>108.0</ele><time>2026-05-03T11:42:44.536Z</time></trkpt><trkpt lat="45.8550447" lon="13.9551495"><ele>108.0</ele><time>2026-05-03T11:42:45.535Z</time></trkpt><trkpt lat="45.8550976" lon="13.955232"><ele>108.0</ele><time>2026-05-03T11:42:46.535Z</time></trkpt><trkpt lat="45.855158" lon="13.9552697"><ele>108.0</ele><time>2026-05-03T11:42:47.535Z</time></trkpt><trkpt lat="45.855229" lon="13.95531"><ele>108.0</ele><time>2026-05-03T11:42:48.535Z</time></trkpt><trkpt lat="45.8553123" lon="13.9553543"><ele>108.0</ele><time>2026-05-03T11:42:49.536Z</time></trkpt><trkpt lat="45.8554171" lon="13.9553887"><ele>108.0</ele><time>2026-05-03T11:42:50.535Z</time></trkpt><trkpt lat="45.8555186" lon="13.9554428"><ele>108.0</ele><time>2026-05-03T11:42:51.535Z</time></trkpt><trkpt lat="45.8556354" lon="13.9554781"><ele>108.0</ele><time>2026-05-03T11:42:52.536Z</time></trkpt><trkpt lat="45.8557856" lon="13.9555161"><ele>108.0</ele><time>2026-05-03T11:42:53.536Z</time></trkpt><trkpt lat="45.8559319" lon="13.955541"><ele>109.75</ele><time>2026-05-03T11:42:54.536Z</time></trkpt><trkpt lat="45.8560741" lon="13.95557"><ele>111.5</ele><time>2026-05-03T11:42:55.536Z</time></trkpt><trkpt lat="45.856221" lon="13.9555979"><ele>113.25</ele><time>2026-05-03T11:42:56.536Z</time></trkpt><trkpt lat="45.8563633" lon="13.9556316"><ele>115.0</ele><time>2026-05-03T11:42:57.535Z</time></trkpt><trkpt lat="45.8564923" lon="13.9556678"><ele>115.00000000000001</ele><time>2026-05-03T11:42:58.535Z</time></trkpt><trkpt lat="45.8565984" lon="13.9557083"><ele>115.0</ele><time>2026-05-03T11:42:59.536Z</time></trkpt><trkpt lat="45.8566853" lon="13.9557314"><ele>115.0</ele><time>2026-05-03T11:43:00.536Z</time></trkpt><trkpt lat="45.8567645" lon="13.9557256"><ele>115.0</ele><time>2026-05-03T11:43:01.536Z</time></trkpt><trkpt lat="45.8568332" lon="13.9557376"><ele>115.00000000000001</ele><time>2026-05-03T11:43:02.535Z</time></trkpt><trkpt lat="45.8568944" lon="13.9557748"><ele>115.0</ele><time>2026-05-03T11:43:03.536Z</time></trkpt><trkpt lat="45.8569615" lon="13.9559211"><ele>115.4</ele><time>2026-05-03T11:43:05.536Z</time></trkpt><trkpt lat="45.8569638" lon="13.9560416"><ele>115.8</ele><time>2026-05-03T11:43:06.535Z</time></trkpt><trkpt lat="45.8569565" lon="13.9561641"><ele>116.19999999999999</ele><time>2026-05-03T11:43:07.535Z</time></trkpt><trkpt lat="45.8569462" lon="13.9562974"><ele>116.6</ele><time>2026-05-03T11:43:08.536Z</time></trkpt><trkpt lat="45.8569385" lon="13.9564432"><ele>117.0</ele><time>2026-05-03T11:43:09.535Z</time></trkpt><trkpt lat="45.856921" lon="13.9565996"><ele>116.5</ele><time>2026-05-03T11:43:10.535Z</time></trkpt><trkpt lat="45.8569116" lon="13.9567759"><ele>116.0</ele><time>2026-05-03T11:43:11.536Z</time></trkpt><trkpt lat="45.8568963" lon="13.9569473"><ele>115.5</ele><time>2026-05-03T11:43:12.536Z</time></trkpt><trkpt lat="45.8568837" lon="13.9570994"><ele>115.0</ele><time>2026-05-03T11:43:13.535Z</time></trkpt><trkpt lat="45.8568654" lon="13.9572455"><ele>115.0</ele><time>2026-05-03T11:43:14.536Z</time></trkpt><trkpt lat="45.856861" lon="13.9574275"><ele>115.0</ele><time>2026-05-03T11:43:16.536Z</time></trkpt><trkpt lat="45.8568824" lon="13.957517"><ele>115.0</ele><time>2026-05-03T11:43:18.535Z</time></trkpt><trkpt lat="45.8570168" lon="13.9575565"><ele>115.0</ele><time>2026-05-03T11:43:21.536Z</time></trkpt><trkpt lat="45.8570903" lon="13.9575733"><ele>115.0</ele><time>2026-05-03T11:43:22.535Z</time></trkpt><trkpt lat="45.8571887" lon="13.9575953"><ele>115.0</ele><time>2026-05-03T11:43:23.536Z</time></trkpt><trkpt lat="45.8572812" lon="13.9576062"><ele>115.0</ele><time>2026-05-03T11:43:24.536Z</time></trkpt><trkpt lat="45.8573777" lon="13.9576263"><ele>115.0</ele><time>2026-05-03T11:43:25.535Z</time></trkpt><trkpt lat="45.8574696" lon="13.957635"><ele>115.0</ele><time>2026-05-03T11:43:26.535Z</time></trkpt><trkpt lat="45.8575615" lon="13.9576563"><ele>115.0</ele><time>2026-05-03T11:43:27.536Z</time></trkpt><trkpt lat="45.8576565" lon="13.9576726"><ele>115.00000000000001</ele><time>2026-05-03T11:43:28.535Z</time></trkpt><trkpt lat="45.8577431" lon="13.9576859"><ele>115.0</ele><time>2026-05-03T11:43:29.535Z</time></trkpt><trkpt lat="45.8578361" lon="13.9577006"><ele>115.0</ele><time>2026-05-03T11:43:30.536Z</time></trkpt><trkpt lat="45.8579263" lon="13.9577133"><ele>115.0</ele><time>2026-05-03T11:43:31.536Z</time></trkpt><trkpt lat="45.8580123" lon="13.9577277"><ele>115.00000000000001</ele><time>2026-05-03T11:43:32.536Z</time></trkpt><trkpt lat="45.8580894" lon="13.9577396"><ele>115.0</ele><time>2026-05-03T11:43:33.536Z</time></trkpt><trkpt lat="45.8581696" lon="13.9577461"><ele>114.99999999999999</ele><time>2026-05-03T11:43:34.535Z</time></trkpt><trkpt lat="45.8582403" lon="13.9577562"><ele>115.0</ele><time>2026-05-03T11:43:35.535Z</time></trkpt><trkpt lat="45.8583079" lon="13.9577806"><ele>114.99999999999999</ele><time>2026-05-03T11:43:36.536Z</time></trkpt><trkpt lat="45.858373" lon="13.9577968"><ele>114.99999999999999</ele><time>2026-05-03T11:43:37.536Z</time></trkpt><trkpt lat="45.8584433" lon="13.9578082"><ele>115.0</ele><time>2026-05-03T11:43:38.536Z</time></trkpt><trkpt lat="45.8585082" lon="13.957817"><ele>114.99999999999999</ele><time>2026-05-03T11:43:39.536Z</time></trkpt><trkpt lat="45.8585752" lon="13.957823"><ele>114.99999999999999</ele><time>2026-05-03T11:43:40.536Z</time></trkpt><trkpt lat="45.8587004" lon="13.9578581"><ele>115.00000000000001</ele><time>2026-05-03T11:43:42.536Z</time></trkpt><trkpt lat="45.8587718" lon="13.9578781"><ele>115.0</ele><time>2026-05-03T11:43:43.536Z</time></trkpt><trkpt lat="45.8588501" lon="13.9578963"><ele>115.0</ele><time>2026-05-03T11:43:44.536Z</time></trkpt><trkpt lat="45.8589273" lon="13.9579122"><ele>115.0</ele><time>2026-05-03T11:43:45.535Z</time></trkpt><trkpt lat="45.859014" lon="13.957924"><ele>115.00000000000001</ele><time>2026-05-03T11:43:46.536Z</time></trkpt><trkpt lat="45.8591048" lon="13.9579359"><ele>115.0</ele><time>2026-05-03T11:43:47.536Z</time></trkpt><trkpt lat="45.8592198" lon="13.9579462"><ele>115.4</ele><time>2026-05-03T11:43:48.535Z</time></trkpt><trkpt lat="45.8593324" lon="13.9579704"><ele>115.8</ele><time>2026-05-03T11:43:49.536Z</time></trkpt><trkpt lat="45.8594397" lon="13.958001"><ele>116.19999999999999</ele><time>2026-05-03T11:43:50.536Z</time></trkpt><trkpt lat="45.8595398" lon="13.9580276"><ele>116.6</ele><time>2026-05-03T11:43:51.536Z</time></trkpt><trkpt lat="45.8596443" lon="13.9580524"><ele>117.0</ele><time>2026-05-03T11:43:52.536Z</time></trkpt><trkpt lat="45.8597601" lon="13.9580715"><ele>117.0</ele><time>2026-05-03T11:43:53.536Z</time></trkpt><trkpt lat="45.8598823" lon="13.9580825"><ele>117.0</ele><time>2026-05-03T11:43:54.536Z</time></trkpt><trkpt lat="45.8600084" lon="13.9580932"><ele>117.0</ele><time>2026-05-03T11:43:55.536Z</time></trkpt><trkpt lat="45.8601314" lon="13.9581064"><ele>117.0</ele><time>2026-05-03T11:43:56.535Z</time></trkpt><trkpt lat="45.8602609" lon="13.9581063"><ele>117.75</ele><time>2026-05-03T11:43:57.535Z</time></trkpt><trkpt lat="45.8603875" lon="13.9581235"><ele>118.5</ele><time>2026-05-03T11:43:58.536Z</time></trkpt><trkpt lat="45.8605101" lon="13.9581402"><ele>119.25</ele><time>2026-05-03T11:43:59.535Z</time></trkpt><trkpt lat="45.8606294" lon="13.9581599"><ele>120.0</ele><time>2026-05-03T11:44:00.536Z</time></trkpt><trkpt lat="45.8607457" lon="13.9581814"><ele>120.0</ele><time>2026-05-03T11:44:01.536Z</time></trkpt><trkpt lat="45.860858" lon="13.9581928"><ele>120.0</ele><time>2026-05-03T11:44:02.535Z</time></trkpt><trkpt lat="45.8609649" lon="13.9582148"><ele>120.0</ele><time>2026-05-03T11:44:03.536Z</time></trkpt><trkpt lat="45.8610637" lon="13.9582355"><ele>120.0</ele><time>2026-05-03T11:44:04.536Z</time></trkpt><trkpt lat="45.8611509" lon="13.9582502"><ele>120.0</ele><time>2026-05-03T11:44:05.536Z</time></trkpt><trkpt lat="45.8612206" lon="13.9582689"><ele>120.33333333333333</ele><time>2026-05-03T11:44:06.536Z</time></trkpt><trkpt lat="45.861318" lon="13.9583021"><ele>120.66666666666666</ele><time>2026-05-03T11:44:08.536Z</time></trkpt><trkpt lat="45.8613772" lon="13.9583477"><ele>121.0</ele><time>2026-05-03T11:44:23.535Z</time></trkpt><trkpt lat="45.8614079" lon="13.9584268"><ele>121.33333333333333</ele><time>2026-05-03T11:44:25.531Z</time></trkpt><trkpt lat="45.8614464" lon="13.958568"><ele>121.66666666666666</ele><time>2026-05-03T11:44:27.533Z</time></trkpt><trkpt lat="45.8614651" lon="13.9586682"><ele>122.0</ele><time>2026-05-03T11:44:28.533Z</time></trkpt><trkpt lat="45.8614735" lon="13.9587701"><ele>122.16666666666666</ele><time>2026-05-03T11:44:29.533Z</time></trkpt><trkpt lat="45.8614867" lon="13.9588692"><ele>122.33333333333333</ele><time>2026-05-03T11:44:30.533Z</time></trkpt><trkpt lat="45.8615013" lon="13.9589757"><ele>122.5</ele><time>2026-05-03T11:44:31.532Z</time></trkpt><trkpt lat="45.8615164" lon="13.9590939"><ele>122.66666666666666</ele><time>2026-05-03T11:44:32.533Z</time></trkpt><trkpt lat="45.8615214" lon="13.9592028"><ele>122.83333333333333</ele><time>2026-05-03T11:44:33.532Z</time></trkpt><trkpt lat="45.8615259" lon="13.9592951"><ele>123.0</ele><time>2026-05-03T11:44:34.533Z</time></trkpt><trkpt lat="45.8615728" lon="13.9594106"><ele>123.4</ele><time>2026-05-03T11:44:36.533Z</time></trkpt><trkpt lat="45.8616749" lon="13.9593871"><ele>123.80000000000001</ele><time>2026-05-03T11:44:38.533Z</time></trkpt><trkpt lat="45.8617843" lon="13.9592956"><ele>124.2</ele><time>2026-05-03T11:44:40.532Z</time></trkpt><trkpt lat="45.8618502" lon="13.9592449"><ele>124.6</ele><time>2026-05-03T11:44:41.533Z</time></trkpt><trkpt lat="45.8619247" lon="13.9591985"><ele>125.0</ele><time>2026-05-03T11:44:42.533Z</time></trkpt><trkpt lat="45.8620076" lon="13.9591614"><ele>125.2</ele><time>2026-05-03T11:44:43.533Z</time></trkpt><trkpt lat="45.8620961" lon="13.9591416"><ele>125.4</ele><time>2026-05-03T11:44:44.532Z</time></trkpt><trkpt lat="45.8621899" lon="13.9591252"><ele>125.6</ele><time>2026-05-03T11:44:45.532Z</time></trkpt><trkpt lat="45.8622779" lon="13.9591068"><ele>125.8</ele><time>2026-05-03T11:44:46.533Z</time></trkpt><trkpt lat="45.8623709" lon="13.9591034"><ele>126.0</ele><time>2026-05-03T11:44:47.532Z</time></trkpt><trkpt lat="45.8624726" lon="13.9590921"><ele>126.0</ele><time>2026-05-03T11:44:48.533Z</time></trkpt><trkpt lat="45.8625708" lon="13.9590794"><ele>126.0</ele><time>2026-05-03T11:44:49.532Z</time></trkpt><trkpt lat="45.862668" lon="13.9590658"><ele>126.0</ele><time>2026-05-03T11:44:50.532Z</time></trkpt><trkpt lat="45.8627615" lon="13.9590592"><ele>126.0</ele><time>2026-05-03T11:44:51.533Z</time></trkpt><trkpt lat="45.8628622" lon="13.9590374"><ele>126.0</ele><time>2026-05-03T11:44:52.533Z</time></trkpt><trkpt lat="45.8629588" lon="13.9590153"><ele>126.66666666666667</ele><time>2026-05-03T11:44:53.533Z</time></trkpt><trkpt lat="45.8630572" lon="13.9590018"><ele>127.33333333333334</ele><time>2026-05-03T11:44:54.532Z</time></trkpt><trkpt lat="45.8631425" lon="13.958959"><ele>128.0</ele><time>2026-05-03T11:44:55.532Z</time></trkpt><trkpt lat="45.8632328" lon="13.9589405"><ele>128.66666666666669</ele><time>2026-05-03T11:44:56.532Z</time></trkpt><trkpt lat="45.8633048" lon="13.9589037"><ele>129.33333333333334</ele><time>2026-05-03T11:44:57.532Z</time></trkpt><trkpt lat="45.8633846" lon="13.9588605"><ele>130.0</ele><time>2026-05-03T11:44:58.533Z</time></trkpt><trkpt lat="45.8634451" lon="13.9588223"><ele>130.16666666666669</ele><time>2026-05-03T11:44:59.532Z</time></trkpt><trkpt lat="45.8635078" lon="13.9587894"><ele>130.33333333333334</ele><time>2026-05-03T11:45:00.533Z</time></trkpt><trkpt lat="45.8636017" lon="13.9587541"><ele>130.5</ele><time>2026-05-03T11:45:02.533Z</time></trkpt><trkpt lat="45.8636648" lon="13.9588423"><ele>130.66666666666666</ele><time>2026-05-03T11:45:05.532Z</time></trkpt><trkpt lat="45.8637116" lon="13.9589938"><ele>130.83333333333331</ele><time>2026-05-03T11:45:07.532Z</time></trkpt><trkpt lat="45.8637396" lon="13.9590788"><ele>131.0</ele><time>2026-05-03T11:45:08.533Z</time></trkpt><trkpt lat="45.8637727" lon="13.95917"><ele>130.83333333333331</ele><time>2026-05-03T11:45:09.533Z</time></trkpt><trkpt lat="45.8638039" lon="13.959276"><ele>130.66666666666666</ele><time>2026-05-03T11:45:10.533Z</time></trkpt><trkpt lat="45.8638364" lon="13.9593839"><ele>130.5</ele><time>2026-05-03T11:45:11.533Z</time></trkpt><trkpt lat="45.8638676" lon="13.9595014"><ele>130.33333333333334</ele><time>2026-05-03T11:45:12.532Z</time></trkpt><trkpt lat="45.8639017" lon="13.9596266"><ele>130.16666666666669</ele><time>2026-05-03T11:45:13.533Z</time></trkpt><trkpt lat="45.8639348" lon="13.9597503"><ele>130.0</ele><time>2026-05-03T11:45:14.532Z</time></trkpt><trkpt lat="45.8639696" lon="13.9598584"><ele>130.0</ele><time>2026-05-03T11:45:15.533Z</time></trkpt><trkpt lat="45.8640025" lon="13.959963"><ele>130.0</ele><time>2026-05-03T11:45:16.533Z</time></trkpt><trkpt lat="45.8640284" lon="13.9600708"><ele>130.0</ele><time>2026-05-03T11:45:17.533Z</time></trkpt><trkpt lat="45.8640553" lon="13.9601748"><ele>130.0</ele><time>2026-05-03T11:45:18.532Z</time></trkpt><trkpt lat="45.8640804" lon="13.9602747"><ele>130.0</ele><time>2026-05-03T11:45:19.532Z</time></trkpt><trkpt lat="45.8641077" lon="13.9603785"><ele>130.0</ele><time>2026-05-03T11:45:20.533Z</time></trkpt><trkpt lat="45.8641323" lon="13.9604763"><ele>130.57142857142858</ele><time>2026-05-03T11:45:21.532Z</time></trkpt><trkpt lat="45.864159" lon="13.9605719"><ele>131.14285714285714</ele><time>2026-05-03T11:45:22.533Z</time></trkpt><trkpt lat="45.8641901" lon="13.9606614"><ele>131.71428571428572</ele><time>2026-05-03T11:45:23.533Z</time></trkpt><trkpt lat="45.8642114" lon="13.9607526"><ele>132.28571428571428</ele><time>2026-05-03T11:45:24.532Z</time></trkpt><trkpt lat="45.8642338" lon="13.9608489"><ele>132.85714285714286</ele><time>2026-05-03T11:45:25.533Z</time></trkpt><trkpt lat="45.8642418" lon="13.9609434"><ele>133.42857142857144</ele><time>2026-05-03T11:45:26.533Z</time></trkpt><trkpt lat="45.8642087" lon="13.9610239"><ele>134.0</ele><time>2026-05-03T11:45:27.533Z</time></trkpt><trkpt lat="45.8641622" lon="13.9610878"><ele>134.5</ele><time>2026-05-03T11:45:28.533Z</time></trkpt><trkpt lat="45.8640663" lon="13.9611773"><ele>135.0</ele><time>2026-05-03T11:45:30.532Z</time></trkpt><trkpt lat="45.8640025" lon="13.9612358"><ele>135.5</ele><time>2026-05-03T11:45:31.532Z</time></trkpt><trkpt lat="45.8639478" lon="13.9612877"><ele>136.0</ele><time>2026-05-03T11:45:32.532Z</time></trkpt><trkpt lat="45.8638877" lon="13.9613447"><ele>136.5</ele><time>2026-05-03T11:45:33.533Z</time></trkpt><trkpt lat="45.8638324" lon="13.9614009"><ele>137.0</ele><time>2026-05-03T11:45:34.533Z</time></trkpt><trkpt lat="45.8637395" lon="13.9615216"><ele>137.0</ele><time>2026-05-03T11:45:36.533Z</time></trkpt><trkpt lat="45.8637117" lon="13.9616066"><ele>137.0</ele><time>2026-05-03T11:45:39.533Z</time></trkpt><trkpt lat="45.8637558" lon="13.9616795"><ele>137.0</ele><time>2026-05-03T11:45:41.532Z</time></trkpt><trkpt lat="45.8638492" lon="13.9617715"><ele>137.0</ele><time>2026-05-03T11:45:43.532Z</time></trkpt><trkpt lat="45.8639215" lon="13.9618424"><ele>137.0</ele><time>2026-05-03T11:45:44.533Z</time></trkpt><trkpt lat="45.8639824" lon="13.9619249"><ele>137.0</ele><time>2026-05-03T11:45:45.533Z</time></trkpt><trkpt lat="45.8640476" lon="13.9620125"><ele>136.83333333333331</ele><time>2026-05-03T11:45:46.533Z</time></trkpt><trkpt lat="45.8641039" lon="13.9621045"><ele>136.66666666666666</ele><time>2026-05-03T11:45:47.533Z</time></trkpt><trkpt lat="45.8641595" lon="13.9622051"><ele>136.5</ele><time>2026-05-03T11:45:48.532Z</time></trkpt><trkpt lat="45.8642187" lon="13.9622804"><ele>136.33333333333334</ele><time>2026-05-03T11:45:49.533Z</time></trkpt><trkpt lat="45.8642807" lon="13.9623482"><ele>136.16666666666669</ele><time>2026-05-03T11:45:50.532Z</time></trkpt><trkpt lat="45.8643494" lon="13.9623981"><ele>136.0</ele><time>2026-05-03T11:45:51.533Z</time></trkpt><trkpt lat="45.8644084" lon="13.9624561"><ele>136.99999999999997</ele><time>2026-05-03T11:45:52.533Z</time></trkpt><trkpt lat="45.8644552" lon="13.9625355"><ele>138.0</ele><time>2026-05-03T11:45:53.532Z</time></trkpt><trkpt lat="45.8644878" lon="13.9626259"><ele>139.0</ele><time>2026-05-03T11:45:54.533Z</time></trkpt><trkpt lat="45.8645182" lon="13.9627168"><ele>140.0</ele><time>2026-05-03T11:45:55.533Z</time></trkpt><trkpt lat="45.8645645" lon="13.9627905"><ele>141.0</ele><time>2026-05-03T11:45:56.532Z</time></trkpt><trkpt lat="45.8645981" lon="13.962871"><ele>141.99999999999997</ele><time>2026-05-03T11:45:57.533Z</time></trkpt><trkpt lat="45.864625" lon="13.9629846"><ele>143.0</ele><time>2026-05-03T11:45:58.533Z</time></trkpt><trkpt lat="45.8646542" lon="13.9630983"><ele>143.0</ele><time>2026-05-03T11:45:59.532Z</time></trkpt><trkpt lat="45.8646947" lon="13.9631866"><ele>143.0</ele><time>2026-05-03T11:46:00.532Z</time></trkpt><trkpt lat="45.8647741" lon="13.9632558"><ele>143.0</ele><time>2026-05-03T11:46:01.532Z</time></trkpt><trkpt lat="45.8648152" lon="13.9633517"><ele>143.0</ele><time>2026-05-03T11:46:02.533Z</time></trkpt><trkpt lat="45.8648603" lon="13.9634446"><ele>143.0</ele><time>2026-05-03T11:46:03.532Z</time></trkpt><trkpt lat="45.8648983" lon="13.9635417"><ele>143.0</ele><time>2026-05-03T11:46:04.533Z</time></trkpt><trkpt lat="45.8649459" lon="13.963622"><ele>144.33333333333331</ele><time>2026-05-03T11:46:05.532Z</time></trkpt><trkpt lat="45.8650218" lon="13.9637255"><ele>145.66666666666666</ele><time>2026-05-03T11:46:07.532Z</time></trkpt><trkpt lat="45.8650965" lon="13.9637625"><ele>147.0</ele><time>2026-05-03T11:46:09.532Z</time></trkpt><trkpt lat="45.8651799" lon="13.9637598"><ele>148.33333333333334</ele><time>2026-05-03T11:46:11.533Z</time></trkpt><trkpt lat="45.8651071" lon="13.9637263"><ele>149.66666666666669</ele><time>2026-05-03T11:46:18.532Z</time></trkpt><trkpt lat="45.865032" lon="13.9637031"><ele>151.0</ele><time>2026-05-03T11:46:20.532Z</time></trkpt><trkpt lat="45.8649614" lon="13.963689"><ele>151.0</ele><time>2026-05-03T11:46:22.533Z</time></trkpt><trkpt lat="45.8648938" lon="13.9636996"><ele>151.0</ele><time>2026-05-03T11:46:24.532Z</time></trkpt><trkpt lat="45.864821" lon="13.9637128"><ele>151.0</ele><time>2026-05-03T11:46:26.533Z</time></trkpt><trkpt lat="45.8647415" lon="13.9637137"><ele>151.0</ele><time>2026-05-03T11:46:29.533Z</time></trkpt><trkpt lat="45.8646712" lon="13.9636615"><ele>151.0</ele><time>2026-05-03T11:46:33.533Z</time></trkpt><trkpt lat="45.8647397" lon="13.9636685"><ele>151.0</ele><time>2026-05-03T11:46:39.533Z</time></trkpt><trkpt lat="45.8648294" lon="13.9637146"><ele>151.0</ele><time>2026-05-03T11:46:41.533Z</time></trkpt><trkpt lat="45.8649091" lon="13.9637154"><ele>151.0</ele><time>2026-05-03T11:46:43.533Z</time></trkpt><trkpt lat="45.864941" lon="13.9636282"><ele>151.0</ele><time>2026-05-03T11:46:45.532Z</time></trkpt><trkpt lat="45.8649189" lon="13.9635211"><ele>151.0</ele><time>2026-05-03T11:46:47.532Z</time></trkpt><trkpt lat="45.8648575" lon="13.9634118"><ele>151.0</ele><time>2026-05-03T11:46:49.533Z</time></trkpt><trkpt lat="45.8647936" lon="13.9632909"><ele>151.0</ele><time>2026-05-03T11:46:51.532Z</time></trkpt><trkpt lat="45.8647217" lon="13.9631623"><ele>149.66666666666669</ele><time>2026-05-03T11:46:53.532Z</time></trkpt><trkpt lat="45.8646504" lon="13.9630722"><ele>148.33333333333334</ele><time>2026-05-03T11:46:55.533Z</time></trkpt><trkpt lat="45.864584" lon="13.9630532"><ele>147.0</ele><time>2026-05-03T11:46:57.533Z</time></trkpt><trkpt lat="45.8644797" lon="13.963083"><ele>145.66666666666666</ele><time>2026-05-03T11:46:59.533Z</time></trkpt><trkpt lat="45.8644064" lon="13.9631208"><ele>144.33333333333331</ele><time>2026-05-03T11:47:01.533Z</time></trkpt><trkpt lat="45.8643561" lon="13.9632328"><ele>143.0</ele><time>2026-05-03T11:47:03.533Z</time></trkpt><trkpt lat="45.8643241" lon="13.9633126"><ele>143.83333333333331</ele><time>2026-05-03T11:47:04.533Z</time></trkpt><trkpt lat="45.8642948" lon="13.9634241"><ele>144.66666666666666</ele><time>2026-05-03T11:47:06.533Z</time></trkpt><trkpt lat="45.8642739" lon="13.9635191"><ele>145.5</ele><time>2026-05-03T11:47:09.533Z</time></trkpt><trkpt lat="45.8643127" lon="13.9636183"><ele>146.33333333333334</ele><time>2026-05-03T11:47:11.533Z</time></trkpt><trkpt lat="45.8643765" lon="13.9637006"><ele>147.16666666666669</ele><time>2026-05-03T11:47:13.532Z</time></trkpt><trkpt lat="45.8644377" lon="13.9638143"><ele>148.0</ele><time>2026-05-03T11:47:15.532Z</time></trkpt><trkpt lat="45.8644923" lon="13.9639073"><ele>148.6</ele><time>2026-05-03T11:47:17.533Z</time></trkpt><trkpt lat="45.8645435" lon="13.9639841"><ele>149.20000000000002</ele><time>2026-05-03T11:47:20.533Z</time></trkpt><trkpt lat="45.8645204" lon="13.9638413"><ele>149.8</ele><time>2026-05-03T11:47:33.532Z</time></trkpt><trkpt lat="45.8644472" lon="13.9637318"><ele>150.4</ele><time>2026-05-03T11:47:36.533Z</time></trkpt><trkpt lat="45.864364" lon="13.9636545"><ele>151.0</ele><time>2026-05-03T11:47:38.533Z</time></trkpt><trkpt lat="45.8642809" lon="13.9635826"><ele>150.5</ele><time>2026-05-03T11:47:40.532Z</time></trkpt><trkpt lat="45.864196" lon="13.963528"><ele>150.0</ele><time>2026-05-03T11:47:42.533Z</time></trkpt><trkpt lat="45.864072" lon="13.9635455"><ele>149.5</ele><time>2026-05-03T11:47:44.533Z</time></trkpt><trkpt lat="45.8640054" lon="13.9635662"><ele>149.0</ele><time>2026-05-03T11:47:45.532Z</time></trkpt><trkpt lat="45.8639469" lon="13.9636053"><ele>148.5</ele><time>2026-05-03T11:47:46.533Z</time></trkpt><trkpt lat="45.8638803" lon="13.9636604"><ele>148.0</ele><time>2026-05-03T11:47:47.533Z</time></trkpt><trkpt lat="45.863828" lon="13.9637111"><ele>148.0</ele><time>2026-05-03T11:47:48.533Z</time></trkpt><trkpt lat="45.8637632" lon="13.9637714"><ele>148.0</ele><time>2026-05-03T11:47:49.533Z</time></trkpt><trkpt lat="45.8637096" lon="13.9638281"><ele>148.0</ele><time>2026-05-03T11:47:50.533Z</time></trkpt><trkpt lat="45.8636582" lon="13.963904"><ele>148.0</ele><time>2026-05-03T11:47:51.533Z</time></trkpt><trkpt lat="45.8636152" lon="13.9639778"><ele>148.0</ele><time>2026-05-03T11:47:52.532Z</time></trkpt><trkpt lat="45.8635872" lon="13.9641091"><ele>148.0</ele><time>2026-05-03T11:47:53.532Z</time></trkpt><trkpt lat="45.8635292" lon="13.9641825"><ele>151.5</ele><time>2026-05-03T11:47:54.532Z</time></trkpt><trkpt lat="45.8634588" lon="13.9642603"><ele>155.0</ele><time>2026-05-03T11:47:55.532Z</time></trkpt><trkpt lat="45.8633943" lon="13.9643315"><ele>158.5</ele><time>2026-05-03T11:47:56.532Z</time></trkpt><trkpt lat="45.8633176" lon="13.9643054"><ele>162.0</ele><time>2026-05-03T11:47:57.532Z</time></trkpt><trkpt lat="45.8632411" lon="13.9643295"><ele>165.5</ele><time>2026-05-03T11:47:58.533Z</time></trkpt><trkpt lat="45.8631705" lon="13.9643073"><ele>169.0</ele><time>2026-05-03T11:47:59.532Z</time></trkpt><trkpt lat="45.8630932" lon="13.9643254"><ele>169.0</ele><time>2026-05-03T11:48:00.533Z</time></trkpt><trkpt lat="45.8630024" lon="13.9643323"><ele>169.0</ele><time>2026-05-03T11:48:01.533Z</time></trkpt><trkpt lat="45.8629265" lon="13.9643422"><ele>169.0</ele><time>2026-05-03T11:48:02.533Z</time></trkpt><trkpt lat="45.8628537" lon="13.9643856"><ele>169.0</ele><time>2026-05-03T11:48:03.532Z</time></trkpt><trkpt lat="45.8627952" lon="13.9644224"><ele>169.0</ele><time>2026-05-03T11:48:04.532Z</time></trkpt><trkpt lat="45.8627312" lon="13.9644924"><ele>169.0</ele><time>2026-05-03T11:48:06.533Z</time></trkpt><trkpt lat="45.862789" lon="13.9646173"><ele>169.0</ele><time>2026-05-03T11:48:10.532Z</time></trkpt><trkpt lat="45.8628689" lon="13.9646751"><ele>169.0</ele><time>2026-05-03T11:48:11.532Z</time></trkpt><trkpt lat="45.8629364" lon="13.9647292"><ele>169.0</ele><time>2026-05-03T11:48:12.533Z</time></trkpt><trkpt lat="45.8630086" lon="13.9647851"><ele>169.0</ele><time>2026-05-03T11:48:13.533Z</time></trkpt><trkpt lat="45.8630775" lon="13.9648718"><ele>169.0</ele><time>2026-05-03T11:48:14.532Z</time></trkpt><trkpt lat="45.863159" lon="13.9649134"><ele>169.0</ele><time>2026-05-03T11:48:15.533Z</time></trkpt><trkpt lat="45.8632414" lon="13.9649791"><ele>173.6</ele><time>2026-05-03T11:48:16.533Z</time></trkpt><trkpt lat="45.8633369" lon="13.9650537"><ele>178.2</ele><time>2026-05-03T11:48:17.533Z</time></trkpt><trkpt lat="45.8634329" lon="13.9651042"><ele>182.79999999999998</ele><time>2026-05-03T11:48:18.533Z</time></trkpt><trkpt lat="45.8635145" lon="13.9651611"><ele>187.39999999999998</ele><time>2026-05-03T11:48:19.532Z</time></trkpt><trkpt lat="45.8636077" lon="13.965208"><ele>192.0</ele><time>2026-05-03T11:48:20.532Z</time></trkpt><trkpt lat="45.8637259" lon="13.9652237"><ele>192.0</ele><time>2026-05-03T11:48:21.533Z</time></trkpt><trkpt lat="45.8638174" lon="13.9652831"><ele>192.0</ele><time>2026-05-03T11:48:22.533Z</time></trkpt><trkpt lat="45.863926" lon="13.9653186"><ele>192.0</ele><time>2026-05-03T11:48:23.532Z</time></trkpt><trkpt lat="45.8640591" lon="13.9653221"><ele>192.0</ele><time>2026-05-03T11:48:24.533Z</time></trkpt><trkpt lat="45.8641828" lon="13.9653546"><ele>192.2</ele><time>2026-05-03T11:48:25.532Z</time></trkpt><trkpt lat="45.8642915" lon="13.9653924"><ele>192.39999999999998</ele><time>2026-05-03T11:48:26.532Z</time></trkpt><trkpt lat="45.8644009" lon="13.9654323"><ele>192.60000000000002</ele><time>2026-05-03T11:48:27.533Z</time></trkpt><trkpt lat="45.8645167" lon="13.9654472"><ele>192.8</ele><time>2026-05-03T11:48:28.533Z</time></trkpt><trkpt lat="45.8646205" lon="13.9654397"><ele>193.0</ele><time>2026-05-03T11:48:29.533Z</time></trkpt><trkpt lat="45.8647288" lon="13.9654476"><ele>193.0</ele><time>2026-05-03T11:48:30.532Z</time></trkpt><trkpt lat="45.8648174" lon="13.9654679"><ele>193.0</ele><time>2026-05-03T11:48:31.533Z</time></trkpt><trkpt lat="45.8649038" lon="13.9654988"><ele>193.0</ele><time>2026-05-03T11:48:32.533Z</time></trkpt><trkpt lat="45.8649831" lon="13.9656393"><ele>193.0</ele><time>2026-05-03T11:48:34.532Z</time></trkpt><trkpt lat="45.8650714" lon="13.9657508"><ele>193.0</ele><time>2026-05-03T11:48:36.533Z</time></trkpt><trkpt lat="45.8651432" lon="13.9658846"><ele>193.49999999999997</ele><time>2026-05-03T11:48:38.533Z</time></trkpt><trkpt lat="45.8651767" lon="13.965968"><ele>194.0</ele><time>2026-05-03T11:48:39.533Z</time></trkpt><trkpt lat="45.8652198" lon="13.9660438"><ele>194.5</ele><time>2026-05-03T11:48:40.533Z</time></trkpt><trkpt lat="45.8652565" lon="13.9661182"><ele>195.0</ele><time>2026-05-03T11:48:41.533Z</time></trkpt><trkpt lat="45.8653385" lon="13.9662551"><ele>195.49999999999997</ele><time>2026-05-03T11:48:43.532Z</time></trkpt><trkpt lat="45.8653684" lon="13.9663362"><ele>196.0</ele><time>2026-05-03T11:48:44.533Z</time></trkpt><trkpt lat="45.8653975" lon="13.9664219"><ele>195.99999999999997</ele><time>2026-05-03T11:48:45.532Z</time></trkpt><trkpt lat="45.8654474" lon="13.9665005"><ele>196.0</ele><time>2026-05-03T11:48:46.533Z</time></trkpt><trkpt lat="45.8655001" lon="13.9665765"><ele>196.0</ele><time>2026-05-03T11:48:47.532Z</time></trkpt><trkpt lat="45.8655388" lon="13.9666618"><ele>196.0</ele><time>2026-05-03T11:48:48.533Z</time></trkpt><trkpt lat="45.8655714" lon="13.9667435"><ele>195.99999999999997</ele><time>2026-05-03T11:48:49.533Z</time></trkpt><trkpt lat="45.8656279" lon="13.966904"><ele>196.0</ele><time>2026-05-03T11:48:51.533Z</time></trkpt><trkpt lat="45.8656503" lon="13.9670378"><ele>196.0</ele><time>2026-05-03T11:48:53.533Z</time></trkpt><trkpt lat="45.8656595" lon="13.9671353"><ele>196.0</ele><time>2026-05-03T11:48:55.533Z</time></trkpt><trkpt lat="45.8656059" lon="13.9670383"><ele>196.0</ele><time>2026-05-03T11:49:40.533Z</time></trkpt><trkpt lat="45.8655718" lon="13.9668186"><ele>196.0</ele><time>2026-05-03T11:49:43.534Z</time></trkpt><trkpt lat="45.8655599" lon="13.966708"><ele>196.0</ele><time>2026-05-03T11:49:44.533Z</time></trkpt><trkpt lat="45.8655168" lon="13.9665989"><ele>196.0</ele><time>2026-05-03T11:49:45.534Z</time></trkpt><trkpt lat="45.8654549" lon="13.9664927"><ele>196.0</ele><time>2026-05-03T11:49:46.533Z</time></trkpt><trkpt lat="45.8654043" lon="13.9663875"><ele>196.0</ele><time>2026-05-03T11:49:47.533Z</time></trkpt><trkpt lat="45.8653463" lon="13.9662894"><ele>196.0</ele><time>2026-05-03T11:49:48.533Z</time></trkpt><trkpt lat="45.8652897" lon="13.9661872"><ele>196.0</ele><time>2026-05-03T11:49:49.533Z</time></trkpt><trkpt lat="45.8652334" lon="13.9660947"><ele>195.99999999999997</ele><time>2026-05-03T11:49:50.533Z</time></trkpt><trkpt lat="45.8651885" lon="13.9660034"><ele>196.0</ele><time>2026-05-03T11:49:51.533Z</time></trkpt><trkpt lat="45.8651217" lon="13.9658686"><ele>196.0</ele><time>2026-05-03T11:49:53.533Z</time></trkpt><trkpt lat="45.8650646" lon="13.9657793"><ele>196.0</ele><time>2026-05-03T11:49:55.533Z</time></trkpt><trkpt lat="45.8649978" lon="13.9657521"><ele>195.99999999999997</ele><time>2026-05-03T11:49:57.533Z</time></trkpt><trkpt lat="45.864927" lon="13.9657856"><ele>196.0</ele><time>2026-05-03T11:49:59.534Z</time></trkpt><trkpt lat="45.8648383" lon="13.9658704"><ele>199.66666666666666</ele><time>2026-05-03T11:50:01.533Z</time></trkpt><trkpt lat="45.8648027" lon="13.965961"><ele>203.33333333333331</ele><time>2026-05-03T11:51:32.534Z</time></trkpt><trkpt lat="45.8647504" lon="13.9660198"><ele>207.0</ele><time>2026-05-03T11:51:34.534Z</time></trkpt><trkpt lat="45.8646862" lon="13.9660844"><ele>210.66666666666669</ele><time>2026-05-03T11:51:36.533Z</time></trkpt><trkpt lat="45.8646202" lon="13.9661535"><ele>214.33333333333334</ele><time>2026-05-03T11:51:38.533Z</time></trkpt><trkpt lat="45.8645317" lon="13.9662083"><ele>218.0</ele><time>2026-05-03T11:51:40.534Z</time></trkpt><trkpt lat="45.8644485" lon="13.9662899"><ele>218.0</ele><time>2026-05-03T11:51:42.534Z</time></trkpt><trkpt lat="45.8643496" lon="13.9663714"><ele>218.0</ele><time>2026-05-03T11:51:44.534Z</time></trkpt><trkpt lat="45.8642561" lon="13.9664451"><ele>218.0</ele><time>2026-05-03T11:51:46.534Z</time></trkpt><trkpt lat="45.86417" lon="13.9665153"><ele>218.0</ele><time>2026-05-03T11:51:48.534Z</time></trkpt><trkpt lat="45.8640721" lon="13.9665681"><ele>218.0</ele><time>2026-05-03T11:51:50.533Z</time></trkpt><trkpt lat="45.8639778" lon="13.9666209"><ele>217.8</ele><time>2026-05-03T11:51:52.534Z</time></trkpt><trkpt lat="45.8638786" lon="13.9666924"><ele>217.60000000000002</ele><time>2026-05-03T11:51:54.534Z</time></trkpt><trkpt lat="45.8637717" lon="13.9667493"><ele>217.39999999999998</ele><time>2026-05-03T11:51:56.533Z</time></trkpt><trkpt lat="45.863695" lon="13.9668307"><ele>217.2</ele><time>2026-05-03T11:51:58.533Z</time></trkpt><trkpt lat="45.8636284" lon="13.9668526"><ele>217.0</ele><time>2026-05-03T11:51:59.534Z</time></trkpt><trkpt lat="45.8635256" lon="13.966923"><ele>222.33333333333331</ele><time>2026-05-03T11:52:01.534Z</time></trkpt><trkpt lat="45.863413" lon="13.9669948"><ele>227.66666666666666</ele><time>2026-05-03T11:52:03.534Z</time></trkpt><trkpt lat="45.8633536" lon="13.9670386"><ele>233.0</ele><time>2026-05-03T11:52:04.533Z</time></trkpt><trkpt lat="45.8632938" lon="13.9670729"><ele>238.33333333333331</ele><time>2026-05-03T11:52:05.533Z</time></trkpt><trkpt lat="45.8632342" lon="13.967119"><ele>243.66666666666666</ele><time>2026-05-03T11:52:06.533Z</time></trkpt><trkpt lat="45.8631404" lon="13.9671733"><ele>249.0</ele><time>2026-05-03T11:52:08.533Z</time></trkpt><trkpt lat="45.863076" lon="13.9671988"><ele>249.0</ele><time>2026-05-03T11:52:09.534Z</time></trkpt><trkpt lat="45.863012" lon="13.967233"><ele>248.99999999999997</ele><time>2026-05-03T11:52:10.534Z</time></trkpt><trkpt lat="45.8628977" lon="13.9672573"><ele>248.99999999999997</ele><time>2026-05-03T11:52:12.534Z</time></trkpt><trkpt lat="45.8627753" lon="13.9672826"><ele>249.0</ele><time>2026-05-03T11:52:14.534Z</time></trkpt><trkpt lat="45.8627019" lon="13.9673086"><ele>249.0</ele><time>2026-05-03T11:52:15.534Z</time></trkpt><trkpt lat="45.8625857" lon="13.9673447"><ele>250.0</ele><time>2026-05-03T11:52:17.533Z</time></trkpt><trkpt lat="45.8624751" lon="13.9673931"><ele>250.99999999999997</ele><time>2026-05-03T11:52:19.534Z</time></trkpt><trkpt lat="45.8623582" lon="13.9674469"><ele>251.99999999999997</ele><time>2026-05-03T11:52:21.534Z</time></trkpt><trkpt lat="45.8622363" lon="13.9674909"><ele>253.0</ele><time>2026-05-03T11:52:23.533Z</time></trkpt><trkpt lat="45.8621721" lon="13.9675082"><ele>254.0</ele><time>2026-05-03T11:52:24.534Z</time></trkpt><trkpt lat="45.8620578" lon="13.9675295"><ele>258.0</ele><time>2026-05-03T11:52:26.533Z</time></trkpt><trkpt lat="45.8619888" lon="13.9675571"><ele>262.0</ele><time>2026-05-03T11:52:27.533Z</time></trkpt><trkpt lat="45.8618608" lon="13.9676343"><ele>266.0</ele><time>2026-05-03T11:52:29.533Z</time></trkpt><trkpt lat="45.8617873" lon="13.9676581"><ele>270.0</ele><time>2026-05-03T11:52:30.534Z</time></trkpt><trkpt lat="45.8617207" lon="13.9676788"><ele>274.0</ele><time>2026-05-03T11:52:31.533Z</time></trkpt><trkpt lat="45.8616466" lon="13.9677235"><ele>278.0</ele><time>2026-05-03T11:52:32.533Z</time></trkpt><trkpt lat="45.8615811" lon="13.9677753"><ele>278.83333333333337</ele><time>2026-05-03T11:52:33.534Z</time></trkpt><trkpt lat="45.8615149" lon="13.9678365"><ele>279.6666666666667</ele><time>2026-05-03T11:52:34.533Z</time></trkpt><trkpt lat="45.8614486" lon="13.9678815"><ele>280.5</ele><time>2026-05-03T11:52:35.534Z</time></trkpt><trkpt lat="45.8613862" lon="13.9679308"><ele>281.3333333333333</ele><time>2026-05-03T11:52:36.534Z</time></trkpt><trkpt lat="45.8612983" lon="13.9680577"><ele>282.16666666666663</ele><time>2026-05-03T11:52:37.534Z</time></trkpt><trkpt lat="45.861237" lon="13.9681167"><ele>283.0</ele><time>2026-05-03T11:52:38.534Z</time></trkpt><trkpt lat="45.8611508" lon="13.9681838"><ele>283.0</ele><time>2026-05-03T11:52:39.534Z</time></trkpt><trkpt lat="45.8610902" lon="13.9682376"><ele>283.0</ele><time>2026-05-03T11:52:40.533Z</time></trkpt><trkpt lat="45.8610192" lon="13.9683071"><ele>283.0</ele><time>2026-05-03T11:52:41.534Z</time></trkpt><trkpt lat="45.8609586" lon="13.9683406"><ele>283.0</ele><time>2026-05-03T11:52:42.533Z</time></trkpt><trkpt lat="45.860898" lon="13.9684132"><ele>283.0</ele><time>2026-05-03T11:52:43.534Z</time></trkpt><trkpt lat="45.8608168" lon="13.9684721"><ele>283.0</ele><time>2026-05-03T11:52:44.533Z</time></trkpt><trkpt lat="45.8607536" lon="13.9685092"><ele>286.16666666666663</ele><time>2026-05-03T11:52:45.533Z</time></trkpt><trkpt lat="45.860677" lon="13.9685353"><ele>289.3333333333333</ele><time>2026-05-03T11:52:46.534Z</time></trkpt><trkpt lat="45.8605907" lon="13.9685624"><ele>292.5</ele><time>2026-05-03T11:52:47.534Z</time></trkpt><trkpt lat="45.8605089" lon="13.9685845"><ele>295.6666666666667</ele><time>2026-05-03T11:52:48.534Z</time></trkpt><trkpt lat="45.8604277" lon="13.9686016"><ele>298.83333333333337</ele><time>2026-05-03T11:52:49.533Z</time></trkpt><trkpt lat="45.8603523" lon="13.9686156"><ele>302.0</ele><time>2026-05-03T11:52:50.534Z</time></trkpt><trkpt lat="45.8602759" lon="13.9686354"><ele>302.0</ele><time>2026-05-03T11:52:51.533Z</time></trkpt><trkpt lat="45.8601932" lon="13.9686535"><ele>302.0</ele><time>2026-05-03T11:52:52.533Z</time></trkpt><trkpt lat="45.8601122" lon="13.9686811"><ele>302.0</ele><time>2026-05-03T11:52:53.534Z</time></trkpt><trkpt lat="45.8600244" lon="13.9687274"><ele>302.0</ele><time>2026-05-03T11:52:54.533Z</time></trkpt><trkpt lat="45.85994" lon="13.9687653"><ele>302.0</ele><time>2026-05-03T11:52:55.533Z</time></trkpt><trkpt lat="45.8598761" lon="13.9687949"><ele>302.0</ele><time>2026-05-03T11:52:56.534Z</time></trkpt><trkpt lat="45.8597934" lon="13.9688432"><ele>302.6</ele><time>2026-05-03T11:52:58.533Z</time></trkpt><trkpt lat="45.8597175" lon="13.9688489"><ele>303.2</ele><time>2026-05-03T11:53:01.533Z</time></trkpt><trkpt lat="45.8596479" lon="13.9689181"><ele>303.8</ele><time>2026-05-03T11:53:05.534Z</time></trkpt><trkpt lat="45.8597531" lon="13.968904"><ele>304.4</ele><time>2026-05-03T11:53:15.534Z</time></trkpt><trkpt lat="45.8598664" lon="13.9688716"><ele>305.0</ele><time>2026-05-03T11:53:17.533Z</time></trkpt><trkpt lat="45.8599914" lon="13.9689078"><ele>305.0</ele><time>2026-05-03T11:53:19.533Z</time></trkpt><trkpt lat="45.860068" lon="13.9689159"><ele>305.0</ele><time>2026-05-03T11:53:20.533Z</time></trkpt><trkpt lat="45.8601366" lon="13.9689436"><ele>305.0</ele><time>2026-05-03T11:53:21.533Z</time></trkpt><trkpt lat="45.8602333" lon="13.9690031"><ele>305.0</ele><time>2026-05-03T11:53:23.534Z</time></trkpt><trkpt lat="45.860304" lon="13.9690522"><ele>305.0</ele><time>2026-05-03T11:53:24.534Z</time></trkpt><trkpt lat="45.8603976" lon="13.9691291"><ele>305.0</ele><time>2026-05-03T11:53:26.533Z</time></trkpt><trkpt lat="45.8605049" lon="13.9691869"><ele>308.4</ele><time>2026-05-03T11:53:28.533Z</time></trkpt><trkpt lat="45.8606367" lon="13.9692469"><ele>311.8</ele><time>2026-05-03T11:53:30.533Z</time></trkpt><trkpt lat="45.8606983" lon="13.969285"><ele>315.20000000000005</ele><time>2026-05-03T11:53:31.533Z</time></trkpt><trkpt lat="45.8607461" lon="13.9693775"><ele>318.6</ele><time>2026-05-03T11:53:32.533Z</time></trkpt><trkpt lat="45.8608339" lon="13.9694439"><ele>322.0</ele><time>2026-05-03T11:53:33.534Z</time></trkpt><trkpt lat="45.8608968" lon="13.9695188"><ele>322.0</ele><time>2026-05-03T11:53:34.533Z</time></trkpt><trkpt lat="45.8609534" lon="13.9695768"><ele>322.0</ele><time>2026-05-03T11:53:35.533Z</time></trkpt><trkpt lat="45.8610562" lon="13.9696301"><ele>322.0</ele><time>2026-05-03T11:53:37.533Z</time></trkpt><trkpt lat="45.8611156" lon="13.9696617"><ele>322.0</ele><time>2026-05-03T11:53:38.534Z</time></trkpt><trkpt lat="45.8611522" lon="13.9697828"><ele>322.0</ele><time>2026-05-03T11:53:40.534Z</time></trkpt><trkpt lat="45.8612014" lon="13.9698549"><ele>322.0</ele><time>2026-05-03T11:53:41.534Z</time></trkpt><trkpt lat="45.8613103" lon="13.9699203"><ele>322.0</ele><time>2026-05-03T11:53:43.533Z</time></trkpt><trkpt lat="45.8613694" lon="13.9699648"><ele>322.0</ele><time>2026-05-03T11:53:44.534Z</time></trkpt><trkpt lat="45.8614412" lon="13.9700404"><ele>322.0</ele><time>2026-05-03T11:53:46.534Z</time></trkpt><trkpt lat="45.8614876" lon="13.9701379"><ele>322.0</ele><time>2026-05-03T11:53:48.533Z</time></trkpt><trkpt lat="45.8615589" lon="13.9702319"><ele>322.0</ele><time>2026-05-03T11:53:50.534Z</time></trkpt><trkpt lat="45.8616496" lon="13.9703182"><ele>322.0</ele><time>2026-05-03T11:53:52.533Z</time></trkpt><trkpt lat="45.8617008" lon="13.9703965"><ele>324.0</ele><time>2026-05-03T11:53:53.534Z</time></trkpt><trkpt lat="45.8618187" lon="13.9704897"><ele>326.0</ele><time>2026-05-03T11:53:55.533Z</time></trkpt><trkpt lat="45.8618818" lon="13.9705705"><ele>328.0</ele><time>2026-05-03T11:53:57.534Z</time></trkpt><trkpt lat="45.8619529" lon="13.9706977"><ele>330.0</ele><time>2026-05-03T11:53:59.534Z</time></trkpt><trkpt lat="45.8620459" lon="13.9708048"><ele>332.8</ele><time>2026-05-03T11:54:01.534Z</time></trkpt><trkpt lat="45.8621295" lon="13.9709133"><ele>335.6</ele><time>2026-05-03T11:54:03.533Z</time></trkpt><trkpt lat="45.8621948" lon="13.9710371"><ele>338.4</ele><time>2026-05-03T11:54:05.533Z</time></trkpt><trkpt lat="45.8622503" lon="13.9711697"><ele>341.2</ele><time>2026-05-03T11:54:07.533Z</time></trkpt><trkpt lat="45.8622841" lon="13.9713098"><ele>344.0</ele><time>2026-05-03T11:54:09.534Z</time></trkpt><trkpt lat="45.8623578" lon="13.9713789"><ele>344.0</ele><time>2026-05-03T11:54:11.533Z</time></trkpt><trkpt lat="45.8624473" lon="13.9714476"><ele>344.0</ele><time>2026-05-03T11:54:13.534Z</time></trkpt><trkpt lat="45.8625038" lon="13.9715007"><ele>344.0</ele><time>2026-05-03T11:54:14.533Z</time></trkpt><trkpt lat="45.8625667" lon="13.9715151"><ele>344.0</ele><time>2026-05-03T11:54:15.533Z</time></trkpt><trkpt lat="45.8626648" lon="13.9716056"><ele>344.0</ele><time>2026-05-03T11:54:17.533Z</time></trkpt><trkpt lat="45.8627371" lon="13.9717195"><ele>342.0</ele><time>2026-05-03T11:54:19.534Z</time></trkpt><trkpt lat="45.8626865" lon="13.9716235"><ele>330.0</ele><time>2026-05-03T11:55:02.534Z</time></trkpt><trkpt lat="45.8626177" lon="13.9715852"><ele>330.0</ele><time>2026-05-03T11:55:04.533Z</time></trkpt><trkpt lat="45.8625528" lon="13.9715393"><ele>344.0</ele><time>2026-05-03T11:55:06.534Z</time></trkpt><trkpt lat="45.8624869" lon="13.9714599"><ele>344.0</ele><time>2026-05-03T11:55:09.534Z</time></trkpt></trkseg><trkseg><trkpt lat="45.8614032" lon="13.9711802"><ele>357.0</ele><time>2026-05-03T12:13:55.527Z</time></trkpt><trkpt lat="45.8613597" lon="13.9712797"><ele>357.0</ele><time>2026-05-03T12:14:09.527Z</time></trkpt><trkpt lat="45.8613031" lon="13.9713546"><ele>357.0</ele><time>2026-05-03T12:14:13.527Z</time></trkpt><trkpt lat="45.8612515" lon="13.9714265"><ele>357.0</ele><time>2026-05-03T12:14:19.526Z</time></trkpt><trkpt lat="45.8611878" lon="13.9714437"><ele>357.0</ele><time>2026-05-03T12:14:22.526Z</time></trkpt><trkpt lat="45.8611213" lon="13.9714746"><ele>357.0</ele><time>2026-05-03T12:14:24.526Z</time></trkpt><trkpt lat="45.8610647" lon="13.9715245"><ele>357.0</ele><time>2026-05-03T12:14:26.526Z</time></trkpt><trkpt lat="45.8609833" lon="13.9715569"><ele>358.8333333333333</ele><time>2026-05-03T12:14:29.527Z</time></trkpt><trkpt lat="45.8608991" lon="13.9715247"><ele>360.6666666666667</ele><time>2026-05-03T12:14:32.527Z</time></trkpt><trkpt lat="45.8608238" lon="13.9715081"><ele>362.5</ele><time>2026-05-03T12:14:34.526Z</time></trkpt><trkpt lat="45.8607392" lon="13.971504"><ele>364.33333333333337</ele><time>2026-05-03T12:14:36.527Z</time></trkpt><trkpt lat="45.860672" lon="13.9715317"><ele>366.1666666666667</ele><time>2026-05-03T12:14:38.526Z</time></trkpt><trkpt lat="45.8605889" lon="13.9715819"><ele>368.0</ele><time>2026-05-03T12:14:40.527Z</time></trkpt><trkpt lat="45.8604776" lon="13.9716075"><ele>368.0</ele><time>2026-05-03T12:14:42.527Z</time></trkpt><trkpt lat="45.86042" lon="13.9716705"><ele>368.0</ele><time>2026-05-03T12:14:44.526Z</time></trkpt><trkpt lat="45.8604364" lon="13.9717778"><ele>368.0</ele><time>2026-05-03T12:14:47.527Z</time></trkpt><trkpt lat="45.8604772" lon="13.9718655"><ele>368.0</ele><time>2026-05-03T12:14:49.527Z</time></trkpt><trkpt lat="45.8605203" lon="13.9719677"><ele>368.0</ele><time>2026-05-03T12:14:51.527Z</time></trkpt><trkpt lat="45.8605837" lon="13.9720503"><ele>368.0</ele><time>2026-05-03T12:14:53.526Z</time></trkpt><trkpt lat="45.8606459" lon="13.9721543"><ele>372.0</ele><time>2026-05-03T12:14:56.526Z</time></trkpt><trkpt lat="45.860686" lon="13.9722691"><ele>376.0</ele><time>2026-05-03T12:14:59.526Z</time></trkpt><trkpt lat="45.8607304" lon="13.9723985"><ele>380.0</ele><time>2026-05-03T12:15:01.527Z</time></trkpt><trkpt lat="45.8607797" lon="13.9725491"><ele>384.0</ele><time>2026-05-03T12:15:03.527Z</time></trkpt><trkpt lat="45.8608182" lon="13.9726708"><ele>388.0</ele><time>2026-05-03T12:15:05.526Z</time></trkpt><trkpt lat="45.8608176" lon="13.9727675"><ele>390.50000000000006</ele><time>2026-05-03T12:15:07.527Z</time></trkpt><trkpt lat="45.8608702" lon="13.97286"><ele>393.0</ele><time>2026-05-03T12:15:09.527Z</time></trkpt><trkpt lat="45.8608981" lon="13.9729593"><ele>395.5</ele><time>2026-05-03T12:15:11.526Z</time></trkpt><trkpt lat="45.8609013" lon="13.9730854"><ele>398.0</ele><time>2026-05-03T12:15:13.527Z</time></trkpt><trkpt lat="45.8608962" lon="13.9732075"><ele>400.50000000000006</ele><time>2026-05-03T12:15:15.526Z</time></trkpt><trkpt lat="45.8608848" lon="13.9733293"><ele>403.0</ele><time>2026-05-03T12:15:17.526Z</time></trkpt><trkpt lat="45.8608611" lon="13.9734487"><ele>405.59999999999997</ele><time>2026-05-03T12:15:19.526Z</time></trkpt><trkpt lat="45.8608455" lon="13.9735838"><ele>408.2</ele><time>2026-05-03T12:15:21.526Z</time></trkpt><trkpt lat="45.8608012" lon="13.9737319"><ele>410.8</ele><time>2026-05-03T12:15:23.527Z</time></trkpt><trkpt lat="45.8607965" lon="13.9738648"><ele>413.4</ele><time>2026-05-03T12:15:25.527Z</time></trkpt><trkpt lat="45.8608214" lon="13.9740024"><ele>416.0</ele><time>2026-05-03T12:15:27.527Z</time></trkpt><trkpt lat="45.8608315" lon="13.974141"><ele>417.6</ele><time>2026-05-03T12:15:29.526Z</time></trkpt><trkpt lat="45.8608509" lon="13.9743182"><ele>419.20000000000005</ele><time>2026-05-03T12:15:31.527Z</time></trkpt><trkpt lat="45.8608672" lon="13.9744258"><ele>420.79999999999995</ele><time>2026-05-03T12:15:33.527Z</time></trkpt><trkpt lat="45.8609084" lon="13.9745273"><ele>422.4</ele><time>2026-05-03T12:15:36.526Z</time></trkpt><trkpt lat="45.860887" lon="13.9746171"><ele>424.0</ele><time>2026-05-03T12:15:38.526Z</time></trkpt><trkpt lat="45.8608164" lon="13.9747397"><ele>424.00000000000006</ele><time>2026-05-03T12:15:40.526Z</time></trkpt><trkpt lat="45.8607701" lon="13.9748449"><ele>424.0</ele><time>2026-05-03T12:15:42.527Z</time></trkpt><trkpt lat="45.8607281" lon="13.9749306"><ele>424.0</ele><time>2026-05-03T12:15:44.527Z</time></trkpt><trkpt lat="45.8606756" lon="13.9750638"><ele>424.0</ele><time>2026-05-03T12:15:46.527Z</time></trkpt><trkpt lat="45.8606041" lon="13.9751474"><ele>424.00000000000006</ele><time>2026-05-03T12:15:48.527Z</time></trkpt><trkpt lat="45.8605215" lon="13.9751958"><ele>424.0</ele><time>2026-05-03T12:15:50.526Z</time></trkpt><trkpt lat="45.8604133" lon="13.975212"><ele>425.33333333333337</ele><time>2026-05-03T12:15:52.527Z</time></trkpt><trkpt lat="45.8603274" lon="13.9752227"><ele>426.6666666666667</ele><time>2026-05-03T12:15:54.526Z</time></trkpt><trkpt lat="45.8602503" lon="13.9752293"><ele>428.0</ele><time>2026-05-03T12:15:56.527Z</time></trkpt><trkpt lat="45.8601677" lon="13.9752482"><ele>429.33333333333337</ele><time>2026-05-03T12:15:58.526Z</time></trkpt><trkpt lat="45.8600842" lon="13.9752636"><ele>430.6666666666667</ele><time>2026-05-03T12:16:00.526Z</time></trkpt><trkpt lat="45.8600154" lon="13.9752681"><ele>432.0</ele><time>2026-05-03T12:16:02.527Z</time></trkpt><trkpt lat="45.8599513" lon="13.9753675"><ele>434.0</ele><time>2026-05-03T12:16:14.527Z</time></trkpt><trkpt lat="45.859907" lon="13.9754664"><ele>436.0</ele><time>2026-05-03T12:16:16.526Z</time></trkpt><trkpt lat="45.859872" lon="13.975548"><ele>438.0</ele><time>2026-05-03T12:16:18.527Z</time></trkpt><trkpt lat="45.8598648" lon="13.9756438"><ele>440.0</ele><time>2026-05-03T12:16:20.526Z</time></trkpt><trkpt lat="45.8599143" lon="13.9757474"><ele>442.0</ele><time>2026-05-03T12:16:22.526Z</time></trkpt><trkpt lat="45.8599634" lon="13.9759002"><ele>444.0</ele><time>2026-05-03T12:16:24.527Z</time></trkpt><trkpt lat="45.8600136" lon="13.9760339"><ele>443.2</ele><time>2026-05-03T12:16:26.527Z</time></trkpt><trkpt lat="45.8600589" lon="13.9761703"><ele>442.4</ele><time>2026-05-03T12:16:28.526Z</time></trkpt><trkpt lat="45.8601099" lon="13.9763126"><ele>441.6</ele><time>2026-05-03T12:16:30.527Z</time></trkpt><trkpt lat="45.8601769" lon="13.9764032"><ele>440.8</ele><time>2026-05-03T12:16:32.527Z</time></trkpt><trkpt lat="45.8602351" lon="13.9764937"><ele>440.0</ele><time>2026-05-03T12:16:34.526Z</time></trkpt><trkpt lat="45.8601562" lon="13.9764519"><ele>440.66666666666663</ele><time>2026-05-03T12:17:07.526Z</time></trkpt><trkpt lat="45.8600995" lon="13.9763552"><ele>441.3333333333333</ele><time>2026-05-03T12:17:10.527Z</time></trkpt><trkpt lat="45.8600592" lon="13.9762519"><ele>442.0</ele><time>2026-05-03T12:17:12.527Z</time></trkpt><trkpt lat="45.8600846" lon="13.9761509"><ele>442.66666666666663</ele><time>2026-05-03T12:17:14.527Z</time></trkpt><trkpt lat="45.8600527" lon="13.9760567"><ele>443.3333333333333</ele><time>2026-05-03T12:17:16.526Z</time></trkpt><trkpt lat="45.8600004" lon="13.9759427"><ele>444.0</ele><time>2026-05-03T12:17:19.526Z</time></trkpt><trkpt lat="45.8599698" lon="13.9758314"><ele>444.0</ele><time>2026-05-03T12:17:21.527Z</time></trkpt><trkpt lat="45.8599563" lon="13.9757419"><ele>444.0</ele><time>2026-05-03T12:17:23.527Z</time></trkpt><trkpt lat="45.8599526" lon="13.9756238"><ele>444.0</ele><time>2026-05-03T12:17:28.527Z</time></trkpt><trkpt lat="45.859959" lon="13.9755128"><ele>444.0</ele><time>2026-05-03T12:17:31.527Z</time></trkpt><trkpt lat="45.8599922" lon="13.9754201"><ele>444.0</ele><time>2026-05-03T12:17:34.527Z</time></trkpt><trkpt lat="45.860077" lon="13.9753241"><ele>444.0</ele><time>2026-05-03T12:17:51.526Z</time></trkpt><trkpt lat="45.8601386" lon="13.9752894"><ele>444.0</ele><time>2026-05-03T12:17:53.527Z</time></trkpt><trkpt lat="45.8601196" lon="13.9751778"><ele>444.0</ele><time>2026-05-03T12:18:44.526Z</time></trkpt><trkpt lat="45.8600493" lon="13.9751661"><ele>444.0</ele><time>2026-05-03T12:18:52.527Z</time></trkpt><trkpt lat="45.8599809" lon="13.9751694"><ele>444.0</ele><time>2026-05-03T12:18:54.526Z</time></trkpt><trkpt lat="45.8598869" lon="13.9751728"><ele>444.0</ele><time>2026-05-03T12:18:56.527Z</time></trkpt><trkpt lat="45.859825" lon="13.9751972"><ele>444.0</ele><time>2026-05-03T12:18:57.526Z</time></trkpt><trkpt lat="45.8597068" lon="13.9752079"><ele>444.0</ele><time>2026-05-03T12:18:59.527Z</time></trkpt><trkpt lat="45.8596454" lon="13.9752343"><ele>444.0</ele><time>2026-05-03T12:19:00.527Z</time></trkpt><trkpt lat="45.8595686" lon="13.9752286"><ele>444.0</ele><time>2026-05-03T12:19:01.527Z</time></trkpt><trkpt lat="45.8594499" lon="13.9752907"><ele>444.0</ele><time>2026-05-03T12:19:03.527Z</time></trkpt><trkpt lat="45.8593303" lon="13.9753259"><ele>444.0</ele><time>2026-05-03T12:19:05.527Z</time></trkpt><trkpt lat="45.8592502" lon="13.975339"><ele>448.0</ele><time>2026-05-03T12:19:06.527Z</time></trkpt><trkpt lat="45.8591344" lon="13.9753526"><ele>452.0</ele><time>2026-05-03T12:19:08.527Z</time></trkpt><trkpt lat="45.8590691" lon="13.9753663"><ele>456.0</ele><time>2026-05-03T12:19:09.527Z</time></trkpt><trkpt lat="45.858999" lon="13.9753903"><ele>460.0</ele><time>2026-05-03T12:19:10.527Z</time></trkpt><trkpt lat="45.858932" lon="13.9754034"><ele>464.0</ele><time>2026-05-03T12:19:11.527Z</time></trkpt><trkpt lat="45.8587469" lon="13.9754224"><ele>463.99999999999994</ele><time>2026-05-03T12:19:13.527Z</time></trkpt><trkpt lat="45.8586618" lon="13.9754544"><ele>464.0</ele><time>2026-05-03T12:19:14.527Z</time></trkpt><trkpt lat="45.8585886" lon="13.9754826"><ele>464.0</ele><time>2026-05-03T12:19:15.527Z</time></trkpt><trkpt lat="45.8585085" lon="13.9754989"><ele>464.0</ele><time>2026-05-03T12:19:16.527Z</time></trkpt><trkpt lat="45.8584281" lon="13.9755161"><ele>463.99999999999994</ele><time>2026-05-03T12:19:17.527Z</time></trkpt><trkpt lat="45.8583543" lon="13.9755339"><ele>464.0</ele><time>2026-05-03T12:19:18.526Z</time></trkpt><trkpt lat="45.8582628" lon="13.9755755"><ele>465.99999999999994</ele><time>2026-05-03T12:19:19.527Z</time></trkpt><trkpt lat="45.8581842" lon="13.9755982"><ele>468.0</ele><time>2026-05-03T12:19:20.527Z</time></trkpt><trkpt lat="45.858113" lon="13.9756608"><ele>470.0</ele><time>2026-05-03T12:19:21.526Z</time></trkpt><trkpt lat="45.8580326" lon="13.9756761"><ele>472.0</ele><time>2026-05-03T12:19:22.527Z</time></trkpt><trkpt lat="45.8579233" lon="13.9756306"><ele>473.99999999999994</ele><time>2026-05-03T12:19:23.526Z</time></trkpt><trkpt lat="45.8578356" lon="13.9756148"><ele>476.0</ele><time>2026-05-03T12:19:24.526Z</time></trkpt><trkpt lat="45.8577178" lon="13.9755877"><ele>476.0</ele><time>2026-05-03T12:19:26.527Z</time></trkpt><trkpt lat="45.8576277" lon="13.9755758"><ele>476.0</ele><time>2026-05-03T12:19:27.527Z</time></trkpt><trkpt lat="45.8575363" lon="13.9755795"><ele>476.0</ele><time>2026-05-03T12:19:28.526Z</time></trkpt><trkpt lat="45.8574436" lon="13.9755905"><ele>476.0</ele><time>2026-05-03T12:19:29.527Z</time></trkpt><trkpt lat="45.8573568" lon="13.9755991"><ele>476.0</ele><time>2026-05-03T12:19:30.527Z</time></trkpt><trkpt lat="45.8572693" lon="13.9756125"><ele>477.4</ele><time>2026-05-03T12:19:31.526Z</time></trkpt><trkpt lat="45.8571715" lon="13.97564"><ele>478.8</ele><time>2026-05-03T12:19:32.526Z</time></trkpt><trkpt lat="45.857077" lon="13.9756618"><ele>480.19999999999993</ele><time>2026-05-03T12:19:33.526Z</time></trkpt><trkpt lat="45.8569793" lon="13.9756868"><ele>481.59999999999997</ele><time>2026-05-03T12:19:34.526Z</time></trkpt><trkpt lat="45.856883" lon="13.9757102"><ele>483.0</ele><time>2026-05-03T12:19:35.526Z</time></trkpt><trkpt lat="45.8568103" lon="13.9757652"><ele>483.8571428571429</ele><time>2026-05-03T12:19:36.527Z</time></trkpt><trkpt lat="45.8567489" lon="13.9758303"><ele>484.7142857142857</ele><time>2026-05-03T12:19:37.526Z</time></trkpt><trkpt lat="45.8566896" lon="13.9758617"><ele>485.57142857142856</ele><time>2026-05-03T12:19:38.527Z</time></trkpt><trkpt lat="45.8566286" lon="13.9759089"><ele>486.42857142857144</ele><time>2026-05-03T12:19:39.527Z</time></trkpt><trkpt lat="45.8565785" lon="13.975979"><ele>487.28571428571433</ele><time>2026-05-03T12:19:40.526Z</time></trkpt><trkpt lat="45.8565372" lon="13.9760648"><ele>488.14285714285717</ele><time>2026-05-03T12:19:41.526Z</time></trkpt><trkpt lat="45.8565105" lon="13.9761607"><ele>489.0</ele><time>2026-05-03T12:19:42.526Z</time></trkpt><trkpt lat="45.8564944" lon="13.9762661"><ele>490.6666666666667</ele><time>2026-05-03T12:19:43.527Z</time></trkpt><trkpt lat="45.8564901" lon="13.9763816"><ele>492.33333333333337</ele><time>2026-05-03T12:19:44.527Z</time></trkpt><trkpt lat="45.8564928" lon="13.9765079"><ele>494.0</ele><time>2026-05-03T12:19:45.526Z</time></trkpt><trkpt lat="45.8564995" lon="13.9766412"><ele>495.6666666666667</ele><time>2026-05-03T12:19:46.527Z</time></trkpt><trkpt lat="45.8565079" lon="13.9767828"><ele>497.33333333333337</ele><time>2026-05-03T12:19:47.527Z</time></trkpt><trkpt lat="45.8565269" lon="13.9769025"><ele>499.0</ele><time>2026-05-03T12:19:48.527Z</time></trkpt><trkpt lat="45.8565358" lon="13.9770309"><ele>500.2</ele><time>2026-05-03T12:19:49.526Z</time></trkpt><trkpt lat="45.8565342" lon="13.9771548"><ele>501.4</ele><time>2026-05-03T12:19:50.527Z</time></trkpt><trkpt lat="45.8565101" lon="13.9772864"><ele>502.6</ele><time>2026-05-03T12:19:51.527Z</time></trkpt><trkpt lat="45.8564928" lon="13.9773961"><ele>503.8</ele><time>2026-05-03T12:19:52.526Z</time></trkpt><trkpt lat="45.856444" lon="13.9775407"><ele>505.0</ele><time>2026-05-03T12:19:54.527Z</time></trkpt><trkpt lat="45.8563364" lon="13.9776296"><ele>506.33333333333337</ele><time>2026-05-03T12:19:56.526Z</time></trkpt><trkpt lat="45.8562747" lon="13.977663"><ele>507.6666666666667</ele><time>2026-05-03T12:19:57.527Z</time></trkpt><trkpt lat="45.8561625" lon="13.9777253"><ele>509.0</ele><time>2026-05-03T12:19:59.527Z</time></trkpt><trkpt lat="45.8561047" lon="13.9777722"><ele>510.33333333333337</ele><time>2026-05-03T12:20:00.526Z</time></trkpt><trkpt lat="45.8560338" lon="13.9778121"><ele>511.6666666666667</ele><time>2026-05-03T12:20:01.527Z</time></trkpt><trkpt lat="45.8559551" lon="13.9778349"><ele>513.0</ele><time>2026-05-03T12:20:02.526Z</time></trkpt><trkpt lat="45.8558698" lon="13.9778547"><ele>514.5</ele><time>2026-05-03T12:20:03.526Z</time></trkpt><trkpt lat="45.8557855" lon="13.9778744"><ele>516.0</ele><time>2026-05-03T12:20:04.527Z</time></trkpt><trkpt lat="45.8556994" lon="13.9779113"><ele>517.5</ele><time>2026-05-03T12:20:05.527Z</time></trkpt><trkpt lat="45.8556294" lon="13.9779593"><ele>519.0</ele><time>2026-05-03T12:20:06.527Z</time></trkpt><trkpt lat="45.8555637" lon="13.9780201"><ele>520.5</ele><time>2026-05-03T12:20:07.527Z</time></trkpt><trkpt lat="45.8554954" lon="13.9780897"><ele>522.0</ele><time>2026-05-03T12:20:08.526Z</time></trkpt><trkpt lat="45.8554399" lon="13.9781522"><ele>522.0</ele><time>2026-05-03T12:20:09.526Z</time></trkpt><trkpt lat="45.8553674" lon="13.9782097"><ele>522.0</ele><time>2026-05-03T12:20:10.527Z</time></trkpt><trkpt lat="45.8552993" lon="13.9782722"><ele>522.0</ele><time>2026-05-03T12:20:11.526Z</time></trkpt><trkpt lat="45.8552223" lon="13.9783367"><ele>522.0</ele><time>2026-05-03T12:20:12.526Z</time></trkpt><trkpt lat="45.8551515" lon="13.9783995"><ele>522.0</ele><time>2026-05-03T12:20:13.527Z</time></trkpt><trkpt lat="45.855091" lon="13.9784587"><ele>522.0</ele><time>2026-05-03T12:20:14.526Z</time></trkpt><trkpt lat="45.8550089" lon="13.978519"><ele>523.5</ele><time>2026-05-03T12:20:16.526Z</time></trkpt><trkpt lat="45.8549684" lon="13.9786788"><ele>525.0</ele><time>2026-05-03T12:22:13.527Z</time></trkpt><trkpt lat="45.8549885" lon="13.9788122"><ele>526.5</ele><time>2026-05-03T12:22:16.527Z</time></trkpt><trkpt lat="45.8550249" lon="13.9788943"><ele>528.0</ele><time>2026-05-03T12:22:18.527Z</time></trkpt><trkpt lat="45.8550624" lon="13.9789901"><ele>529.5</ele><time>2026-05-03T12:22:20.526Z</time></trkpt><trkpt lat="45.8551109" lon="13.9790966"><ele>531.0</ele><time>2026-05-03T12:22:22.526Z</time></trkpt><trkpt lat="45.8551491" lon="13.9792104"><ele>531.0</ele><time>2026-05-03T12:22:24.526Z</time></trkpt><trkpt lat="45.8551451" lon="13.9793446"><ele>531.0</ele><time>2026-05-03T12:22:26.527Z</time></trkpt><trkpt lat="45.8551619" lon="13.9794807"><ele>531.0</ele><time>2026-05-03T12:22:28.526Z</time></trkpt><trkpt lat="45.8551817" lon="13.9796231"><ele>531.0</ele><time>2026-05-03T12:22:30.526Z</time></trkpt><trkpt lat="45.8551911" lon="13.9797386"><ele>531.0</ele><time>2026-05-03T12:22:32.526Z</time></trkpt><trkpt lat="45.8552135" lon="13.979864"><ele>531.0</ele><time>2026-05-03T12:22:34.527Z</time></trkpt><trkpt lat="45.8552199" lon="13.9799713"><ele>531.0</ele><time>2026-05-03T12:22:36.527Z</time></trkpt><trkpt lat="45.8552224" lon="13.9801222"><ele>531.0</ele><time>2026-05-03T12:22:38.526Z</time></trkpt><trkpt lat="45.8552214" lon="13.9802545"><ele>531.0</ele><time>2026-05-03T12:22:40.526Z</time></trkpt><trkpt lat="45.8552153" lon="13.9804048"><ele>531.0</ele><time>2026-05-03T12:22:42.527Z</time></trkpt><trkpt lat="45.8551873" lon="13.9805269"><ele>531.8</ele><time>2026-05-03T12:22:44.527Z</time></trkpt><trkpt lat="45.8551762" lon="13.9806622"><ele>532.6</ele><time>2026-05-03T12:22:46.527Z</time></trkpt><trkpt lat="45.8551892" lon="13.9808022"><ele>533.4</ele><time>2026-05-03T12:22:48.527Z</time></trkpt><trkpt lat="45.8552031" lon="13.9809363"><ele>534.2</ele><time>2026-05-03T12:22:50.527Z</time></trkpt><trkpt lat="45.8551919" lon="13.9810395"><ele>535.0</ele><time>2026-05-03T12:22:52.527Z</time></trkpt><trkpt lat="45.855193" lon="13.9811884"><ele>536.8</ele><time>2026-05-03T12:22:54.526Z</time></trkpt><trkpt lat="45.855199" lon="13.9813209"><ele>538.6</ele><time>2026-05-03T12:22:56.526Z</time></trkpt><trkpt lat="45.855206" lon="13.9814505"><ele>540.4</ele><time>2026-05-03T12:22:58.527Z</time></trkpt><trkpt lat="45.8552195" lon="13.9815847"><ele>542.2</ele><time>2026-05-03T12:23:00.527Z</time></trkpt><trkpt lat="45.8551989" lon="13.9817283"><ele>544.0</ele><time>2026-05-03T12:23:02.526Z</time></trkpt><trkpt lat="45.855181" lon="13.9818765"><ele>546.8</ele><time>2026-05-03T12:23:04.527Z</time></trkpt><trkpt lat="45.8551912" lon="13.9820179"><ele>549.5999999999999</ele><time>2026-05-03T12:23:06.527Z</time></trkpt><trkpt lat="45.8551863" lon="13.9821849"><ele>552.4</ele><time>2026-05-03T12:23:08.527Z</time></trkpt><trkpt lat="45.8551904" lon="13.9823344"><ele>555.1999999999999</ele><time>2026-05-03T12:23:10.527Z</time></trkpt><trkpt lat="45.8552104" lon="13.9824516"><ele>558.0</ele><time>2026-05-03T12:23:12.526Z</time></trkpt><trkpt lat="45.8552307" lon="13.9825784"><ele>562.1999999999999</ele><time>2026-05-03T12:23:14.526Z</time></trkpt><trkpt lat="45.855266" lon="13.9826932"><ele>566.4</ele><time>2026-05-03T12:23:16.526Z</time></trkpt><trkpt lat="45.8553261" lon="13.9827972"><ele>570.5999999999999</ele><time>2026-05-03T12:23:18.527Z</time></trkpt><trkpt lat="45.8553687" lon="13.9829306"><ele>574.8</ele><time>2026-05-03T12:23:20.526Z</time></trkpt><trkpt lat="45.8554366" lon="13.9830493"><ele>579.0</ele><time>2026-05-03T12:23:22.526Z</time></trkpt><trkpt lat="45.8554736" lon="13.9831869"><ele>579.0</ele><time>2026-05-03T12:23:24.527Z</time></trkpt><trkpt lat="45.8555442" lon="13.9832956"><ele>579.0</ele><time>2026-05-03T12:23:26.527Z</time></trkpt><trkpt lat="45.8556086" lon="13.9834036"><ele>579.0</ele><time>2026-05-03T12:23:28.526Z</time></trkpt><trkpt lat="45.8556965" lon="13.9834749"><ele>579.0</ele><time>2026-05-03T12:23:30.527Z</time></trkpt><trkpt lat="45.8557488" lon="13.9835988"><ele>579.0</ele><time>2026-05-03T12:23:32.526Z</time></trkpt><trkpt lat="45.8558356" lon="13.9837266"><ele>579.8333333333334</ele><time>2026-05-03T12:23:34.526Z</time></trkpt><trkpt lat="45.8559105" lon="13.9838101"><ele>580.6666666666666</ele><time>2026-05-03T12:23:36.527Z</time></trkpt><trkpt lat="45.8559559" lon="13.9839071"><ele>581.5</ele><time>2026-05-03T12:23:38.527Z</time></trkpt><trkpt lat="45.8560192" lon="13.9839615"><ele>582.3333333333333</ele><time>2026-05-03T12:23:39.526Z</time></trkpt><trkpt lat="45.8560815" lon="13.9840605"><ele>583.1666666666666</ele><time>2026-05-03T12:23:41.526Z</time></trkpt><trkpt lat="45.8561475" lon="13.9841431"><ele>584.0</ele><time>2026-05-03T12:23:43.526Z</time></trkpt><trkpt lat="45.8562191" lon="13.9842301"><ele>589.75</ele><time>2026-05-03T12:23:45.526Z</time></trkpt><trkpt lat="45.8562985" lon="13.9843395"><ele>595.5</ele><time>2026-05-03T12:23:47.526Z</time></trkpt><trkpt lat="45.856367" lon="13.9844098"><ele>601.25</ele><time>2026-05-03T12:23:49.526Z</time></trkpt><trkpt lat="45.856492" lon="13.9845759"><ele>607.0</ele><time>2026-05-03T12:23:52.522Z</time></trkpt><trkpt lat="45.8565751" lon="13.9846846"><ele>607.0</ele><time>2026-05-03T12:23:54.518Z</time></trkpt><trkpt lat="45.8566481" lon="13.9847393"><ele>607.0</ele><time>2026-05-03T12:23:56.524Z</time></trkpt><trkpt lat="45.8566923" lon="13.9848085"><ele>607.0</ele><time>2026-05-03T12:23:57.527Z</time></trkpt><trkpt lat="45.8567722" lon="13.9849118"><ele>607.0</ele><time>2026-05-03T12:23:59.527Z</time></trkpt><trkpt lat="45.8568309" lon="13.9850128"><ele>607.0</ele><time>2026-05-03T12:24:01.527Z</time></trkpt><trkpt lat="45.8569036" lon="13.9851093"><ele>607.0</ele><time>2026-05-03T12:24:03.527Z</time></trkpt><trkpt lat="45.856973" lon="13.985217"><ele>607.0</ele><time>2026-05-03T12:24:05.526Z</time></trkpt><trkpt lat="45.8570416" lon="13.9853213"><ele>607.0</ele><time>2026-05-03T12:24:07.526Z</time></trkpt><trkpt lat="45.857109" lon="13.9854147"><ele>607.0</ele><time>2026-05-03T12:24:09.527Z</time></trkpt><trkpt lat="45.8571615" lon="13.9855568"><ele>607.0</ele><time>2026-05-03T12:24:11.526Z</time></trkpt><trkpt lat="45.8572116" lon="13.9856925"><ele>607.0</ele><time>2026-05-03T12:24:13.527Z</time></trkpt><trkpt lat="45.857276" lon="13.9858453"><ele>608.6</ele><time>2026-05-03T12:24:15.526Z</time></trkpt><trkpt lat="45.8573104" lon="13.985924"><ele>610.2</ele><time>2026-05-03T12:24:16.527Z</time></trkpt><trkpt lat="45.8573675" lon="13.986071"><ele>611.8</ele><time>2026-05-03T12:24:18.526Z</time></trkpt><trkpt lat="45.8573917" lon="13.9862256"><ele>613.4</ele><time>2026-05-03T12:24:20.527Z</time></trkpt><trkpt lat="45.8573986" lon="13.9863676"><ele>615.0</ele><time>2026-05-03T12:24:22.527Z</time></trkpt><trkpt lat="45.8574037" lon="13.9864873"><ele>615.0</ele><time>2026-05-03T12:24:24.527Z</time></trkpt><trkpt lat="45.8573699" lon="13.9865951"><ele>615.0</ele><time>2026-05-03T12:24:25.527Z</time></trkpt><trkpt lat="45.8573306" lon="13.9867552"><ele>615.0</ele><time>2026-05-03T12:24:27.527Z</time></trkpt><trkpt lat="45.8573011" lon="13.9869052"><ele>615.0</ele><time>2026-05-03T12:24:29.527Z</time></trkpt><trkpt lat="45.857252" lon="13.9870572"><ele>615.0</ele><time>2026-05-03T12:24:31.526Z</time></trkpt><trkpt lat="45.8572142" lon="13.9871954"><ele>613.6</ele><time>2026-05-03T12:24:33.526Z</time></trkpt><trkpt lat="45.8571549" lon="13.9873186"><ele>612.2</ele><time>2026-05-03T12:24:35.526Z</time></trkpt><trkpt lat="45.8571002" lon="13.9873641"><ele>610.8</ele><time>2026-05-03T12:24:36.526Z</time></trkpt><trkpt lat="45.8570161" lon="13.9874813"><ele>609.4</ele><time>2026-05-03T12:24:38.526Z</time></trkpt><trkpt lat="45.8569287" lon="13.98758"><ele>608.0</ele><time>2026-05-03T12:24:40.527Z</time></trkpt><trkpt lat="45.8568393" lon="13.9876395"><ele>610.0</ele><time>2026-05-03T12:24:42.526Z</time></trkpt><trkpt lat="45.8567462" lon="13.9876976"><ele>612.0</ele><time>2026-05-03T12:24:44.527Z</time></trkpt><trkpt lat="45.8566472" lon="13.987781"><ele>614.0</ele><time>2026-05-03T12:24:46.526Z</time></trkpt><trkpt lat="45.8565757" lon="13.9878475"><ele>616.0</ele><time>2026-05-03T12:24:48.526Z</time></trkpt><trkpt lat="45.8564656" lon="13.9879216"><ele>618.0</ele><time>2026-05-03T12:24:50.526Z</time></trkpt><trkpt lat="45.8563516" lon="13.9880051"><ele>618.0</ele><time>2026-05-03T12:24:52.526Z</time></trkpt><trkpt lat="45.8562532" lon="13.9880785"><ele>618.0</ele><time>2026-05-03T12:24:54.527Z</time></trkpt><trkpt lat="45.8561841" lon="13.9881188"><ele>618.0</ele><time>2026-05-03T12:24:55.527Z</time></trkpt><trkpt lat="45.8561251" lon="13.9881659"><ele>618.0</ele><time>2026-05-03T12:24:56.527Z</time></trkpt><trkpt lat="45.8560666" lon="13.9882103"><ele>618.0</ele><time>2026-05-03T12:24:57.527Z</time></trkpt><trkpt lat="45.855992" lon="13.9882537"><ele>618.0</ele><time>2026-05-03T12:24:58.527Z</time></trkpt><trkpt lat="45.8559121" lon="13.988277"><ele>617.5714285714287</ele><time>2026-05-03T12:24:59.527Z</time></trkpt><trkpt lat="45.8558411" lon="13.988307"><ele>617.1428571428571</ele><time>2026-05-03T12:25:00.526Z</time></trkpt><trkpt lat="45.8557736" lon="13.9883268"><ele>616.7142857142858</ele><time>2026-05-03T12:25:01.527Z</time></trkpt><trkpt lat="45.8557095" lon="13.9883743"><ele>616.2857142857143</ele><time>2026-05-03T12:25:02.526Z</time></trkpt><trkpt lat="45.8556373" lon="13.98839"><ele>615.8571428571429</ele><time>2026-05-03T12:25:03.527Z</time></trkpt><trkpt lat="45.8555752" lon="13.9884242"><ele>615.4285714285714</ele><time>2026-05-03T12:25:04.526Z</time></trkpt><trkpt lat="45.8555124" lon="13.9884603"><ele>615.0</ele><time>2026-05-03T12:25:05.527Z</time></trkpt><trkpt lat="45.8554413" lon="13.9884836"><ele>615.0</ele><time>2026-05-03T12:25:06.527Z</time></trkpt><trkpt lat="45.8553715" lon="13.988496"><ele>615.0</ele><time>2026-05-03T12:25:07.526Z</time></trkpt><trkpt lat="45.8552999" lon="13.9885243"><ele>615.0</ele><time>2026-05-03T12:25:08.526Z</time></trkpt><trkpt lat="45.8552243" lon="13.9885634"><ele>615.0</ele><time>2026-05-03T12:25:09.527Z</time></trkpt><trkpt lat="45.8551608" lon="13.9885839"><ele>615.0</ele><time>2026-05-03T12:25:10.526Z</time></trkpt><trkpt lat="45.855096" lon="13.9886207"><ele>615.0</ele><time>2026-05-03T12:25:11.527Z</time></trkpt><trkpt lat="45.8550281" lon="13.9886467"><ele>615.0</ele><time>2026-05-03T12:25:12.526Z</time></trkpt><trkpt lat="45.8549452" lon="13.9886954"><ele>617.1666666666666</ele><time>2026-05-03T12:25:13.527Z</time></trkpt><trkpt lat="45.8548726" lon="13.9887787"><ele>619.3333333333334</ele><time>2026-05-03T12:25:14.527Z</time></trkpt><trkpt lat="45.8547927" lon="13.9888051"><ele>621.5</ele><time>2026-05-03T12:25:15.526Z</time></trkpt><trkpt lat="45.8547346" lon="13.9888412"><ele>623.6666666666667</ele><time>2026-05-03T12:25:16.527Z</time></trkpt><trkpt lat="45.8546697" lon="13.9888734"><ele>625.8333333333334</ele><time>2026-05-03T12:25:17.527Z</time></trkpt><trkpt lat="45.8546064" lon="13.9889262"><ele>628.0</ele><time>2026-05-03T12:25:18.527Z</time></trkpt><trkpt lat="45.8545379" lon="13.9889555"><ele>628.0</ele><time>2026-05-03T12:25:19.526Z</time></trkpt><trkpt lat="45.8544588" lon="13.989002"><ele>628.0</ele><time>2026-05-03T12:25:20.527Z</time></trkpt><trkpt lat="45.8543824" lon="13.989028"><ele>628.0</ele><time>2026-05-03T12:25:21.526Z</time></trkpt><trkpt lat="45.8543206" lon="13.989049"><ele>628.0</ele><time>2026-05-03T12:25:22.527Z</time></trkpt><trkpt lat="45.8541802" lon="13.9891223"><ele>628.0</ele><time>2026-05-03T12:25:24.526Z</time></trkpt><trkpt lat="45.8540963" lon="13.9891511"><ele>629.6666666666667</ele><time>2026-05-03T12:25:25.527Z</time></trkpt><trkpt lat="45.8540196" lon="13.9891781"><ele>631.3333333333334</ele><time>2026-05-03T12:25:26.527Z</time></trkpt><trkpt lat="45.8539478" lon="13.9892084"><ele>633.0</ele><time>2026-05-03T12:25:27.526Z</time></trkpt><trkpt lat="45.8538625" lon="13.9892512"><ele>634.6666666666666</ele><time>2026-05-03T12:25:28.526Z</time></trkpt><trkpt lat="45.8537819" lon="13.9892939"><ele>636.3333333333333</ele><time>2026-05-03T12:25:29.527Z</time></trkpt><trkpt lat="45.8537171" lon="13.9893317"><ele>638.0</ele><time>2026-05-03T12:25:30.526Z</time></trkpt><trkpt lat="45.8536338" lon="13.9893699"><ele>638.0</ele><time>2026-05-03T12:25:31.527Z</time></trkpt><trkpt lat="45.8535698" lon="13.9893935"><ele>638.0</ele><time>2026-05-03T12:25:32.527Z</time></trkpt><trkpt lat="45.8534862" lon="13.9894262"><ele>638.0</ele><time>2026-05-03T12:25:33.527Z</time></trkpt><trkpt lat="45.8534131" lon="13.9894549"><ele>638.0</ele><time>2026-05-03T12:25:34.527Z</time></trkpt><trkpt lat="45.8533476" lon="13.989483"><ele>638.0</ele><time>2026-05-03T12:25:35.526Z</time></trkpt><trkpt lat="45.8532891" lon="13.9895211"><ele>638.0</ele><time>2026-05-03T12:25:36.526Z</time></trkpt><trkpt lat="45.8532286" lon="13.9895902"><ele>638.0</ele><time>2026-05-03T12:25:37.526Z</time></trkpt><trkpt lat="45.8531829" lon="13.9896875"><ele>640.2</ele><time>2026-05-03T12:25:38.527Z</time></trkpt><trkpt lat="45.8531503" lon="13.9898034"><ele>642.4</ele><time>2026-05-03T12:25:39.527Z</time></trkpt><trkpt lat="45.8531282" lon="13.9899188"><ele>644.6</ele><time>2026-05-03T12:25:40.526Z</time></trkpt><trkpt lat="45.8531396" lon="13.9900836"><ele>646.8000000000001</ele><time>2026-05-03T12:25:41.527Z</time></trkpt><trkpt lat="45.85317" lon="13.9902015"><ele>649.0</ele><time>2026-05-03T12:25:42.527Z</time></trkpt><trkpt lat="45.853224" lon="13.9903558"><ele>650.2</ele><time>2026-05-03T12:25:43.527Z</time></trkpt><trkpt lat="45.8532601" lon="13.9904795"><ele>651.4000000000001</ele><time>2026-05-03T12:25:44.527Z</time></trkpt><trkpt lat="45.853321" lon="13.9906001"><ele>652.6</ele><time>2026-05-03T12:25:45.527Z</time></trkpt><trkpt lat="45.8533632" lon="13.9907192"><ele>653.8</ele><time>2026-05-03T12:25:46.526Z</time></trkpt><trkpt lat="45.8534133" lon="13.9908279"><ele>655.0</ele><time>2026-05-03T12:25:47.527Z</time></trkpt><trkpt lat="45.8534637" lon="13.9909558"><ele>655.6</ele><time>2026-05-03T12:25:48.526Z</time></trkpt><trkpt lat="45.8535325" lon="13.9910824"><ele>656.2</ele><time>2026-05-03T12:25:49.527Z</time></trkpt><trkpt lat="45.8535741" lon="13.991215"><ele>656.8</ele><time>2026-05-03T12:25:50.526Z</time></trkpt><trkpt lat="45.8536157" lon="13.9913572"><ele>657.4</ele><time>2026-05-03T12:25:51.527Z</time></trkpt><trkpt lat="45.8536452" lon="13.9914954"><ele>658.0</ele><time>2026-05-03T12:25:52.527Z</time></trkpt><trkpt lat="45.8536445" lon="13.9916418"><ele>659.0</ele><time>2026-05-03T12:25:53.526Z</time></trkpt><trkpt lat="45.853659" lon="13.991784"><ele>660.0</ele><time>2026-05-03T12:25:54.526Z</time></trkpt><trkpt lat="45.8536691" lon="13.9919262"><ele>661.0</ele><time>2026-05-03T12:25:55.526Z</time></trkpt><trkpt lat="45.8536647" lon="13.9920662"><ele>662.0</ele><time>2026-05-03T12:25:56.526Z</time></trkpt><trkpt lat="45.8536816" lon="13.9922076"><ele>663.0</ele><time>2026-05-03T12:25:57.526Z</time></trkpt><trkpt lat="45.8536608" lon="13.9923491"><ele>663.0</ele><time>2026-05-03T12:25:58.526Z</time></trkpt><trkpt lat="45.8536378" lon="13.9924881"><ele>663.0</ele><time>2026-05-03T12:25:59.527Z</time></trkpt><trkpt lat="45.8536122" lon="13.992625"><ele>663.0</ele><time>2026-05-03T12:26:00.526Z</time></trkpt><trkpt lat="45.8536117" lon="13.9927536"><ele>663.0</ele><time>2026-05-03T12:26:01.527Z</time></trkpt><trkpt lat="45.853609" lon="13.9929045"><ele>663.0</ele><time>2026-05-03T12:26:02.526Z</time></trkpt><trkpt lat="45.8536159" lon="13.9930368"><ele>664.5</ele><time>2026-05-03T12:26:03.527Z</time></trkpt><trkpt lat="45.8536555" lon="13.9931812"><ele>666.0</ele><time>2026-05-03T12:26:04.526Z</time></trkpt><trkpt lat="45.8536489" lon="13.9933623"><ele>667.5</ele><time>2026-05-03T12:26:05.527Z</time></trkpt><trkpt lat="45.853674" lon="13.9935221"><ele>669.0</ele><time>2026-05-03T12:26:06.527Z</time></trkpt><trkpt lat="45.8536946" lon="13.9936854"><ele>672.25</ele><time>2026-05-03T12:26:07.527Z</time></trkpt><trkpt lat="45.853696" lon="13.9938466"><ele>675.5</ele><time>2026-05-03T12:26:08.527Z</time></trkpt><trkpt lat="45.8536811" lon="13.9940118"><ele>678.75</ele><time>2026-05-03T12:26:09.526Z</time></trkpt><trkpt lat="45.8536603" lon="13.9941769"><ele>682.0</ele><time>2026-05-03T12:26:10.526Z</time></trkpt><trkpt lat="45.8536771" lon="13.9943273"><ele>684.2</ele><time>2026-05-03T12:26:11.527Z</time></trkpt><trkpt lat="45.8536739" lon="13.9944891"><ele>686.4000000000001</ele><time>2026-05-03T12:26:12.526Z</time></trkpt><trkpt lat="45.8536792" lon="13.9946426"><ele>688.5999999999999</ele><time>2026-05-03T12:26:13.526Z</time></trkpt><trkpt lat="45.8537152" lon="13.9947777"><ele>690.8</ele><time>2026-05-03T12:26:14.526Z</time></trkpt><trkpt lat="45.8537423" lon="13.9949165"><ele>693.0</ele><time>2026-05-03T12:26:15.526Z</time></trkpt><trkpt lat="45.8537674" lon="13.9950694"><ele>694.0</ele><time>2026-05-03T12:26:16.526Z</time></trkpt><trkpt lat="45.8538123" lon="13.9951997"><ele>695.0</ele><time>2026-05-03T12:26:17.527Z</time></trkpt><trkpt lat="45.8538468" lon="13.9953526"><ele>696.0</ele><time>2026-05-03T12:26:18.527Z</time></trkpt><trkpt lat="45.853886" lon="13.9955009"><ele>697.0</ele><time>2026-05-03T12:26:19.527Z</time></trkpt><trkpt lat="45.8539072" lon="13.9956651"><ele>698.0</ele><time>2026-05-03T12:26:20.527Z</time></trkpt><trkpt lat="45.8539394" lon="13.9958309"><ele>698.75</ele><time>2026-05-03T12:26:21.527Z</time></trkpt><trkpt lat="45.8539727" lon="13.9959988"><ele>699.5</ele><time>2026-05-03T12:26:22.527Z</time></trkpt><trkpt lat="45.8539713" lon="13.9961695"><ele>700.25</ele><time>2026-05-03T12:26:23.526Z</time></trkpt><trkpt lat="45.8539801" lon="13.9963408"><ele>701.0</ele><time>2026-05-03T12:26:24.527Z</time></trkpt><trkpt lat="45.8540236" lon="13.9965099"><ele>703.25</ele><time>2026-05-03T12:26:25.527Z</time></trkpt><trkpt lat="45.8540447" lon="13.9966846"><ele>705.5</ele><time>2026-05-03T12:26:26.527Z</time></trkpt><trkpt lat="45.8541231" lon="13.9968411"><ele>707.75</ele><time>2026-05-03T12:26:27.526Z</time></trkpt><trkpt lat="45.8541776" lon="13.9969993"><ele>710.0</ele><time>2026-05-03T12:26:28.526Z</time></trkpt><trkpt lat="45.8542351" lon="13.9971571"><ele>710.0</ele><time>2026-05-03T12:26:29.527Z</time></trkpt><trkpt lat="45.854253" lon="13.9973191"><ele>710.0</ele><time>2026-05-03T12:26:30.526Z</time></trkpt><trkpt lat="45.8542623" lon="13.997453"><ele>710.0</ele><time>2026-05-03T12:26:31.527Z</time></trkpt><trkpt lat="45.8542862" lon="13.9975889"><ele>710.0</ele><time>2026-05-03T12:26:32.526Z</time></trkpt><trkpt lat="45.8543095" lon="13.9977196"><ele>710.0</ele><time>2026-05-03T12:26:33.527Z</time></trkpt><trkpt lat="45.8543106" lon="13.9978212"><ele>711.2</ele><time>2026-05-03T12:26:34.526Z</time></trkpt><trkpt lat="45.8542635" lon="13.9979475"><ele>712.4</ele><time>2026-05-03T12:26:36.527Z</time></trkpt><trkpt lat="45.8541406" lon="13.9978773"><ele>713.5999999999999</ele><time>2026-05-03T12:26:38.527Z</time></trkpt><trkpt lat="45.8540774" lon="13.9978325"><ele>714.8</ele><time>2026-05-03T12:26:39.526Z</time></trkpt><trkpt lat="45.8539713" lon="13.997762"><ele>716.0</ele><time>2026-05-03T12:26:40.527Z</time></trkpt><trkpt lat="45.8538931" lon="13.9977037"><ele>716.0</ele><time>2026-05-03T12:26:41.526Z</time></trkpt><trkpt lat="45.8537999" lon="13.9975927"><ele>716.0</ele><time>2026-05-03T12:26:42.527Z</time></trkpt><trkpt lat="45.8537148" lon="13.9974731"><ele>716.0</ele><time>2026-05-03T12:26:43.527Z</time></trkpt><trkpt lat="45.8536341" lon="13.9973654"><ele>716.0</ele><time>2026-05-03T12:26:44.526Z</time></trkpt><trkpt lat="45.8535357" lon="13.9972487"><ele>719.25</ele><time>2026-05-03T12:26:45.526Z</time></trkpt><trkpt lat="45.8534227" lon="13.997132"><ele>722.5</ele><time>2026-05-03T12:26:46.526Z</time></trkpt><trkpt lat="45.8533465" lon="13.9970127"><ele>725.75</ele><time>2026-05-03T12:26:47.527Z</time></trkpt><trkpt lat="45.8532683" lon="13.9968994"><ele>729.0</ele><time>2026-05-03T12:26:48.527Z</time></trkpt><trkpt lat="45.8531958" lon="13.9967924"><ele>729.0</ele><time>2026-05-03T12:26:49.527Z</time></trkpt><trkpt lat="45.8531241" lon="13.9966715"><ele>729.0</ele><time>2026-05-03T12:26:50.526Z</time></trkpt><trkpt lat="45.8530588" lon="13.996545"><ele>729.0</ele><time>2026-05-03T12:26:51.527Z</time></trkpt><trkpt lat="45.8530282" lon="13.9964318"><ele>729.0</ele><time>2026-05-03T12:26:52.527Z</time></trkpt><trkpt lat="45.8529543" lon="13.9963015"><ele>729.0</ele><time>2026-05-03T12:26:53.526Z</time></trkpt><trkpt lat="45.8529152" lon="13.9961321"><ele>727.8000000000001</ele><time>2026-05-03T12:26:54.526Z</time></trkpt><trkpt lat="45.8528552" lon="13.996021"><ele>726.6</ele><time>2026-05-03T12:26:55.527Z</time></trkpt><trkpt lat="45.8527812" lon="13.9959196"><ele>725.4</ele><time>2026-05-03T12:26:56.526Z</time></trkpt><trkpt lat="45.8527083" lon="13.9958127"><ele>724.2</ele><time>2026-05-03T12:26:57.526Z</time></trkpt><trkpt lat="45.8526271" lon="13.9957132"><ele>723.0</ele><time>2026-05-03T12:26:58.527Z</time></trkpt><trkpt lat="45.8525445" lon="13.995621"><ele>726.5999999999999</ele><time>2026-05-03T12:26:59.527Z</time></trkpt><trkpt lat="45.8524413" lon="13.9955447"><ele>730.1999999999999</ele><time>2026-05-03T12:27:00.527Z</time></trkpt><trkpt lat="45.8523399" lon="13.9954801"><ele>733.8</ele><time>2026-05-03T12:27:01.527Z</time></trkpt><trkpt lat="45.8522458" lon="13.9954427"><ele>737.4</ele><time>2026-05-03T12:27:02.526Z</time></trkpt><trkpt lat="45.8521408" lon="13.9954015"><ele>741.0</ele><time>2026-05-03T12:27:03.527Z</time></trkpt><trkpt lat="45.852037" lon="13.9953552"><ele>741.0</ele><time>2026-05-03T12:27:04.527Z</time></trkpt><trkpt lat="45.8519315" lon="13.995325"><ele>741.0</ele><time>2026-05-03T12:27:05.527Z</time></trkpt><trkpt lat="45.8518086" lon="13.995296"><ele>741.0</ele><time>2026-05-03T12:27:06.526Z</time></trkpt><trkpt lat="45.851695" lon="13.9952759"><ele>741.0</ele><time>2026-05-03T12:27:07.527Z</time></trkpt><trkpt lat="45.8515915" lon="13.9952668"><ele>744.8</ele><time>2026-05-03T12:27:08.527Z</time></trkpt><trkpt lat="45.8514697" lon="13.9952708"><ele>748.5999999999999</ele><time>2026-05-03T12:27:09.527Z</time></trkpt><trkpt lat="45.8513733" lon="13.9952809"><ele>752.4</ele><time>2026-05-03T12:27:10.527Z</time></trkpt><trkpt lat="45.8512651" lon="13.9952635"><ele>756.2</ele><time>2026-05-03T12:27:11.527Z</time></trkpt><trkpt lat="45.8511657" lon="13.9952337"><ele>760.0</ele><time>2026-05-03T12:27:12.527Z</time></trkpt><trkpt lat="45.8510738" lon="13.9952024"><ele>760.0</ele><time>2026-05-03T12:27:13.527Z</time></trkpt><trkpt lat="45.8509904" lon="13.9952075"><ele>760.0</ele><time>2026-05-03T12:27:14.527Z</time></trkpt><trkpt lat="45.8508998" lon="13.9952573"><ele>760.0</ele><time>2026-05-03T12:27:15.526Z</time></trkpt><trkpt lat="45.8508032" lon="13.9952891"><ele>760.0</ele><time>2026-05-03T12:27:16.527Z</time></trkpt><trkpt lat="45.8507052" lon="13.9953552"><ele>760.0</ele><time>2026-05-03T12:27:17.526Z</time></trkpt><trkpt lat="45.8506151" lon="13.9953967"><ele>761.2</ele><time>2026-05-03T12:27:18.526Z</time></trkpt><trkpt lat="45.8505264" lon="13.995389"><ele>762.4</ele><time>2026-05-03T12:27:19.527Z</time></trkpt><trkpt lat="45.8504316" lon="13.9953798"><ele>763.5999999999999</ele><time>2026-05-03T12:27:20.527Z</time></trkpt><trkpt lat="45.8503237" lon="13.995399"><ele>764.8</ele><time>2026-05-03T12:27:21.526Z</time></trkpt><trkpt lat="45.8502354" lon="13.9954044"><ele>766.0</ele><time>2026-05-03T12:27:22.527Z</time></trkpt><trkpt lat="45.8501279" lon="13.9954426"><ele>766.1999999999999</ele><time>2026-05-03T12:27:23.526Z</time></trkpt><trkpt lat="45.8500436" lon="13.9954893"><ele>766.4</ele><time>2026-05-03T12:27:24.526Z</time></trkpt><trkpt lat="45.8499471" lon="13.9954837"><ele>766.6</ele><time>2026-05-03T12:27:25.527Z</time></trkpt><trkpt lat="45.8498635" lon="13.995469"><ele>766.8</ele><time>2026-05-03T12:27:26.527Z</time></trkpt><trkpt lat="45.8497757" lon="13.9954753"><ele>767.0</ele><time>2026-05-03T12:27:27.526Z</time></trkpt><trkpt lat="45.8496704" lon="13.9954563"><ele>767.0</ele><time>2026-05-03T12:27:28.527Z</time></trkpt><trkpt lat="45.8495702" lon="13.99547"><ele>767.0</ele><time>2026-05-03T12:27:29.526Z</time></trkpt><trkpt lat="45.8494891" lon="13.9954434"><ele>767.0</ele><time>2026-05-03T12:27:30.527Z</time></trkpt><trkpt lat="45.8493973" lon="13.9954076"><ele>767.0</ele><time>2026-05-03T12:27:31.527Z</time></trkpt><trkpt lat="45.8493039" lon="13.9953741"><ele>767.0</ele><time>2026-05-03T12:27:32.527Z</time></trkpt><trkpt lat="45.8492133" lon="13.9953134"><ele>768.0</ele><time>2026-05-03T12:27:33.526Z</time></trkpt><trkpt lat="45.8491254" lon="13.9952574"><ele>769.0</ele><time>2026-05-03T12:27:34.527Z</time></trkpt><trkpt lat="45.8489673" lon="13.9951836"><ele>770.0</ele><time>2026-05-03T12:27:36.527Z</time></trkpt><trkpt lat="45.8489087" lon="13.995271"><ele>771.0</ele><time>2026-05-03T12:27:37.526Z</time></trkpt><trkpt lat="45.8488554" lon="13.9953613"><ele>772.0</ele><time>2026-05-03T12:27:38.527Z</time></trkpt><trkpt lat="45.8487969" lon="13.9955126"><ele>772.0</ele><time>2026-05-03T12:27:39.526Z</time></trkpt><trkpt lat="45.8487278" lon="13.9956469"><ele>772.0</ele><time>2026-05-03T12:27:40.527Z</time></trkpt><trkpt lat="45.8486824" lon="13.9957819"><ele>772.0</ele><time>2026-05-03T12:27:41.526Z</time></trkpt><trkpt lat="45.8486465" lon="13.9959236"><ele>772.0</ele><time>2026-05-03T12:27:42.526Z</time></trkpt><trkpt lat="45.848613" lon="13.9960689"><ele>772.0</ele><time>2026-05-03T12:27:43.527Z</time></trkpt><trkpt lat="45.8485828" lon="13.9961743"><ele>773.8</ele><time>2026-05-03T12:27:44.527Z</time></trkpt><trkpt lat="45.8485709" lon="13.9963487"><ele>775.6</ele><time>2026-05-03T12:27:45.526Z</time></trkpt><trkpt lat="45.8485471" lon="13.9964871"><ele>777.4</ele><time>2026-05-03T12:27:46.527Z</time></trkpt><trkpt lat="45.848496" lon="13.9966275"><ele>779.1999999999999</ele><time>2026-05-03T12:27:47.527Z</time></trkpt><trkpt lat="45.8484436" lon="13.9967718"><ele>781.0</ele><time>2026-05-03T12:27:48.526Z</time></trkpt><trkpt lat="45.8483671" lon="13.9968907"><ele>781.5</ele><time>2026-05-03T12:27:49.527Z</time></trkpt><trkpt lat="45.848305" lon="13.9970187"><ele>782.0</ele><time>2026-05-03T12:27:50.527Z</time></trkpt><trkpt lat="45.8482375" lon="13.9971416"><ele>782.5</ele><time>2026-05-03T12:27:51.527Z</time></trkpt><trkpt lat="45.8481606" lon="13.997257"><ele>783.0</ele><time>2026-05-03T12:27:52.526Z</time></trkpt><trkpt lat="45.8480942" lon="13.9974019"><ele>783.0</ele><time>2026-05-03T12:27:53.527Z</time></trkpt><trkpt lat="45.8479897" lon="13.9974791"><ele>783.0</ele><time>2026-05-03T12:27:54.527Z</time></trkpt><trkpt lat="45.8479111" lon="13.9975608"><ele>783.0</ele><time>2026-05-03T12:27:55.527Z</time></trkpt><trkpt lat="45.8478134" lon="13.9976501"><ele>783.0</ele><time>2026-05-03T12:27:56.526Z</time></trkpt><trkpt lat="45.8477256" lon="13.9977685"><ele>784.4</ele><time>2026-05-03T12:27:57.527Z</time></trkpt><trkpt lat="45.8476444" lon="13.9978649"><ele>785.8</ele><time>2026-05-03T12:27:58.527Z</time></trkpt><trkpt lat="45.8475745" lon="13.9979692"><ele>787.2</ele><time>2026-05-03T12:27:59.527Z</time></trkpt><trkpt lat="45.8475072" lon="13.9980854"><ele>788.6</ele><time>2026-05-03T12:28:00.527Z</time></trkpt><trkpt lat="45.8474479" lon="13.9981972"><ele>790.0</ele><time>2026-05-03T12:28:01.527Z</time></trkpt><trkpt lat="45.8473923" lon="13.9983117"><ele>791.75</ele><time>2026-05-03T12:28:02.526Z</time></trkpt><trkpt lat="45.8473541" lon="13.9985445"><ele>793.5</ele><time>2026-05-03T12:28:04.527Z</time></trkpt><trkpt lat="45.8473254" lon="13.9986854"><ele>795.25</ele><time>2026-05-03T12:28:05.526Z</time></trkpt><trkpt lat="45.8472974" lon="13.9988249"><ele>797.0</ele><time>2026-05-03T12:28:06.526Z</time></trkpt><trkpt lat="45.8472674" lon="13.9990078"><ele>797.0</ele><time>2026-05-03T12:28:07.527Z</time></trkpt><trkpt lat="45.8472424" lon="13.9991586"><ele>797.0</ele><time>2026-05-03T12:28:08.526Z</time></trkpt><trkpt lat="45.847215" lon="13.9993131"><ele>797.0</ele><time>2026-05-03T12:28:09.527Z</time></trkpt><trkpt lat="45.8471842" lon="13.9994908"><ele>797.0</ele><time>2026-05-03T12:28:10.526Z</time></trkpt><trkpt lat="45.8471441" lon="13.9996158"><ele>797.0</ele><time>2026-05-03T12:28:11.526Z</time></trkpt><trkpt lat="45.847055" lon="13.9997466"><ele>797.0</ele><time>2026-05-03T12:28:12.527Z</time></trkpt><trkpt lat="45.847021" lon="13.9999016"><ele>797.0</ele><time>2026-05-03T12:28:13.526Z</time></trkpt><trkpt lat="45.84698" lon="14.0000617"><ele>797.0</ele><time>2026-05-03T12:28:14.526Z</time></trkpt><trkpt lat="45.8469428" lon="14.0002211"><ele>797.0</ele><time>2026-05-03T12:28:15.527Z</time></trkpt><trkpt lat="45.8469239" lon="14.0004035"><ele>797.0</ele><time>2026-05-03T12:28:16.526Z</time></trkpt><trkpt lat="45.8468786" lon="14.0005433"><ele>797.0</ele><time>2026-05-03T12:28:17.526Z</time></trkpt><trkpt lat="45.8468117" lon="14.0006642"><ele>797.0</ele><time>2026-05-03T12:28:18.527Z</time></trkpt><trkpt lat="45.8467438" lon="14.000787"><ele>797.0</ele><time>2026-05-03T12:28:19.527Z</time></trkpt><trkpt lat="45.846669" lon="14.0009262"><ele>797.0</ele><time>2026-05-03T12:28:20.526Z</time></trkpt><trkpt lat="45.8465926" lon="14.0010612"><ele>798.25</ele><time>2026-05-03T12:28:21.526Z</time></trkpt><trkpt lat="45.8465267" lon="14.0012176"><ele>799.5</ele><time>2026-05-03T12:28:22.526Z</time></trkpt><trkpt lat="45.8464633" lon="14.0013801"><ele>800.75</ele><time>2026-05-03T12:28:23.526Z</time></trkpt><trkpt lat="45.8464205" lon="14.0015354"><ele>802.0</ele><time>2026-05-03T12:28:24.526Z</time></trkpt><trkpt lat="45.846381" lon="14.0016809"><ele>802.4000000000001</ele><time>2026-05-03T12:28:25.526Z</time></trkpt><trkpt lat="45.846336" lon="14.0018105"><ele>802.8000000000001</ele><time>2026-05-03T12:28:26.527Z</time></trkpt><trkpt lat="45.8462936" lon="14.0019241"><ele>803.2</ele><time>2026-05-03T12:28:27.527Z</time></trkpt><trkpt lat="45.8462432" lon="14.0020238"><ele>803.6</ele><time>2026-05-03T12:28:28.527Z</time></trkpt><trkpt lat="45.8461804" lon="14.0021154"><ele>804.0</ele><time>2026-05-03T12:28:29.527Z</time></trkpt><trkpt lat="45.8461032" lon="14.0021876"><ele>804.0</ele><time>2026-05-03T12:28:30.527Z</time></trkpt><trkpt lat="45.8460099" lon="14.0022441"><ele>804.0</ele><time>2026-05-03T12:28:31.526Z</time></trkpt><trkpt lat="45.8459109" lon="14.0023142"><ele>804.0</ele><time>2026-05-03T12:28:32.527Z</time></trkpt><trkpt lat="45.845838" lon="14.0024259"><ele>804.0</ele><time>2026-05-03T12:28:33.527Z</time></trkpt><trkpt lat="45.8457692" lon="14.002565"><ele>804.0</ele><time>2026-05-03T12:28:34.526Z</time></trkpt><trkpt lat="45.8457307" lon="14.0027099"><ele>804.0</ele><time>2026-05-03T12:28:35.526Z</time></trkpt><trkpt lat="45.8456875" lon="14.0028382"><ele>804.0</ele><time>2026-05-03T12:28:36.526Z</time></trkpt><trkpt lat="45.8456373" lon="14.0029811"><ele>804.0</ele><time>2026-05-03T12:28:37.527Z</time></trkpt><trkpt lat="45.8455876" lon="14.0031031"><ele>804.0</ele><time>2026-05-03T12:28:38.527Z</time></trkpt><trkpt lat="45.8455425" lon="14.0032201"><ele>804.0</ele><time>2026-05-03T12:28:39.526Z</time></trkpt><trkpt lat="45.8454979" lon="14.0033391"><ele>804.0</ele><time>2026-05-03T12:28:40.526Z</time></trkpt><trkpt lat="45.8454405" lon="14.0034524"><ele>804.0</ele><time>2026-05-03T12:28:41.526Z</time></trkpt><trkpt lat="45.845368" lon="14.0035897"><ele>804.0</ele><time>2026-05-03T12:28:42.526Z</time></trkpt><trkpt lat="45.8452663" lon="14.0037016"><ele>804.0</ele><time>2026-05-03T12:28:43.527Z</time></trkpt><trkpt lat="45.8451754" lon="14.0037894"><ele>803.8000000000001</ele><time>2026-05-03T12:28:44.526Z</time></trkpt><trkpt lat="45.8450787" lon="14.0038764"><ele>803.6</ele><time>2026-05-03T12:28:45.527Z</time></trkpt><trkpt lat="45.8450127" lon="14.0039922"><ele>803.4</ele><time>2026-05-03T12:28:46.526Z</time></trkpt><trkpt lat="45.8449389" lon="14.0040994"><ele>803.2</ele><time>2026-05-03T12:28:47.526Z</time></trkpt><trkpt lat="45.8448441" lon="14.0041777"><ele>803.0</ele><time>2026-05-03T12:28:48.526Z</time></trkpt><trkpt lat="45.8447501" lon="14.0042691"><ele>803.0</ele><time>2026-05-03T12:28:49.527Z</time></trkpt><trkpt lat="45.8446471" lon="14.0043558"><ele>803.0</ele><time>2026-05-03T12:28:50.527Z</time></trkpt><trkpt lat="45.8445581" lon="14.0044369"><ele>803.0</ele><time>2026-05-03T12:28:51.527Z</time></trkpt><trkpt lat="45.8444787" lon="14.0045167"><ele>803.0</ele><time>2026-05-03T12:28:52.527Z</time></trkpt><trkpt lat="45.8443566" lon="14.0045816"><ele>802.4</ele><time>2026-05-03T12:28:53.526Z</time></trkpt><trkpt lat="45.8442515" lon="14.0046513"><ele>801.8</ele><time>2026-05-03T12:28:54.527Z</time></trkpt><trkpt lat="45.8441443" lon="14.0046363"><ele>801.2</ele><time>2026-05-03T12:28:55.526Z</time></trkpt><trkpt lat="45.8440442" lon="14.0046065"><ele>800.6</ele><time>2026-05-03T12:28:56.527Z</time></trkpt><trkpt lat="45.8439338" lon="14.0046118"><ele>800.0</ele><time>2026-05-03T12:28:57.527Z</time></trkpt><trkpt lat="45.8438276" lon="14.0046253"><ele>800.0</ele><time>2026-05-03T12:28:58.526Z</time></trkpt><trkpt lat="45.8437215" lon="14.0046299"><ele>800.0</ele><time>2026-05-03T12:28:59.526Z</time></trkpt><trkpt lat="45.8436207" lon="14.00462"><ele>800.0</ele><time>2026-05-03T12:29:00.527Z</time></trkpt><trkpt lat="45.8435519" lon="14.0048837"><ele>800.0</ele><time>2026-05-03T12:29:01.527Z</time></trkpt><trkpt lat="45.8434694" lon="14.0050085"><ele>800.8</ele><time>2026-05-03T12:29:02.526Z</time></trkpt><trkpt lat="45.8433981" lon="14.0051533"><ele>801.6</ele><time>2026-05-03T12:29:03.527Z</time></trkpt><trkpt lat="45.8433102" lon="14.0052396"><ele>802.4000000000001</ele><time>2026-05-03T12:29:04.527Z</time></trkpt><trkpt lat="45.843225" lon="14.0053163"><ele>803.2</ele><time>2026-05-03T12:29:05.527Z</time></trkpt><trkpt lat="45.8431365" lon="14.0053474"><ele>804.0</ele><time>2026-05-03T12:29:06.527Z</time></trkpt><trkpt lat="45.8430177" lon="14.0054074"><ele>804.0</ele><time>2026-05-03T12:29:07.527Z</time></trkpt><trkpt lat="45.8429232" lon="14.0054575"><ele>804.0</ele><time>2026-05-03T12:29:08.526Z</time></trkpt><trkpt lat="45.8428764" lon="14.005581"><ele>804.0</ele><time>2026-05-03T12:29:09.527Z</time></trkpt><trkpt lat="45.842807" lon="14.0057417"><ele>804.0</ele><time>2026-05-03T12:29:10.526Z</time></trkpt><trkpt lat="45.8427179" lon="14.0058366"><ele>804.0</ele><time>2026-05-03T12:29:11.526Z</time></trkpt><trkpt lat="45.8426313" lon="14.0059214"><ele>804.4000000000001</ele><time>2026-05-03T12:29:12.527Z</time></trkpt><trkpt lat="45.8425836" lon="14.0060384"><ele>804.8</ele><time>2026-05-03T12:29:13.527Z</time></trkpt><trkpt lat="45.8425474" lon="14.0061835"><ele>805.2</ele><time>2026-05-03T12:29:14.527Z</time></trkpt><trkpt lat="45.8425146" lon="14.0063147"><ele>805.5999999999999</ele><time>2026-05-03T12:29:15.527Z</time></trkpt><trkpt lat="45.8424889" lon="14.0064672"><ele>806.0</ele><time>2026-05-03T12:29:16.526Z</time></trkpt><trkpt lat="45.8424628" lon="14.0066135"><ele>805.25</ele><time>2026-05-03T12:29:17.526Z</time></trkpt><trkpt lat="45.8424359" lon="14.0067647"><ele>804.5</ele><time>2026-05-03T12:29:18.526Z</time></trkpt><trkpt lat="45.8424216" lon="14.0069249"><ele>803.75</ele><time>2026-05-03T12:29:19.526Z</time></trkpt><trkpt lat="45.8423955" lon="14.0070875"><ele>803.0</ele><time>2026-05-03T12:29:20.526Z</time></trkpt><trkpt lat="45.8423767" lon="14.0072489"><ele>803.0</ele><time>2026-05-03T12:29:21.526Z</time></trkpt><trkpt lat="45.842341" lon="14.0074016"><ele>803.0</ele><time>2026-05-03T12:29:22.527Z</time></trkpt><trkpt lat="45.8423089" lon="14.0075498"><ele>803.0</ele><time>2026-05-03T12:29:23.526Z</time></trkpt><trkpt lat="45.8422565" lon="14.0076836"><ele>803.0</ele><time>2026-05-03T12:29:24.526Z</time></trkpt><trkpt lat="45.842199" lon="14.0077978"><ele>803.0</ele><time>2026-05-03T12:29:25.527Z</time></trkpt><trkpt lat="45.8421139" lon="14.0078796"><ele>803.0</ele><time>2026-05-03T12:29:26.527Z</time></trkpt><trkpt lat="45.8420369" lon="14.0079316"><ele>803.0</ele><time>2026-05-03T12:29:27.527Z</time></trkpt><trkpt lat="45.8419278" lon="14.0079663"><ele>803.0</ele><time>2026-05-03T12:29:28.526Z</time></trkpt><trkpt lat="45.8418465" lon="14.0079948"><ele>803.0</ele><time>2026-05-03T12:29:29.527Z</time></trkpt><trkpt lat="45.8417247" lon="14.0080539"><ele>803.0</ele><time>2026-05-03T12:29:30.527Z</time></trkpt><trkpt lat="45.8416273" lon="14.0080974"><ele>803.0</ele><time>2026-05-03T12:29:31.527Z</time></trkpt><trkpt lat="45.8415276" lon="14.0081397"><ele>803.0</ele><time>2026-05-03T12:29:32.527Z</time></trkpt><trkpt lat="45.8414247" lon="14.0081881"><ele>803.0</ele><time>2026-05-03T12:29:33.527Z</time></trkpt><trkpt lat="45.8413081" lon="14.0082432"><ele>803.0</ele><time>2026-05-03T12:29:34.526Z</time></trkpt><trkpt lat="45.8411959" lon="14.0082944"><ele>805.75</ele><time>2026-05-03T12:29:35.527Z</time></trkpt><trkpt lat="45.8410965" lon="14.0083715"><ele>808.5</ele><time>2026-05-03T12:29:36.527Z</time></trkpt><trkpt lat="45.8409853" lon="14.0084619"><ele>811.25</ele><time>2026-05-03T12:29:37.527Z</time></trkpt><trkpt lat="45.8408476" lon="14.0085043"><ele>814.0</ele><time>2026-05-03T12:29:38.526Z</time></trkpt><trkpt lat="45.8407348" lon="14.0085575"><ele>814.0</ele><time>2026-05-03T12:29:39.527Z</time></trkpt><trkpt lat="45.840625" lon="14.0086401"><ele>814.0</ele><time>2026-05-03T12:29:40.526Z</time></trkpt><trkpt lat="45.8405094" lon="14.0087033"><ele>814.0</ele><time>2026-05-03T12:29:41.527Z</time></trkpt><trkpt lat="45.8403908" lon="14.0088009"><ele>814.0</ele><time>2026-05-03T12:29:42.527Z</time></trkpt><trkpt lat="45.8402763" lon="14.0088244"><ele>814.0</ele><time>2026-05-03T12:29:43.527Z</time></trkpt><trkpt lat="45.8401688" lon="14.0088166"><ele>814.0</ele><time>2026-05-03T12:29:44.527Z</time></trkpt><trkpt lat="45.8400621" lon="14.0088042"><ele>814.0</ele><time>2026-05-03T12:29:45.527Z</time></trkpt><trkpt lat="45.8399669" lon="14.0087808"><ele>814.0</ele><time>2026-05-03T12:29:46.526Z</time></trkpt><trkpt lat="45.8398494" lon="14.008766"><ele>814.0</ele><time>2026-05-03T12:29:47.527Z</time></trkpt><trkpt lat="45.8397471" lon="14.0087891"><ele>814.8000000000001</ele><time>2026-05-03T12:29:48.527Z</time></trkpt><trkpt lat="45.8396499" lon="14.0088315"><ele>815.6</ele><time>2026-05-03T12:29:49.526Z</time></trkpt><trkpt lat="45.8395601" lon="14.0089107"><ele>816.4</ele><time>2026-05-03T12:29:50.526Z</time></trkpt><trkpt lat="45.8394692" lon="14.0090173"><ele>817.2</ele><time>2026-05-03T12:29:51.527Z</time></trkpt><trkpt lat="45.8393669" lon="14.0091154"><ele>818.0</ele><time>2026-05-03T12:29:52.526Z</time></trkpt><trkpt lat="45.8392565" lon="14.0092088"><ele>821.25</ele><time>2026-05-03T12:29:53.527Z</time></trkpt><trkpt lat="45.8391383" lon="14.009281"><ele>824.5</ele><time>2026-05-03T12:29:54.526Z</time></trkpt><trkpt lat="45.8390117" lon="14.009353"><ele>827.75</ele><time>2026-05-03T12:29:55.527Z</time></trkpt><trkpt lat="45.8388807" lon="14.0094001"><ele>831.0</ele><time>2026-05-03T12:29:56.526Z</time></trkpt><trkpt lat="45.8387479" lon="14.0094545"><ele>831.0</ele><time>2026-05-03T12:29:57.527Z</time></trkpt><trkpt lat="45.8386283" lon="14.0095195"><ele>831.0</ele><time>2026-05-03T12:29:58.527Z</time></trkpt><trkpt lat="45.8385212" lon="14.0096001"><ele>831.0</ele><time>2026-05-03T12:29:59.527Z</time></trkpt><trkpt lat="45.838399" lon="14.00966"><ele>831.0</ele><time>2026-05-03T12:30:00.527Z</time></trkpt><trkpt lat="45.83829" lon="14.0097384"><ele>831.0</ele><time>2026-05-03T12:30:01.526Z</time></trkpt><trkpt lat="45.8381675" lon="14.0097533"><ele>831.0</ele><time>2026-05-03T12:30:02.526Z</time></trkpt><trkpt lat="45.8380486" lon="14.0097682"><ele>831.0</ele><time>2026-05-03T12:30:03.527Z</time></trkpt><trkpt lat="45.837921" lon="14.0097681"><ele>831.0</ele><time>2026-05-03T12:30:04.527Z</time></trkpt><trkpt lat="45.83779" lon="14.0097868"><ele>831.0</ele><time>2026-05-03T12:30:05.526Z</time></trkpt><trkpt lat="45.8376732" lon="14.0098252"><ele>831.0</ele><time>2026-05-03T12:30:06.526Z</time></trkpt><trkpt lat="45.8375491" lon="14.0098578"><ele>831.0</ele><time>2026-05-03T12:30:07.527Z</time></trkpt><trkpt lat="45.8374202" lon="14.0098906"><ele>831.0</ele><time>2026-05-03T12:30:08.526Z</time></trkpt><trkpt lat="45.8372897" lon="14.0099344"><ele>832.0</ele><time>2026-05-03T12:30:09.527Z</time></trkpt><trkpt lat="45.8371757" lon="14.0099889"><ele>833.0</ele><time>2026-05-03T12:30:10.526Z</time></trkpt><trkpt lat="45.8370642" lon="14.0100648"><ele>834.0</ele><time>2026-05-03T12:30:11.526Z</time></trkpt><trkpt lat="45.8369425" lon="14.0101286"><ele>835.0</ele><time>2026-05-03T12:30:12.527Z</time></trkpt><trkpt lat="45.836832" lon="14.0102098"><ele>854.0</ele><time>2026-05-03T12:30:13.527Z</time></trkpt><trkpt lat="45.836717" lon="14.0102734"><ele>854.0</ele><time>2026-05-03T12:30:14.527Z</time></trkpt></trkseg></trk></gpx>